<?xml version="1.0" encoding="UTF-8" standalone="no" ?>
<gpx xmlns="http://www.topografix.com/GPX/1/1" xmlns:xsi="http://www.w3.org/2001/XMLSchema-instance" xsi:schemaLocation="http://www.topografix.com/GPX/1/1 http://www.topografix.com/GPX/1/1/gpx.xsd" version="1.1" creator="VisuGPX - https://www.visugpx.com">
  <metadata>
    <name>Rousset trajet aller-retour</name>
    <desc><![CDATA[Une belle balade avec Vincent Vincent Bruno, Gérard Jean Michel, Christian, Jeannot et son copain et moi même 
Monté quelque fois sévère descente au top reto fe midi pas top]]></desc>
  </metadata>
  <trk>
    <name><![CDATA[Rousset trajet aller-retour_1]]></name>
    <trkseg>
      <trkpt lat="44.46753" lon="6.23258">
        <ele>685.42</ele>
        <time>2024-10-24T07:15:38.968Z</time>
      </trkpt>
      <trkpt lat="44.46745" lon="6.23259">
        <ele>685.14</ele>
        <time>2024-10-24T07:15:40.569Z</time>
      </trkpt>
      <trkpt lat="44.46735" lon="6.23261">
        <ele>684.78</ele>
        <time>2024-10-24T07:15:42.968Z</time>
      </trkpt>
      <trkpt lat="44.46722" lon="6.23263">
        <ele>684.2</ele>
        <time>2024-10-24T07:15:44.589Z</time>
      </trkpt>
      <trkpt lat="44.46709" lon="6.23265">
        <ele>683.5</ele>
        <time>2024-10-24T07:15:46.968Z</time>
      </trkpt>
      <trkpt lat="44.46693" lon="6.23267">
        <ele>682.49</ele>
        <time>2024-10-24T07:15:48.968Z</time>
      </trkpt>
      <trkpt lat="44.46677" lon="6.23268">
        <ele>681.2</ele>
        <time>2024-10-24T07:15:50.967Z</time>
      </trkpt>
      <trkpt lat="44.46659" lon="6.23271">
        <ele>679.87</ele>
        <time>2024-10-24T07:15:52.970Z</time>
      </trkpt>
      <trkpt lat="44.46641" lon="6.23274">
        <ele>678</ele>
        <time>2024-10-24T07:15:55.067Z</time>
      </trkpt>
      <trkpt lat="44.46623" lon="6.23275">
        <ele>676.81</ele>
        <time>2024-10-24T07:15:57.065Z</time>
      </trkpt>
      <trkpt lat="44.46608" lon="6.23272">
        <ele>675.19</ele>
        <time>2024-10-24T07:15:58.616Z</time>
      </trkpt>
      <trkpt lat="44.46599" lon="6.23264">
        <ele>674.12</ele>
        <time>2024-10-24T07:16:01.073Z</time>
      </trkpt>
      <trkpt lat="44.46599" lon="6.23252">
        <ele>673.26</ele>
        <time>2024-10-24T07:16:02.588Z</time>
      </trkpt>
      <trkpt lat="44.46605" lon="6.23248">
        <ele>672.8</ele>
        <time>2024-10-24T07:16:05.071Z</time>
      </trkpt>
      <trkpt lat="44.46608" lon="6.23248">
        <ele>672.57</ele>
        <time>2024-10-24T07:16:06.586Z</time>
      </trkpt>
      <trkpt lat="44.46609" lon="6.23245">
        <ele>672.56</ele>
        <time>2024-10-24T07:16:08.937Z</time>
      </trkpt>
      <trkpt lat="44.46609" lon="6.23243">
        <ele>672.52</ele>
        <time>2024-10-24T07:16:11.070Z</time>
      </trkpt>
      <trkpt lat="44.4661" lon="6.23243">
        <ele>672.75</ele>
        <time>2024-10-24T07:16:19.068Z</time>
      </trkpt>
      <trkpt lat="44.46604" lon="6.23249">
        <ele>672.75</ele>
        <time>2024-10-24T07:16:22.062Z</time>
      </trkpt>
      <trkpt lat="44.466" lon="6.23254">
        <ele>672.31</ele>
        <time>2024-10-24T07:16:25.055Z</time>
      </trkpt>
      <trkpt lat="44.46596" lon="6.23259">
        <ele>672.28</ele>
        <time>2024-10-24T07:16:26.071Z</time>
      </trkpt>
      <trkpt lat="44.46592" lon="6.23262">
        <ele>672.18</ele>
        <time>2024-10-24T07:16:29.058Z</time>
      </trkpt>
      <trkpt lat="44.46587" lon="6.23258">
        <ele>672.04</ele>
        <time>2024-10-24T07:16:30.075Z</time>
      </trkpt>
      <trkpt lat="44.46581" lon="6.23252">
        <ele>671.86</ele>
        <time>2024-10-24T07:16:33.057Z</time>
      </trkpt>
      <trkpt lat="44.46572" lon="6.2325">
        <ele>671.54</ele>
        <time>2024-10-24T07:16:34.074Z</time>
      </trkpt>
      <trkpt lat="44.46564" lon="6.23248">
        <ele>671.09</ele>
        <time>2024-10-24T07:16:37.020Z</time>
      </trkpt>
      <trkpt lat="44.46553" lon="6.23247">
        <ele>670.59</ele>
        <time>2024-10-24T07:16:38.084Z</time>
      </trkpt>
      <trkpt lat="44.46544" lon="6.23248">
        <ele>670.12</ele>
        <time>2024-10-24T07:16:40.105Z</time>
      </trkpt>
      <trkpt lat="44.46535" lon="6.23249">
        <ele>669.77</ele>
        <time>2024-10-24T07:16:42.092Z</time>
      </trkpt>
      <trkpt lat="44.46531" lon="6.23249">
        <ele>669.36</ele>
        <time>2024-10-24T07:16:44.086Z</time>
      </trkpt>
      <trkpt lat="44.46527" lon="6.23252">
        <ele>669.13</ele>
        <time>2024-10-24T07:16:47.021Z</time>
      </trkpt>
      <trkpt lat="44.46526" lon="6.23254">
        <ele>668.93</ele>
        <time>2024-10-24T07:16:49.058Z</time>
      </trkpt>
      <trkpt lat="44.46527" lon="6.23255">
        <ele>668.53</ele>
        <time>2024-10-24T07:17:07.738Z</time>
      </trkpt>
      <trkpt lat="44.46529" lon="6.23264">
        <ele>667.98</ele>
        <time>2024-10-24T07:17:11.275Z</time>
      </trkpt>
      <trkpt lat="44.46529" lon="6.23275">
        <ele>668.03</ele>
        <time>2024-10-24T07:17:13.276Z</time>
      </trkpt>
      <trkpt lat="44.46529" lon="6.23287">
        <ele>667.88</ele>
        <time>2024-10-24T07:17:15.273Z</time>
      </trkpt>
      <trkpt lat="44.46531" lon="6.233">
        <ele>667.57</ele>
        <time>2024-10-24T07:17:17.275Z</time>
      </trkpt>
      <trkpt lat="44.46533" lon="6.23314">
        <ele>667.12</ele>
        <time>2024-10-24T07:17:19.275Z</time>
      </trkpt>
      <trkpt lat="44.46535" lon="6.23328">
        <ele>666.68</ele>
        <time>2024-10-24T07:17:21.276Z</time>
      </trkpt>
      <trkpt lat="44.46534" lon="6.23342">
        <ele>666.5</ele>
        <time>2024-10-24T07:17:23.275Z</time>
      </trkpt>
      <trkpt lat="44.46531" lon="6.23355">
        <ele>666.06</ele>
        <time>2024-10-24T07:17:25.375Z</time>
      </trkpt>
      <trkpt lat="44.46527" lon="6.23369">
        <ele>665.59</ele>
        <time>2024-10-24T07:17:26.962Z</time>
      </trkpt>
      <trkpt lat="44.46524" lon="6.23382">
        <ele>665.16</ele>
        <time>2024-10-24T07:17:28.986Z</time>
      </trkpt>
      <trkpt lat="44.46522" lon="6.23392">
        <ele>664.77</ele>
        <time>2024-10-24T07:17:30.959Z</time>
      </trkpt>
      <trkpt lat="44.46519" lon="6.23398">
        <ele>664.51</ele>
        <time>2024-10-24T07:17:32.934Z</time>
      </trkpt>
      <trkpt lat="44.46518" lon="6.23403">
        <ele>664.23</ele>
        <time>2024-10-24T07:17:34.961Z</time>
      </trkpt>
      <trkpt lat="44.46516" lon="6.23406">
        <ele>664.09</ele>
        <time>2024-10-24T07:17:36.942Z</time>
      </trkpt>
      <trkpt lat="44.46513" lon="6.23406">
        <ele>663.94</ele>
        <time>2024-10-24T07:17:38.941Z</time>
      </trkpt>
      <trkpt lat="44.4651" lon="6.23403">
        <ele>663.98</ele>
        <time>2024-10-24T07:17:41.236Z</time>
      </trkpt>
      <trkpt lat="44.46506" lon="6.23405">
        <ele>664.03</ele>
        <time>2024-10-24T07:17:43.228Z</time>
      </trkpt>
      <trkpt lat="44.46501" lon="6.23408">
        <ele>664.09</ele>
        <time>2024-10-24T07:17:45.374Z</time>
      </trkpt>
      <trkpt lat="44.46497" lon="6.23408">
        <ele>663.76</ele>
        <time>2024-10-24T07:17:47.387Z</time>
      </trkpt>
      <trkpt lat="44.46493" lon="6.23407">
        <ele>663.98</ele>
        <time>2024-10-24T07:17:49.374Z</time>
      </trkpt>
      <trkpt lat="44.46491" lon="6.23405">
        <ele>664.01</ele>
        <time>2024-10-24T07:17:50.951Z</time>
      </trkpt>
      <trkpt lat="44.46492" lon="6.23402">
        <ele>664.08</ele>
        <time>2024-10-24T07:17:52.958Z</time>
      </trkpt>
      <trkpt lat="44.46494" lon="6.23401">
        <ele>664.13</ele>
        <time>2024-10-24T07:17:55.373Z</time>
      </trkpt>
      <trkpt lat="44.46494" lon="6.23396">
        <ele>664.15</ele>
        <time>2024-10-24T07:17:59.886Z</time>
      </trkpt>
      <trkpt lat="44.46494" lon="6.23397">
        <ele>664.15</ele>
        <time>2024-10-24T07:18:17.917Z</time>
      </trkpt>
      <trkpt lat="44.46495" lon="6.23397">
        <ele>663.97</ele>
        <time>2024-10-24T07:18:38.744Z</time>
      </trkpt>
      <trkpt lat="44.46498" lon="6.23396">
        <ele>664.34</ele>
        <time>2024-10-24T07:18:40.622Z</time>
      </trkpt>
      <trkpt lat="44.46503" lon="6.23397">
        <ele>664.21</ele>
        <time>2024-10-24T07:18:42.006Z</time>
      </trkpt>
      <trkpt lat="44.46506" lon="6.23396">
        <ele>664.2</ele>
        <time>2024-10-24T07:18:43.757Z</time>
      </trkpt>
      <trkpt lat="44.46514" lon="6.23393">
        <ele>664.2</ele>
        <time>2024-10-24T07:18:45.757Z</time>
      </trkpt>
      <trkpt lat="44.46521" lon="6.23389">
        <ele>664.27</ele>
        <time>2024-10-24T07:18:47.758Z</time>
      </trkpt>
      <trkpt lat="44.46527" lon="6.23379">
        <ele>664.34</ele>
        <time>2024-10-24T07:18:49.779Z</time>
      </trkpt>
      <trkpt lat="44.46527" lon="6.23367">
        <ele>664.44</ele>
        <time>2024-10-24T07:18:51.768Z</time>
      </trkpt>
      <trkpt lat="44.46527" lon="6.23353">
        <ele>664.03</ele>
        <time>2024-10-24T07:18:53.768Z</time>
      </trkpt>
      <trkpt lat="44.46526" lon="6.23339">
        <ele>664.66</ele>
        <time>2024-10-24T07:18:55.771Z</time>
      </trkpt>
      <trkpt lat="44.46524" lon="6.23325">
        <ele>664.6</ele>
        <time>2024-10-24T07:18:57.680Z</time>
      </trkpt>
      <trkpt lat="44.46521" lon="6.23311">
        <ele>665.99</ele>
        <time>2024-10-24T07:18:58.780Z</time>
      </trkpt>
      <trkpt lat="44.46518" lon="6.23296">
        <ele>665.78</ele>
        <time>2024-10-24T07:19:01.682Z</time>
      </trkpt>
      <trkpt lat="44.46518" lon="6.23283">
        <ele>666.18</ele>
        <time>2024-10-24T07:19:04.781Z</time>
      </trkpt>
      <trkpt lat="44.46519" lon="6.23273">
        <ele>666.48</ele>
        <time>2024-10-24T07:19:05.355Z</time>
      </trkpt>
      <trkpt lat="44.46518" lon="6.23263">
        <ele>666.68</ele>
        <time>2024-10-24T07:19:07.766Z</time>
      </trkpt>
      <trkpt lat="44.46518" lon="6.23252">
        <ele>666.62</ele>
        <time>2024-10-24T07:19:09.354Z</time>
      </trkpt>
      <trkpt lat="44.46517" lon="6.23241">
        <ele>667.68</ele>
        <time>2024-10-24T07:19:11.404Z</time>
      </trkpt>
      <trkpt lat="44.46515" lon="6.23229">
        <ele>668.64</ele>
        <time>2024-10-24T07:19:13.386Z</time>
      </trkpt>
      <trkpt lat="44.46513" lon="6.23216">
        <ele>668.71</ele>
        <time>2024-10-24T07:19:15.408Z</time>
      </trkpt>
      <trkpt lat="44.46513" lon="6.23203">
        <ele>668.68</ele>
        <time>2024-10-24T07:19:17.341Z</time>
      </trkpt>
      <trkpt lat="44.46511" lon="6.2319">
        <ele>668.03</ele>
        <time>2024-10-24T07:19:19.371Z</time>
      </trkpt>
      <trkpt lat="44.46509" lon="6.23176">
        <ele>668.25</ele>
        <time>2024-10-24T07:19:21.397Z</time>
      </trkpt>
      <trkpt lat="44.46508" lon="6.23162">
        <ele>668.23</ele>
        <time>2024-10-24T07:19:23.403Z</time>
      </trkpt>
      <trkpt lat="44.46507" lon="6.23148">
        <ele>668.24</ele>
        <time>2024-10-24T07:19:25.375Z</time>
      </trkpt>
      <trkpt lat="44.46507" lon="6.23134">
        <ele>668.28</ele>
        <time>2024-10-24T07:19:27.408Z</time>
      </trkpt>
      <trkpt lat="44.46508" lon="6.23121">
        <ele>668.2</ele>
        <time>2024-10-24T07:19:29.422Z</time>
      </trkpt>
      <trkpt lat="44.46509" lon="6.23109">
        <ele>668.01</ele>
        <time>2024-10-24T07:19:31.420Z</time>
      </trkpt>
      <trkpt lat="44.46509" lon="6.231">
        <ele>667.86</ele>
        <time>2024-10-24T07:19:33.436Z</time>
      </trkpt>
      <trkpt lat="44.46508" lon="6.23093">
        <ele>667.73</ele>
        <time>2024-10-24T07:19:35.781Z</time>
      </trkpt>
      <trkpt lat="44.46508" lon="6.23089">
        <ele>667.65</ele>
        <time>2024-10-24T07:19:37.771Z</time>
      </trkpt>
      <trkpt lat="44.46505" lon="6.23104">
        <ele>667.58</ele>
        <time>2024-10-24T07:21:56.891Z</time>
      </trkpt>
      <trkpt lat="44.46502" lon="6.23097">
        <ele>667.55</ele>
        <time>2024-10-24T07:22:02.448Z</time>
      </trkpt>
      <trkpt lat="44.46502" lon="6.23106">
        <ele>667.33</ele>
        <time>2024-10-24T07:22:05.439Z</time>
      </trkpt>
      <trkpt lat="44.46504" lon="6.23117">
        <ele>667.24</ele>
        <time>2024-10-24T07:22:06.450Z</time>
      </trkpt>
      <trkpt lat="44.46506" lon="6.23129">
        <ele>666.52</ele>
        <time>2024-10-24T07:22:09.362Z</time>
      </trkpt>
      <trkpt lat="44.46507" lon="6.2314">
        <ele>666.36</ele>
        <time>2024-10-24T07:22:10.452Z</time>
      </trkpt>
      <trkpt lat="44.46508" lon="6.2315">
        <ele>666.64</ele>
        <time>2024-10-24T07:22:13.445Z</time>
      </trkpt>
      <trkpt lat="44.46509" lon="6.2316">
        <ele>666.1</ele>
        <time>2024-10-24T07:22:14.466Z</time>
      </trkpt>
      <trkpt lat="44.4651" lon="6.2317">
        <ele>666.44</ele>
        <time>2024-10-24T07:22:16.468Z</time>
      </trkpt>
      <trkpt lat="44.4651" lon="6.23182">
        <ele>667.69</ele>
        <time>2024-10-24T07:22:18.461Z</time>
      </trkpt>
      <trkpt lat="44.46511" lon="6.23194">
        <ele>667.64</ele>
        <time>2024-10-24T07:22:20.456Z</time>
      </trkpt>
      <trkpt lat="44.46513" lon="6.23206">
        <ele>667.95</ele>
        <time>2024-10-24T07:22:23.362Z</time>
      </trkpt>
      <trkpt lat="44.46513" lon="6.2322">
        <ele>668.43</ele>
        <time>2024-10-24T07:22:25.444Z</time>
      </trkpt>
      <trkpt lat="44.46516" lon="6.23232">
        <ele>668.14</ele>
        <time>2024-10-24T07:22:27.362Z</time>
      </trkpt>
      <trkpt lat="44.46517" lon="6.23244">
        <ele>667.98</ele>
        <time>2024-10-24T07:22:29.431Z</time>
      </trkpt>
      <trkpt lat="44.46518" lon="6.23258">
        <ele>668.01</ele>
        <time>2024-10-24T07:22:30.998Z</time>
      </trkpt>
      <trkpt lat="44.46518" lon="6.23272">
        <ele>667.98</ele>
        <time>2024-10-24T07:22:33.020Z</time>
      </trkpt>
      <trkpt lat="44.46519" lon="6.23286">
        <ele>667.84</ele>
        <time>2024-10-24T07:22:34.658Z</time>
      </trkpt>
      <trkpt lat="44.4652" lon="6.23304">
        <ele>667.26</ele>
        <time>2024-10-24T07:22:37.018Z</time>
      </trkpt>
      <trkpt lat="44.46524" lon="6.23323">
        <ele>666.56</ele>
        <time>2024-10-24T07:22:39.028Z</time>
      </trkpt>
      <trkpt lat="44.46527" lon="6.23341">
        <ele>665.87</ele>
        <time>2024-10-24T07:22:41.051Z</time>
      </trkpt>
      <trkpt lat="44.46527" lon="6.23359">
        <ele>665.42</ele>
        <time>2024-10-24T07:22:43.033Z</time>
      </trkpt>
      <trkpt lat="44.46526" lon="6.23374">
        <ele>664.98</ele>
        <time>2024-10-24T07:22:45.011Z</time>
      </trkpt>
      <trkpt lat="44.46524" lon="6.23384">
        <ele>664.7</ele>
        <time>2024-10-24T07:22:47.080Z</time>
      </trkpt>
      <trkpt lat="44.46522" lon="6.23389">
        <ele>664.51</ele>
        <time>2024-10-24T07:22:49.062Z</time>
      </trkpt>
      <trkpt lat="44.46519" lon="6.23393">
        <ele>664.37</ele>
        <time>2024-10-24T07:22:51.078Z</time>
      </trkpt>
      <trkpt lat="44.46517" lon="6.23395">
        <ele>664.22</ele>
        <time>2024-10-24T07:22:53.467Z</time>
      </trkpt>
      <trkpt lat="44.46515" lon="6.23397">
        <ele>663.65</ele>
        <time>2024-10-24T07:24:35.844Z</time>
      </trkpt>
      <trkpt lat="44.46507" lon="6.23402">
        <ele>663.54</ele>
        <time>2024-10-24T07:24:36.848Z</time>
      </trkpt>
      <trkpt lat="44.46502" lon="6.23402">
        <ele>663.41</ele>
        <time>2024-10-24T07:24:39.844Z</time>
      </trkpt>
      <trkpt lat="44.46499" lon="6.23401">
        <ele>663.41</ele>
        <time>2024-10-24T07:24:40.851Z</time>
      </trkpt>
      <trkpt lat="44.46498" lon="6.23399">
        <ele>663.42</ele>
        <time>2024-10-24T07:24:42.873Z</time>
      </trkpt>
      <trkpt lat="44.46496" lon="6.23405">
        <ele>663.35</ele>
        <time>2024-10-24T07:30:10.552Z</time>
      </trkpt>
      <trkpt lat="44.46498" lon="6.23399">
        <ele>663.35</ele>
        <time>2024-10-24T07:30:11.840Z</time>
      </trkpt>
      <trkpt lat="44.46496" lon="6.23405">
        <ele>663.35</ele>
        <time>2024-10-24T07:30:12.451Z</time>
      </trkpt>
      <trkpt lat="44.46499" lon="6.23399">
        <ele>662.46</ele>
        <time>2024-10-24T07:32:05.082Z</time>
      </trkpt>
      <trkpt lat="44.46501" lon="6.23399">
        <ele>662.56</ele>
        <time>2024-10-24T07:32:33.305Z</time>
      </trkpt>
      <trkpt lat="44.46504" lon="6.23403">
        <ele>662.39</ele>
        <time>2024-10-24T07:32:56.745Z</time>
      </trkpt>
      <trkpt lat="44.46508" lon="6.23401">
        <ele>661.52</ele>
        <time>2024-10-24T07:32:58.764Z</time>
      </trkpt>
      <trkpt lat="44.46503" lon="6.23401">
        <ele>661.44</ele>
        <time>2024-10-24T07:33:00.708Z</time>
      </trkpt>
      <trkpt lat="44.46503" lon="6.23402">
        <ele>661.37</ele>
        <time>2024-10-24T07:33:02.735Z</time>
      </trkpt>
      <trkpt lat="44.46503" lon="6.23401">
        <ele>661.25</ele>
        <time>2024-10-24T07:33:04.709Z</time>
      </trkpt>
      <trkpt lat="44.46504" lon="6.23402">
        <ele>661.18</ele>
        <time>2024-10-24T07:33:08.710Z</time>
      </trkpt>
      <trkpt lat="44.46505" lon="6.23402">
        <ele>661.3</ele>
        <time>2024-10-24T07:33:10.710Z</time>
      </trkpt>
      <trkpt lat="44.46508" lon="6.23403">
        <ele>661.54</ele>
        <time>2024-10-24T07:33:24.302Z</time>
      </trkpt>
      <trkpt lat="44.4651" lon="6.23402">
        <ele>661.33</ele>
        <time>2024-10-24T07:33:27.317Z</time>
      </trkpt>
      <trkpt lat="44.46518" lon="6.23397">
        <ele>661.48</ele>
        <time>2024-10-24T07:33:31.243Z</time>
      </trkpt>
      <trkpt lat="44.4652" lon="6.23392">
        <ele>661.9</ele>
        <time>2024-10-24T07:33:33.297Z</time>
      </trkpt>
      <trkpt lat="44.46523" lon="6.23389">
        <ele>661.91</ele>
        <time>2024-10-24T07:33:34.320Z</time>
      </trkpt>
      <trkpt lat="44.46524" lon="6.23386">
        <ele>661.97</ele>
        <time>2024-10-24T07:33:37.302Z</time>
      </trkpt>
      <trkpt lat="44.46526" lon="6.23381">
        <ele>661.99</ele>
        <time>2024-10-24T07:33:38.328Z</time>
      </trkpt>
      <trkpt lat="44.46525" lon="6.23374">
        <ele>662</ele>
        <time>2024-10-24T07:33:41.244Z</time>
      </trkpt>
      <trkpt lat="44.46525" lon="6.23368">
        <ele>662.11</ele>
        <time>2024-10-24T07:33:42.331Z</time>
      </trkpt>
      <trkpt lat="44.46525" lon="6.23361">
        <ele>662.22</ele>
        <time>2024-10-24T07:33:44.328Z</time>
      </trkpt>
      <trkpt lat="44.46526" lon="6.23354">
        <ele>662.5</ele>
        <time>2024-10-24T07:33:47.305Z</time>
      </trkpt>
      <trkpt lat="44.46527" lon="6.23347">
        <ele>662.8</ele>
        <time>2024-10-24T07:33:49.298Z</time>
      </trkpt>
      <trkpt lat="44.46527" lon="6.23339">
        <ele>662.64</ele>
        <time>2024-10-24T07:33:51.324Z</time>
      </trkpt>
      <trkpt lat="44.46526" lon="6.23332">
        <ele>662.74</ele>
        <time>2024-10-24T07:33:53.332Z</time>
      </trkpt>
      <trkpt lat="44.46523" lon="6.23325">
        <ele>662.92</ele>
        <time>2024-10-24T07:33:54.339Z</time>
      </trkpt>
      <trkpt lat="44.46521" lon="6.23318">
        <ele>663.63</ele>
        <time>2024-10-24T07:33:57.246Z</time>
      </trkpt>
      <trkpt lat="44.4652" lon="6.23311">
        <ele>663.67</ele>
        <time>2024-10-24T07:33:59.333Z</time>
      </trkpt>
      <trkpt lat="44.46516" lon="6.23305">
        <ele>663.67</ele>
        <time>2024-10-24T07:34:00.338Z</time>
      </trkpt>
      <trkpt lat="44.46513" lon="6.23299">
        <ele>663.31</ele>
        <time>2024-10-24T07:34:03.318Z</time>
      </trkpt>
      <trkpt lat="44.4651" lon="6.23291">
        <ele>663.53</ele>
        <time>2024-10-24T07:34:05.244Z</time>
      </trkpt>
      <trkpt lat="44.46508" lon="6.23288">
        <ele>662.95</ele>
        <time>2024-10-24T07:34:07.245Z</time>
      </trkpt>
      <trkpt lat="44.46506" lon="6.23279">
        <ele>663.15</ele>
        <time>2024-10-24T07:34:09.246Z</time>
      </trkpt>
      <trkpt lat="44.46503" lon="6.2327">
        <ele>663.62</ele>
        <time>2024-10-24T07:34:11.343Z</time>
      </trkpt>
      <trkpt lat="44.46502" lon="6.23263">
        <ele>663.79</ele>
        <time>2024-10-24T07:34:13.343Z</time>
      </trkpt>
      <trkpt lat="44.465" lon="6.23255">
        <ele>663.86</ele>
        <time>2024-10-24T07:34:15.305Z</time>
      </trkpt>
      <trkpt lat="44.46498" lon="6.23247">
        <ele>664.06</ele>
        <time>2024-10-24T07:34:16.350Z</time>
      </trkpt>
      <trkpt lat="44.46496" lon="6.2324">
        <ele>664.13</ele>
        <time>2024-10-24T07:34:19.343Z</time>
      </trkpt>
      <trkpt lat="44.46495" lon="6.23233">
        <ele>664.76</ele>
        <time>2024-10-24T07:34:21.345Z</time>
      </trkpt>
      <trkpt lat="44.46494" lon="6.23226">
        <ele>664.49</ele>
        <time>2024-10-24T07:34:23.345Z</time>
      </trkpt>
      <trkpt lat="44.46494" lon="6.23218">
        <ele>665.68</ele>
        <time>2024-10-24T07:34:25.343Z</time>
      </trkpt>
      <trkpt lat="44.46494" lon="6.23209">
        <ele>665.2</ele>
        <time>2024-10-24T07:34:27.343Z</time>
      </trkpt>
      <trkpt lat="44.46493" lon="6.232">
        <ele>665.3</ele>
        <time>2024-10-24T07:34:29.233Z</time>
      </trkpt>
      <trkpt lat="44.46494" lon="6.23191">
        <ele>665.16</ele>
        <time>2024-10-24T07:34:30.942Z</time>
      </trkpt>
      <trkpt lat="44.46493" lon="6.23185">
        <ele>665.42</ele>
        <time>2024-10-24T07:34:33.344Z</time>
      </trkpt>
      <trkpt lat="44.46492" lon="6.23179">
        <ele>665.41</ele>
        <time>2024-10-24T07:34:34.960Z</time>
      </trkpt>
      <trkpt lat="44.4649" lon="6.23178">
        <ele>665.5</ele>
        <time>2024-10-24T07:34:39.344Z</time>
      </trkpt>
      <trkpt lat="44.46484" lon="6.23181">
        <ele>665.24</ele>
        <time>2024-10-24T07:34:43.015Z</time>
      </trkpt>
      <trkpt lat="44.4648" lon="6.23181">
        <ele>665.54</ele>
        <time>2024-10-24T07:34:43.951Z</time>
      </trkpt>
      <trkpt lat="44.46467" lon="6.23178">
        <ele>665.58</ele>
        <time>2024-10-24T07:34:45.949Z</time>
      </trkpt>
      <trkpt lat="44.46456" lon="6.23175">
        <ele>665.5</ele>
        <time>2024-10-24T07:34:47.039Z</time>
      </trkpt>
      <trkpt lat="44.46445" lon="6.23167">
        <ele>665.27</ele>
        <time>2024-10-24T07:34:49.951Z</time>
      </trkpt>
      <trkpt lat="44.46435" lon="6.23156">
        <ele>664.99</ele>
        <time>2024-10-24T07:34:51.044Z</time>
      </trkpt>
      <trkpt lat="44.46429" lon="6.23142">
        <ele>664.62</ele>
        <time>2024-10-24T07:34:53.950Z</time>
      </trkpt>
      <trkpt lat="44.46423" lon="6.23128">
        <ele>663.98</ele>
        <time>2024-10-24T07:34:55.550Z</time>
      </trkpt>
      <trkpt lat="44.4641" lon="6.23124">
        <ele>663.33</ele>
        <time>2024-10-24T07:34:57.041Z</time>
      </trkpt>
      <trkpt lat="44.46399" lon="6.23129">
        <ele>662.92</ele>
        <time>2024-10-24T07:34:59.592Z</time>
      </trkpt>
      <trkpt lat="44.46391" lon="6.23133">
        <ele>662.28</ele>
        <time>2024-10-24T07:35:02.035Z</time>
      </trkpt>
      <trkpt lat="44.46384" lon="6.23133">
        <ele>661.37</ele>
        <time>2024-10-24T07:35:03.950Z</time>
      </trkpt>
      <trkpt lat="44.46378" lon="6.23133">
        <ele>660.42</ele>
        <time>2024-10-24T07:35:06.011Z</time>
      </trkpt>
      <trkpt lat="44.46373" lon="6.2313">
        <ele>659.85</ele>
        <time>2024-10-24T07:35:07.950Z</time>
      </trkpt>
      <trkpt lat="44.4637" lon="6.23121">
        <ele>659.03</ele>
        <time>2024-10-24T07:35:10.049Z</time>
      </trkpt>
      <trkpt lat="44.4637" lon="6.23109">
        <ele>658.53</ele>
        <time>2024-10-24T07:35:11.583Z</time>
      </trkpt>
      <trkpt lat="44.46369" lon="6.23098">
        <ele>657.93</ele>
        <time>2024-10-24T07:35:14.053Z</time>
      </trkpt>
      <trkpt lat="44.46368" lon="6.23086">
        <ele>657.6</ele>
        <time>2024-10-24T07:35:15.834Z</time>
      </trkpt>
      <trkpt lat="44.46368" lon="6.23077">
        <ele>657.3</ele>
        <time>2024-10-24T07:35:17.520Z</time>
      </trkpt>
      <trkpt lat="44.46367" lon="6.23065">
        <ele>657.17</ele>
        <time>2024-10-24T07:35:19.598Z</time>
      </trkpt>
      <trkpt lat="44.46364" lon="6.23055">
        <ele>656.94</ele>
        <time>2024-10-24T07:35:21.572Z</time>
      </trkpt>
      <trkpt lat="44.46362" lon="6.23045">
        <ele>656.41</ele>
        <time>2024-10-24T07:35:23.591Z</time>
      </trkpt>
      <trkpt lat="44.4636" lon="6.23035">
        <ele>656.07</ele>
        <time>2024-10-24T07:35:25.621Z</time>
      </trkpt>
      <trkpt lat="44.4636" lon="6.23024">
        <ele>655.98</ele>
        <time>2024-10-24T07:35:28.038Z</time>
      </trkpt>
      <trkpt lat="44.46358" lon="6.23015">
        <ele>655.9</ele>
        <time>2024-10-24T07:35:29.606Z</time>
      </trkpt>
      <trkpt lat="44.46357" lon="6.23005">
        <ele>655.51</ele>
        <time>2024-10-24T07:35:32.061Z</time>
      </trkpt>
      <trkpt lat="44.46355" lon="6.22994">
        <ele>655.28</ele>
        <time>2024-10-24T07:35:33.603Z</time>
      </trkpt>
      <trkpt lat="44.46352" lon="6.22984">
        <ele>654.62</ele>
        <time>2024-10-24T07:35:36.048Z</time>
      </trkpt>
      <trkpt lat="44.4635" lon="6.22974">
        <ele>654.15</ele>
        <time>2024-10-24T07:35:37.943Z</time>
      </trkpt>
      <trkpt lat="44.46347" lon="6.22966">
        <ele>654.03</ele>
        <time>2024-10-24T07:35:39.654Z</time>
      </trkpt>
      <trkpt lat="44.46344" lon="6.22958">
        <ele>653.89</ele>
        <time>2024-10-24T07:35:42.049Z</time>
      </trkpt>
      <trkpt lat="44.46341" lon="6.22951">
        <ele>653.86</ele>
        <time>2024-10-24T07:35:43.808Z</time>
      </trkpt>
      <trkpt lat="44.46339" lon="6.22943">
        <ele>653.85</ele>
        <time>2024-10-24T07:35:46.048Z</time>
      </trkpt>
      <trkpt lat="44.4634" lon="6.22935">
        <ele>653.88</ele>
        <time>2024-10-24T07:35:48.049Z</time>
      </trkpt>
      <trkpt lat="44.46342" lon="6.22927">
        <ele>653.9</ele>
        <time>2024-10-24T07:35:50.050Z</time>
      </trkpt>
      <trkpt lat="44.4634" lon="6.22918">
        <ele>653.92</ele>
        <time>2024-10-24T07:35:51.898Z</time>
      </trkpt>
      <trkpt lat="44.46337" lon="6.22909">
        <ele>653.93</ele>
        <time>2024-10-24T07:35:54.035Z</time>
      </trkpt>
      <trkpt lat="44.46336" lon="6.229">
        <ele>653.95</ele>
        <time>2024-10-24T07:35:56.049Z</time>
      </trkpt>
      <trkpt lat="44.46335" lon="6.2289">
        <ele>653.98</ele>
        <time>2024-10-24T07:35:58.048Z</time>
      </trkpt>
      <trkpt lat="44.46334" lon="6.22881">
        <ele>654.01</ele>
        <time>2024-10-24T07:36:00.048Z</time>
      </trkpt>
      <trkpt lat="44.46332" lon="6.2287">
        <ele>654.04</ele>
        <time>2024-10-24T07:36:02.050Z</time>
      </trkpt>
      <trkpt lat="44.4633" lon="6.22859">
        <ele>654.02</ele>
        <time>2024-10-24T07:36:04.050Z</time>
      </trkpt>
      <trkpt lat="44.46328" lon="6.22849">
        <ele>654.04</ele>
        <time>2024-10-24T07:36:06.049Z</time>
      </trkpt>
      <trkpt lat="44.46327" lon="6.22839">
        <ele>654.02</ele>
        <time>2024-10-24T07:36:07.130Z</time>
      </trkpt>
      <trkpt lat="44.46325" lon="6.22829">
        <ele>654.04</ele>
        <time>2024-10-24T07:36:09.939Z</time>
      </trkpt>
      <trkpt lat="44.46323" lon="6.22818">
        <ele>654.07</ele>
        <time>2024-10-24T07:36:12.016Z</time>
      </trkpt>
      <trkpt lat="44.46322" lon="6.22808">
        <ele>654.03</ele>
        <time>2024-10-24T07:36:14.049Z</time>
      </trkpt>
      <trkpt lat="44.4632" lon="6.22798">
        <ele>653.95</ele>
        <time>2024-10-24T07:36:16.049Z</time>
      </trkpt>
      <trkpt lat="44.46318" lon="6.22788">
        <ele>654.16</ele>
        <time>2024-10-24T07:36:18.049Z</time>
      </trkpt>
      <trkpt lat="44.46315" lon="6.22778">
        <ele>654.28</ele>
        <time>2024-10-24T07:36:20.049Z</time>
      </trkpt>
      <trkpt lat="44.46314" lon="6.22769">
        <ele>654.34</ele>
        <time>2024-10-24T07:36:22.050Z</time>
      </trkpt>
      <trkpt lat="44.46312" lon="6.2276">
        <ele>654.31</ele>
        <time>2024-10-24T07:36:23.678Z</time>
      </trkpt>
      <trkpt lat="44.46311" lon="6.22752">
        <ele>654.2</ele>
        <time>2024-10-24T07:36:26.048Z</time>
      </trkpt>
      <trkpt lat="44.46309" lon="6.22744">
        <ele>654.2</ele>
        <time>2024-10-24T07:36:28.048Z</time>
      </trkpt>
      <trkpt lat="44.46308" lon="6.22736">
        <ele>654.26</ele>
        <time>2024-10-24T07:36:30.050Z</time>
      </trkpt>
      <trkpt lat="44.46307" lon="6.22729">
        <ele>654.16</ele>
        <time>2024-10-24T07:36:32.050Z</time>
      </trkpt>
      <trkpt lat="44.46305" lon="6.2272">
        <ele>654.12</ele>
        <time>2024-10-24T07:36:33.661Z</time>
      </trkpt>
      <trkpt lat="44.46303" lon="6.22712">
        <ele>654</ele>
        <time>2024-10-24T07:36:35.646Z</time>
      </trkpt>
      <trkpt lat="44.46301" lon="6.22704">
        <ele>654.03</ele>
        <time>2024-10-24T07:36:38.049Z</time>
      </trkpt>
      <trkpt lat="44.46299" lon="6.22696">
        <ele>654.07</ele>
        <time>2024-10-24T07:36:40.049Z</time>
      </trkpt>
      <trkpt lat="44.46296" lon="6.22689">
        <ele>653.9</ele>
        <time>2024-10-24T07:36:42.049Z</time>
      </trkpt>
      <trkpt lat="44.46292" lon="6.22683">
        <ele>653.93</ele>
        <time>2024-10-24T07:36:44.049Z</time>
      </trkpt>
      <trkpt lat="44.46289" lon="6.2268">
        <ele>653.75</ele>
        <time>2024-10-24T07:36:46.149Z</time>
      </trkpt>
      <trkpt lat="44.46304" lon="6.22662">
        <ele>654.35</ele>
        <time>2024-10-24T07:37:12.104Z</time>
      </trkpt>
      <trkpt lat="44.46301" lon="6.22662">
        <ele>654.39</ele>
        <time>2024-10-24T07:37:13.162Z</time>
      </trkpt>
      <trkpt lat="44.46296" lon="6.22664">
        <ele>654.39</ele>
        <time>2024-10-24T07:37:15.122Z</time>
      </trkpt>
      <trkpt lat="44.46293" lon="6.22664">
        <ele>654.58</ele>
        <time>2024-10-24T07:37:17.086Z</time>
      </trkpt>
      <trkpt lat="44.46287" lon="6.2266">
        <ele>654.49</ele>
        <time>2024-10-24T07:37:18.792Z</time>
      </trkpt>
      <trkpt lat="44.46282" lon="6.22653">
        <ele>654.45</ele>
        <time>2024-10-24T07:37:21.104Z</time>
      </trkpt>
      <trkpt lat="44.46278" lon="6.22645">
        <ele>654.44</ele>
        <time>2024-10-24T07:37:23.106Z</time>
      </trkpt>
      <trkpt lat="44.46273" lon="6.22638">
        <ele>654.26</ele>
        <time>2024-10-24T07:37:25.105Z</time>
      </trkpt>
      <trkpt lat="44.46268" lon="6.2263">
        <ele>654.14</ele>
        <time>2024-10-24T07:37:26.673Z</time>
      </trkpt>
      <trkpt lat="44.46264" lon="6.22623">
        <ele>654.19</ele>
        <time>2024-10-24T07:37:29.105Z</time>
      </trkpt>
      <trkpt lat="44.46259" lon="6.22617">
        <ele>654.14</ele>
        <time>2024-10-24T07:37:31.105Z</time>
      </trkpt>
      <trkpt lat="44.46255" lon="6.2261">
        <ele>653.82</ele>
        <time>2024-10-24T07:37:33.106Z</time>
      </trkpt>
      <trkpt lat="44.46251" lon="6.22603">
        <ele>653.75</ele>
        <time>2024-10-24T07:37:35.150Z</time>
      </trkpt>
      <trkpt lat="44.46247" lon="6.22597">
        <ele>653.71</ele>
        <time>2024-10-24T07:37:37.104Z</time>
      </trkpt>
      <trkpt lat="44.46243" lon="6.22589">
        <ele>653.91</ele>
        <time>2024-10-24T07:37:39.104Z</time>
      </trkpt>
      <trkpt lat="44.46238" lon="6.22582">
        <ele>654.17</ele>
        <time>2024-10-24T07:37:41.105Z</time>
      </trkpt>
      <trkpt lat="44.46234" lon="6.22574">
        <ele>654.05</ele>
        <time>2024-10-24T07:37:42.698Z</time>
      </trkpt>
      <trkpt lat="44.46229" lon="6.22566">
        <ele>653.82</ele>
        <time>2024-10-24T07:37:45.106Z</time>
      </trkpt>
      <trkpt lat="44.46225" lon="6.22558">
        <ele>653.53</ele>
        <time>2024-10-24T07:37:46.967Z</time>
      </trkpt>
      <trkpt lat="44.4622" lon="6.2255">
        <ele>653.4</ele>
        <time>2024-10-24T07:37:49.105Z</time>
      </trkpt>
      <trkpt lat="44.46215" lon="6.22542">
        <ele>653.34</ele>
        <time>2024-10-24T07:37:51.104Z</time>
      </trkpt>
      <trkpt lat="44.4621" lon="6.22534">
        <ele>653.14</ele>
        <time>2024-10-24T07:37:53.105Z</time>
      </trkpt>
      <trkpt lat="44.46206" lon="6.22526">
        <ele>653.04</ele>
        <time>2024-10-24T07:37:55.104Z</time>
      </trkpt>
      <trkpt lat="44.46201" lon="6.22518">
        <ele>652.72</ele>
        <time>2024-10-24T07:37:57.104Z</time>
      </trkpt>
      <trkpt lat="44.46197" lon="6.2251">
        <ele>652.58</ele>
        <time>2024-10-24T07:37:59.105Z</time>
      </trkpt>
      <trkpt lat="44.46191" lon="6.22502">
        <ele>652.32</ele>
        <time>2024-10-24T07:38:01.205Z</time>
      </trkpt>
      <trkpt lat="44.46186" lon="6.22494">
        <ele>652.21</ele>
        <time>2024-10-24T07:38:03.206Z</time>
      </trkpt>
      <trkpt lat="44.46181" lon="6.22487">
        <ele>652.2</ele>
        <time>2024-10-24T07:38:05.208Z</time>
      </trkpt>
      <trkpt lat="44.46177" lon="6.22478">
        <ele>652.29</ele>
        <time>2024-10-24T07:38:07.205Z</time>
      </trkpt>
      <trkpt lat="44.46173" lon="6.22473">
        <ele>652.33</ele>
        <time>2024-10-24T07:38:09.124Z</time>
      </trkpt>
      <trkpt lat="44.4617" lon="6.22468">
        <ele>652.16</ele>
        <time>2024-10-24T07:38:10.207Z</time>
      </trkpt>
      <trkpt lat="44.46168" lon="6.22464">
        <ele>652.14</ele>
        <time>2024-10-24T07:38:11.091Z</time>
      </trkpt>
      <trkpt lat="44.46165" lon="6.22459">
        <ele>652.11</ele>
        <time>2024-10-24T07:38:12.206Z</time>
      </trkpt>
      <trkpt lat="44.46162" lon="6.22455">
        <ele>651.97</ele>
        <time>2024-10-24T07:38:12.862Z</time>
      </trkpt>
      <trkpt lat="44.4616" lon="6.2245">
        <ele>651.81</ele>
        <time>2024-10-24T07:38:14.061Z</time>
      </trkpt>
      <trkpt lat="44.46158" lon="6.22446">
        <ele>651.68</ele>
        <time>2024-10-24T07:38:15.078Z</time>
      </trkpt>
      <trkpt lat="44.46156" lon="6.22441">
        <ele>651.64</ele>
        <time>2024-10-24T07:38:16.084Z</time>
      </trkpt>
      <trkpt lat="44.46154" lon="6.22437">
        <ele>651.47</ele>
        <time>2024-10-24T07:38:17.206Z</time>
      </trkpt>
      <trkpt lat="44.46152" lon="6.22432">
        <ele>651.38</ele>
        <time>2024-10-24T07:38:18.206Z</time>
      </trkpt>
      <trkpt lat="44.46147" lon="6.22419">
        <ele>651.47</ele>
        <time>2024-10-24T07:38:21.206Z</time>
      </trkpt>
      <trkpt lat="44.46146" lon="6.22415">
        <ele>651.23</ele>
        <time>2024-10-24T07:38:22.205Z</time>
      </trkpt>
      <trkpt lat="44.46141" lon="6.22404">
        <ele>651.04</ele>
        <time>2024-10-24T07:38:24.206Z</time>
      </trkpt>
      <trkpt lat="44.46137" lon="6.22395">
        <ele>651.17</ele>
        <time>2024-10-24T07:38:26.207Z</time>
      </trkpt>
      <trkpt lat="44.46133" lon="6.22387">
        <ele>651.22</ele>
        <time>2024-10-24T07:38:27.796Z</time>
      </trkpt>
      <trkpt lat="44.46129" lon="6.22378">
        <ele>651</ele>
        <time>2024-10-24T07:38:30.205Z</time>
      </trkpt>
      <trkpt lat="44.46126" lon="6.22369">
        <ele>651.03</ele>
        <time>2024-10-24T07:38:32.118Z</time>
      </trkpt>
      <trkpt lat="44.46122" lon="6.22361">
        <ele>651.19</ele>
        <time>2024-10-24T07:38:34.207Z</time>
      </trkpt>
      <trkpt lat="44.46119" lon="6.22352">
        <ele>651.35</ele>
        <time>2024-10-24T07:38:36.105Z</time>
      </trkpt>
      <trkpt lat="44.46115" lon="6.22344">
        <ele>651.26</ele>
        <time>2024-10-24T07:38:37.791Z</time>
      </trkpt>
      <trkpt lat="44.46111" lon="6.22335">
        <ele>651.03</ele>
        <time>2024-10-24T07:38:40.206Z</time>
      </trkpt>
      <trkpt lat="44.46108" lon="6.22325">
        <ele>650.7</ele>
        <time>2024-10-24T07:38:42.206Z</time>
      </trkpt>
      <trkpt lat="44.46106" lon="6.22315">
        <ele>650.65</ele>
        <time>2024-10-24T07:38:44.206Z</time>
      </trkpt>
      <trkpt lat="44.46102" lon="6.22305">
        <ele>650.45</ele>
        <time>2024-10-24T07:38:46.206Z</time>
      </trkpt>
      <trkpt lat="44.461" lon="6.22295">
        <ele>650.43</ele>
        <time>2024-10-24T07:38:48.206Z</time>
      </trkpt>
      <trkpt lat="44.46103" lon="6.22286">
        <ele>650.05</ele>
        <time>2024-10-24T07:38:50.205Z</time>
      </trkpt>
      <trkpt lat="44.46109" lon="6.22285">
        <ele>649.65</ele>
        <time>2024-10-24T07:38:51.809Z</time>
      </trkpt>
      <trkpt lat="44.46115" lon="6.22287">
        <ele>649.73</ele>
        <time>2024-10-24T07:38:54.206Z</time>
      </trkpt>
      <trkpt lat="44.4612" lon="6.2228">
        <ele>649.55</ele>
        <time>2024-10-24T07:38:56.205Z</time>
      </trkpt>
      <trkpt lat="44.4612" lon="6.22269">
        <ele>649.27</ele>
        <time>2024-10-24T07:38:58.205Z</time>
      </trkpt>
      <trkpt lat="44.46123" lon="6.22259">
        <ele>649.26</ele>
        <time>2024-10-24T07:39:00.206Z</time>
      </trkpt>
      <trkpt lat="44.46125" lon="6.22248">
        <ele>649.01</ele>
        <time>2024-10-24T07:39:02.207Z</time>
      </trkpt>
      <trkpt lat="44.46125" lon="6.22236">
        <ele>648.91</ele>
        <time>2024-10-24T07:39:04.205Z</time>
      </trkpt>
      <trkpt lat="44.46125" lon="6.22224">
        <ele>648.79</ele>
        <time>2024-10-24T07:39:06.205Z</time>
      </trkpt>
      <trkpt lat="44.46127" lon="6.22213">
        <ele>648.57</ele>
        <time>2024-10-24T07:39:08.204Z</time>
      </trkpt>
      <trkpt lat="44.46129" lon="6.22203">
        <ele>648.54</ele>
        <time>2024-10-24T07:39:10.206Z</time>
      </trkpt>
      <trkpt lat="44.46132" lon="6.22195">
        <ele>648.68</ele>
        <time>2024-10-24T07:39:12.206Z</time>
      </trkpt>
      <trkpt lat="44.46134" lon="6.22184">
        <ele>648.85</ele>
        <time>2024-10-24T07:39:14.205Z</time>
      </trkpt>
      <trkpt lat="44.46136" lon="6.22171">
        <ele>648.94</ele>
        <time>2024-10-24T07:39:16.206Z</time>
      </trkpt>
      <trkpt lat="44.46136" lon="6.2216">
        <ele>648.82</ele>
        <time>2024-10-24T07:39:18.204Z</time>
      </trkpt>
      <trkpt lat="44.4614" lon="6.22151">
        <ele>648.96</ele>
        <time>2024-10-24T07:39:20.207Z</time>
      </trkpt>
      <trkpt lat="44.46146" lon="6.22147">
        <ele>648.88</ele>
        <time>2024-10-24T07:39:22.307Z</time>
      </trkpt>
      <trkpt lat="44.46152" lon="6.22148">
        <ele>648.91</ele>
        <time>2024-10-24T07:39:23.914Z</time>
      </trkpt>
      <trkpt lat="44.46159" lon="6.22149">
        <ele>648.87</ele>
        <time>2024-10-24T07:39:25.879Z</time>
      </trkpt>
      <trkpt lat="44.46167" lon="6.22149">
        <ele>648.75</ele>
        <time>2024-10-24T07:39:28.166Z</time>
      </trkpt>
      <trkpt lat="44.46175" lon="6.22148">
        <ele>648.66</ele>
        <time>2024-10-24T07:39:29.881Z</time>
      </trkpt>
      <trkpt lat="44.46182" lon="6.2215">
        <ele>648.45</ele>
        <time>2024-10-24T07:39:31.902Z</time>
      </trkpt>
      <trkpt lat="44.46189" lon="6.22152">
        <ele>648.18</ele>
        <time>2024-10-24T07:39:33.888Z</time>
      </trkpt>
      <trkpt lat="44.46195" lon="6.22154">
        <ele>648.02</ele>
        <time>2024-10-24T07:39:35.908Z</time>
      </trkpt>
      <trkpt lat="44.46202" lon="6.22155">
        <ele>647.87</ele>
        <time>2024-10-24T07:39:37.887Z</time>
      </trkpt>
      <trkpt lat="44.4621" lon="6.22156">
        <ele>647.78</ele>
        <time>2024-10-24T07:39:39.862Z</time>
      </trkpt>
      <trkpt lat="44.46217" lon="6.22158">
        <ele>647.7</ele>
        <time>2024-10-24T07:39:41.896Z</time>
      </trkpt>
      <trkpt lat="44.46225" lon="6.2216">
        <ele>647.66</ele>
        <time>2024-10-24T07:39:43.898Z</time>
      </trkpt>
      <trkpt lat="44.46233" lon="6.22162">
        <ele>647.78</ele>
        <time>2024-10-24T07:39:45.850Z</time>
      </trkpt>
      <trkpt lat="44.46239" lon="6.22164">
        <ele>647.82</ele>
        <time>2024-10-24T07:39:47.858Z</time>
      </trkpt>
      <trkpt lat="44.46246" lon="6.22165">
        <ele>647.84</ele>
        <time>2024-10-24T07:39:49.881Z</time>
      </trkpt>
      <trkpt lat="44.46252" lon="6.22166">
        <ele>647.87</ele>
        <time>2024-10-24T07:39:51.857Z</time>
      </trkpt>
      <trkpt lat="44.46259" lon="6.22167">
        <ele>647.99</ele>
        <time>2024-10-24T07:39:54.342Z</time>
      </trkpt>
      <trkpt lat="44.46267" lon="6.22167">
        <ele>648.07</ele>
        <time>2024-10-24T07:39:55.867Z</time>
      </trkpt>
      <trkpt lat="44.46276" lon="6.22167">
        <ele>648.12</ele>
        <time>2024-10-24T07:39:57.892Z</time>
      </trkpt>
      <trkpt lat="44.46285" lon="6.22166">
        <ele>648.28</ele>
        <time>2024-10-24T07:39:59.869Z</time>
      </trkpt>
      <trkpt lat="44.46292" lon="6.22165">
        <ele>648.61</ele>
        <time>2024-10-24T07:40:01.852Z</time>
      </trkpt>
      <trkpt lat="44.46301" lon="6.22164">
        <ele>648.79</ele>
        <time>2024-10-24T07:40:04.355Z</time>
      </trkpt>
      <trkpt lat="44.46308" lon="6.22163">
        <ele>648.63</ele>
        <time>2024-10-24T07:40:06.307Z</time>
      </trkpt>
      <trkpt lat="44.46316" lon="6.22162">
        <ele>648.53</ele>
        <time>2024-10-24T07:40:08.358Z</time>
      </trkpt>
      <trkpt lat="44.46324" lon="6.2216">
        <ele>648.54</ele>
        <time>2024-10-24T07:40:09.886Z</time>
      </trkpt>
      <trkpt lat="44.46332" lon="6.22159">
        <ele>648.55</ele>
        <time>2024-10-24T07:40:12.306Z</time>
      </trkpt>
      <trkpt lat="44.46339" lon="6.22159">
        <ele>648.49</ele>
        <time>2024-10-24T07:40:14.304Z</time>
      </trkpt>
      <trkpt lat="44.46347" lon="6.22159">
        <ele>648.53</ele>
        <time>2024-10-24T07:40:16.365Z</time>
      </trkpt>
      <trkpt lat="44.46354" lon="6.22158">
        <ele>648.54</ele>
        <time>2024-10-24T07:40:18.306Z</time>
      </trkpt>
      <trkpt lat="44.46362" lon="6.22157">
        <ele>648.73</ele>
        <time>2024-10-24T07:40:19.900Z</time>
      </trkpt>
      <trkpt lat="44.46368" lon="6.22156">
        <ele>648.86</ele>
        <time>2024-10-24T07:40:22.238Z</time>
      </trkpt>
      <trkpt lat="44.46375" lon="6.22156">
        <ele>648.88</ele>
        <time>2024-10-24T07:40:24.357Z</time>
      </trkpt>
      <trkpt lat="44.46381" lon="6.22155">
        <ele>648.86</ele>
        <time>2024-10-24T07:40:26.305Z</time>
      </trkpt>
      <trkpt lat="44.46387" lon="6.22154">
        <ele>648.81</ele>
        <time>2024-10-24T07:40:28.307Z</time>
      </trkpt>
      <trkpt lat="44.46395" lon="6.22149">
        <ele>648.86</ele>
        <time>2024-10-24T07:40:29.886Z</time>
      </trkpt>
      <trkpt lat="44.46402" lon="6.2215">
        <ele>648.77</ele>
        <time>2024-10-24T07:40:32.306Z</time>
      </trkpt>
      <trkpt lat="44.4641" lon="6.2215">
        <ele>648.68</ele>
        <time>2024-10-24T07:40:34.364Z</time>
      </trkpt>
      <trkpt lat="44.46418" lon="6.22149">
        <ele>648.76</ele>
        <time>2024-10-24T07:40:36.307Z</time>
      </trkpt>
      <trkpt lat="44.46427" lon="6.22148">
        <ele>648.85</ele>
        <time>2024-10-24T07:40:38.306Z</time>
      </trkpt>
      <trkpt lat="44.46435" lon="6.22146">
        <ele>649.02</ele>
        <time>2024-10-24T07:40:40.306Z</time>
      </trkpt>
      <trkpt lat="44.46444" lon="6.22145">
        <ele>648.93</ele>
        <time>2024-10-24T07:40:42.307Z</time>
      </trkpt>
      <trkpt lat="44.46452" lon="6.22143">
        <ele>649.01</ele>
        <time>2024-10-24T07:40:44.307Z</time>
      </trkpt>
      <trkpt lat="44.4646" lon="6.22142">
        <ele>649.05</ele>
        <time>2024-10-24T07:40:46.305Z</time>
      </trkpt>
      <trkpt lat="44.46468" lon="6.22141">
        <ele>649.21</ele>
        <time>2024-10-24T07:40:48.405Z</time>
      </trkpt>
      <trkpt lat="44.46476" lon="6.22139">
        <ele>649.36</ele>
        <time>2024-10-24T07:40:50.405Z</time>
      </trkpt>
      <trkpt lat="44.46484" lon="6.22138">
        <ele>649.35</ele>
        <time>2024-10-24T07:40:52.405Z</time>
      </trkpt>
      <trkpt lat="44.46492" lon="6.22136">
        <ele>649.35</ele>
        <time>2024-10-24T07:40:54.405Z</time>
      </trkpt>
      <trkpt lat="44.465" lon="6.22135">
        <ele>649.47</ele>
        <time>2024-10-24T07:40:56.405Z</time>
      </trkpt>
      <trkpt lat="44.46508" lon="6.22134">
        <ele>649.5</ele>
        <time>2024-10-24T07:40:58.406Z</time>
      </trkpt>
      <trkpt lat="44.46516" lon="6.22132">
        <ele>649.56</ele>
        <time>2024-10-24T07:41:00.258Z</time>
      </trkpt>
      <trkpt lat="44.46524" lon="6.22133">
        <ele>649.85</ele>
        <time>2024-10-24T07:41:02.405Z</time>
      </trkpt>
      <trkpt lat="44.46532" lon="6.22132">
        <ele>650.02</ele>
        <time>2024-10-24T07:41:04.404Z</time>
      </trkpt>
      <trkpt lat="44.4654" lon="6.22131">
        <ele>650.02</ele>
        <time>2024-10-24T07:41:06.406Z</time>
      </trkpt>
      <trkpt lat="44.46548" lon="6.2213">
        <ele>650.12</ele>
        <time>2024-10-24T07:41:08.406Z</time>
      </trkpt>
      <trkpt lat="44.46555" lon="6.2213">
        <ele>650.17</ele>
        <time>2024-10-24T07:41:10.406Z</time>
      </trkpt>
      <trkpt lat="44.46562" lon="6.22128">
        <ele>650.27</ele>
        <time>2024-10-24T07:41:12.405Z</time>
      </trkpt>
      <trkpt lat="44.46569" lon="6.22128">
        <ele>650.24</ele>
        <time>2024-10-24T07:41:14.406Z</time>
      </trkpt>
      <trkpt lat="44.46576" lon="6.22128">
        <ele>650.43</ele>
        <time>2024-10-24T07:41:16.406Z</time>
      </trkpt>
      <trkpt lat="44.46584" lon="6.22128">
        <ele>650.56</ele>
        <time>2024-10-24T07:41:17.978Z</time>
      </trkpt>
      <trkpt lat="44.46591" lon="6.22127">
        <ele>650.56</ele>
        <time>2024-10-24T07:41:20.405Z</time>
      </trkpt>
      <trkpt lat="44.46598" lon="6.22127">
        <ele>650.73</ele>
        <time>2024-10-24T07:41:22.408Z</time>
      </trkpt>
      <trkpt lat="44.46606" lon="6.22127">
        <ele>650.88</ele>
        <time>2024-10-24T07:41:24.405Z</time>
      </trkpt>
      <trkpt lat="44.46613" lon="6.22127">
        <ele>650.79</ele>
        <time>2024-10-24T07:41:26.406Z</time>
      </trkpt>
      <trkpt lat="44.4662" lon="6.22127">
        <ele>650.96</ele>
        <time>2024-10-24T07:41:28.405Z</time>
      </trkpt>
      <trkpt lat="44.46626" lon="6.22128">
        <ele>651.27</ele>
        <time>2024-10-24T07:41:30.406Z</time>
      </trkpt>
      <trkpt lat="44.46633" lon="6.2213">
        <ele>651.72</ele>
        <time>2024-10-24T07:41:32.406Z</time>
      </trkpt>
      <trkpt lat="44.4664" lon="6.22131">
        <ele>651.97</ele>
        <time>2024-10-24T07:41:34.406Z</time>
      </trkpt>
      <trkpt lat="44.46646" lon="6.22132">
        <ele>652.24</ele>
        <time>2024-10-24T07:41:36.405Z</time>
      </trkpt>
      <trkpt lat="44.46652" lon="6.22135">
        <ele>652.45</ele>
        <time>2024-10-24T07:41:38.406Z</time>
      </trkpt>
      <trkpt lat="44.46658" lon="6.22136">
        <ele>652.86</ele>
        <time>2024-10-24T07:41:40.405Z</time>
      </trkpt>
      <trkpt lat="44.46665" lon="6.22138">
        <ele>653.14</ele>
        <time>2024-10-24T07:41:42.406Z</time>
      </trkpt>
      <trkpt lat="44.46671" lon="6.22139">
        <ele>653.4</ele>
        <time>2024-10-24T07:41:44.407Z</time>
      </trkpt>
      <trkpt lat="44.46677" lon="6.2214">
        <ele>653.87</ele>
        <time>2024-10-24T07:41:46.405Z</time>
      </trkpt>
      <trkpt lat="44.46684" lon="6.2214">
        <ele>654.43</ele>
        <time>2024-10-24T07:41:48.405Z</time>
      </trkpt>
      <trkpt lat="44.46689" lon="6.2214">
        <ele>654.89</ele>
        <time>2024-10-24T07:41:50.288Z</time>
      </trkpt>
      <trkpt lat="44.46694" lon="6.22141">
        <ele>655.37</ele>
        <time>2024-10-24T07:41:52.407Z</time>
      </trkpt>
      <trkpt lat="44.46699" lon="6.22141">
        <ele>655.8</ele>
        <time>2024-10-24T07:41:54.405Z</time>
      </trkpt>
      <trkpt lat="44.46704" lon="6.22141">
        <ele>656.19</ele>
        <time>2024-10-24T07:41:56.407Z</time>
      </trkpt>
      <trkpt lat="44.4671" lon="6.22141">
        <ele>656.83</ele>
        <time>2024-10-24T07:41:58.404Z</time>
      </trkpt>
      <trkpt lat="44.46715" lon="6.22141">
        <ele>657.37</ele>
        <time>2024-10-24T07:42:00.406Z</time>
      </trkpt>
      <trkpt lat="44.4672" lon="6.22142">
        <ele>657.81</ele>
        <time>2024-10-24T07:42:02.407Z</time>
      </trkpt>
      <trkpt lat="44.46725" lon="6.22141">
        <ele>658.38</ele>
        <time>2024-10-24T07:42:04.406Z</time>
      </trkpt>
      <trkpt lat="44.4673" lon="6.2214">
        <ele>659.07</ele>
        <time>2024-10-24T07:42:06.406Z</time>
      </trkpt>
      <trkpt lat="44.46735" lon="6.22139">
        <ele>659.67</ele>
        <time>2024-10-24T07:42:08.404Z</time>
      </trkpt>
      <trkpt lat="44.4674" lon="6.22138">
        <ele>660.35</ele>
        <time>2024-10-24T07:42:10.405Z</time>
      </trkpt>
      <trkpt lat="44.46744" lon="6.22138">
        <ele>660.84</ele>
        <time>2024-10-24T07:42:12.407Z</time>
      </trkpt>
      <trkpt lat="44.46748" lon="6.22138">
        <ele>661.54</ele>
        <time>2024-10-24T07:42:14.405Z</time>
      </trkpt>
      <trkpt lat="44.46753" lon="6.22138">
        <ele>662.24</ele>
        <time>2024-10-24T07:42:16.506Z</time>
      </trkpt>
      <trkpt lat="44.46757" lon="6.22141">
        <ele>662.83</ele>
        <time>2024-10-24T07:42:18.507Z</time>
      </trkpt>
      <trkpt lat="44.46761" lon="6.22145">
        <ele>663.75</ele>
        <time>2024-10-24T07:42:20.505Z</time>
      </trkpt>
      <trkpt lat="44.46764" lon="6.22148">
        <ele>664.38</ele>
        <time>2024-10-24T07:42:22.507Z</time>
      </trkpt>
      <trkpt lat="44.46768" lon="6.22152">
        <ele>664.9</ele>
        <time>2024-10-24T07:42:24.505Z</time>
      </trkpt>
      <trkpt lat="44.46772" lon="6.22154">
        <ele>665.31</ele>
        <time>2024-10-24T07:42:26.412Z</time>
      </trkpt>
      <trkpt lat="44.46776" lon="6.22157">
        <ele>666.21</ele>
        <time>2024-10-24T07:42:28.507Z</time>
      </trkpt>
      <trkpt lat="44.4678" lon="6.22159">
        <ele>667</ele>
        <time>2024-10-24T07:42:30.505Z</time>
      </trkpt>
      <trkpt lat="44.46783" lon="6.2216">
        <ele>667.53</ele>
        <time>2024-10-24T07:42:32.506Z</time>
      </trkpt>
      <trkpt lat="44.46787" lon="6.22163">
        <ele>668.33</ele>
        <time>2024-10-24T07:42:34.506Z</time>
      </trkpt>
      <trkpt lat="44.46791" lon="6.22165">
        <ele>669</ele>
        <time>2024-10-24T07:42:36.305Z</time>
      </trkpt>
      <trkpt lat="44.46795" lon="6.22168">
        <ele>669.5</ele>
        <time>2024-10-24T07:42:38.507Z</time>
      </trkpt>
      <trkpt lat="44.46798" lon="6.22171">
        <ele>670.11</ele>
        <time>2024-10-24T07:42:40.508Z</time>
      </trkpt>
      <trkpt lat="44.46802" lon="6.22175">
        <ele>670.91</ele>
        <time>2024-10-24T07:42:42.505Z</time>
      </trkpt>
      <trkpt lat="44.46806" lon="6.22177">
        <ele>671.68</ele>
        <time>2024-10-24T07:42:44.389Z</time>
      </trkpt>
      <trkpt lat="44.46811" lon="6.2218">
        <ele>672.51</ele>
        <time>2024-10-24T07:42:46.507Z</time>
      </trkpt>
      <trkpt lat="44.46815" lon="6.22184">
        <ele>673.33</ele>
        <time>2024-10-24T07:42:48.506Z</time>
      </trkpt>
      <trkpt lat="44.46818" lon="6.22187">
        <ele>673.93</ele>
        <time>2024-10-24T07:42:50.506Z</time>
      </trkpt>
      <trkpt lat="44.46822" lon="6.22189">
        <ele>674.83</ele>
        <time>2024-10-24T07:42:52.505Z</time>
      </trkpt>
      <trkpt lat="44.46825" lon="6.22192">
        <ele>675.69</ele>
        <time>2024-10-24T07:42:54.507Z</time>
      </trkpt>
      <trkpt lat="44.46828" lon="6.22195">
        <ele>676.45</ele>
        <time>2024-10-24T07:42:56.506Z</time>
      </trkpt>
      <trkpt lat="44.46829" lon="6.222">
        <ele>676.93</ele>
        <time>2024-10-24T07:42:58.506Z</time>
      </trkpt>
      <trkpt lat="44.46827" lon="6.22205">
        <ele>678.11</ele>
        <time>2024-10-24T07:43:00.504Z</time>
      </trkpt>
      <trkpt lat="44.46825" lon="6.22209">
        <ele>679.05</ele>
        <time>2024-10-24T07:43:02.505Z</time>
      </trkpt>
      <trkpt lat="44.46823" lon="6.22214">
        <ele>679.42</ele>
        <time>2024-10-24T07:43:03.596Z</time>
      </trkpt>
      <trkpt lat="44.46821" lon="6.22218">
        <ele>679.73</ele>
        <time>2024-10-24T07:43:06.262Z</time>
      </trkpt>
      <trkpt lat="44.4682" lon="6.22221">
        <ele>680.16</ele>
        <time>2024-10-24T07:43:08.506Z</time>
      </trkpt>
      <trkpt lat="44.46818" lon="6.22225">
        <ele>680.39</ele>
        <time>2024-10-24T07:43:10.505Z</time>
      </trkpt>
      <trkpt lat="44.46816" lon="6.22229">
        <ele>680.89</ele>
        <time>2024-10-24T07:43:12.505Z</time>
      </trkpt>
      <trkpt lat="44.46814" lon="6.22234">
        <ele>681.28</ele>
        <time>2024-10-24T07:43:14.364Z</time>
      </trkpt>
      <trkpt lat="44.46814" lon="6.22238">
        <ele>681.53</ele>
        <time>2024-10-24T07:43:16.504Z</time>
      </trkpt>
      <trkpt lat="44.46815" lon="6.22244">
        <ele>681.89</ele>
        <time>2024-10-24T07:43:18.504Z</time>
      </trkpt>
      <trkpt lat="44.46814" lon="6.2225">
        <ele>682.19</ele>
        <time>2024-10-24T07:43:20.506Z</time>
      </trkpt>
      <trkpt lat="44.46814" lon="6.22257">
        <ele>682.66</ele>
        <time>2024-10-24T07:43:22.505Z</time>
      </trkpt>
      <trkpt lat="44.46812" lon="6.22263">
        <ele>683.09</ele>
        <time>2024-10-24T07:43:24.506Z</time>
      </trkpt>
      <trkpt lat="44.46811" lon="6.22269">
        <ele>683.94</ele>
        <time>2024-10-24T07:43:26.506Z</time>
      </trkpt>
      <trkpt lat="44.46812" lon="6.22275">
        <ele>684.1</ele>
        <time>2024-10-24T07:43:28.506Z</time>
      </trkpt>
      <trkpt lat="44.46812" lon="6.2228">
        <ele>684.59</ele>
        <time>2024-10-24T07:43:30.505Z</time>
      </trkpt>
      <trkpt lat="44.46814" lon="6.22285">
        <ele>685.09</ele>
        <time>2024-10-24T07:43:32.508Z</time>
      </trkpt>
      <trkpt lat="44.46816" lon="6.2229">
        <ele>685.41</ele>
        <time>2024-10-24T07:43:34.506Z</time>
      </trkpt>
      <trkpt lat="44.46819" lon="6.22293">
        <ele>685.79</ele>
        <time>2024-10-24T07:43:36.506Z</time>
      </trkpt>
      <trkpt lat="44.46822" lon="6.22294">
        <ele>686.06</ele>
        <time>2024-10-24T07:43:38.507Z</time>
      </trkpt>
      <trkpt lat="44.46825" lon="6.22296">
        <ele>686.77</ele>
        <time>2024-10-24T07:43:40.607Z</time>
      </trkpt>
      <trkpt lat="44.46828" lon="6.223">
        <ele>687.2</ele>
        <time>2024-10-24T07:43:42.607Z</time>
      </trkpt>
      <trkpt lat="44.46832" lon="6.22303">
        <ele>687.62</ele>
        <time>2024-10-24T07:43:44.606Z</time>
      </trkpt>
      <trkpt lat="44.46835" lon="6.22306">
        <ele>688.14</ele>
        <time>2024-10-24T07:43:46.608Z</time>
      </trkpt>
      <trkpt lat="44.46838" lon="6.22309">
        <ele>688.47</ele>
        <time>2024-10-24T07:43:48.517Z</time>
      </trkpt>
      <trkpt lat="44.4684" lon="6.22314">
        <ele>688.58</ele>
        <time>2024-10-24T07:43:50.607Z</time>
      </trkpt>
      <trkpt lat="44.4684" lon="6.2232">
        <ele>689.19</ele>
        <time>2024-10-24T07:43:52.607Z</time>
      </trkpt>
      <trkpt lat="44.46839" lon="6.22327">
        <ele>689.62</ele>
        <time>2024-10-24T07:43:54.188Z</time>
      </trkpt>
      <trkpt lat="44.46837" lon="6.22332">
        <ele>689.97</ele>
        <time>2024-10-24T07:43:56.568Z</time>
      </trkpt>
      <trkpt lat="44.46835" lon="6.22337">
        <ele>690.47</ele>
        <time>2024-10-24T07:43:58.605Z</time>
      </trkpt>
      <trkpt lat="44.46835" lon="6.22342">
        <ele>690.99</ele>
        <time>2024-10-24T07:44:00.607Z</time>
      </trkpt>
      <trkpt lat="44.46835" lon="6.22347">
        <ele>691.42</ele>
        <time>2024-10-24T07:44:02.456Z</time>
      </trkpt>
      <trkpt lat="44.46835" lon="6.22353">
        <ele>691.9</ele>
        <time>2024-10-24T07:44:04.606Z</time>
      </trkpt>
      <trkpt lat="44.46836" lon="6.22359">
        <ele>692.42</ele>
        <time>2024-10-24T07:44:06.607Z</time>
      </trkpt>
      <trkpt lat="44.46837" lon="6.22364">
        <ele>692.8</ele>
        <time>2024-10-24T07:44:08.606Z</time>
      </trkpt>
      <trkpt lat="44.46838" lon="6.22369">
        <ele>693.12</ele>
        <time>2024-10-24T07:44:10.606Z</time>
      </trkpt>
      <trkpt lat="44.46841" lon="6.22373">
        <ele>693.53</ele>
        <time>2024-10-24T07:44:12.606Z</time>
      </trkpt>
      <trkpt lat="44.46844" lon="6.22377">
        <ele>694.01</ele>
        <time>2024-10-24T07:44:14.606Z</time>
      </trkpt>
      <trkpt lat="44.46848" lon="6.22379">
        <ele>694.71</ele>
        <time>2024-10-24T07:44:16.605Z</time>
      </trkpt>
      <trkpt lat="44.46851" lon="6.2238">
        <ele>695.15</ele>
        <time>2024-10-24T07:44:18.064Z</time>
      </trkpt>
      <trkpt lat="44.46856" lon="6.22382">
        <ele>696.18</ele>
        <time>2024-10-24T07:44:19.681Z</time>
      </trkpt>
      <trkpt lat="44.46859" lon="6.22384">
        <ele>696.55</ele>
        <time>2024-10-24T07:44:21.680Z</time>
      </trkpt>
      <trkpt lat="44.46862" lon="6.22388">
        <ele>697.1</ele>
        <time>2024-10-24T07:44:24.605Z</time>
      </trkpt>
      <trkpt lat="44.46864" lon="6.22393">
        <ele>697.59</ele>
        <time>2024-10-24T07:44:26.608Z</time>
      </trkpt>
      <trkpt lat="44.46865" lon="6.22398">
        <ele>698.11</ele>
        <time>2024-10-24T07:44:28.607Z</time>
      </trkpt>
      <trkpt lat="44.46864" lon="6.22404">
        <ele>698.63</ele>
        <time>2024-10-24T07:44:30.606Z</time>
      </trkpt>
      <trkpt lat="44.46863" lon="6.2241">
        <ele>699.18</ele>
        <time>2024-10-24T07:44:32.606Z</time>
      </trkpt>
      <trkpt lat="44.46862" lon="6.22415">
        <ele>699.64</ele>
        <time>2024-10-24T07:44:34.605Z</time>
      </trkpt>
      <trkpt lat="44.46861" lon="6.2242">
        <ele>700</ele>
        <time>2024-10-24T07:44:36.607Z</time>
      </trkpt>
      <trkpt lat="44.46858" lon="6.22425">
        <ele>700.22</ele>
        <time>2024-10-24T07:44:38.441Z</time>
      </trkpt>
      <trkpt lat="44.46856" lon="6.22432">
        <ele>700.59</ele>
        <time>2024-10-24T07:44:40.606Z</time>
      </trkpt>
      <trkpt lat="44.46854" lon="6.22439">
        <ele>700.93</ele>
        <time>2024-10-24T07:44:42.607Z</time>
      </trkpt>
      <trkpt lat="44.46852" lon="6.22448">
        <ele>701.36</ele>
        <time>2024-10-24T07:44:44.606Z</time>
      </trkpt>
      <trkpt lat="44.46852" lon="6.22458">
        <ele>701.33</ele>
        <time>2024-10-24T07:44:46.654Z</time>
      </trkpt>
      <trkpt lat="44.46851" lon="6.22473">
        <ele>701.72</ele>
        <time>2024-10-24T07:44:48.680Z</time>
      </trkpt>
      <trkpt lat="44.4685" lon="6.22488">
        <ele>702.06</ele>
        <time>2024-10-24T07:44:50.667Z</time>
      </trkpt>
      <trkpt lat="44.46849" lon="6.22501">
        <ele>702.11</ele>
        <time>2024-10-24T07:44:52.212Z</time>
      </trkpt>
      <trkpt lat="44.46847" lon="6.22508">
        <ele>702.2</ele>
        <time>2024-10-24T07:44:54.606Z</time>
      </trkpt>
      <trkpt lat="44.46845" lon="6.22529">
        <ele>702.43</ele>
        <time>2024-10-24T07:44:56.199Z</time>
      </trkpt>
      <trkpt lat="44.46849" lon="6.22555">
        <ele>702.35</ele>
        <time>2024-10-24T07:44:58.608Z</time>
      </trkpt>
      <trkpt lat="44.46855" lon="6.22564">
        <ele>702.11</ele>
        <time>2024-10-24T07:45:00.607Z</time>
      </trkpt>
      <trkpt lat="44.46859" lon="6.2257">
        <ele>702.5</ele>
        <time>2024-10-24T07:45:02.604Z</time>
      </trkpt>
      <trkpt lat="44.46863" lon="6.22575">
        <ele>702.33</ele>
        <time>2024-10-24T07:45:04.605Z</time>
      </trkpt>
      <trkpt lat="44.46866" lon="6.2258">
        <ele>702.59</ele>
        <time>2024-10-24T07:45:06.604Z</time>
      </trkpt>
      <trkpt lat="44.4687" lon="6.22585">
        <ele>702.6</ele>
        <time>2024-10-24T07:45:08.606Z</time>
      </trkpt>
      <trkpt lat="44.46874" lon="6.2259">
        <ele>702.83</ele>
        <time>2024-10-24T07:45:09.759Z</time>
      </trkpt>
      <trkpt lat="44.46879" lon="6.22593">
        <ele>703.02</ele>
        <time>2024-10-24T07:45:11.753Z</time>
      </trkpt>
      <trkpt lat="44.46882" lon="6.22599">
        <ele>702.93</ele>
        <time>2024-10-24T07:45:14.452Z</time>
      </trkpt>
      <trkpt lat="44.46885" lon="6.22606">
        <ele>702.82</ele>
        <time>2024-10-24T07:45:15.764Z</time>
      </trkpt>
      <trkpt lat="44.46888" lon="6.22613">
        <ele>703.46</ele>
        <time>2024-10-24T07:45:18.277Z</time>
      </trkpt>
      <trkpt lat="44.46891" lon="6.22619">
        <ele>703.13</ele>
        <time>2024-10-24T07:45:19.780Z</time>
      </trkpt>
      <trkpt lat="44.46893" lon="6.22625">
        <ele>703.15</ele>
        <time>2024-10-24T07:45:22.463Z</time>
      </trkpt>
      <trkpt lat="44.46895" lon="6.22632">
        <ele>703.31</ele>
        <time>2024-10-24T07:45:23.771Z</time>
      </trkpt>
      <trkpt lat="44.46896" lon="6.22638">
        <ele>703.51</ele>
        <time>2024-10-24T07:45:25.749Z</time>
      </trkpt>
      <trkpt lat="44.46896" lon="6.22643">
        <ele>703.61</ele>
        <time>2024-10-24T07:45:27.784Z</time>
      </trkpt>
      <trkpt lat="44.46898" lon="6.22649">
        <ele>703.94</ele>
        <time>2024-10-24T07:45:29.773Z</time>
      </trkpt>
      <trkpt lat="44.46898" lon="6.22655">
        <ele>704.24</ele>
        <time>2024-10-24T07:45:32.615Z</time>
      </trkpt>
      <trkpt lat="44.46899" lon="6.22661">
        <ele>704.37</ele>
        <time>2024-10-24T07:45:33.773Z</time>
      </trkpt>
      <trkpt lat="44.46901" lon="6.22666">
        <ele>704.8</ele>
        <time>2024-10-24T07:45:36.250Z</time>
      </trkpt>
      <trkpt lat="44.46904" lon="6.22671">
        <ele>704.83</ele>
        <time>2024-10-24T07:45:37.754Z</time>
      </trkpt>
      <trkpt lat="44.46906" lon="6.22677">
        <ele>705.38</ele>
        <time>2024-10-24T07:45:39.756Z</time>
      </trkpt>
      <trkpt lat="44.46907" lon="6.22683">
        <ele>705.58</ele>
        <time>2024-10-24T07:45:41.779Z</time>
      </trkpt>
      <trkpt lat="44.46907" lon="6.22688">
        <ele>706.05</ele>
        <time>2024-10-24T07:45:43.778Z</time>
      </trkpt>
      <trkpt lat="44.46907" lon="6.22692">
        <ele>706.28</ele>
        <time>2024-10-24T07:45:45.786Z</time>
      </trkpt>
      <trkpt lat="44.46909" lon="6.22697">
        <ele>706.08</ele>
        <time>2024-10-24T07:45:47.705Z</time>
      </trkpt>
      <trkpt lat="44.4691" lon="6.22703">
        <ele>706.62</ele>
        <time>2024-10-24T07:45:48.793Z</time>
      </trkpt>
      <trkpt lat="44.46913" lon="6.2271">
        <ele>706.77</ele>
        <time>2024-10-24T07:45:51.706Z</time>
      </trkpt>
      <trkpt lat="44.46916" lon="6.22716">
        <ele>707.34</ele>
        <time>2024-10-24T07:45:53.707Z</time>
      </trkpt>
      <trkpt lat="44.46919" lon="6.22721">
        <ele>707.86</ele>
        <time>2024-10-24T07:45:55.707Z</time>
      </trkpt>
      <trkpt lat="44.4692" lon="6.22724">
        <ele>708.23</ele>
        <time>2024-10-24T07:45:57.706Z</time>
      </trkpt>
      <trkpt lat="44.46923" lon="6.22729">
        <ele>708.69</ele>
        <time>2024-10-24T07:45:59.705Z</time>
      </trkpt>
      <trkpt lat="44.46926" lon="6.22735">
        <ele>709.39</ele>
        <time>2024-10-24T07:46:01.707Z</time>
      </trkpt>
      <trkpt lat="44.46928" lon="6.22739">
        <ele>710.41</ele>
        <time>2024-10-24T07:46:02.816Z</time>
      </trkpt>
      <trkpt lat="44.46931" lon="6.22744">
        <ele>711.29</ele>
        <time>2024-10-24T07:46:05.794Z</time>
      </trkpt>
      <trkpt lat="44.46934" lon="6.22747">
        <ele>711.46</ele>
        <time>2024-10-24T07:46:06.820Z</time>
      </trkpt>
      <trkpt lat="44.46936" lon="6.22752">
        <ele>712.16</ele>
        <time>2024-10-24T07:46:09.804Z</time>
      </trkpt>
      <trkpt lat="44.46937" lon="6.22756">
        <ele>712.66</ele>
        <time>2024-10-24T07:46:11.805Z</time>
      </trkpt>
      <trkpt lat="44.46938" lon="6.2276">
        <ele>713.25</ele>
        <time>2024-10-24T07:46:13.804Z</time>
      </trkpt>
      <trkpt lat="44.4694" lon="6.22763">
        <ele>713.53</ele>
        <time>2024-10-24T07:46:14.834Z</time>
      </trkpt>
      <trkpt lat="44.46941" lon="6.22767">
        <ele>714.41</ele>
        <time>2024-10-24T07:46:17.806Z</time>
      </trkpt>
      <trkpt lat="44.46943" lon="6.22769">
        <ele>715.07</ele>
        <time>2024-10-24T07:46:19.804Z</time>
      </trkpt>
      <trkpt lat="44.46946" lon="6.22773">
        <ele>715.6</ele>
        <time>2024-10-24T07:46:21.676Z</time>
      </trkpt>
      <trkpt lat="44.46948" lon="6.22776">
        <ele>716.5</ele>
        <time>2024-10-24T07:46:23.805Z</time>
      </trkpt>
      <trkpt lat="44.46949" lon="6.2278">
        <ele>717.12</ele>
        <time>2024-10-24T07:46:25.805Z</time>
      </trkpt>
      <trkpt lat="44.46951" lon="6.22784">
        <ele>717.81</ele>
        <time>2024-10-24T07:46:27.703Z</time>
      </trkpt>
      <trkpt lat="44.46954" lon="6.22788">
        <ele>718.55</ele>
        <time>2024-10-24T07:46:29.805Z</time>
      </trkpt>
      <trkpt lat="44.46956" lon="6.22791">
        <ele>719.6</ele>
        <time>2024-10-24T07:46:31.710Z</time>
      </trkpt>
      <trkpt lat="44.46958" lon="6.22795">
        <ele>720.11</ele>
        <time>2024-10-24T07:46:33.805Z</time>
      </trkpt>
      <trkpt lat="44.46959" lon="6.22799">
        <ele>720.62</ele>
        <time>2024-10-24T07:46:35.630Z</time>
      </trkpt>
      <trkpt lat="44.4696" lon="6.22804">
        <ele>721.73</ele>
        <time>2024-10-24T07:46:37.805Z</time>
      </trkpt>
      <trkpt lat="44.46962" lon="6.22809">
        <ele>722.34</ele>
        <time>2024-10-24T07:46:39.652Z</time>
      </trkpt>
      <trkpt lat="44.46963" lon="6.22813">
        <ele>722.33</ele>
        <time>2024-10-24T07:46:41.805Z</time>
      </trkpt>
      <trkpt lat="44.46964" lon="6.22816">
        <ele>723.1</ele>
        <time>2024-10-24T07:46:43.805Z</time>
      </trkpt>
      <trkpt lat="44.46965" lon="6.2282">
        <ele>723.35</ele>
        <time>2024-10-24T07:46:45.401Z</time>
      </trkpt>
      <trkpt lat="44.46965" lon="6.22824">
        <ele>723.89</ele>
        <time>2024-10-24T07:46:47.804Z</time>
      </trkpt>
      <trkpt lat="44.46965" lon="6.22827">
        <ele>724.79</ele>
        <time>2024-10-24T07:46:49.805Z</time>
      </trkpt>
      <trkpt lat="44.46966" lon="6.22831">
        <ele>724.91</ele>
        <time>2024-10-24T07:46:50.891Z</time>
      </trkpt>
      <trkpt lat="44.46968" lon="6.22837">
        <ele>725.72</ele>
        <time>2024-10-24T07:46:53.805Z</time>
      </trkpt>
      <trkpt lat="44.4697" lon="6.22841">
        <ele>726.41</ele>
        <time>2024-10-24T07:46:55.804Z</time>
      </trkpt>
      <trkpt lat="44.46975" lon="6.22838">
        <ele>727.05</ele>
        <time>2024-10-24T07:46:57.805Z</time>
      </trkpt>
      <trkpt lat="44.46977" lon="6.22829">
        <ele>727.75</ele>
        <time>2024-10-24T07:46:59.804Z</time>
      </trkpt>
      <trkpt lat="44.46976" lon="6.22822">
        <ele>728.61</ele>
        <time>2024-10-24T07:47:01.805Z</time>
      </trkpt>
      <trkpt lat="44.46976" lon="6.22816">
        <ele>728.99</ele>
        <time>2024-10-24T07:47:03.805Z</time>
      </trkpt>
      <trkpt lat="44.46977" lon="6.22811">
        <ele>729.83</ele>
        <time>2024-10-24T07:47:05.806Z</time>
      </trkpt>
      <trkpt lat="44.46978" lon="6.22806">
        <ele>730.53</ele>
        <time>2024-10-24T07:47:07.807Z</time>
      </trkpt>
      <trkpt lat="44.46978" lon="6.22801">
        <ele>731.22</ele>
        <time>2024-10-24T07:47:09.805Z</time>
      </trkpt>
      <trkpt lat="44.46977" lon="6.22796">
        <ele>732.55</ele>
        <time>2024-10-24T07:47:11.805Z</time>
      </trkpt>
      <trkpt lat="44.46976" lon="6.2279">
        <ele>732.8</ele>
        <time>2024-10-24T07:47:13.805Z</time>
      </trkpt>
      <trkpt lat="44.46974" lon="6.22784">
        <ele>733.03</ele>
        <time>2024-10-24T07:47:15.804Z</time>
      </trkpt>
      <trkpt lat="44.46972" lon="6.22778">
        <ele>733.51</ele>
        <time>2024-10-24T07:47:17.806Z</time>
      </trkpt>
      <trkpt lat="44.46971" lon="6.22774">
        <ele>734.1</ele>
        <time>2024-10-24T07:47:19.805Z</time>
      </trkpt>
      <trkpt lat="44.4697" lon="6.22769">
        <ele>734.59</ele>
        <time>2024-10-24T07:47:21.906Z</time>
      </trkpt>
      <trkpt lat="44.46971" lon="6.22764">
        <ele>734.8</ele>
        <time>2024-10-24T07:47:23.002Z</time>
      </trkpt>
      <trkpt lat="44.46971" lon="6.22759">
        <ele>734.72</ele>
        <time>2024-10-24T07:47:25.907Z</time>
      </trkpt>
      <trkpt lat="44.4697" lon="6.22755">
        <ele>735.22</ele>
        <time>2024-10-24T07:47:27.548Z</time>
      </trkpt>
      <trkpt lat="44.46969" lon="6.22751">
        <ele>735.62</ele>
        <time>2024-10-24T07:47:29.906Z</time>
      </trkpt>
      <trkpt lat="44.46968" lon="6.22747">
        <ele>736.33</ele>
        <time>2024-10-24T07:47:31.906Z</time>
      </trkpt>
      <trkpt lat="44.46967" lon="6.22742">
        <ele>737.02</ele>
        <time>2024-10-24T07:47:33.497Z</time>
      </trkpt>
      <trkpt lat="44.46967" lon="6.22739">
        <ele>737.57</ele>
        <time>2024-10-24T07:47:35.643Z</time>
      </trkpt>
      <trkpt lat="44.46967" lon="6.22735">
        <ele>738.53</ele>
        <time>2024-10-24T07:47:37.907Z</time>
      </trkpt>
      <trkpt lat="44.46969" lon="6.22732">
        <ele>738.81</ele>
        <time>2024-10-24T07:47:39.906Z</time>
      </trkpt>
      <trkpt lat="44.46972" lon="6.22736">
        <ele>739.15</ele>
        <time>2024-10-24T07:47:41.905Z</time>
      </trkpt>
      <trkpt lat="44.46973" lon="6.22743">
        <ele>739.86</ele>
        <time>2024-10-24T07:47:43.470Z</time>
      </trkpt>
      <trkpt lat="44.46974" lon="6.22748">
        <ele>740.27</ele>
        <time>2024-10-24T07:47:45.905Z</time>
      </trkpt>
      <trkpt lat="44.46975" lon="6.22754">
        <ele>740.7</ele>
        <time>2024-10-24T07:47:47.906Z</time>
      </trkpt>
      <trkpt lat="44.46975" lon="6.22759">
        <ele>741.17</ele>
        <time>2024-10-24T07:47:49.905Z</time>
      </trkpt>
      <trkpt lat="44.46976" lon="6.22764">
        <ele>741.68</ele>
        <time>2024-10-24T07:47:51.042Z</time>
      </trkpt>
      <trkpt lat="44.46979" lon="6.22768">
        <ele>742.03</ele>
        <time>2024-10-24T07:47:52.957Z</time>
      </trkpt>
      <trkpt lat="44.46981" lon="6.22772">
        <ele>742.4</ele>
        <time>2024-10-24T07:47:54.987Z</time>
      </trkpt>
      <trkpt lat="44.46982" lon="6.22776">
        <ele>742.88</ele>
        <time>2024-10-24T07:47:57.905Z</time>
      </trkpt>
      <trkpt lat="44.46985" lon="6.22779">
        <ele>743.24</ele>
        <time>2024-10-24T07:47:58.991Z</time>
      </trkpt>
      <trkpt lat="44.46987" lon="6.22784">
        <ele>743.63</ele>
        <time>2024-10-24T07:48:00.981Z</time>
      </trkpt>
      <trkpt lat="44.46989" lon="6.22788">
        <ele>744.3</ele>
        <time>2024-10-24T07:48:03.909Z</time>
      </trkpt>
      <trkpt lat="44.46992" lon="6.22791">
        <ele>744.78</ele>
        <time>2024-10-24T07:48:05.906Z</time>
      </trkpt>
      <trkpt lat="44.46994" lon="6.22795">
        <ele>745.18</ele>
        <time>2024-10-24T07:48:06.994Z</time>
      </trkpt>
      <trkpt lat="44.46996" lon="6.22799">
        <ele>745.63</ele>
        <time>2024-10-24T07:48:09.905Z</time>
      </trkpt>
      <trkpt lat="44.46997" lon="6.22803">
        <ele>746.01</ele>
        <time>2024-10-24T07:48:11.907Z</time>
      </trkpt>
      <trkpt lat="44.46997" lon="6.22807">
        <ele>746.77</ele>
        <time>2024-10-24T07:48:13.906Z</time>
      </trkpt>
      <trkpt lat="44.46996" lon="6.22811">
        <ele>747.53</ele>
        <time>2024-10-24T07:48:15.907Z</time>
      </trkpt>
      <trkpt lat="44.46997" lon="6.22815">
        <ele>747.96</ele>
        <time>2024-10-24T07:48:17.907Z</time>
      </trkpt>
      <trkpt lat="44.46999" lon="6.22819">
        <ele>748.76</ele>
        <time>2024-10-24T07:48:19.907Z</time>
      </trkpt>
      <trkpt lat="44.47001" lon="6.22822">
        <ele>749.29</ele>
        <time>2024-10-24T07:48:21.905Z</time>
      </trkpt>
      <trkpt lat="44.47002" lon="6.22825">
        <ele>749.73</ele>
        <time>2024-10-24T07:48:23.906Z</time>
      </trkpt>
      <trkpt lat="44.47004" lon="6.22828">
        <ele>750.17</ele>
        <time>2024-10-24T07:48:25.904Z</time>
      </trkpt>
      <trkpt lat="44.47005" lon="6.22831">
        <ele>750.92</ele>
        <time>2024-10-24T07:48:26.996Z</time>
      </trkpt>
      <trkpt lat="44.47008" lon="6.22834">
        <ele>751.39</ele>
        <time>2024-10-24T07:48:29.904Z</time>
      </trkpt>
      <trkpt lat="44.4701" lon="6.22837">
        <ele>751.92</ele>
        <time>2024-10-24T07:48:31.906Z</time>
      </trkpt>
      <trkpt lat="44.47012" lon="6.2284">
        <ele>752.42</ele>
        <time>2024-10-24T07:48:33.906Z</time>
      </trkpt>
      <trkpt lat="44.47015" lon="6.22843">
        <ele>752.68</ele>
        <time>2024-10-24T07:48:35.905Z</time>
      </trkpt>
      <trkpt lat="44.47017" lon="6.22845">
        <ele>753.17</ele>
        <time>2024-10-24T07:48:37.905Z</time>
      </trkpt>
      <trkpt lat="44.47019" lon="6.22848">
        <ele>754.08</ele>
        <time>2024-10-24T07:48:39.905Z</time>
      </trkpt>
      <trkpt lat="44.4702" lon="6.22852">
        <ele>754.5</ele>
        <time>2024-10-24T07:48:41.905Z</time>
      </trkpt>
      <trkpt lat="44.47022" lon="6.22854">
        <ele>754.99</ele>
        <time>2024-10-24T07:48:43.906Z</time>
      </trkpt>
      <trkpt lat="44.47023" lon="6.22856">
        <ele>755.55</ele>
        <time>2024-10-24T07:48:45.907Z</time>
      </trkpt>
      <trkpt lat="44.47025" lon="6.22859">
        <ele>756.05</ele>
        <time>2024-10-24T07:48:47.008Z</time>
      </trkpt>
      <trkpt lat="44.47027" lon="6.2286">
        <ele>756.05</ele>
        <time>2024-10-24T07:48:49.014Z</time>
      </trkpt>
      <trkpt lat="44.47029" lon="6.22861">
        <ele>757.72</ele>
        <time>2024-10-24T07:48:51.029Z</time>
      </trkpt>
      <trkpt lat="44.47032" lon="6.22862">
        <ele>758.32</ele>
        <time>2024-10-24T07:48:53.016Z</time>
      </trkpt>
      <trkpt lat="44.47034" lon="6.22861">
        <ele>759.25</ele>
        <time>2024-10-24T07:48:56.005Z</time>
      </trkpt>
      <trkpt lat="44.47036" lon="6.22863">
        <ele>759.88</ele>
        <time>2024-10-24T07:48:57.019Z</time>
      </trkpt>
      <trkpt lat="44.47039" lon="6.22864">
        <ele>760.31</ele>
        <time>2024-10-24T07:48:59.610Z</time>
      </trkpt>
      <trkpt lat="44.47041" lon="6.22864">
        <ele>760.89</ele>
        <time>2024-10-24T07:49:02.008Z</time>
      </trkpt>
      <trkpt lat="44.47044" lon="6.22865">
        <ele>760.89</ele>
        <time>2024-10-24T07:49:03.676Z</time>
      </trkpt>
      <trkpt lat="44.47046" lon="6.22865">
        <ele>762.73</ele>
        <time>2024-10-24T07:49:06.022Z</time>
      </trkpt>
      <trkpt lat="44.47049" lon="6.22867">
        <ele>763.51</ele>
        <time>2024-10-24T07:49:07.026Z</time>
      </trkpt>
      <trkpt lat="44.47052" lon="6.22869">
        <ele>764.14</ele>
        <time>2024-10-24T07:49:09.028Z</time>
      </trkpt>
      <trkpt lat="44.47057" lon="6.22871">
        <ele>764.96</ele>
        <time>2024-10-24T07:49:11.998Z</time>
      </trkpt>
      <trkpt lat="44.4706" lon="6.22872">
        <ele>765.57</ele>
        <time>2024-10-24T07:49:13.034Z</time>
      </trkpt>
      <trkpt lat="44.47063" lon="6.22873">
        <ele>766.2</ele>
        <time>2024-10-24T07:49:16.010Z</time>
      </trkpt>
      <trkpt lat="44.47067" lon="6.22874">
        <ele>766.97</ele>
        <time>2024-10-24T07:49:17.034Z</time>
      </trkpt>
      <trkpt lat="44.47071" lon="6.2287">
        <ele>767.65</ele>
        <time>2024-10-24T07:49:19.563Z</time>
      </trkpt>
      <trkpt lat="44.47074" lon="6.22866">
        <ele>767.88</ele>
        <time>2024-10-24T07:49:21.038Z</time>
      </trkpt>
      <trkpt lat="44.47077" lon="6.22865">
        <ele>768.58</ele>
        <time>2024-10-24T07:49:23.568Z</time>
      </trkpt>
      <trkpt lat="44.47082" lon="6.22865">
        <ele>769.2</ele>
        <time>2024-10-24T07:49:26.010Z</time>
      </trkpt>
      <trkpt lat="44.47087" lon="6.22866">
        <ele>769.66</ele>
        <time>2024-10-24T07:49:27.575Z</time>
      </trkpt>
      <trkpt lat="44.47091" lon="6.22866">
        <ele>769.96</ele>
        <time>2024-10-24T07:49:30.045Z</time>
      </trkpt>
      <trkpt lat="44.47094" lon="6.22866">
        <ele>770.64</ele>
        <time>2024-10-24T07:49:32.002Z</time>
      </trkpt>
      <trkpt lat="44.47097" lon="6.22864">
        <ele>771.15</ele>
        <time>2024-10-24T07:49:33.884Z</time>
      </trkpt>
      <trkpt lat="44.47099" lon="6.22865">
        <ele>771.61</ele>
        <time>2024-10-24T07:49:36.007Z</time>
      </trkpt>
      <trkpt lat="44.47101" lon="6.22866">
        <ele>772</ele>
        <time>2024-10-24T07:49:37.586Z</time>
      </trkpt>
      <trkpt lat="44.47104" lon="6.22867">
        <ele>772</ele>
        <time>2024-10-24T07:49:40.007Z</time>
      </trkpt>
      <trkpt lat="44.47108" lon="6.22866">
        <ele>773.35</ele>
        <time>2024-10-24T07:49:41.579Z</time>
      </trkpt>
      <trkpt lat="44.47111" lon="6.22864">
        <ele>773.88</ele>
        <time>2024-10-24T07:49:43.609Z</time>
      </trkpt>
      <trkpt lat="44.47114" lon="6.22862">
        <ele>774.38</ele>
        <time>2024-10-24T07:49:46.059Z</time>
      </trkpt>
      <trkpt lat="44.47117" lon="6.22862">
        <ele>774.94</ele>
        <time>2024-10-24T07:49:47.769Z</time>
      </trkpt>
      <trkpt lat="44.47121" lon="6.2286">
        <ele>775.24</ele>
        <time>2024-10-24T07:49:50.005Z</time>
      </trkpt>
      <trkpt lat="44.47124" lon="6.22859">
        <ele>775.82</ele>
        <time>2024-10-24T07:49:51.578Z</time>
      </trkpt>
      <trkpt lat="44.47127" lon="6.22858">
        <ele>776.5</ele>
        <time>2024-10-24T07:49:54.008Z</time>
      </trkpt>
      <trkpt lat="44.4713" lon="6.22857">
        <ele>777.24</ele>
        <time>2024-10-24T07:49:56.008Z</time>
      </trkpt>
      <trkpt lat="44.47132" lon="6.22855">
        <ele>777.77</ele>
        <time>2024-10-24T07:49:58.007Z</time>
      </trkpt>
      <trkpt lat="44.47135" lon="6.22853">
        <ele>778.4</ele>
        <time>2024-10-24T07:49:59.921Z</time>
      </trkpt>
      <trkpt lat="44.47135" lon="6.22847">
        <ele>778.93</ele>
        <time>2024-10-24T07:50:02.005Z</time>
      </trkpt>
      <trkpt lat="44.47132" lon="6.22844">
        <ele>779.6</ele>
        <time>2024-10-24T07:50:04.005Z</time>
      </trkpt>
      <trkpt lat="44.47129" lon="6.22844">
        <ele>780.05</ele>
        <time>2024-10-24T07:50:06.047Z</time>
      </trkpt>
      <trkpt lat="44.47125" lon="6.22843">
        <ele>780.7</ele>
        <time>2024-10-24T07:50:08.006Z</time>
      </trkpt>
      <trkpt lat="44.47122" lon="6.22841">
        <ele>781.25</ele>
        <time>2024-10-24T07:50:10.006Z</time>
      </trkpt>
      <trkpt lat="44.47119" lon="6.22839">
        <ele>781.74</ele>
        <time>2024-10-24T07:50:12.005Z</time>
      </trkpt>
      <trkpt lat="44.47116" lon="6.22837">
        <ele>782.35</ele>
        <time>2024-10-24T07:50:14.007Z</time>
      </trkpt>
      <trkpt lat="44.47113" lon="6.22834">
        <ele>782.95</ele>
        <time>2024-10-24T07:50:16.005Z</time>
      </trkpt>
      <trkpt lat="44.47112" lon="6.2283">
        <ele>783.42</ele>
        <time>2024-10-24T07:50:18.006Z</time>
      </trkpt>
      <trkpt lat="44.4711" lon="6.22825">
        <ele>784.18</ele>
        <time>2024-10-24T07:50:20.005Z</time>
      </trkpt>
      <trkpt lat="44.47108" lon="6.22821">
        <ele>784.7</ele>
        <time>2024-10-24T07:50:22.005Z</time>
      </trkpt>
      <trkpt lat="44.47107" lon="6.22817">
        <ele>785.28</ele>
        <time>2024-10-24T07:50:24.008Z</time>
      </trkpt>
      <trkpt lat="44.47107" lon="6.22812">
        <ele>785.54</ele>
        <time>2024-10-24T07:50:26.004Z</time>
      </trkpt>
      <trkpt lat="44.47105" lon="6.22808">
        <ele>786.02</ele>
        <time>2024-10-24T07:50:27.605Z</time>
      </trkpt>
      <trkpt lat="44.47103" lon="6.22806">
        <ele>786.42</ele>
        <time>2024-10-24T07:50:30.006Z</time>
      </trkpt>
      <trkpt lat="44.471" lon="6.22805">
        <ele>786.68</ele>
        <time>2024-10-24T07:50:31.809Z</time>
      </trkpt>
      <trkpt lat="44.47097" lon="6.22806">
        <ele>787.08</ele>
        <time>2024-10-24T07:50:34.105Z</time>
      </trkpt>
      <trkpt lat="44.47093" lon="6.22806">
        <ele>787.4</ele>
        <time>2024-10-24T07:50:36.104Z</time>
      </trkpt>
      <trkpt lat="44.47089" lon="6.22805">
        <ele>787.69</ele>
        <time>2024-10-24T07:50:38.104Z</time>
      </trkpt>
      <trkpt lat="44.47084" lon="6.22805">
        <ele>788.33</ele>
        <time>2024-10-24T07:50:40.104Z</time>
      </trkpt>
      <trkpt lat="44.4708" lon="6.22803">
        <ele>788.74</ele>
        <time>2024-10-24T07:50:42.105Z</time>
      </trkpt>
      <trkpt lat="44.47077" lon="6.22799">
        <ele>789.14</ele>
        <time>2024-10-24T07:50:44.105Z</time>
      </trkpt>
      <trkpt lat="44.47075" lon="6.22795">
        <ele>789.83</ele>
        <time>2024-10-24T07:50:46.105Z</time>
      </trkpt>
      <trkpt lat="44.47073" lon="6.22791">
        <ele>790.1</ele>
        <time>2024-10-24T07:50:48.105Z</time>
      </trkpt>
      <trkpt lat="44.47071" lon="6.2279">
        <ele>790.63</ele>
        <time>2024-10-24T07:50:50.105Z</time>
      </trkpt>
      <trkpt lat="44.47067" lon="6.22789">
        <ele>791.03</ele>
        <time>2024-10-24T07:50:52.105Z</time>
      </trkpt>
      <trkpt lat="44.47064" lon="6.22787">
        <ele>791.43</ele>
        <time>2024-10-24T07:50:53.875Z</time>
      </trkpt>
      <trkpt lat="44.47062" lon="6.22784">
        <ele>791.86</ele>
        <time>2024-10-24T07:50:56.105Z</time>
      </trkpt>
      <trkpt lat="44.4706" lon="6.22779">
        <ele>792.31</ele>
        <time>2024-10-24T07:50:58.106Z</time>
      </trkpt>
      <trkpt lat="44.47058" lon="6.22776">
        <ele>792.74</ele>
        <time>2024-10-24T07:51:00.104Z</time>
      </trkpt>
      <trkpt lat="44.47055" lon="6.22772">
        <ele>793.1</ele>
        <time>2024-10-24T07:51:02.106Z</time>
      </trkpt>
      <trkpt lat="44.47053" lon="6.22769">
        <ele>793.35</ele>
        <time>2024-10-24T07:51:04.105Z</time>
      </trkpt>
      <trkpt lat="44.4705" lon="6.22765">
        <ele>793.7</ele>
        <time>2024-10-24T07:51:05.131Z</time>
      </trkpt>
      <trkpt lat="44.47049" lon="6.22762">
        <ele>794.04</ele>
        <time>2024-10-24T07:51:08.105Z</time>
      </trkpt>
      <trkpt lat="44.47047" lon="6.22759">
        <ele>794.35</ele>
        <time>2024-10-24T07:51:10.104Z</time>
      </trkpt>
      <trkpt lat="44.47045" lon="6.22757">
        <ele>794.47</ele>
        <time>2024-10-24T07:51:12.106Z</time>
      </trkpt>
      <trkpt lat="44.47043" lon="6.22754">
        <ele>795.21</ele>
        <time>2024-10-24T07:51:14.105Z</time>
      </trkpt>
      <trkpt lat="44.47041" lon="6.22751">
        <ele>795.58</ele>
        <time>2024-10-24T07:51:16.104Z</time>
      </trkpt>
      <trkpt lat="44.4704" lon="6.22748">
        <ele>796.07</ele>
        <time>2024-10-24T07:51:18.107Z</time>
      </trkpt>
      <trkpt lat="44.47039" lon="6.22744">
        <ele>796.46</ele>
        <time>2024-10-24T07:51:20.105Z</time>
      </trkpt>
      <trkpt lat="44.47042" lon="6.22742">
        <ele>796.96</ele>
        <time>2024-10-24T07:51:22.105Z</time>
      </trkpt>
      <trkpt lat="44.47046" lon="6.22744">
        <ele>797.54</ele>
        <time>2024-10-24T07:51:24.106Z</time>
      </trkpt>
      <trkpt lat="44.47048" lon="6.22747">
        <ele>798.07</ele>
        <time>2024-10-24T07:51:26.104Z</time>
      </trkpt>
      <trkpt lat="44.47051" lon="6.22748">
        <ele>798.54</ele>
        <time>2024-10-24T07:51:27.161Z</time>
      </trkpt>
      <trkpt lat="44.47054" lon="6.22751">
        <ele>799.17</ele>
        <time>2024-10-24T07:51:29.183Z</time>
      </trkpt>
      <trkpt lat="44.47056" lon="6.22753">
        <ele>799.74</ele>
        <time>2024-10-24T07:51:31.168Z</time>
      </trkpt>
      <trkpt lat="44.47059" lon="6.22755">
        <ele>800.09</ele>
        <time>2024-10-24T07:51:33.187Z</time>
      </trkpt>
      <trkpt lat="44.47062" lon="6.22756">
        <ele>800.41</ele>
        <time>2024-10-24T07:51:36.106Z</time>
      </trkpt>
      <trkpt lat="44.47065" lon="6.22758">
        <ele>800.93</ele>
        <time>2024-10-24T07:51:38.040Z</time>
      </trkpt>
      <trkpt lat="44.47067" lon="6.2276">
        <ele>801.25</ele>
        <time>2024-10-24T07:51:40.106Z</time>
      </trkpt>
      <trkpt lat="44.47069" lon="6.22763">
        <ele>801.91</ele>
        <time>2024-10-24T07:51:42.105Z</time>
      </trkpt>
      <trkpt lat="44.47071" lon="6.22766">
        <ele>802.28</ele>
        <time>2024-10-24T07:51:43.882Z</time>
      </trkpt>
      <trkpt lat="44.47074" lon="6.22768">
        <ele>802.89</ele>
        <time>2024-10-24T07:51:46.104Z</time>
      </trkpt>
      <trkpt lat="44.47077" lon="6.2277">
        <ele>803.32</ele>
        <time>2024-10-24T07:51:48.106Z</time>
      </trkpt>
      <trkpt lat="44.47079" lon="6.22772">
        <ele>803.86</ele>
        <time>2024-10-24T07:51:50.105Z</time>
      </trkpt>
      <trkpt lat="44.47083" lon="6.22775">
        <ele>803.99</ele>
        <time>2024-10-24T07:51:52.105Z</time>
      </trkpt>
      <trkpt lat="44.47085" lon="6.22778">
        <ele>804.3</ele>
        <time>2024-10-24T07:51:54.105Z</time>
      </trkpt>
      <trkpt lat="44.47088" lon="6.2278">
        <ele>804.84</ele>
        <time>2024-10-24T07:51:56.105Z</time>
      </trkpt>
      <trkpt lat="44.4709" lon="6.2278">
        <ele>805.45</ele>
        <time>2024-10-24T07:51:58.106Z</time>
      </trkpt>
      <trkpt lat="44.47092" lon="6.2278">
        <ele>805.71</ele>
        <time>2024-10-24T07:52:00.104Z</time>
      </trkpt>
      <trkpt lat="44.47095" lon="6.22779">
        <ele>806.39</ele>
        <time>2024-10-24T07:52:02.104Z</time>
      </trkpt>
      <trkpt lat="44.47098" lon="6.22778">
        <ele>807.09</ele>
        <time>2024-10-24T07:52:04.105Z</time>
      </trkpt>
      <trkpt lat="44.47101" lon="6.22777">
        <ele>807.48</ele>
        <time>2024-10-24T07:52:06.104Z</time>
      </trkpt>
      <trkpt lat="44.47104" lon="6.22776">
        <ele>807.9</ele>
        <time>2024-10-24T07:52:08.207Z</time>
      </trkpt>
      <trkpt lat="44.47107" lon="6.22776">
        <ele>808.19</ele>
        <time>2024-10-24T07:52:10.206Z</time>
      </trkpt>
      <trkpt lat="44.4711" lon="6.22777">
        <ele>808.59</ele>
        <time>2024-10-24T07:52:12.207Z</time>
      </trkpt>
      <trkpt lat="44.47113" lon="6.22777">
        <ele>809.17</ele>
        <time>2024-10-24T07:52:14.205Z</time>
      </trkpt>
      <trkpt lat="44.47116" lon="6.22777">
        <ele>809.42</ele>
        <time>2024-10-24T07:52:16.207Z</time>
      </trkpt>
      <trkpt lat="44.47119" lon="6.22777">
        <ele>810.06</ele>
        <time>2024-10-24T07:52:17.793Z</time>
      </trkpt>
      <trkpt lat="44.47122" lon="6.22777">
        <ele>810.66</ele>
        <time>2024-10-24T07:52:20.206Z</time>
      </trkpt>
      <trkpt lat="44.47124" lon="6.22777">
        <ele>811.13</ele>
        <time>2024-10-24T07:52:22.206Z</time>
      </trkpt>
      <trkpt lat="44.47128" lon="6.22778">
        <ele>811.62</ele>
        <time>2024-10-24T07:52:24.205Z</time>
      </trkpt>
      <trkpt lat="44.47132" lon="6.22778">
        <ele>812.08</ele>
        <time>2024-10-24T07:52:26.204Z</time>
      </trkpt>
      <trkpt lat="44.47138" lon="6.22779">
        <ele>812.55</ele>
        <time>2024-10-24T07:52:28.204Z</time>
      </trkpt>
      <trkpt lat="44.47142" lon="6.22779">
        <ele>812.88</ele>
        <time>2024-10-24T07:52:30.207Z</time>
      </trkpt>
      <trkpt lat="44.47146" lon="6.22778">
        <ele>813.04</ele>
        <time>2024-10-24T07:52:32.206Z</time>
      </trkpt>
      <trkpt lat="44.4715" lon="6.22777">
        <ele>813.59</ele>
        <time>2024-10-24T07:52:34.205Z</time>
      </trkpt>
      <trkpt lat="44.47154" lon="6.22777">
        <ele>813.78</ele>
        <time>2024-10-24T07:52:35.768Z</time>
      </trkpt>
      <trkpt lat="44.47157" lon="6.22777">
        <ele>813.97</ele>
        <time>2024-10-24T07:52:38.209Z</time>
      </trkpt>
      <trkpt lat="44.4716" lon="6.22779">
        <ele>814.46</ele>
        <time>2024-10-24T07:52:40.206Z</time>
      </trkpt>
      <trkpt lat="44.47163" lon="6.22781">
        <ele>814.93</ele>
        <time>2024-10-24T07:52:42.206Z</time>
      </trkpt>
      <trkpt lat="44.47166" lon="6.22783">
        <ele>815.43</ele>
        <time>2024-10-24T07:52:44.206Z</time>
      </trkpt>
      <trkpt lat="44.47169" lon="6.22786">
        <ele>816.12</ele>
        <time>2024-10-24T07:52:46.207Z</time>
      </trkpt>
      <trkpt lat="44.47172" lon="6.22788">
        <ele>816.38</ele>
        <time>2024-10-24T07:52:48.204Z</time>
      </trkpt>
      <trkpt lat="44.47176" lon="6.2279">
        <ele>816.73</ele>
        <time>2024-10-24T07:52:50.205Z</time>
      </trkpt>
      <trkpt lat="44.47179" lon="6.2279">
        <ele>817.18</ele>
        <time>2024-10-24T07:52:52.207Z</time>
      </trkpt>
      <trkpt lat="44.47184" lon="6.2279">
        <ele>817.52</ele>
        <time>2024-10-24T07:52:54.205Z</time>
      </trkpt>
      <trkpt lat="44.47187" lon="6.2279">
        <ele>817.96</ele>
        <time>2024-10-24T07:52:56.205Z</time>
      </trkpt>
      <trkpt lat="44.4719" lon="6.22791">
        <ele>818.09</ele>
        <time>2024-10-24T07:52:58.205Z</time>
      </trkpt>
      <trkpt lat="44.47194" lon="6.22792">
        <ele>818.47</ele>
        <time>2024-10-24T07:53:00.206Z</time>
      </trkpt>
      <trkpt lat="44.47197" lon="6.22793">
        <ele>818.65</ele>
        <time>2024-10-24T07:53:02.205Z</time>
      </trkpt>
      <trkpt lat="44.47201" lon="6.22794">
        <ele>818.94</ele>
        <time>2024-10-24T07:53:04.205Z</time>
      </trkpt>
      <trkpt lat="44.47205" lon="6.22795">
        <ele>819.61</ele>
        <time>2024-10-24T07:53:05.895Z</time>
      </trkpt>
      <trkpt lat="44.47208" lon="6.22795">
        <ele>819.75</ele>
        <time>2024-10-24T07:53:08.205Z</time>
      </trkpt>
      <trkpt lat="44.47212" lon="6.22794">
        <ele>820.2</ele>
        <time>2024-10-24T07:53:10.206Z</time>
      </trkpt>
      <trkpt lat="44.47216" lon="6.22793">
        <ele>820.64</ele>
        <time>2024-10-24T07:53:12.206Z</time>
      </trkpt>
      <trkpt lat="44.47219" lon="6.2279">
        <ele>820.95</ele>
        <time>2024-10-24T07:53:14.205Z</time>
      </trkpt>
      <trkpt lat="44.47223" lon="6.22788">
        <ele>821.16</ele>
        <time>2024-10-24T07:53:16.205Z</time>
      </trkpt>
      <trkpt lat="44.47227" lon="6.22789">
        <ele>821.51</ele>
        <time>2024-10-24T07:53:18.206Z</time>
      </trkpt>
      <trkpt lat="44.47229" lon="6.22791">
        <ele>821.89</ele>
        <time>2024-10-24T07:53:20.304Z</time>
      </trkpt>
      <trkpt lat="44.47232" lon="6.22794">
        <ele>822.07</ele>
        <time>2024-10-24T07:53:22.305Z</time>
      </trkpt>
      <trkpt lat="44.47234" lon="6.22797">
        <ele>822.59</ele>
        <time>2024-10-24T07:53:24.298Z</time>
      </trkpt>
      <trkpt lat="44.47237" lon="6.22801">
        <ele>822.82</ele>
        <time>2024-10-24T07:53:26.073Z</time>
      </trkpt>
      <trkpt lat="44.47239" lon="6.22803">
        <ele>823.4</ele>
        <time>2024-10-24T07:53:28.307Z</time>
      </trkpt>
      <trkpt lat="44.47241" lon="6.22805">
        <ele>823.66</ele>
        <time>2024-10-24T07:53:30.305Z</time>
      </trkpt>
      <trkpt lat="44.47243" lon="6.22808">
        <ele>823.99</ele>
        <time>2024-10-24T07:53:32.305Z</time>
      </trkpt>
      <trkpt lat="44.47247" lon="6.22812">
        <ele>824.53</ele>
        <time>2024-10-24T07:53:34.306Z</time>
      </trkpt>
      <trkpt lat="44.4725" lon="6.22815">
        <ele>825.21</ele>
        <time>2024-10-24T07:53:36.306Z</time>
      </trkpt>
      <trkpt lat="44.47253" lon="6.22818">
        <ele>825.56</ele>
        <time>2024-10-24T07:53:38.306Z</time>
      </trkpt>
      <trkpt lat="44.47256" lon="6.2282">
        <ele>825.89</ele>
        <time>2024-10-24T07:53:40.306Z</time>
      </trkpt>
      <trkpt lat="44.4726" lon="6.22822">
        <ele>826.2</ele>
        <time>2024-10-24T07:53:42.306Z</time>
      </trkpt>
      <trkpt lat="44.47263" lon="6.22822">
        <ele>826.45</ele>
        <time>2024-10-24T07:53:44.305Z</time>
      </trkpt>
      <trkpt lat="44.47266" lon="6.22823">
        <ele>826.61</ele>
        <time>2024-10-24T07:53:46.306Z</time>
      </trkpt>
      <trkpt lat="44.47269" lon="6.22825">
        <ele>826.94</ele>
        <time>2024-10-24T07:53:48.307Z</time>
      </trkpt>
      <trkpt lat="44.47272" lon="6.22827">
        <ele>827.08</ele>
        <time>2024-10-24T07:53:49.987Z</time>
      </trkpt>
      <trkpt lat="44.47275" lon="6.22831">
        <ele>827.13</ele>
        <time>2024-10-24T07:53:52.306Z</time>
      </trkpt>
      <trkpt lat="44.47278" lon="6.22834">
        <ele>827.53</ele>
        <time>2024-10-24T07:53:54.306Z</time>
      </trkpt>
      <trkpt lat="44.47281" lon="6.22837">
        <ele>827.61</ele>
        <time>2024-10-24T07:53:56.308Z</time>
      </trkpt>
      <trkpt lat="44.47284" lon="6.2284">
        <ele>827.65</ele>
        <time>2024-10-24T07:53:58.306Z</time>
      </trkpt>
      <trkpt lat="44.47287" lon="6.22843">
        <ele>828.22</ele>
        <time>2024-10-24T07:54:00.305Z</time>
      </trkpt>
      <trkpt lat="44.4729" lon="6.22846">
        <ele>828.84</ele>
        <time>2024-10-24T07:54:02.306Z</time>
      </trkpt>
      <trkpt lat="44.47292" lon="6.2285">
        <ele>829.26</ele>
        <time>2024-10-24T07:54:04.305Z</time>
      </trkpt>
      <trkpt lat="44.47295" lon="6.22854">
        <ele>829.55</ele>
        <time>2024-10-24T07:54:06.307Z</time>
      </trkpt>
      <trkpt lat="44.47298" lon="6.22858">
        <ele>829.97</ele>
        <time>2024-10-24T07:54:08.307Z</time>
      </trkpt>
      <trkpt lat="44.47301" lon="6.22862">
        <ele>830.23</ele>
        <time>2024-10-24T07:54:10.306Z</time>
      </trkpt>
      <trkpt lat="44.47304" lon="6.22865">
        <ele>830.74</ele>
        <time>2024-10-24T07:54:12.334Z</time>
      </trkpt>
      <trkpt lat="44.47308" lon="6.22869">
        <ele>831.19</ele>
        <time>2024-10-24T07:54:14.305Z</time>
      </trkpt>
      <trkpt lat="44.4731" lon="6.22872">
        <ele>831.24</ele>
        <time>2024-10-24T07:54:16.306Z</time>
      </trkpt>
      <trkpt lat="44.47313" lon="6.22875">
        <ele>831.61</ele>
        <time>2024-10-24T07:54:18.306Z</time>
      </trkpt>
      <trkpt lat="44.47314" lon="6.22878">
        <ele>831.96</ele>
        <time>2024-10-24T07:54:20.307Z</time>
      </trkpt>
      <trkpt lat="44.47317" lon="6.22881">
        <ele>832.14</ele>
        <time>2024-10-24T07:54:22.305Z</time>
      </trkpt>
      <trkpt lat="44.4732" lon="6.22885">
        <ele>832.51</ele>
        <time>2024-10-24T07:54:24.307Z</time>
      </trkpt>
      <trkpt lat="44.47324" lon="6.22888">
        <ele>832.57</ele>
        <time>2024-10-24T07:54:25.380Z</time>
      </trkpt>
      <trkpt lat="44.47327" lon="6.22891">
        <ele>832.75</ele>
        <time>2024-10-24T07:54:28.304Z</time>
      </trkpt>
      <trkpt lat="44.47332" lon="6.22893">
        <ele>833.44</ele>
        <time>2024-10-24T07:54:30.305Z</time>
      </trkpt>
      <trkpt lat="44.47336" lon="6.22895">
        <ele>833.63</ele>
        <time>2024-10-24T07:54:32.307Z</time>
      </trkpt>
      <trkpt lat="44.4734" lon="6.22895">
        <ele>834.07</ele>
        <time>2024-10-24T07:54:34.306Z</time>
      </trkpt>
      <trkpt lat="44.47345" lon="6.22895">
        <ele>834.31</ele>
        <time>2024-10-24T07:54:35.976Z</time>
      </trkpt>
      <trkpt lat="44.47348" lon="6.22895">
        <ele>834.86</ele>
        <time>2024-10-24T07:54:38.305Z</time>
      </trkpt>
      <trkpt lat="44.47351" lon="6.22894">
        <ele>835.26</ele>
        <time>2024-10-24T07:54:40.306Z</time>
      </trkpt>
      <trkpt lat="44.47355" lon="6.22894">
        <ele>835.63</ele>
        <time>2024-10-24T07:54:42.307Z</time>
      </trkpt>
      <trkpt lat="44.47359" lon="6.22894">
        <ele>835.95</ele>
        <time>2024-10-24T07:54:44.306Z</time>
      </trkpt>
      <trkpt lat="44.47365" lon="6.22894">
        <ele>836.37</ele>
        <time>2024-10-24T07:54:46.213Z</time>
      </trkpt>
      <trkpt lat="44.4737" lon="6.22894">
        <ele>836.5</ele>
        <time>2024-10-24T07:54:48.405Z</time>
      </trkpt>
      <trkpt lat="44.47374" lon="6.22893">
        <ele>837.09</ele>
        <time>2024-10-24T07:54:50.404Z</time>
      </trkpt>
      <trkpt lat="44.47379" lon="6.22892">
        <ele>837.39</ele>
        <time>2024-10-24T07:54:52.125Z</time>
      </trkpt>
      <trkpt lat="44.47383" lon="6.2289">
        <ele>837.68</ele>
        <time>2024-10-24T07:54:54.407Z</time>
      </trkpt>
      <trkpt lat="44.47387" lon="6.22889">
        <ele>838.15</ele>
        <time>2024-10-24T07:54:56.251Z</time>
      </trkpt>
      <trkpt lat="44.47392" lon="6.22887">
        <ele>838.31</ele>
        <time>2024-10-24T07:54:58.405Z</time>
      </trkpt>
      <trkpt lat="44.47396" lon="6.22886">
        <ele>838.53</ele>
        <time>2024-10-24T07:55:00.406Z</time>
      </trkpt>
      <trkpt lat="44.474" lon="6.22885">
        <ele>839.2</ele>
        <time>2024-10-24T07:55:02.405Z</time>
      </trkpt>
      <trkpt lat="44.47404" lon="6.22884">
        <ele>839.21</ele>
        <time>2024-10-24T07:55:04.406Z</time>
      </trkpt>
      <trkpt lat="44.47408" lon="6.22882">
        <ele>839.81</ele>
        <time>2024-10-24T07:55:06.405Z</time>
      </trkpt>
      <trkpt lat="44.4741" lon="6.22883">
        <ele>840.03</ele>
        <time>2024-10-24T07:55:07.999Z</time>
      </trkpt>
      <trkpt lat="44.47414" lon="6.22882">
        <ele>840.38</ele>
        <time>2024-10-24T07:55:09.441Z</time>
      </trkpt>
      <trkpt lat="44.47417" lon="6.22882">
        <ele>840.59</ele>
        <time>2024-10-24T07:55:11.462Z</time>
      </trkpt>
      <trkpt lat="44.47419" lon="6.22883">
        <ele>841.09</ele>
        <time>2024-10-24T07:55:14Z</time>
      </trkpt>
      <trkpt lat="44.47424" lon="6.22883">
        <ele>841.13</ele>
        <time>2024-10-24T07:55:15.466Z</time>
      </trkpt>
      <trkpt lat="44.47429" lon="6.22884">
        <ele>841.53</ele>
        <time>2024-10-24T07:55:18.230Z</time>
      </trkpt>
      <trkpt lat="44.47433" lon="6.22887">
        <ele>841.83</ele>
        <time>2024-10-24T07:55:20.406Z</time>
      </trkpt>
      <trkpt lat="44.47437" lon="6.22891">
        <ele>842.37</ele>
        <time>2024-10-24T07:55:22.282Z</time>
      </trkpt>
      <trkpt lat="44.4744" lon="6.22894">
        <ele>842.64</ele>
        <time>2024-10-24T07:55:24.405Z</time>
      </trkpt>
      <trkpt lat="44.47444" lon="6.22896">
        <ele>842.73</ele>
        <time>2024-10-24T07:55:26.001Z</time>
      </trkpt>
      <trkpt lat="44.47449" lon="6.22899">
        <ele>843.22</ele>
        <time>2024-10-24T07:55:28.406Z</time>
      </trkpt>
      <trkpt lat="44.47454" lon="6.22903">
        <ele>843.37</ele>
        <time>2024-10-24T07:55:30.405Z</time>
      </trkpt>
      <trkpt lat="44.47459" lon="6.22907">
        <ele>843.46</ele>
        <time>2024-10-24T07:55:32.010Z</time>
      </trkpt>
      <trkpt lat="44.47462" lon="6.22911">
        <ele>843.67</ele>
        <time>2024-10-24T07:55:34.405Z</time>
      </trkpt>
      <trkpt lat="44.47466" lon="6.22916">
        <ele>843.97</ele>
        <time>2024-10-24T07:55:36.406Z</time>
      </trkpt>
      <trkpt lat="44.47469" lon="6.2292">
        <ele>844.23</ele>
        <time>2024-10-24T07:55:38.407Z</time>
      </trkpt>
      <trkpt lat="44.47472" lon="6.22924">
        <ele>844.74</ele>
        <time>2024-10-24T07:55:40.407Z</time>
      </trkpt>
      <trkpt lat="44.47477" lon="6.22929">
        <ele>844.87</ele>
        <time>2024-10-24T07:55:42.406Z</time>
      </trkpt>
      <trkpt lat="44.47481" lon="6.22932">
        <ele>845.26</ele>
        <time>2024-10-24T07:55:44.406Z</time>
      </trkpt>
      <trkpt lat="44.47485" lon="6.22937">
        <ele>845.65</ele>
        <time>2024-10-24T07:55:46.406Z</time>
      </trkpt>
      <trkpt lat="44.4749" lon="6.22941">
        <ele>845.71</ele>
        <time>2024-10-24T07:55:48.407Z</time>
      </trkpt>
      <trkpt lat="44.47494" lon="6.22945">
        <ele>845.92</ele>
        <time>2024-10-24T07:55:50.407Z</time>
      </trkpt>
      <trkpt lat="44.47498" lon="6.22947">
        <ele>846.22</ele>
        <time>2024-10-24T07:55:52.408Z</time>
      </trkpt>
      <trkpt lat="44.47502" lon="6.2295">
        <ele>846.54</ele>
        <time>2024-10-24T07:55:54.405Z</time>
      </trkpt>
      <trkpt lat="44.47507" lon="6.22951">
        <ele>846.78</ele>
        <time>2024-10-24T07:55:56.406Z</time>
      </trkpt>
      <trkpt lat="44.47511" lon="6.22952">
        <ele>846.94</ele>
        <time>2024-10-24T07:55:58.405Z</time>
      </trkpt>
      <trkpt lat="44.47517" lon="6.22952">
        <ele>847.24</ele>
        <time>2024-10-24T07:56:00.408Z</time>
      </trkpt>
      <trkpt lat="44.47521" lon="6.22951">
        <ele>847.44</ele>
        <time>2024-10-24T07:56:02.507Z</time>
      </trkpt>
      <trkpt lat="44.47525" lon="6.22949">
        <ele>847.74</ele>
        <time>2024-10-24T07:56:04.506Z</time>
      </trkpt>
      <trkpt lat="44.47529" lon="6.22947">
        <ele>847.97</ele>
        <time>2024-10-24T07:56:06.505Z</time>
      </trkpt>
      <trkpt lat="44.47532" lon="6.22945">
        <ele>848.19</ele>
        <time>2024-10-24T07:56:08.505Z</time>
      </trkpt>
      <trkpt lat="44.47535" lon="6.22943">
        <ele>848.31</ele>
        <time>2024-10-24T07:56:10.506Z</time>
      </trkpt>
      <trkpt lat="44.47538" lon="6.2294">
        <ele>848.45</ele>
        <time>2024-10-24T07:56:12.506Z</time>
      </trkpt>
      <trkpt lat="44.47542" lon="6.22938">
        <ele>848.78</ele>
        <time>2024-10-24T07:56:14.472Z</time>
      </trkpt>
      <trkpt lat="44.47546" lon="6.22937">
        <ele>849.08</ele>
        <time>2024-10-24T07:56:16.505Z</time>
      </trkpt>
      <trkpt lat="44.4755" lon="6.22935">
        <ele>849.24</ele>
        <time>2024-10-24T07:56:18.506Z</time>
      </trkpt>
      <trkpt lat="44.47555" lon="6.22933">
        <ele>849.67</ele>
        <time>2024-10-24T07:56:20.349Z</time>
      </trkpt>
      <trkpt lat="44.4756" lon="6.2293">
        <ele>850.01</ele>
        <time>2024-10-24T07:56:22.506Z</time>
      </trkpt>
      <trkpt lat="44.47565" lon="6.22929">
        <ele>850.31</ele>
        <time>2024-10-24T07:56:24.410Z</time>
      </trkpt>
      <trkpt lat="44.4757" lon="6.22927">
        <ele>850.63</ele>
        <time>2024-10-24T07:56:26.506Z</time>
      </trkpt>
      <trkpt lat="44.47574" lon="6.22927">
        <ele>850.92</ele>
        <time>2024-10-24T07:56:28.507Z</time>
      </trkpt>
      <trkpt lat="44.47578" lon="6.22925">
        <ele>851.17</ele>
        <time>2024-10-24T07:56:30.506Z</time>
      </trkpt>
      <trkpt lat="44.47582" lon="6.22923">
        <ele>851.58</ele>
        <time>2024-10-24T07:56:32.506Z</time>
      </trkpt>
      <trkpt lat="44.47586" lon="6.22921">
        <ele>851.88</ele>
        <time>2024-10-24T07:56:34.505Z</time>
      </trkpt>
      <trkpt lat="44.4759" lon="6.22919">
        <ele>852.24</ele>
        <time>2024-10-24T07:56:36.508Z</time>
      </trkpt>
      <trkpt lat="44.47593" lon="6.22917">
        <ele>852.62</ele>
        <time>2024-10-24T07:56:38.506Z</time>
      </trkpt>
      <trkpt lat="44.47598" lon="6.22914">
        <ele>852.91</ele>
        <time>2024-10-24T07:56:40.506Z</time>
      </trkpt>
      <trkpt lat="44.47602" lon="6.22914">
        <ele>853.15</ele>
        <time>2024-10-24T07:56:42.504Z</time>
      </trkpt>
      <trkpt lat="44.47606" lon="6.22916">
        <ele>853.39</ele>
        <time>2024-10-24T07:56:44.506Z</time>
      </trkpt>
      <trkpt lat="44.47609" lon="6.2292">
        <ele>853.55</ele>
        <time>2024-10-24T07:56:46.505Z</time>
      </trkpt>
      <trkpt lat="44.47613" lon="6.22921">
        <ele>853.97</ele>
        <time>2024-10-24T07:56:48.506Z</time>
      </trkpt>
      <trkpt lat="44.47618" lon="6.22922">
        <ele>854.23</ele>
        <time>2024-10-24T07:56:50.507Z</time>
      </trkpt>
      <trkpt lat="44.47621" lon="6.22925">
        <ele>854.59</ele>
        <time>2024-10-24T07:56:52.436Z</time>
      </trkpt>
      <trkpt lat="44.47622" lon="6.2293">
        <ele>854.93</ele>
        <time>2024-10-24T07:56:54.504Z</time>
      </trkpt>
      <trkpt lat="44.4762" lon="6.22936">
        <ele>855.12</ele>
        <time>2024-10-24T07:56:56.506Z</time>
      </trkpt>
      <trkpt lat="44.47617" lon="6.2294">
        <ele>855.58</ele>
        <time>2024-10-24T07:56:58.508Z</time>
      </trkpt>
      <trkpt lat="44.47615" lon="6.22943">
        <ele>855.99</ele>
        <time>2024-10-24T07:57:00.505Z</time>
      </trkpt>
      <trkpt lat="44.47613" lon="6.22945">
        <ele>856.15</ele>
        <time>2024-10-24T07:57:02.507Z</time>
      </trkpt>
      <trkpt lat="44.4761" lon="6.22949">
        <ele>856.38</ele>
        <time>2024-10-24T07:57:04.507Z</time>
      </trkpt>
      <trkpt lat="44.47609" lon="6.22953">
        <ele>856.44</ele>
        <time>2024-10-24T07:57:06.505Z</time>
      </trkpt>
      <trkpt lat="44.47609" lon="6.2296">
        <ele>856.7</ele>
        <time>2024-10-24T07:57:08.506Z</time>
      </trkpt>
      <trkpt lat="44.47609" lon="6.22967">
        <ele>856.91</ele>
        <time>2024-10-24T07:57:10.505Z</time>
      </trkpt>
      <trkpt lat="44.47609" lon="6.22974">
        <ele>857.17</ele>
        <time>2024-10-24T07:57:12.506Z</time>
      </trkpt>
      <trkpt lat="44.47611" lon="6.22979">
        <ele>857.25</ele>
        <time>2024-10-24T07:57:14.505Z</time>
      </trkpt>
      <trkpt lat="44.47614" lon="6.22984">
        <ele>857.48</ele>
        <time>2024-10-24T07:57:16.507Z</time>
      </trkpt>
      <trkpt lat="44.47618" lon="6.22987">
        <ele>857.67</ele>
        <time>2024-10-24T07:57:18.507Z</time>
      </trkpt>
      <trkpt lat="44.47623" lon="6.22988">
        <ele>857.82</ele>
        <time>2024-10-24T07:57:20.139Z</time>
      </trkpt>
      <trkpt lat="44.47627" lon="6.2299">
        <ele>858.17</ele>
        <time>2024-10-24T07:57:22.207Z</time>
      </trkpt>
      <trkpt lat="44.4763" lon="6.22989">
        <ele>858.36</ele>
        <time>2024-10-24T07:57:24.192Z</time>
      </trkpt>
      <trkpt lat="44.47632" lon="6.22988">
        <ele>858.51</ele>
        <time>2024-10-24T07:57:26.209Z</time>
      </trkpt>
      <trkpt lat="44.47635" lon="6.22986">
        <ele>858.83</ele>
        <time>2024-10-24T07:57:28.188Z</time>
      </trkpt>
      <trkpt lat="44.47637" lon="6.22983">
        <ele>859.05</ele>
        <time>2024-10-24T07:57:30.374Z</time>
      </trkpt>
      <trkpt lat="44.4764" lon="6.22979">
        <ele>859.34</ele>
        <time>2024-10-24T07:57:32.604Z</time>
      </trkpt>
      <trkpt lat="44.47644" lon="6.22976">
        <ele>859.87</ele>
        <time>2024-10-24T07:57:34.191Z</time>
      </trkpt>
      <trkpt lat="44.47648" lon="6.22975">
        <ele>860.15</ele>
        <time>2024-10-24T07:57:36.607Z</time>
      </trkpt>
      <trkpt lat="44.47652" lon="6.22973">
        <ele>860.87</ele>
        <time>2024-10-24T07:57:38.243Z</time>
      </trkpt>
      <trkpt lat="44.47656" lon="6.22972">
        <ele>861.25</ele>
        <time>2024-10-24T07:57:40.606Z</time>
      </trkpt>
      <trkpt lat="44.4766" lon="6.22971">
        <ele>861.47</ele>
        <time>2024-10-24T07:57:42.259Z</time>
      </trkpt>
      <trkpt lat="44.47665" lon="6.22969">
        <ele>861.72</ele>
        <time>2024-10-24T07:57:44.606Z</time>
      </trkpt>
      <trkpt lat="44.4767" lon="6.22969">
        <ele>861.86</ele>
        <time>2024-10-24T07:57:46.212Z</time>
      </trkpt>
      <trkpt lat="44.47675" lon="6.2297">
        <ele>861.93</ele>
        <time>2024-10-24T07:57:48.199Z</time>
      </trkpt>
      <trkpt lat="44.4768" lon="6.22969">
        <ele>861.91</ele>
        <time>2024-10-24T07:57:50.606Z</time>
      </trkpt>
      <trkpt lat="44.47685" lon="6.2297">
        <ele>862.07</ele>
        <time>2024-10-24T07:57:52.605Z</time>
      </trkpt>
      <trkpt lat="44.4769" lon="6.22973">
        <ele>862.03</ele>
        <time>2024-10-24T07:57:54.212Z</time>
      </trkpt>
      <trkpt lat="44.47693" lon="6.22977">
        <ele>862.45</ele>
        <time>2024-10-24T07:57:56.606Z</time>
      </trkpt>
      <trkpt lat="44.47695" lon="6.22983">
        <ele>862.66</ele>
        <time>2024-10-24T07:57:58.427Z</time>
      </trkpt>
      <trkpt lat="44.47695" lon="6.22989">
        <ele>862.97</ele>
        <time>2024-10-24T07:58:00.277Z</time>
      </trkpt>
      <trkpt lat="44.47694" lon="6.22993">
        <ele>863.33</ele>
        <time>2024-10-24T07:58:02.605Z</time>
      </trkpt>
      <trkpt lat="44.47692" lon="6.22997">
        <ele>863.43</ele>
        <time>2024-10-24T07:58:04.192Z</time>
      </trkpt>
      <trkpt lat="44.4769" lon="6.23">
        <ele>863.81</ele>
        <time>2024-10-24T07:58:05.947Z</time>
      </trkpt>
      <trkpt lat="44.47688" lon="6.23003">
        <ele>864.14</ele>
        <time>2024-10-24T07:58:07.662Z</time>
      </trkpt>
      <trkpt lat="44.47687" lon="6.23007">
        <ele>864.27</ele>
        <time>2024-10-24T07:58:09.679Z</time>
      </trkpt>
      <trkpt lat="44.47688" lon="6.23013">
        <ele>864.52</ele>
        <time>2024-10-24T07:58:12.606Z</time>
      </trkpt>
      <trkpt lat="44.47688" lon="6.23018">
        <ele>864.45</ele>
        <time>2024-10-24T07:58:14.484Z</time>
      </trkpt>
      <trkpt lat="44.47687" lon="6.23022">
        <ele>864.66</ele>
        <time>2024-10-24T07:58:16.606Z</time>
      </trkpt>
      <trkpt lat="44.47686" lon="6.23024">
        <ele>864.85</ele>
        <time>2024-10-24T07:58:17.691Z</time>
      </trkpt>
      <trkpt lat="44.47685" lon="6.23027">
        <ele>865.09</ele>
        <time>2024-10-24T07:58:20.604Z</time>
      </trkpt>
      <trkpt lat="44.47682" lon="6.23032">
        <ele>865.36</ele>
        <time>2024-10-24T07:58:22.647Z</time>
      </trkpt>
      <trkpt lat="44.4768" lon="6.23038">
        <ele>865.54</ele>
        <time>2024-10-24T07:58:24.218Z</time>
      </trkpt>
      <trkpt lat="44.47679" lon="6.23044">
        <ele>865.69</ele>
        <time>2024-10-24T07:58:25.689Z</time>
      </trkpt>
      <trkpt lat="44.47678" lon="6.2305">
        <ele>865.85</ele>
        <time>2024-10-24T07:58:28.605Z</time>
      </trkpt>
      <trkpt lat="44.47677" lon="6.23056">
        <ele>866</ele>
        <time>2024-10-24T07:58:30.606Z</time>
      </trkpt>
      <trkpt lat="44.47677" lon="6.23063">
        <ele>865.99</ele>
        <time>2024-10-24T07:58:32.605Z</time>
      </trkpt>
      <trkpt lat="44.47677" lon="6.2307">
        <ele>866.18</ele>
        <time>2024-10-24T07:58:34.606Z</time>
      </trkpt>
      <trkpt lat="44.47676" lon="6.23076">
        <ele>866.38</ele>
        <time>2024-10-24T07:58:36.605Z</time>
      </trkpt>
      <trkpt lat="44.47676" lon="6.23084">
        <ele>866.54</ele>
        <time>2024-10-24T07:58:38.606Z</time>
      </trkpt>
      <trkpt lat="44.4768" lon="6.23093">
        <ele>866.72</ele>
        <time>2024-10-24T07:58:40.605Z</time>
      </trkpt>
      <trkpt lat="44.47687" lon="6.23093">
        <ele>866.97</ele>
        <time>2024-10-24T07:58:42.607Z</time>
      </trkpt>
      <trkpt lat="44.47692" lon="6.23092">
        <ele>867.08</ele>
        <time>2024-10-24T07:58:44.606Z</time>
      </trkpt>
      <trkpt lat="44.47696" lon="6.23091">
        <ele>867.11</ele>
        <time>2024-10-24T07:58:46.605Z</time>
      </trkpt>
      <trkpt lat="44.47699" lon="6.23088">
        <ele>867.33</ele>
        <time>2024-10-24T07:58:48.606Z</time>
      </trkpt>
      <trkpt lat="44.47701" lon="6.23085">
        <ele>867.67</ele>
        <time>2024-10-24T07:58:50.705Z</time>
      </trkpt>
      <trkpt lat="44.47702" lon="6.23079">
        <ele>868.06</ele>
        <time>2024-10-24T07:58:52.667Z</time>
      </trkpt>
      <trkpt lat="44.47704" lon="6.23073">
        <ele>868.41</ele>
        <time>2024-10-24T07:58:54.257Z</time>
      </trkpt>
      <trkpt lat="44.47707" lon="6.23068">
        <ele>868.67</ele>
        <time>2024-10-24T07:58:56.257Z</time>
      </trkpt>
      <trkpt lat="44.47711" lon="6.23065">
        <ele>868.86</ele>
        <time>2024-10-24T07:58:57.769Z</time>
      </trkpt>
      <trkpt lat="44.47714" lon="6.23061">
        <ele>869.21</ele>
        <time>2024-10-24T07:59:00.243Z</time>
      </trkpt>
      <trkpt lat="44.47717" lon="6.23057">
        <ele>869.48</ele>
        <time>2024-10-24T07:59:01.775Z</time>
      </trkpt>
      <trkpt lat="44.4772" lon="6.23055">
        <ele>869.75</ele>
        <time>2024-10-24T07:59:04.266Z</time>
      </trkpt>
      <trkpt lat="44.47723" lon="6.23053">
        <ele>870.17</ele>
        <time>2024-10-24T07:59:05.758Z</time>
      </trkpt>
      <trkpt lat="44.47726" lon="6.23051">
        <ele>870.71</ele>
        <time>2024-10-24T07:59:08.343Z</time>
      </trkpt>
      <trkpt lat="44.4773" lon="6.23049">
        <ele>871.11</ele>
        <time>2024-10-24T07:59:10.277Z</time>
      </trkpt>
      <trkpt lat="44.47734" lon="6.23047">
        <ele>871.53</ele>
        <time>2024-10-24T07:59:11.766Z</time>
      </trkpt>
      <trkpt lat="44.47737" lon="6.23047">
        <ele>872.18</ele>
        <time>2024-10-24T07:59:14.358Z</time>
      </trkpt>
      <trkpt lat="44.47741" lon="6.23046">
        <ele>872.71</ele>
        <time>2024-10-24T07:59:16.732Z</time>
      </trkpt>
      <trkpt lat="44.47744" lon="6.23046">
        <ele>873.26</ele>
        <time>2024-10-24T07:59:17.769Z</time>
      </trkpt>
      <trkpt lat="44.47748" lon="6.23045">
        <ele>873.41</ele>
        <time>2024-10-24T07:59:19.773Z</time>
      </trkpt>
      <trkpt lat="44.47751" lon="6.23046">
        <ele>873.84</ele>
        <time>2024-10-24T07:59:22.717Z</time>
      </trkpt>
      <trkpt lat="44.47754" lon="6.23048">
        <ele>874.33</ele>
        <time>2024-10-24T07:59:23.773Z</time>
      </trkpt>
      <trkpt lat="44.47756" lon="6.23051">
        <ele>875.15</ele>
        <time>2024-10-24T07:59:25.774Z</time>
      </trkpt>
      <trkpt lat="44.47758" lon="6.23053">
        <ele>875.56</ele>
        <time>2024-10-24T07:59:28.717Z</time>
      </trkpt>
      <trkpt lat="44.47761" lon="6.23054">
        <ele>876.11</ele>
        <time>2024-10-24T07:59:29.773Z</time>
      </trkpt>
      <trkpt lat="44.47764" lon="6.23056">
        <ele>876.82</ele>
        <time>2024-10-24T07:59:32.742Z</time>
      </trkpt>
      <trkpt lat="44.47768" lon="6.23056">
        <ele>877.05</ele>
        <time>2024-10-24T07:59:33.777Z</time>
      </trkpt>
      <trkpt lat="44.4777" lon="6.23054">
        <ele>877.56</ele>
        <time>2024-10-24T07:59:35.705Z</time>
      </trkpt>
      <trkpt lat="44.47771" lon="6.23052">
        <ele>878.15</ele>
        <time>2024-10-24T07:59:37.768Z</time>
      </trkpt>
      <trkpt lat="44.47778" lon="6.23069">
        <ele>886.51</ele>
        <time>2024-10-24T08:01:17.760Z</time>
      </trkpt>
      <trkpt lat="44.47785" lon="6.23056">
        <ele>886.67</ele>
        <time>2024-10-24T08:01:21.751Z</time>
      </trkpt>
      <trkpt lat="44.47785" lon="6.23054">
        <ele>886.86</ele>
        <time>2024-10-24T08:01:22.751Z</time>
      </trkpt>
      <trkpt lat="44.47786" lon="6.23044">
        <ele>886.89</ele>
        <time>2024-10-24T08:01:24.751Z</time>
      </trkpt>
      <trkpt lat="44.47789" lon="6.23038">
        <ele>887.23</ele>
        <time>2024-10-24T08:01:26.751Z</time>
      </trkpt>
      <trkpt lat="44.47793" lon="6.23034">
        <ele>887.1</ele>
        <time>2024-10-24T08:01:28.751Z</time>
      </trkpt>
      <trkpt lat="44.47795" lon="6.2303">
        <ele>887.39</ele>
        <time>2024-10-24T08:01:30.751Z</time>
      </trkpt>
      <trkpt lat="44.47797" lon="6.23026">
        <ele>887.32</ele>
        <time>2024-10-24T08:01:32.752Z</time>
      </trkpt>
      <trkpt lat="44.478" lon="6.23025">
        <ele>887.32</ele>
        <time>2024-10-24T08:01:34.751Z</time>
      </trkpt>
      <trkpt lat="44.47803" lon="6.23024">
        <ele>887.56</ele>
        <time>2024-10-24T08:01:36.752Z</time>
      </trkpt>
      <trkpt lat="44.47807" lon="6.23023">
        <ele>887.74</ele>
        <time>2024-10-24T08:01:38.753Z</time>
      </trkpt>
      <trkpt lat="44.47809" lon="6.23022">
        <ele>887.91</ele>
        <time>2024-10-24T08:01:40.752Z</time>
      </trkpt>
      <trkpt lat="44.47813" lon="6.23021">
        <ele>887.92</ele>
        <time>2024-10-24T08:01:42.752Z</time>
      </trkpt>
      <trkpt lat="44.47815" lon="6.23021">
        <ele>888.12</ele>
        <time>2024-10-24T08:01:44.751Z</time>
      </trkpt>
      <trkpt lat="44.4782" lon="6.23023">
        <ele>888.12</ele>
        <time>2024-10-24T08:01:46.752Z</time>
      </trkpt>
      <trkpt lat="44.47824" lon="6.23026">
        <ele>888.13</ele>
        <time>2024-10-24T08:01:48.751Z</time>
      </trkpt>
      <trkpt lat="44.47826" lon="6.23032">
        <ele>887.84</ele>
        <time>2024-10-24T08:01:50.752Z</time>
      </trkpt>
      <trkpt lat="44.47826" lon="6.23039">
        <ele>887.96</ele>
        <time>2024-10-24T08:01:52.752Z</time>
      </trkpt>
      <trkpt lat="44.47826" lon="6.23045">
        <ele>888</ele>
        <time>2024-10-24T08:01:54.397Z</time>
      </trkpt>
      <trkpt lat="44.47827" lon="6.23051">
        <ele>888.02</ele>
        <time>2024-10-24T08:01:56.852Z</time>
      </trkpt>
      <trkpt lat="44.47828" lon="6.23053">
        <ele>888.18</ele>
        <time>2024-10-24T08:01:58.852Z</time>
      </trkpt>
      <trkpt lat="44.4783" lon="6.23057">
        <ele>888.3</ele>
        <time>2024-10-24T08:02:00.852Z</time>
      </trkpt>
      <trkpt lat="44.47833" lon="6.23062">
        <ele>888.46</ele>
        <time>2024-10-24T08:02:02.852Z</time>
      </trkpt>
      <trkpt lat="44.47836" lon="6.23066">
        <ele>888.55</ele>
        <time>2024-10-24T08:02:04.853Z</time>
      </trkpt>
      <trkpt lat="44.4784" lon="6.23069">
        <ele>888.71</ele>
        <time>2024-10-24T08:02:06.852Z</time>
      </trkpt>
      <trkpt lat="44.47842" lon="6.23072">
        <ele>888.8</ele>
        <time>2024-10-24T08:02:08.853Z</time>
      </trkpt>
      <trkpt lat="44.47844" lon="6.23074">
        <ele>888.98</ele>
        <time>2024-10-24T08:02:10.780Z</time>
      </trkpt>
      <trkpt lat="44.47846" lon="6.23077">
        <ele>889.18</ele>
        <time>2024-10-24T08:02:12.852Z</time>
      </trkpt>
      <trkpt lat="44.47847" lon="6.2308">
        <ele>889.46</ele>
        <time>2024-10-24T08:02:14.853Z</time>
      </trkpt>
      <trkpt lat="44.47849" lon="6.23083">
        <ele>889.49</ele>
        <time>2024-10-24T08:02:16.852Z</time>
      </trkpt>
      <trkpt lat="44.4785" lon="6.23087">
        <ele>889.84</ele>
        <time>2024-10-24T08:02:18.851Z</time>
      </trkpt>
      <trkpt lat="44.4785" lon="6.23091">
        <ele>890.31</ele>
        <time>2024-10-24T08:02:20.854Z</time>
      </trkpt>
      <trkpt lat="44.4785" lon="6.23096">
        <ele>890.48</ele>
        <time>2024-10-24T08:02:22.853Z</time>
      </trkpt>
      <trkpt lat="44.47849" lon="6.23101">
        <ele>890.97</ele>
        <time>2024-10-24T08:02:24.852Z</time>
      </trkpt>
      <trkpt lat="44.47849" lon="6.23107">
        <ele>891.54</ele>
        <time>2024-10-24T08:02:26.852Z</time>
      </trkpt>
      <trkpt lat="44.47849" lon="6.23114">
        <ele>891.99</ele>
        <time>2024-10-24T08:02:28.854Z</time>
      </trkpt>
      <trkpt lat="44.47848" lon="6.23119">
        <ele>892.38</ele>
        <time>2024-10-24T08:02:30.852Z</time>
      </trkpt>
      <trkpt lat="44.47847" lon="6.23124">
        <ele>892.62</ele>
        <time>2024-10-24T08:02:32.853Z</time>
      </trkpt>
      <trkpt lat="44.47846" lon="6.23132">
        <ele>892.83</ele>
        <time>2024-10-24T08:02:34.440Z</time>
      </trkpt>
      <trkpt lat="44.47845" lon="6.23141">
        <ele>893.25</ele>
        <time>2024-10-24T08:02:36.852Z</time>
      </trkpt>
      <trkpt lat="44.47843" lon="6.23154">
        <ele>893.48</ele>
        <time>2024-10-24T08:02:38.453Z</time>
      </trkpt>
      <trkpt lat="44.4784" lon="6.23168">
        <ele>893.6</ele>
        <time>2024-10-24T08:02:40.434Z</time>
      </trkpt>
      <trkpt lat="44.47837" lon="6.23181">
        <ele>893.43</ele>
        <time>2024-10-24T08:02:42.860Z</time>
      </trkpt>
      <trkpt lat="44.47835" lon="6.23192">
        <ele>893.52</ele>
        <time>2024-10-24T08:02:44.439Z</time>
      </trkpt>
      <trkpt lat="44.47835" lon="6.23202">
        <ele>893.58</ele>
        <time>2024-10-24T08:02:46.639Z</time>
      </trkpt>
      <trkpt lat="44.47839" lon="6.23207">
        <ele>893.63</ele>
        <time>2024-10-24T08:02:48.499Z</time>
      </trkpt>
      <trkpt lat="44.47847" lon="6.23208">
        <ele>893.55</ele>
        <time>2024-10-24T08:02:50.532Z</time>
      </trkpt>
      <trkpt lat="44.47853" lon="6.23209">
        <ele>893.48</ele>
        <time>2024-10-24T08:02:52.851Z</time>
      </trkpt>
      <trkpt lat="44.47858" lon="6.23212">
        <ele>893.73</ele>
        <time>2024-10-24T08:02:54.853Z</time>
      </trkpt>
      <trkpt lat="44.47864" lon="6.23211">
        <ele>893.83</ele>
        <time>2024-10-24T08:02:56.761Z</time>
      </trkpt>
      <trkpt lat="44.47871" lon="6.23211">
        <ele>893.82</ele>
        <time>2024-10-24T08:02:58.456Z</time>
      </trkpt>
      <trkpt lat="44.47878" lon="6.23211">
        <ele>893.86</ele>
        <time>2024-10-24T08:03:00.853Z</time>
      </trkpt>
      <trkpt lat="44.47885" lon="6.23208">
        <ele>893.94</ele>
        <time>2024-10-24T08:03:02.852Z</time>
      </trkpt>
      <trkpt lat="44.47892" lon="6.23205">
        <ele>894.07</ele>
        <time>2024-10-24T08:03:04.852Z</time>
      </trkpt>
      <trkpt lat="44.47899" lon="6.23198">
        <ele>894</ele>
        <time>2024-10-24T08:03:06.853Z</time>
      </trkpt>
      <trkpt lat="44.47905" lon="6.23189">
        <ele>893.84</ele>
        <time>2024-10-24T08:03:08.853Z</time>
      </trkpt>
      <trkpt lat="44.47912" lon="6.23177">
        <ele>893.84</ele>
        <time>2024-10-24T08:03:10.852Z</time>
      </trkpt>
      <trkpt lat="44.47919" lon="6.23166">
        <ele>893.9</ele>
        <time>2024-10-24T08:03:12.854Z</time>
      </trkpt>
      <trkpt lat="44.47926" lon="6.23159">
        <ele>893.83</ele>
        <time>2024-10-24T08:03:14.853Z</time>
      </trkpt>
      <trkpt lat="44.47932" lon="6.23155">
        <ele>893.95</ele>
        <time>2024-10-24T08:03:16.953Z</time>
      </trkpt>
      <trkpt lat="44.47938" lon="6.23152">
        <ele>893.92</ele>
        <time>2024-10-24T08:03:17.980Z</time>
      </trkpt>
      <trkpt lat="44.47942" lon="6.23149">
        <ele>893.88</ele>
        <time>2024-10-24T08:03:20.952Z</time>
      </trkpt>
      <trkpt lat="44.47947" lon="6.23146">
        <ele>893.88</ele>
        <time>2024-10-24T08:03:21.987Z</time>
      </trkpt>
      <trkpt lat="44.47952" lon="6.23145">
        <ele>893.8</ele>
        <time>2024-10-24T08:03:23.973Z</time>
      </trkpt>
      <trkpt lat="44.47958" lon="6.23144">
        <ele>893.6</ele>
        <time>2024-10-24T08:03:26.649Z</time>
      </trkpt>
      <trkpt lat="44.47964" lon="6.23143">
        <ele>893.51</ele>
        <time>2024-10-24T08:03:28.951Z</time>
      </trkpt>
      <trkpt lat="44.47971" lon="6.23143">
        <ele>893.53</ele>
        <time>2024-10-24T08:03:30.953Z</time>
      </trkpt>
      <trkpt lat="44.47978" lon="6.23144">
        <ele>893.49</ele>
        <time>2024-10-24T08:03:32.953Z</time>
      </trkpt>
      <trkpt lat="44.47988" lon="6.23146">
        <ele>893.34</ele>
        <time>2024-10-24T08:03:34.954Z</time>
      </trkpt>
      <trkpt lat="44.47995" lon="6.23145">
        <ele>893.41</ele>
        <time>2024-10-24T08:03:36.716Z</time>
      </trkpt>
      <trkpt lat="44.48004" lon="6.23144">
        <ele>893.33</ele>
        <time>2024-10-24T08:03:38.957Z</time>
      </trkpt>
      <trkpt lat="44.48011" lon="6.23143">
        <ele>893.28</ele>
        <time>2024-10-24T08:03:40.953Z</time>
      </trkpt>
      <trkpt lat="44.48019" lon="6.23142">
        <ele>893.1</ele>
        <time>2024-10-24T08:03:42.954Z</time>
      </trkpt>
      <trkpt lat="44.4803" lon="6.23142">
        <ele>893.08</ele>
        <time>2024-10-24T08:03:44.954Z</time>
      </trkpt>
      <trkpt lat="44.48042" lon="6.23144">
        <ele>892.95</ele>
        <time>2024-10-24T08:03:46.953Z</time>
      </trkpt>
      <trkpt lat="44.48054" lon="6.23143">
        <ele>892.93</ele>
        <time>2024-10-24T08:03:48.954Z</time>
      </trkpt>
      <trkpt lat="44.48064" lon="6.23145">
        <ele>892.71</ele>
        <time>2024-10-24T08:03:50.953Z</time>
      </trkpt>
      <trkpt lat="44.48071" lon="6.23146">
        <ele>892.61</ele>
        <time>2024-10-24T08:03:51.997Z</time>
      </trkpt>
      <trkpt lat="44.48076" lon="6.23148">
        <ele>892.53</ele>
        <time>2024-10-24T08:03:54.954Z</time>
      </trkpt>
      <trkpt lat="44.48082" lon="6.23151">
        <ele>892.51</ele>
        <time>2024-10-24T08:03:56.524Z</time>
      </trkpt>
      <trkpt lat="44.48088" lon="6.23153">
        <ele>892.39</ele>
        <time>2024-10-24T08:03:58.507Z</time>
      </trkpt>
      <trkpt lat="44.48096" lon="6.23155">
        <ele>892.45</ele>
        <time>2024-10-24T08:04:00.531Z</time>
      </trkpt>
      <trkpt lat="44.48103" lon="6.23157">
        <ele>892.26</ele>
        <time>2024-10-24T08:04:02.508Z</time>
      </trkpt>
      <trkpt lat="44.48109" lon="6.23159">
        <ele>892.27</ele>
        <time>2024-10-24T08:04:04.657Z</time>
      </trkpt>
      <trkpt lat="44.48115" lon="6.23162">
        <ele>892.19</ele>
        <time>2024-10-24T08:04:06.011Z</time>
      </trkpt>
      <trkpt lat="44.4812" lon="6.23166">
        <ele>892.18</ele>
        <time>2024-10-24T08:04:08.766Z</time>
      </trkpt>
      <trkpt lat="44.48125" lon="6.23171">
        <ele>892.16</ele>
        <time>2024-10-24T08:04:10.019Z</time>
      </trkpt>
      <trkpt lat="44.4813" lon="6.23177">
        <ele>892.1</ele>
        <time>2024-10-24T08:04:12.610Z</time>
      </trkpt>
      <trkpt lat="44.48136" lon="6.23183">
        <ele>892.06</ele>
        <time>2024-10-24T08:04:14.952Z</time>
      </trkpt>
      <trkpt lat="44.48141" lon="6.23188">
        <ele>891.92</ele>
        <time>2024-10-24T08:04:16.660Z</time>
      </trkpt>
      <trkpt lat="44.48146" lon="6.23193">
        <ele>891.92</ele>
        <time>2024-10-24T08:04:18.952Z</time>
      </trkpt>
      <trkpt lat="44.48151" lon="6.23197">
        <ele>891.94</ele>
        <time>2024-10-24T08:04:20.525Z</time>
      </trkpt>
      <trkpt lat="44.48154" lon="6.23204">
        <ele>892.11</ele>
        <time>2024-10-24T08:04:22.954Z</time>
      </trkpt>
      <trkpt lat="44.48158" lon="6.23211">
        <ele>892.17</ele>
        <time>2024-10-24T08:04:24.953Z</time>
      </trkpt>
      <trkpt lat="44.48163" lon="6.23217">
        <ele>892.33</ele>
        <time>2024-10-24T08:04:26.953Z</time>
      </trkpt>
      <trkpt lat="44.48167" lon="6.23223">
        <ele>892.34</ele>
        <time>2024-10-24T08:04:28.782Z</time>
      </trkpt>
      <trkpt lat="44.48171" lon="6.23229">
        <ele>892.34</ele>
        <time>2024-10-24T08:04:30.953Z</time>
      </trkpt>
      <trkpt lat="44.48174" lon="6.23235">
        <ele>892.41</ele>
        <time>2024-10-24T08:04:32.953Z</time>
      </trkpt>
      <trkpt lat="44.48178" lon="6.23241">
        <ele>892.43</ele>
        <time>2024-10-24T08:04:34.953Z</time>
      </trkpt>
      <trkpt lat="44.48183" lon="6.23247">
        <ele>892.54</ele>
        <time>2024-10-24T08:04:36.952Z</time>
      </trkpt>
      <trkpt lat="44.48188" lon="6.23252">
        <ele>892.85</ele>
        <time>2024-10-24T08:04:38.953Z</time>
      </trkpt>
      <trkpt lat="44.48193" lon="6.23258">
        <ele>892.94</ele>
        <time>2024-10-24T08:04:40.953Z</time>
      </trkpt>
      <trkpt lat="44.48197" lon="6.23264">
        <ele>893.11</ele>
        <time>2024-10-24T08:04:42.960Z</time>
      </trkpt>
      <trkpt lat="44.48201" lon="6.23268">
        <ele>893.25</ele>
        <time>2024-10-24T08:04:44.951Z</time>
      </trkpt>
      <trkpt lat="44.48205" lon="6.23272">
        <ele>893.36</ele>
        <time>2024-10-24T08:04:46.954Z</time>
      </trkpt>
      <trkpt lat="44.4821" lon="6.23275">
        <ele>893.4</ele>
        <time>2024-10-24T08:04:48.951Z</time>
      </trkpt>
      <trkpt lat="44.48217" lon="6.23278">
        <ele>893.54</ele>
        <time>2024-10-24T08:04:50.827Z</time>
      </trkpt>
      <trkpt lat="44.48223" lon="6.23281">
        <ele>893.62</ele>
        <time>2024-10-24T08:04:52.952Z</time>
      </trkpt>
      <trkpt lat="44.48231" lon="6.23284">
        <ele>893.91</ele>
        <time>2024-10-24T08:04:54.953Z</time>
      </trkpt>
      <trkpt lat="44.48236" lon="6.23287">
        <ele>894.16</ele>
        <time>2024-10-24T08:04:57.052Z</time>
      </trkpt>
      <trkpt lat="44.4824" lon="6.23289">
        <ele>894.51</ele>
        <time>2024-10-24T08:04:58.953Z</time>
      </trkpt>
      <trkpt lat="44.48244" lon="6.2329">
        <ele>894.82</ele>
        <time>2024-10-24T08:05:00.870Z</time>
      </trkpt>
      <trkpt lat="44.48249" lon="6.23294">
        <ele>895.26</ele>
        <time>2024-10-24T08:05:03.051Z</time>
      </trkpt>
      <trkpt lat="44.48253" lon="6.23298">
        <ele>895.38</ele>
        <time>2024-10-24T08:05:05.053Z</time>
      </trkpt>
      <trkpt lat="44.48258" lon="6.23301">
        <ele>895.62</ele>
        <time>2024-10-24T08:05:06.083Z</time>
      </trkpt>
      <trkpt lat="44.48264" lon="6.23305">
        <ele>895.94</ele>
        <time>2024-10-24T08:05:09.051Z</time>
      </trkpt>
      <trkpt lat="44.4827" lon="6.23311">
        <ele>896.29</ele>
        <time>2024-10-24T08:05:11.053Z</time>
      </trkpt>
      <trkpt lat="44.48274" lon="6.23315">
        <ele>896.57</ele>
        <time>2024-10-24T08:05:13.053Z</time>
      </trkpt>
      <trkpt lat="44.48279" lon="6.23318">
        <ele>896.94</ele>
        <time>2024-10-24T08:05:15.052Z</time>
      </trkpt>
      <trkpt lat="44.48284" lon="6.23321">
        <ele>897.43</ele>
        <time>2024-10-24T08:05:17.053Z</time>
      </trkpt>
      <trkpt lat="44.4829" lon="6.23323">
        <ele>897.69</ele>
        <time>2024-10-24T08:05:19.054Z</time>
      </trkpt>
      <trkpt lat="44.48295" lon="6.23325">
        <ele>897.92</ele>
        <time>2024-10-24T08:05:21.052Z</time>
      </trkpt>
      <trkpt lat="44.48299" lon="6.23328">
        <ele>898.18</ele>
        <time>2024-10-24T08:05:23.051Z</time>
      </trkpt>
      <trkpt lat="44.48303" lon="6.2333">
        <ele>898.45</ele>
        <time>2024-10-24T08:05:25.053Z</time>
      </trkpt>
      <trkpt lat="44.48307" lon="6.23332">
        <ele>898.81</ele>
        <time>2024-10-24T08:05:27.052Z</time>
      </trkpt>
      <trkpt lat="44.48311" lon="6.23332">
        <ele>899.14</ele>
        <time>2024-10-24T08:05:29.081Z</time>
      </trkpt>
      <trkpt lat="44.48315" lon="6.23334">
        <ele>899.41</ele>
        <time>2024-10-24T08:05:31.052Z</time>
      </trkpt>
      <trkpt lat="44.48318" lon="6.23335">
        <ele>899.82</ele>
        <time>2024-10-24T08:05:33.053Z</time>
      </trkpt>
      <trkpt lat="44.48322" lon="6.23337">
        <ele>900.03</ele>
        <time>2024-10-24T08:05:35.051Z</time>
      </trkpt>
      <trkpt lat="44.48326" lon="6.23339">
        <ele>900.42</ele>
        <time>2024-10-24T08:05:37.051Z</time>
      </trkpt>
      <trkpt lat="44.4833" lon="6.2334">
        <ele>900.79</ele>
        <time>2024-10-24T08:05:39.053Z</time>
      </trkpt>
      <trkpt lat="44.48334" lon="6.23342">
        <ele>901.23</ele>
        <time>2024-10-24T08:05:41.053Z</time>
      </trkpt>
      <trkpt lat="44.48338" lon="6.23342">
        <ele>901.76</ele>
        <time>2024-10-24T08:05:43.054Z</time>
      </trkpt>
      <trkpt lat="44.48342" lon="6.23343">
        <ele>902.23</ele>
        <time>2024-10-24T08:05:45.052Z</time>
      </trkpt>
      <trkpt lat="44.48347" lon="6.23344">
        <ele>902.62</ele>
        <time>2024-10-24T08:05:47.052Z</time>
      </trkpt>
      <trkpt lat="44.48351" lon="6.23347">
        <ele>902.89</ele>
        <time>2024-10-24T08:05:49.052Z</time>
      </trkpt>
      <trkpt lat="44.48356" lon="6.2335">
        <ele>903.2</ele>
        <time>2024-10-24T08:05:50.930Z</time>
      </trkpt>
      <trkpt lat="44.4836" lon="6.23354">
        <ele>903.84</ele>
        <time>2024-10-24T08:05:52.955Z</time>
      </trkpt>
      <trkpt lat="44.48365" lon="6.23357">
        <ele>904.3</ele>
        <time>2024-10-24T08:05:55.052Z</time>
      </trkpt>
      <trkpt lat="44.4837" lon="6.23359">
        <ele>904.57</ele>
        <time>2024-10-24T08:05:57.052Z</time>
      </trkpt>
      <trkpt lat="44.48373" lon="6.23361">
        <ele>905.21</ele>
        <time>2024-10-24T08:05:59.052Z</time>
      </trkpt>
      <trkpt lat="44.48376" lon="6.23361">
        <ele>905.71</ele>
        <time>2024-10-24T08:06:01.053Z</time>
      </trkpt>
      <trkpt lat="44.48378" lon="6.23363">
        <ele>905.84</ele>
        <time>2024-10-24T08:06:03.052Z</time>
      </trkpt>
      <trkpt lat="44.48382" lon="6.23364">
        <ele>906.21</ele>
        <time>2024-10-24T08:06:05.051Z</time>
      </trkpt>
      <trkpt lat="44.48386" lon="6.23366">
        <ele>906.66</ele>
        <time>2024-10-24T08:06:07.052Z</time>
      </trkpt>
      <trkpt lat="44.48389" lon="6.2337">
        <ele>906.85</ele>
        <time>2024-10-24T08:06:09.054Z</time>
      </trkpt>
      <trkpt lat="44.48392" lon="6.23374">
        <ele>907.19</ele>
        <time>2024-10-24T08:06:11.053Z</time>
      </trkpt>
      <trkpt lat="44.48395" lon="6.23378">
        <ele>907.46</ele>
        <time>2024-10-24T08:06:12.966Z</time>
      </trkpt>
      <trkpt lat="44.48397" lon="6.23382">
        <ele>907.72</ele>
        <time>2024-10-24T08:06:15.052Z</time>
      </trkpt>
      <trkpt lat="44.48399" lon="6.23387">
        <ele>907.96</ele>
        <time>2024-10-24T08:06:17.051Z</time>
      </trkpt>
      <trkpt lat="44.48401" lon="6.23394">
        <ele>908.13</ele>
        <time>2024-10-24T08:06:19.051Z</time>
      </trkpt>
      <trkpt lat="44.48403" lon="6.234">
        <ele>908.32</ele>
        <time>2024-10-24T08:06:21.053Z</time>
      </trkpt>
      <trkpt lat="44.48405" lon="6.23405">
        <ele>908.66</ele>
        <time>2024-10-24T08:06:23.053Z</time>
      </trkpt>
      <trkpt lat="44.48406" lon="6.23409">
        <ele>908.99</ele>
        <time>2024-10-24T08:06:25.053Z</time>
      </trkpt>
      <trkpt lat="44.48409" lon="6.23415">
        <ele>909.23</ele>
        <time>2024-10-24T08:06:27.053Z</time>
      </trkpt>
      <trkpt lat="44.4841" lon="6.2342">
        <ele>909.49</ele>
        <time>2024-10-24T08:06:29.152Z</time>
      </trkpt>
      <trkpt lat="44.48411" lon="6.23425">
        <ele>909.86</ele>
        <time>2024-10-24T08:06:31.682Z</time>
      </trkpt>
      <trkpt lat="44.48406" lon="6.2342">
        <ele>910.07</ele>
        <time>2024-10-24T08:06:39.744Z</time>
      </trkpt>
      <trkpt lat="44.48405" lon="6.23419">
        <ele>913.24</ele>
        <time>2024-10-24T08:07:43.487Z</time>
      </trkpt>
      <trkpt lat="44.48403" lon="6.23419">
        <ele>913.43</ele>
        <time>2024-10-24T08:07:49.390Z</time>
      </trkpt>
      <trkpt lat="44.48394" lon="6.23416">
        <ele>913.48</ele>
        <time>2024-10-24T08:07:51.391Z</time>
      </trkpt>
      <trkpt lat="44.48389" lon="6.23413">
        <ele>913.75</ele>
        <time>2024-10-24T08:07:53.388Z</time>
      </trkpt>
      <trkpt lat="44.48385" lon="6.23413">
        <ele>913.81</ele>
        <time>2024-10-24T08:07:55.389Z</time>
      </trkpt>
      <trkpt lat="44.48381" lon="6.23413">
        <ele>913.99</ele>
        <time>2024-10-24T08:07:57.358Z</time>
      </trkpt>
      <trkpt lat="44.48377" lon="6.23414">
        <ele>914.17</ele>
        <time>2024-10-24T08:07:58.508Z</time>
      </trkpt>
      <trkpt lat="44.48372" lon="6.2341">
        <ele>914.35</ele>
        <time>2024-10-24T08:08:00.498Z</time>
      </trkpt>
      <trkpt lat="44.48366" lon="6.23411">
        <ele>914.54</ele>
        <time>2024-10-24T08:08:02.510Z</time>
      </trkpt>
      <trkpt lat="44.48361" lon="6.23411">
        <ele>914.9</ele>
        <time>2024-10-24T08:08:04.505Z</time>
      </trkpt>
      <trkpt lat="44.48355" lon="6.23409">
        <ele>914.85</ele>
        <time>2024-10-24T08:08:07.491Z</time>
      </trkpt>
      <trkpt lat="44.48351" lon="6.23408">
        <ele>915.2</ele>
        <time>2024-10-24T08:08:08.508Z</time>
      </trkpt>
      <trkpt lat="44.48346" lon="6.23405">
        <ele>915.16</ele>
        <time>2024-10-24T08:08:11.502Z</time>
      </trkpt>
      <trkpt lat="44.48342" lon="6.23403">
        <ele>915.16</ele>
        <time>2024-10-24T08:08:13.479Z</time>
      </trkpt>
      <trkpt lat="44.48339" lon="6.23397">
        <ele>915.36</ele>
        <time>2024-10-24T08:08:14.514Z</time>
      </trkpt>
      <trkpt lat="44.48335" lon="6.23394">
        <ele>915.69</ele>
        <time>2024-10-24T08:08:17.500Z</time>
      </trkpt>
      <trkpt lat="44.4833" lon="6.23392">
        <ele>915.58</ele>
        <time>2024-10-24T08:08:18.510Z</time>
      </trkpt>
      <trkpt lat="44.48325" lon="6.23391">
        <ele>916.04</ele>
        <time>2024-10-24T08:08:20.518Z</time>
      </trkpt>
      <trkpt lat="44.4832" lon="6.2339">
        <ele>916.34</ele>
        <time>2024-10-24T08:08:23.479Z</time>
      </trkpt>
      <trkpt lat="44.48315" lon="6.23391">
        <ele>916.67</ele>
        <time>2024-10-24T08:08:25.510Z</time>
      </trkpt>
      <trkpt lat="44.4831" lon="6.23392">
        <ele>916.85</ele>
        <time>2024-10-24T08:08:27.506Z</time>
      </trkpt>
      <trkpt lat="44.48304" lon="6.23391">
        <ele>917.08</ele>
        <time>2024-10-24T08:08:28.640Z</time>
      </trkpt>
      <trkpt lat="44.48299" lon="6.23391">
        <ele>917.34</ele>
        <time>2024-10-24T08:08:31.489Z</time>
      </trkpt>
      <trkpt lat="44.48294" lon="6.23389">
        <ele>917.28</ele>
        <time>2024-10-24T08:08:33.489Z</time>
      </trkpt>
      <trkpt lat="44.4829" lon="6.23388">
        <ele>917.67</ele>
        <time>2024-10-24T08:08:35.516Z</time>
      </trkpt>
      <trkpt lat="44.48285" lon="6.23389">
        <ele>917.82</ele>
        <time>2024-10-24T08:08:37.489Z</time>
      </trkpt>
      <trkpt lat="44.4828" lon="6.2339">
        <ele>918.14</ele>
        <time>2024-10-24T08:08:39.521Z</time>
      </trkpt>
      <trkpt lat="44.48276" lon="6.23388">
        <ele>918.39</ele>
        <time>2024-10-24T08:08:41.489Z</time>
      </trkpt>
      <trkpt lat="44.48272" lon="6.23383">
        <ele>918.94</ele>
        <time>2024-10-24T08:08:43.489Z</time>
      </trkpt>
      <trkpt lat="44.48269" lon="6.23379">
        <ele>919.42</ele>
        <time>2024-10-24T08:08:45.490Z</time>
      </trkpt>
      <trkpt lat="44.48263" lon="6.23376">
        <ele>919.83</ele>
        <time>2024-10-24T08:08:47.488Z</time>
      </trkpt>
      <trkpt lat="44.48257" lon="6.23374">
        <ele>920.14</ele>
        <time>2024-10-24T08:08:49.489Z</time>
      </trkpt>
      <trkpt lat="44.48253" lon="6.23373">
        <ele>920.73</ele>
        <time>2024-10-24T08:08:51.490Z</time>
      </trkpt>
      <trkpt lat="44.48249" lon="6.23373">
        <ele>921.02</ele>
        <time>2024-10-24T08:08:53.518Z</time>
      </trkpt>
      <trkpt lat="44.48245" lon="6.23373">
        <ele>921.29</ele>
        <time>2024-10-24T08:08:55.489Z</time>
      </trkpt>
      <trkpt lat="44.48241" lon="6.23373">
        <ele>921.6</ele>
        <time>2024-10-24T08:08:57.490Z</time>
      </trkpt>
      <trkpt lat="44.48237" lon="6.23373">
        <ele>921.86</ele>
        <time>2024-10-24T08:08:59.488Z</time>
      </trkpt>
      <trkpt lat="44.48233" lon="6.23372">
        <ele>922.12</ele>
        <time>2024-10-24T08:09:01.489Z</time>
      </trkpt>
      <trkpt lat="44.48229" lon="6.23371">
        <ele>922.53</ele>
        <time>2024-10-24T08:09:03.489Z</time>
      </trkpt>
      <trkpt lat="44.48224" lon="6.23369">
        <ele>923</ele>
        <time>2024-10-24T08:09:05.489Z</time>
      </trkpt>
      <trkpt lat="44.48219" lon="6.23368">
        <ele>923.39</ele>
        <time>2024-10-24T08:09:07.489Z</time>
      </trkpt>
      <trkpt lat="44.48214" lon="6.23369">
        <ele>923.79</ele>
        <time>2024-10-24T08:09:09.488Z</time>
      </trkpt>
      <trkpt lat="44.48209" lon="6.23369">
        <ele>924.11</ele>
        <time>2024-10-24T08:09:11.488Z</time>
      </trkpt>
      <trkpt lat="44.48205" lon="6.23365">
        <ele>924.5</ele>
        <time>2024-10-24T08:09:13.488Z</time>
      </trkpt>
      <trkpt lat="44.48202" lon="6.23361">
        <ele>924.88</ele>
        <time>2024-10-24T08:09:15.489Z</time>
      </trkpt>
      <trkpt lat="44.48198" lon="6.23358">
        <ele>925.41</ele>
        <time>2024-10-24T08:09:17.488Z</time>
      </trkpt>
      <trkpt lat="44.48195" lon="6.23355">
        <ele>925.79</ele>
        <time>2024-10-24T08:09:19.489Z</time>
      </trkpt>
      <trkpt lat="44.48191" lon="6.23351">
        <ele>926.11</ele>
        <time>2024-10-24T08:09:21.489Z</time>
      </trkpt>
      <trkpt lat="44.48189" lon="6.23346">
        <ele>926.66</ele>
        <time>2024-10-24T08:09:23.489Z</time>
      </trkpt>
      <trkpt lat="44.48186" lon="6.23341">
        <ele>926.95</ele>
        <time>2024-10-24T08:09:25.489Z</time>
      </trkpt>
      <trkpt lat="44.48182" lon="6.23336">
        <ele>927.31</ele>
        <time>2024-10-24T08:09:27.489Z</time>
      </trkpt>
      <trkpt lat="44.48178" lon="6.23333">
        <ele>927.69</ele>
        <time>2024-10-24T08:09:29.488Z</time>
      </trkpt>
      <trkpt lat="44.48174" lon="6.2333">
        <ele>928.29</ele>
        <time>2024-10-24T08:09:31.490Z</time>
      </trkpt>
      <trkpt lat="44.48169" lon="6.23327">
        <ele>928.8</ele>
        <time>2024-10-24T08:09:33.588Z</time>
      </trkpt>
      <trkpt lat="44.48166" lon="6.23324">
        <ele>929.34</ele>
        <time>2024-10-24T08:09:35.589Z</time>
      </trkpt>
      <trkpt lat="44.48161" lon="6.2332">
        <ele>929.7</ele>
        <time>2024-10-24T08:09:37.590Z</time>
      </trkpt>
      <trkpt lat="44.48157" lon="6.23316">
        <ele>930.31</ele>
        <time>2024-10-24T08:09:39.588Z</time>
      </trkpt>
      <trkpt lat="44.48153" lon="6.23312">
        <ele>930.95</ele>
        <time>2024-10-24T08:09:41.589Z</time>
      </trkpt>
      <trkpt lat="44.48149" lon="6.23309">
        <ele>931.74</ele>
        <time>2024-10-24T08:09:43.398Z</time>
      </trkpt>
      <trkpt lat="44.48145" lon="6.23307">
        <ele>932.15</ele>
        <time>2024-10-24T08:09:45.587Z</time>
      </trkpt>
      <trkpt lat="44.48141" lon="6.23307">
        <ele>932.8</ele>
        <time>2024-10-24T08:09:47.588Z</time>
      </trkpt>
      <trkpt lat="44.48137" lon="6.23307">
        <ele>933.3</ele>
        <time>2024-10-24T08:09:49.589Z</time>
      </trkpt>
      <trkpt lat="44.48132" lon="6.23306">
        <ele>933.81</ele>
        <time>2024-10-24T08:09:51.367Z</time>
      </trkpt>
      <trkpt lat="44.48127" lon="6.23307">
        <ele>934.2</ele>
        <time>2024-10-24T08:09:53.116Z</time>
      </trkpt>
      <trkpt lat="44.48121" lon="6.23308">
        <ele>934.7</ele>
        <time>2024-10-24T08:09:55.548Z</time>
      </trkpt>
      <trkpt lat="44.48117" lon="6.2331">
        <ele>935.46</ele>
        <time>2024-10-24T08:09:57.588Z</time>
      </trkpt>
      <trkpt lat="44.48112" lon="6.23312">
        <ele>935.68</ele>
        <time>2024-10-24T08:09:59.588Z</time>
      </trkpt>
      <trkpt lat="44.48108" lon="6.23314">
        <ele>936.28</ele>
        <time>2024-10-24T08:10:01.467Z</time>
      </trkpt>
      <trkpt lat="44.48104" lon="6.23316">
        <ele>936.78</ele>
        <time>2024-10-24T08:10:03.590Z</time>
      </trkpt>
      <trkpt lat="44.481" lon="6.23318">
        <ele>937.19</ele>
        <time>2024-10-24T08:10:05.589Z</time>
      </trkpt>
      <trkpt lat="44.48096" lon="6.2332">
        <ele>937.47</ele>
        <time>2024-10-24T08:10:07.589Z</time>
      </trkpt>
      <trkpt lat="44.48092" lon="6.23319">
        <ele>938.09</ele>
        <time>2024-10-24T08:10:09.590Z</time>
      </trkpt>
      <trkpt lat="44.48088" lon="6.23316">
        <ele>938.86</ele>
        <time>2024-10-24T08:10:11.591Z</time>
      </trkpt>
      <trkpt lat="44.48084" lon="6.23312">
        <ele>939.2</ele>
        <time>2024-10-24T08:10:13.589Z</time>
      </trkpt>
      <trkpt lat="44.48079" lon="6.23309">
        <ele>939.76</ele>
        <time>2024-10-24T08:10:15.589Z</time>
      </trkpt>
      <trkpt lat="44.48074" lon="6.23308">
        <ele>940.35</ele>
        <time>2024-10-24T08:10:17.589Z</time>
      </trkpt>
      <trkpt lat="44.48067" lon="6.23308">
        <ele>940.95</ele>
        <time>2024-10-24T08:10:19.589Z</time>
      </trkpt>
      <trkpt lat="44.48061" lon="6.23311">
        <ele>941.02</ele>
        <time>2024-10-24T08:10:21.590Z</time>
      </trkpt>
      <trkpt lat="44.48053" lon="6.23314">
        <ele>941.24</ele>
        <time>2024-10-24T08:10:23.588Z</time>
      </trkpt>
      <trkpt lat="44.48048" lon="6.23317">
        <ele>941.48</ele>
        <time>2024-10-24T08:10:25.589Z</time>
      </trkpt>
      <trkpt lat="44.48042" lon="6.23319">
        <ele>941.92</ele>
        <time>2024-10-24T08:10:27.588Z</time>
      </trkpt>
      <trkpt lat="44.48037" lon="6.23323">
        <ele>942.1</ele>
        <time>2024-10-24T08:10:29.589Z</time>
      </trkpt>
      <trkpt lat="44.48032" lon="6.23327">
        <ele>942.32</ele>
        <time>2024-10-24T08:10:31.463Z</time>
      </trkpt>
      <trkpt lat="44.48028" lon="6.23331">
        <ele>942.64</ele>
        <time>2024-10-24T08:10:33.588Z</time>
      </trkpt>
      <trkpt lat="44.48023" lon="6.23333">
        <ele>942.77</ele>
        <time>2024-10-24T08:10:35.589Z</time>
      </trkpt>
      <trkpt lat="44.48018" lon="6.23335">
        <ele>943.01</ele>
        <time>2024-10-24T08:10:37.351Z</time>
      </trkpt>
      <trkpt lat="44.48012" lon="6.23336">
        <ele>943.24</ele>
        <time>2024-10-24T08:10:39.211Z</time>
      </trkpt>
      <trkpt lat="44.48006" lon="6.23336">
        <ele>943.46</ele>
        <time>2024-10-24T08:10:41.587Z</time>
      </trkpt>
      <trkpt lat="44.48" lon="6.23336">
        <ele>943.98</ele>
        <time>2024-10-24T08:10:43.422Z</time>
      </trkpt>
      <trkpt lat="44.47993" lon="6.23336">
        <ele>944.31</ele>
        <time>2024-10-24T08:10:45.588Z</time>
      </trkpt>
      <trkpt lat="44.47987" lon="6.23336">
        <ele>944.6</ele>
        <time>2024-10-24T08:10:47.587Z</time>
      </trkpt>
      <trkpt lat="44.47982" lon="6.23334">
        <ele>944.84</ele>
        <time>2024-10-24T08:10:49.589Z</time>
      </trkpt>
      <trkpt lat="44.47976" lon="6.23334">
        <ele>945.12</ele>
        <time>2024-10-24T08:10:51.590Z</time>
      </trkpt>
      <trkpt lat="44.4797" lon="6.23335">
        <ele>945.14</ele>
        <time>2024-10-24T08:10:53.589Z</time>
      </trkpt>
      <trkpt lat="44.47963" lon="6.23337">
        <ele>945.68</ele>
        <time>2024-10-24T08:10:55.588Z</time>
      </trkpt>
      <trkpt lat="44.47958" lon="6.2334">
        <ele>945.94</ele>
        <time>2024-10-24T08:10:57.589Z</time>
      </trkpt>
      <trkpt lat="44.47952" lon="6.23343">
        <ele>946.23</ele>
        <time>2024-10-24T08:10:59.587Z</time>
      </trkpt>
      <trkpt lat="44.47948" lon="6.23349">
        <ele>946.42</ele>
        <time>2024-10-24T08:11:01.589Z</time>
      </trkpt>
      <trkpt lat="44.47943" lon="6.23354">
        <ele>946.83</ele>
        <time>2024-10-24T08:11:03.587Z</time>
      </trkpt>
      <trkpt lat="44.47939" lon="6.23359">
        <ele>947.02</ele>
        <time>2024-10-24T08:11:04.748Z</time>
      </trkpt>
      <trkpt lat="44.47934" lon="6.23364">
        <ele>947.42</ele>
        <time>2024-10-24T08:11:07.220Z</time>
      </trkpt>
      <trkpt lat="44.4793" lon="6.23367">
        <ele>947.77</ele>
        <time>2024-10-24T08:11:09.406Z</time>
      </trkpt>
      <trkpt lat="44.47927" lon="6.23369">
        <ele>947.94</ele>
        <time>2024-10-24T08:11:11.509Z</time>
      </trkpt>
      <trkpt lat="44.47923" lon="6.2337">
        <ele>948.2</ele>
        <time>2024-10-24T08:11:13.672Z</time>
      </trkpt>
      <trkpt lat="44.47918" lon="6.23371">
        <ele>948.77</ele>
        <time>2024-10-24T08:11:14.766Z</time>
      </trkpt>
      <trkpt lat="44.47914" lon="6.23373">
        <ele>949.07</ele>
        <time>2024-10-24T08:11:16.764Z</time>
      </trkpt>
      <trkpt lat="44.47908" lon="6.23375">
        <ele>949.31</ele>
        <time>2024-10-24T08:11:18.769Z</time>
      </trkpt>
      <trkpt lat="44.47903" lon="6.23378">
        <ele>949.71</ele>
        <time>2024-10-24T08:11:21.234Z</time>
      </trkpt>
      <trkpt lat="44.479" lon="6.2338">
        <ele>950.47</ele>
        <time>2024-10-24T08:11:23.525Z</time>
      </trkpt>
      <trkpt lat="44.47898" lon="6.23383">
        <ele>950.62</ele>
        <time>2024-10-24T08:11:24.771Z</time>
      </trkpt>
      <trkpt lat="44.47895" lon="6.23386">
        <ele>950.86</ele>
        <time>2024-10-24T08:11:27.541Z</time>
      </trkpt>
      <trkpt lat="44.47892" lon="6.23388">
        <ele>951.12</ele>
        <time>2024-10-24T08:11:28.772Z</time>
      </trkpt>
      <trkpt lat="44.47889" lon="6.23392">
        <ele>951.64</ele>
        <time>2024-10-24T08:11:31.608Z</time>
      </trkpt>
      <trkpt lat="44.47886" lon="6.23395">
        <ele>952.28</ele>
        <time>2024-10-24T08:11:32.773Z</time>
      </trkpt>
      <trkpt lat="44.47884" lon="6.23399">
        <ele>952.71</ele>
        <time>2024-10-24T08:11:35.259Z</time>
      </trkpt>
      <trkpt lat="44.4788" lon="6.23401">
        <ele>953.27</ele>
        <time>2024-10-24T08:11:36.783Z</time>
      </trkpt>
      <trkpt lat="44.47876" lon="6.23404">
        <ele>953.65</ele>
        <time>2024-10-24T08:11:38.760Z</time>
      </trkpt>
      <trkpt lat="44.47872" lon="6.23407">
        <ele>954.2</ele>
        <time>2024-10-24T08:11:40.749Z</time>
      </trkpt>
      <trkpt lat="44.47867" lon="6.23411">
        <ele>954.62</ele>
        <time>2024-10-24T08:11:42.776Z</time>
      </trkpt>
      <trkpt lat="44.47863" lon="6.23416">
        <ele>955.03</ele>
        <time>2024-10-24T08:11:45.557Z</time>
      </trkpt>
      <trkpt lat="44.4786" lon="6.23421">
        <ele>955.65</ele>
        <time>2024-10-24T08:11:46.781Z</time>
      </trkpt>
      <trkpt lat="44.47856" lon="6.23427">
        <ele>956.32</ele>
        <time>2024-10-24T08:11:48.781Z</time>
      </trkpt>
      <trkpt lat="44.47853" lon="6.23433">
        <ele>956.76</ele>
        <time>2024-10-24T08:11:51.314Z</time>
      </trkpt>
      <trkpt lat="44.47849" lon="6.23441">
        <ele>957.24</ele>
        <time>2024-10-24T08:11:52.771Z</time>
      </trkpt>
      <trkpt lat="44.47845" lon="6.23447">
        <ele>957.65</ele>
        <time>2024-10-24T08:11:54.782Z</time>
      </trkpt>
      <trkpt lat="44.47842" lon="6.23453">
        <ele>957.89</ele>
        <time>2024-10-24T08:11:56.758Z</time>
      </trkpt>
      <trkpt lat="44.47843" lon="6.2346">
        <ele>958.27</ele>
        <time>2024-10-24T08:11:58.774Z</time>
      </trkpt>
      <trkpt lat="44.47848" lon="6.23461">
        <ele>958.55</ele>
        <time>2024-10-24T08:12:00.771Z</time>
      </trkpt>
      <trkpt lat="44.47852" lon="6.23459">
        <ele>959.21</ele>
        <time>2024-10-24T08:12:02.773Z</time>
      </trkpt>
      <trkpt lat="44.47857" lon="6.23458">
        <ele>959.68</ele>
        <time>2024-10-24T08:12:04.762Z</time>
      </trkpt>
      <trkpt lat="44.4786" lon="6.23457">
        <ele>960.17</ele>
        <time>2024-10-24T08:12:06.777Z</time>
      </trkpt>
      <trkpt lat="44.47863" lon="6.23457">
        <ele>960.75</ele>
        <time>2024-10-24T08:12:08.777Z</time>
      </trkpt>
      <trkpt lat="44.47866" lon="6.23458">
        <ele>961.2</ele>
        <time>2024-10-24T08:12:10.781Z</time>
      </trkpt>
      <trkpt lat="44.47869" lon="6.23459">
        <ele>961.69</ele>
        <time>2024-10-24T08:12:12.783Z</time>
      </trkpt>
      <trkpt lat="44.47873" lon="6.23461">
        <ele>962.17</ele>
        <time>2024-10-24T08:12:14.785Z</time>
      </trkpt>
      <trkpt lat="44.47876" lon="6.23461">
        <ele>963.03</ele>
        <time>2024-10-24T08:12:16.782Z</time>
      </trkpt>
      <trkpt lat="44.47879" lon="6.23462">
        <ele>963.53</ele>
        <time>2024-10-24T08:12:18.689Z</time>
      </trkpt>
      <trkpt lat="44.47882" lon="6.23464">
        <ele>964.34</ele>
        <time>2024-10-24T08:12:20.690Z</time>
      </trkpt>
      <trkpt lat="44.47887" lon="6.23464">
        <ele>964.99</ele>
        <time>2024-10-24T08:12:22.779Z</time>
      </trkpt>
      <trkpt lat="44.47891" lon="6.23462">
        <ele>965.68</ele>
        <time>2024-10-24T08:12:24.691Z</time>
      </trkpt>
      <trkpt lat="44.47895" lon="6.23459">
        <ele>966.37</ele>
        <time>2024-10-24T08:12:27.689Z</time>
      </trkpt>
      <trkpt lat="44.47899" lon="6.23457">
        <ele>967.23</ele>
        <time>2024-10-24T08:12:28.688Z</time>
      </trkpt>
      <trkpt lat="44.47903" lon="6.23458">
        <ele>967.82</ele>
        <time>2024-10-24T08:12:30.787Z</time>
      </trkpt>
      <trkpt lat="44.47906" lon="6.23457">
        <ele>968.45</ele>
        <time>2024-10-24T08:12:31.801Z</time>
      </trkpt>
      <trkpt lat="44.4791" lon="6.23457">
        <ele>968.88</ele>
        <time>2024-10-24T08:12:33.922Z</time>
      </trkpt>
      <trkpt lat="44.47913" lon="6.23457">
        <ele>969.35</ele>
        <time>2024-10-24T08:12:36.788Z</time>
      </trkpt>
      <trkpt lat="44.47916" lon="6.23456">
        <ele>970.15</ele>
        <time>2024-10-24T08:12:38.789Z</time>
      </trkpt>
      <trkpt lat="44.47919" lon="6.23457">
        <ele>971.02</ele>
        <time>2024-10-24T08:12:40.633Z</time>
      </trkpt>
      <trkpt lat="44.47922" lon="6.23459">
        <ele>971.78</ele>
        <time>2024-10-24T08:12:41.817Z</time>
      </trkpt>
      <trkpt lat="44.47924" lon="6.23459">
        <ele>972.51</ele>
        <time>2024-10-24T08:12:43.847Z</time>
      </trkpt>
      <trkpt lat="44.47927" lon="6.2346">
        <ele>973.07</ele>
        <time>2024-10-24T08:12:45.878Z</time>
      </trkpt>
      <trkpt lat="44.4793" lon="6.23461">
        <ele>973.66</ele>
        <time>2024-10-24T08:12:48.333Z</time>
      </trkpt>
      <trkpt lat="44.47933" lon="6.23463">
        <ele>974.37</ele>
        <time>2024-10-24T08:12:50.450Z</time>
      </trkpt>
      <trkpt lat="44.47935" lon="6.23466">
        <ele>975.22</ele>
        <time>2024-10-24T08:12:52.704Z</time>
      </trkpt>
      <trkpt lat="44.47939" lon="6.2347">
        <ele>975.95</ele>
        <time>2024-10-24T08:12:54.788Z</time>
      </trkpt>
      <trkpt lat="44.47941" lon="6.23472">
        <ele>976.76</ele>
        <time>2024-10-24T08:12:56.789Z</time>
      </trkpt>
      <trkpt lat="44.47944" lon="6.23475">
        <ele>977.63</ele>
        <time>2024-10-24T08:12:58.661Z</time>
      </trkpt>
      <trkpt lat="44.47947" lon="6.23477">
        <ele>978.41</ele>
        <time>2024-10-24T08:13:00.788Z</time>
      </trkpt>
      <trkpt lat="44.47948" lon="6.23479">
        <ele>979.15</ele>
        <time>2024-10-24T08:13:02.789Z</time>
      </trkpt>
      <trkpt lat="44.4795" lon="6.23481">
        <ele>979.72</ele>
        <time>2024-10-24T08:13:04.789Z</time>
      </trkpt>
      <trkpt lat="44.47953" lon="6.23482">
        <ele>980.36</ele>
        <time>2024-10-24T08:13:06.788Z</time>
      </trkpt>
      <trkpt lat="44.47956" lon="6.23482">
        <ele>980.95</ele>
        <time>2024-10-24T08:13:08.789Z</time>
      </trkpt>
      <trkpt lat="44.47958" lon="6.23484">
        <ele>981.27</ele>
        <time>2024-10-24T08:13:10.789Z</time>
      </trkpt>
      <trkpt lat="44.4796" lon="6.23484">
        <ele>982.05</ele>
        <time>2024-10-24T08:13:12.789Z</time>
      </trkpt>
      <trkpt lat="44.47963" lon="6.23486">
        <ele>982.05</ele>
        <time>2024-10-24T08:13:14.788Z</time>
      </trkpt>
      <trkpt lat="44.47965" lon="6.23487">
        <ele>983.95</ele>
        <time>2024-10-24T08:13:16.788Z</time>
      </trkpt>
      <trkpt lat="44.47967" lon="6.23488">
        <ele>984.71</ele>
        <time>2024-10-24T08:13:18.790Z</time>
      </trkpt>
      <trkpt lat="44.47969" lon="6.2349">
        <ele>985.34</ele>
        <time>2024-10-24T08:13:20.787Z</time>
      </trkpt>
      <trkpt lat="44.47972" lon="6.23492">
        <ele>986.07</ele>
        <time>2024-10-24T08:13:22.789Z</time>
      </trkpt>
      <trkpt lat="44.47976" lon="6.23493">
        <ele>986.7</ele>
        <time>2024-10-24T08:13:24.789Z</time>
      </trkpt>
      <trkpt lat="44.47979" lon="6.23494">
        <ele>987.38</ele>
        <time>2024-10-24T08:13:26.789Z</time>
      </trkpt>
      <trkpt lat="44.47982" lon="6.23496">
        <ele>988.23</ele>
        <time>2024-10-24T08:13:28.788Z</time>
      </trkpt>
      <trkpt lat="44.47986" lon="6.23498">
        <ele>989.07</ele>
        <time>2024-10-24T08:13:30.788Z</time>
      </trkpt>
      <trkpt lat="44.4799" lon="6.23499">
        <ele>989.67</ele>
        <time>2024-10-24T08:13:32.789Z</time>
      </trkpt>
      <trkpt lat="44.47993" lon="6.23501">
        <ele>990.59</ele>
        <time>2024-10-24T08:13:34.788Z</time>
      </trkpt>
      <trkpt lat="44.47998" lon="6.23502">
        <ele>991.18</ele>
        <time>2024-10-24T08:13:36.789Z</time>
      </trkpt>
      <trkpt lat="44.48001" lon="6.23504">
        <ele>991.46</ele>
        <time>2024-10-24T08:13:38.787Z</time>
      </trkpt>
      <trkpt lat="44.48004" lon="6.23506">
        <ele>992.16</ele>
        <time>2024-10-24T08:13:40.891Z</time>
      </trkpt>
      <trkpt lat="44.48008" lon="6.23507">
        <ele>992.69</ele>
        <time>2024-10-24T08:13:42.548Z</time>
      </trkpt>
      <trkpt lat="44.48011" lon="6.23508">
        <ele>993.03</ele>
        <time>2024-10-24T08:13:44.889Z</time>
      </trkpt>
      <trkpt lat="44.48014" lon="6.2351">
        <ele>993.5</ele>
        <time>2024-10-24T08:13:46.889Z</time>
      </trkpt>
      <trkpt lat="44.48017" lon="6.23513">
        <ele>994.14</ele>
        <time>2024-10-24T08:13:48.889Z</time>
      </trkpt>
      <trkpt lat="44.4802" lon="6.23514">
        <ele>994.73</ele>
        <time>2024-10-24T08:13:50.890Z</time>
      </trkpt>
      <trkpt lat="44.48023" lon="6.23517">
        <ele>995.39</ele>
        <time>2024-10-24T08:13:52.889Z</time>
      </trkpt>
      <trkpt lat="44.48026" lon="6.23519">
        <ele>995.94</ele>
        <time>2024-10-24T08:13:54.890Z</time>
      </trkpt>
      <trkpt lat="44.48029" lon="6.2352">
        <ele>996.23</ele>
        <time>2024-10-24T08:13:56.888Z</time>
      </trkpt>
      <trkpt lat="44.48032" lon="6.23522">
        <ele>996.58</ele>
        <time>2024-10-24T08:13:58.890Z</time>
      </trkpt>
      <trkpt lat="44.48035" lon="6.23524">
        <ele>997.12</ele>
        <time>2024-10-24T08:14:00.889Z</time>
      </trkpt>
      <trkpt lat="44.48038" lon="6.23526">
        <ele>997.9</ele>
        <time>2024-10-24T08:14:02.890Z</time>
      </trkpt>
      <trkpt lat="44.48042" lon="6.23527">
        <ele>998.94</ele>
        <time>2024-10-24T08:14:04.889Z</time>
      </trkpt>
      <trkpt lat="44.48045" lon="6.23529">
        <ele>999.26</ele>
        <time>2024-10-24T08:14:06.762Z</time>
      </trkpt>
      <trkpt lat="44.48047" lon="6.23532">
        <ele>999.75</ele>
        <time>2024-10-24T08:14:08.888Z</time>
      </trkpt>
      <trkpt lat="44.48049" lon="6.23535">
        <ele>1000.14</ele>
        <time>2024-10-24T08:14:10.888Z</time>
      </trkpt>
      <trkpt lat="44.4805" lon="6.23539">
        <ele>1000.58</ele>
        <time>2024-10-24T08:14:12.889Z</time>
      </trkpt>
      <trkpt lat="44.4805" lon="6.23543">
        <ele>1001.02</ele>
        <time>2024-10-24T08:14:14.888Z</time>
      </trkpt>
      <trkpt lat="44.48049" lon="6.23548">
        <ele>1001.84</ele>
        <time>2024-10-24T08:14:16.888Z</time>
      </trkpt>
      <trkpt lat="44.48047" lon="6.23552">
        <ele>1002.3</ele>
        <time>2024-10-24T08:14:17.943Z</time>
      </trkpt>
      <trkpt lat="44.48048" lon="6.23558">
        <ele>1002.94</ele>
        <time>2024-10-24T08:14:20.888Z</time>
      </trkpt>
      <trkpt lat="44.48059" lon="6.23578">
        <ele>1003.48</ele>
        <time>2024-10-24T08:14:32.494Z</time>
      </trkpt>
      <trkpt lat="44.48051" lon="6.23566">
        <ele>1008.91</ele>
        <time>2024-10-24T08:18:52.177Z</time>
      </trkpt>
      <trkpt lat="44.48053" lon="6.23568">
        <ele>1008.91</ele>
        <time>2024-10-24T08:18:54.156Z</time>
      </trkpt>
      <trkpt lat="44.48057" lon="6.23567">
        <ele>1008.99</ele>
        <time>2024-10-24T08:18:56.156Z</time>
      </trkpt>
      <trkpt lat="44.48059" lon="6.23567">
        <ele>1009.05</ele>
        <time>2024-10-24T08:18:57.063Z</time>
      </trkpt>
      <trkpt lat="44.48064" lon="6.23569">
        <ele>1009.04</ele>
        <time>2024-10-24T08:18:58.200Z</time>
      </trkpt>
      <trkpt lat="44.48067" lon="6.23572">
        <ele>1009.09</ele>
        <time>2024-10-24T08:19:01.155Z</time>
      </trkpt>
      <trkpt lat="44.48071" lon="6.23574">
        <ele>1009.16</ele>
        <time>2024-10-24T08:19:03.176Z</time>
      </trkpt>
      <trkpt lat="44.48074" lon="6.23577">
        <ele>1009.22</ele>
        <time>2024-10-24T08:19:05.166Z</time>
      </trkpt>
      <trkpt lat="44.48078" lon="6.23581">
        <ele>1009.3</ele>
        <time>2024-10-24T08:19:07.155Z</time>
      </trkpt>
      <trkpt lat="44.48081" lon="6.23585">
        <ele>1009.4</ele>
        <time>2024-10-24T08:19:09.158Z</time>
      </trkpt>
      <trkpt lat="44.48084" lon="6.23589">
        <ele>1009.45</ele>
        <time>2024-10-24T08:19:10.225Z</time>
      </trkpt>
      <trkpt lat="44.48086" lon="6.23591">
        <ele>1009.55</ele>
        <time>2024-10-24T08:19:13.156Z</time>
      </trkpt>
      <trkpt lat="44.48089" lon="6.23592">
        <ele>1009.65</ele>
        <time>2024-10-24T08:19:15.157Z</time>
      </trkpt>
      <trkpt lat="44.48094" lon="6.23595">
        <ele>1009.67</ele>
        <time>2024-10-24T08:19:17.104Z</time>
      </trkpt>
      <trkpt lat="44.48098" lon="6.23599">
        <ele>1009.84</ele>
        <time>2024-10-24T08:19:19.156Z</time>
      </trkpt>
      <trkpt lat="44.48101" lon="6.23603">
        <ele>1010.06</ele>
        <time>2024-10-24T08:19:21.195Z</time>
      </trkpt>
      <trkpt lat="44.48104" lon="6.23607">
        <ele>1010.2</ele>
        <time>2024-10-24T08:19:23.158Z</time>
      </trkpt>
      <trkpt lat="44.48106" lon="6.2361">
        <ele>1010.42</ele>
        <time>2024-10-24T08:19:25.157Z</time>
      </trkpt>
      <trkpt lat="44.48108" lon="6.23613">
        <ele>1010.6</ele>
        <time>2024-10-24T08:19:27.156Z</time>
      </trkpt>
      <trkpt lat="44.4811" lon="6.23617">
        <ele>1010.78</ele>
        <time>2024-10-24T08:19:28.762Z</time>
      </trkpt>
      <trkpt lat="44.48115" lon="6.23619">
        <ele>1010.99</ele>
        <time>2024-10-24T08:19:31.157Z</time>
      </trkpt>
      <trkpt lat="44.48119" lon="6.23622">
        <ele>1011.31</ele>
        <time>2024-10-24T08:19:33.156Z</time>
      </trkpt>
      <trkpt lat="44.48123" lon="6.23625">
        <ele>1011.5</ele>
        <time>2024-10-24T08:19:35.156Z</time>
      </trkpt>
      <trkpt lat="44.48127" lon="6.23627">
        <ele>1011.91</ele>
        <time>2024-10-24T08:19:37.223Z</time>
      </trkpt>
      <trkpt lat="44.48131" lon="6.23628">
        <ele>1012.22</ele>
        <time>2024-10-24T08:19:38.719Z</time>
      </trkpt>
      <trkpt lat="44.48135" lon="6.2363">
        <ele>1012.53</ele>
        <time>2024-10-24T08:19:41.156Z</time>
      </trkpt>
      <trkpt lat="44.48138" lon="6.23632">
        <ele>1012.89</ele>
        <time>2024-10-24T08:19:43.156Z</time>
      </trkpt>
      <trkpt lat="44.48141" lon="6.23633">
        <ele>1013.09</ele>
        <time>2024-10-24T08:19:45.157Z</time>
      </trkpt>
      <trkpt lat="44.48144" lon="6.23634">
        <ele>1013.61</ele>
        <time>2024-10-24T08:19:47.157Z</time>
      </trkpt>
      <trkpt lat="44.48147" lon="6.23635">
        <ele>1014.09</ele>
        <time>2024-10-24T08:19:49.157Z</time>
      </trkpt>
      <trkpt lat="44.4815" lon="6.23638">
        <ele>1014.47</ele>
        <time>2024-10-24T08:19:51.156Z</time>
      </trkpt>
      <trkpt lat="44.48154" lon="6.23639">
        <ele>1015.09</ele>
        <time>2024-10-24T08:19:53.157Z</time>
      </trkpt>
      <trkpt lat="44.48158" lon="6.2364">
        <ele>1015.66</ele>
        <time>2024-10-24T08:19:55.156Z</time>
      </trkpt>
      <trkpt lat="44.4816" lon="6.23642">
        <ele>1016.21</ele>
        <time>2024-10-24T08:19:57.240Z</time>
      </trkpt>
      <trkpt lat="44.48162" lon="6.23643">
        <ele>1016.84</ele>
        <time>2024-10-24T08:19:59.158Z</time>
      </trkpt>
      <trkpt lat="44.48166" lon="6.23643">
        <ele>1017.63</ele>
        <time>2024-10-24T08:20:01.155Z</time>
      </trkpt>
      <trkpt lat="44.4817" lon="6.23645">
        <ele>1018.58</ele>
        <time>2024-10-24T08:20:03.155Z</time>
      </trkpt>
      <trkpt lat="44.48175" lon="6.23647">
        <ele>1019.26</ele>
        <time>2024-10-24T08:20:05.199Z</time>
      </trkpt>
      <trkpt lat="44.48179" lon="6.23648">
        <ele>1019.78</ele>
        <time>2024-10-24T08:20:07.156Z</time>
      </trkpt>
      <trkpt lat="44.48184" lon="6.2365">
        <ele>1020.46</ele>
        <time>2024-10-24T08:20:09.257Z</time>
      </trkpt>
      <trkpt lat="44.48188" lon="6.23652">
        <ele>1021.14</ele>
        <time>2024-10-24T08:20:10.266Z</time>
      </trkpt>
      <trkpt lat="44.48191" lon="6.23654">
        <ele>1021.97</ele>
        <time>2024-10-24T08:20:13.258Z</time>
      </trkpt>
      <trkpt lat="44.48195" lon="6.23655">
        <ele>1022.91</ele>
        <time>2024-10-24T08:20:15.258Z</time>
      </trkpt>
      <trkpt lat="44.48198" lon="6.23656">
        <ele>1023.6</ele>
        <time>2024-10-24T08:20:16.983Z</time>
      </trkpt>
      <trkpt lat="44.48201" lon="6.23659">
        <ele>1024.3401</ele>
        <time>2024-10-24T08:20:19.182Z</time>
      </trkpt>
      <trkpt lat="44.48203" lon="6.2366">
        <ele>1025.2</ele>
        <time>2024-10-24T08:20:21.257Z</time>
      </trkpt>
      <trkpt lat="44.48206" lon="6.23661">
        <ele>1026.11</ele>
        <time>2024-10-24T08:20:23.256Z</time>
      </trkpt>
      <trkpt lat="44.48209" lon="6.23662">
        <ele>1027.01</ele>
        <time>2024-10-24T08:20:25.256Z</time>
      </trkpt>
      <trkpt lat="44.48212" lon="6.23662">
        <ele>1027.73</ele>
        <time>2024-10-24T08:20:26.973Z</time>
      </trkpt>
      <trkpt lat="44.48216" lon="6.23664">
        <ele>1028.53</ele>
        <time>2024-10-24T08:20:29.255Z</time>
      </trkpt>
      <trkpt lat="44.48219" lon="6.23665">
        <ele>1029.4199</ele>
        <time>2024-10-24T08:20:31.256Z</time>
      </trkpt>
      <trkpt lat="44.48222" lon="6.23666">
        <ele>1030.21</ele>
        <time>2024-10-24T08:20:33.256Z</time>
      </trkpt>
      <trkpt lat="44.48225" lon="6.23665">
        <ele>1030.87</ele>
        <time>2024-10-24T08:20:35.256Z</time>
      </trkpt>
      <trkpt lat="44.48229" lon="6.23665">
        <ele>1031.64</ele>
        <time>2024-10-24T08:20:37.256Z</time>
      </trkpt>
      <trkpt lat="44.48233" lon="6.23664">
        <ele>1032.37</ele>
        <time>2024-10-24T08:20:38.364Z</time>
      </trkpt>
      <trkpt lat="44.48238" lon="6.23664">
        <ele>1033.21</ele>
        <time>2024-10-24T08:20:41.255Z</time>
      </trkpt>
      <trkpt lat="44.48241" lon="6.23665">
        <ele>1034.15</ele>
        <time>2024-10-24T08:20:43.258Z</time>
      </trkpt>
      <trkpt lat="44.48244" lon="6.23667">
        <ele>1034.73</ele>
        <time>2024-10-24T08:20:45.257Z</time>
      </trkpt>
      <trkpt lat="44.48247" lon="6.23668">
        <ele>1035.51</ele>
        <time>2024-10-24T08:20:47.257Z</time>
      </trkpt>
      <trkpt lat="44.48249" lon="6.2367">
        <ele>1036.14</ele>
        <time>2024-10-24T08:20:49.257Z</time>
      </trkpt>
      <trkpt lat="44.48252" lon="6.23671">
        <ele>1036.96</ele>
        <time>2024-10-24T08:20:51.128Z</time>
      </trkpt>
      <trkpt lat="44.48255" lon="6.23671">
        <ele>1037.44</ele>
        <time>2024-10-24T08:20:53.256Z</time>
      </trkpt>
      <trkpt lat="44.48258" lon="6.23672">
        <ele>1038.22</ele>
        <time>2024-10-24T08:20:55.255Z</time>
      </trkpt>
      <trkpt lat="44.4826" lon="6.23674">
        <ele>1039.12</ele>
        <time>2024-10-24T08:20:57.256Z</time>
      </trkpt>
      <trkpt lat="44.48264" lon="6.23675">
        <ele>1039.89</ele>
        <time>2024-10-24T08:20:59.256Z</time>
      </trkpt>
      <trkpt lat="44.48266" lon="6.23676">
        <ele>1040.49</ele>
        <time>2024-10-24T08:21:01.258Z</time>
      </trkpt>
      <trkpt lat="44.4827" lon="6.23677">
        <ele>1041.11</ele>
        <time>2024-10-24T08:21:03.257Z</time>
      </trkpt>
      <trkpt lat="44.48273" lon="6.23679">
        <ele>1041.69</ele>
        <time>2024-10-24T08:21:05.257Z</time>
      </trkpt>
      <trkpt lat="44.48277" lon="6.23681">
        <ele>1042.14</ele>
        <time>2024-10-24T08:21:07.256Z</time>
      </trkpt>
      <trkpt lat="44.48282" lon="6.23684">
        <ele>1042.46</ele>
        <time>2024-10-24T08:21:09.257Z</time>
      </trkpt>
      <trkpt lat="44.48286" lon="6.23687">
        <ele>1042.72</ele>
        <time>2024-10-24T08:21:11.257Z</time>
      </trkpt>
      <trkpt lat="44.48291" lon="6.23689">
        <ele>1043.03</ele>
        <time>2024-10-24T08:21:13.258Z</time>
      </trkpt>
      <trkpt lat="44.48295" lon="6.23693">
        <ele>1043.27</ele>
        <time>2024-10-24T08:21:15.257Z</time>
      </trkpt>
      <trkpt lat="44.48299" lon="6.23697">
        <ele>1043.49</ele>
        <time>2024-10-24T08:21:17.257Z</time>
      </trkpt>
      <trkpt lat="44.48304" lon="6.237">
        <ele>1043.6699</ele>
        <time>2024-10-24T08:21:19.256Z</time>
      </trkpt>
      <trkpt lat="44.48311" lon="6.23705">
        <ele>1043.8301</ele>
        <time>2024-10-24T08:21:21.257Z</time>
      </trkpt>
      <trkpt lat="44.48319" lon="6.23708">
        <ele>1043.86</ele>
        <time>2024-10-24T08:21:23.258Z</time>
      </trkpt>
      <trkpt lat="44.48325" lon="6.23709">
        <ele>1043.8401</ele>
        <time>2024-10-24T08:21:25.257Z</time>
      </trkpt>
      <trkpt lat="44.48328" lon="6.23713">
        <ele>1043.8401</ele>
        <time>2024-10-24T08:21:27.256Z</time>
      </trkpt>
      <trkpt lat="44.48382" lon="6.2373">
        <ele>1043.7</ele>
        <time>2024-10-24T08:21:29.256Z</time>
      </trkpt>
      <trkpt lat="44.48398" lon="6.23736">
        <ele>1043.53</ele>
        <time>2024-10-24T08:21:31.258Z</time>
      </trkpt>
      <trkpt lat="44.4841" lon="6.23739">
        <ele>1043.44</ele>
        <time>2024-10-24T08:21:33.358Z</time>
      </trkpt>
      <trkpt lat="44.48425" lon="6.23742">
        <ele>1043.38</ele>
        <time>2024-10-24T08:21:35.359Z</time>
      </trkpt>
      <trkpt lat="44.48439" lon="6.23747">
        <ele>1043.26</ele>
        <time>2024-10-24T08:21:37.356Z</time>
      </trkpt>
      <trkpt lat="44.48456" lon="6.23744">
        <ele>1043.12</ele>
        <time>2024-10-24T08:21:39.357Z</time>
      </trkpt>
      <trkpt lat="44.48473" lon="6.23742">
        <ele>1043</ele>
        <time>2024-10-24T08:21:41.358Z</time>
      </trkpt>
      <trkpt lat="44.48488" lon="6.23745">
        <ele>1042.85</ele>
        <time>2024-10-24T08:21:43.336Z</time>
      </trkpt>
      <trkpt lat="44.48503" lon="6.23751">
        <ele>1042.71</ele>
        <time>2024-10-24T08:21:45.358Z</time>
      </trkpt>
      <trkpt lat="44.48513" lon="6.23764">
        <ele>1042.55</ele>
        <time>2024-10-24T08:21:47.357Z</time>
      </trkpt>
      <trkpt lat="44.4852" lon="6.2378">
        <ele>1042.4199</ele>
        <time>2024-10-24T08:21:49.357Z</time>
      </trkpt>
      <trkpt lat="44.48529" lon="6.23794">
        <ele>1042.29</ele>
        <time>2024-10-24T08:21:51.357Z</time>
      </trkpt>
      <trkpt lat="44.48539" lon="6.23803">
        <ele>1042.15</ele>
        <time>2024-10-24T08:21:53.358Z</time>
      </trkpt>
      <trkpt lat="44.48552" lon="6.23809">
        <ele>1042</ele>
        <time>2024-10-24T08:21:55.356Z</time>
      </trkpt>
      <trkpt lat="44.48561" lon="6.23819">
        <ele>1041.85</ele>
        <time>2024-10-24T08:21:57.356Z</time>
      </trkpt>
      <trkpt lat="44.48571" lon="6.23831">
        <ele>1041.62</ele>
        <time>2024-10-24T08:21:59.358Z</time>
      </trkpt>
      <trkpt lat="44.48584" lon="6.23839">
        <ele>1041.36</ele>
        <time>2024-10-24T08:22:01.353Z</time>
      </trkpt>
      <trkpt lat="44.48597" lon="6.23844">
        <ele>1040.98</ele>
        <time>2024-10-24T08:22:03.356Z</time>
      </trkpt>
      <trkpt lat="44.48607" lon="6.23852">
        <ele>1040.6799</ele>
        <time>2024-10-24T08:22:05.360Z</time>
      </trkpt>
      <trkpt lat="44.48618" lon="6.2386">
        <ele>1040.31</ele>
        <time>2024-10-24T08:22:07.359Z</time>
      </trkpt>
      <trkpt lat="44.48626" lon="6.2387">
        <ele>1039.76</ele>
        <time>2024-10-24T08:22:09.357Z</time>
      </trkpt>
      <trkpt lat="44.48635" lon="6.23873">
        <ele>1039.1599</ele>
        <time>2024-10-24T08:22:11.357Z</time>
      </trkpt>
      <trkpt lat="44.48647" lon="6.23871">
        <ele>1038.5901</ele>
        <time>2024-10-24T08:22:13.358Z</time>
      </trkpt>
      <trkpt lat="44.48659" lon="6.2387">
        <ele>1037.9199</ele>
        <time>2024-10-24T08:22:15.356Z</time>
      </trkpt>
      <trkpt lat="44.48669" lon="6.23874">
        <ele>1037.1599</ele>
        <time>2024-10-24T08:22:17.358Z</time>
      </trkpt>
      <trkpt lat="44.48679" lon="6.23884">
        <ele>1036.25</ele>
        <time>2024-10-24T08:22:19.357Z</time>
      </trkpt>
      <trkpt lat="44.48692" lon="6.23891">
        <ele>1035.49</ele>
        <time>2024-10-24T08:22:21.357Z</time>
      </trkpt>
      <trkpt lat="44.48708" lon="6.23889">
        <ele>1034.46</ele>
        <time>2024-10-24T08:22:23.357Z</time>
      </trkpt>
      <trkpt lat="44.48723" lon="6.23882">
        <ele>1033.52</ele>
        <time>2024-10-24T08:22:25.358Z</time>
      </trkpt>
      <trkpt lat="44.48736" lon="6.23877">
        <ele>1032.54</ele>
        <time>2024-10-24T08:22:27.356Z</time>
      </trkpt>
      <trkpt lat="44.48747" lon="6.23874">
        <ele>1031.5901</ele>
        <time>2024-10-24T08:22:29.358Z</time>
      </trkpt>
      <trkpt lat="44.48756" lon="6.2388">
        <ele>1030.5801</ele>
        <time>2024-10-24T08:22:31.358Z</time>
      </trkpt>
      <trkpt lat="44.48765" lon="6.2389">
        <ele>1029.37</ele>
        <time>2024-10-24T08:22:33.358Z</time>
      </trkpt>
      <trkpt lat="44.48772" lon="6.23903">
        <ele>1027.9299</ele>
        <time>2024-10-24T08:22:35.358Z</time>
      </trkpt>
      <trkpt lat="44.48777" lon="6.23919">
        <ele>1026.77</ele>
        <time>2024-10-24T08:22:37.358Z</time>
      </trkpt>
      <trkpt lat="44.48786" lon="6.23932">
        <ele>1025.37</ele>
        <time>2024-10-24T08:22:39.359Z</time>
      </trkpt>
      <trkpt lat="44.48799" lon="6.2394">
        <ele>1023.7</ele>
        <time>2024-10-24T08:22:41.359Z</time>
      </trkpt>
      <trkpt lat="44.48812" lon="6.23948">
        <ele>1022.01</ele>
        <time>2024-10-24T08:22:43.357Z</time>
      </trkpt>
      <trkpt lat="44.48829" lon="6.23955">
        <ele>1020.76</ele>
        <time>2024-10-24T08:22:45.357Z</time>
      </trkpt>
      <trkpt lat="44.48844" lon="6.23961">
        <ele>1019.41</ele>
        <time>2024-10-24T08:22:47.358Z</time>
      </trkpt>
      <trkpt lat="44.48856" lon="6.23973">
        <ele>1017.91</ele>
        <time>2024-10-24T08:22:49.359Z</time>
      </trkpt>
      <trkpt lat="44.48866" lon="6.23989">
        <ele>1016.45</ele>
        <time>2024-10-24T08:22:51.357Z</time>
      </trkpt>
      <trkpt lat="44.48873" lon="6.24002">
        <ele>1014.84</ele>
        <time>2024-10-24T08:22:53.358Z</time>
      </trkpt>
      <trkpt lat="44.48883" lon="6.24004">
        <ele>1013.23</ele>
        <time>2024-10-24T08:22:55.356Z</time>
      </trkpt>
      <trkpt lat="44.48892" lon="6.23998">
        <ele>1011.7</ele>
        <time>2024-10-24T08:22:57.358Z</time>
      </trkpt>
      <trkpt lat="44.489" lon="6.23989">
        <ele>1010.28</ele>
        <time>2024-10-24T08:22:59.358Z</time>
      </trkpt>
      <trkpt lat="44.48907" lon="6.23986">
        <ele>1008.89</ele>
        <time>2024-10-24T08:23:01.457Z</time>
      </trkpt>
      <trkpt lat="44.48917" lon="6.23987">
        <ele>1007.41</ele>
        <time>2024-10-24T08:23:03.458Z</time>
      </trkpt>
      <trkpt lat="44.48929" lon="6.23988">
        <ele>1006</ele>
        <time>2024-10-24T08:23:05.457Z</time>
      </trkpt>
      <trkpt lat="44.48938" lon="6.23993">
        <ele>1004.53</ele>
        <time>2024-10-24T08:23:07.457Z</time>
      </trkpt>
      <trkpt lat="44.48949" lon="6.23997">
        <ele>1003.25</ele>
        <time>2024-10-24T08:23:09.458Z</time>
      </trkpt>
      <trkpt lat="44.48962" lon="6.24">
        <ele>1001.86</ele>
        <time>2024-10-24T08:23:11.457Z</time>
      </trkpt>
      <trkpt lat="44.4897" lon="6.24004">
        <ele>1000.61</ele>
        <time>2024-10-24T08:23:13.457Z</time>
      </trkpt>
      <trkpt lat="44.48976" lon="6.24005">
        <ele>999.58</ele>
        <time>2024-10-24T08:23:15.456Z</time>
      </trkpt>
      <trkpt lat="44.48978" lon="6.24007">
        <ele>998.38</ele>
        <time>2024-10-24T08:23:17.456Z</time>
      </trkpt>
      <trkpt lat="44.48982" lon="6.24011">
        <ele>997.6</ele>
        <time>2024-10-24T08:23:19.457Z</time>
      </trkpt>
      <trkpt lat="44.48991" lon="6.24012">
        <ele>996.69</ele>
        <time>2024-10-24T08:23:21.458Z</time>
      </trkpt>
      <trkpt lat="44.49" lon="6.2401">
        <ele>995.64</ele>
        <time>2024-10-24T08:23:23.457Z</time>
      </trkpt>
      <trkpt lat="44.49004" lon="6.24007">
        <ele>994.84</ele>
        <time>2024-10-24T08:23:25.457Z</time>
      </trkpt>
      <trkpt lat="44.49006" lon="6.24001">
        <ele>993.96</ele>
        <time>2024-10-24T08:23:27.456Z</time>
      </trkpt>
      <trkpt lat="44.49007" lon="6.23995">
        <ele>993.19</ele>
        <time>2024-10-24T08:23:29.457Z</time>
      </trkpt>
      <trkpt lat="44.49008" lon="6.2399">
        <ele>992.75</ele>
        <time>2024-10-24T08:23:31.460Z</time>
      </trkpt>
      <trkpt lat="44.49008" lon="6.23982">
        <ele>991.73</ele>
        <time>2024-10-24T08:23:33.457Z</time>
      </trkpt>
      <trkpt lat="44.49006" lon="6.23973">
        <ele>991.36</ele>
        <time>2024-10-24T08:23:35.457Z</time>
      </trkpt>
      <trkpt lat="44.49004" lon="6.23963">
        <ele>990.92</ele>
        <time>2024-10-24T08:23:37.458Z</time>
      </trkpt>
      <trkpt lat="44.49001" lon="6.23954">
        <ele>990.76</ele>
        <time>2024-10-24T08:23:39.275Z</time>
      </trkpt>
      <trkpt lat="44.48999" lon="6.23946">
        <ele>990.23</ele>
        <time>2024-10-24T08:23:41.457Z</time>
      </trkpt>
      <trkpt lat="44.48996" lon="6.23939">
        <ele>989.96</ele>
        <time>2024-10-24T08:23:43.457Z</time>
      </trkpt>
      <trkpt lat="44.48994" lon="6.23933">
        <ele>989.82</ele>
        <time>2024-10-24T08:23:45.457Z</time>
      </trkpt>
      <trkpt lat="44.48994" lon="6.23929">
        <ele>989.47</ele>
        <time>2024-10-24T08:23:47.456Z</time>
      </trkpt>
      <trkpt lat="44.48997" lon="6.23929">
        <ele>989.25</ele>
        <time>2024-10-24T08:23:49.288Z</time>
      </trkpt>
      <trkpt lat="44.49001" lon="6.23931">
        <ele>989.11</ele>
        <time>2024-10-24T08:23:51.458Z</time>
      </trkpt>
      <trkpt lat="44.49003" lon="6.23937">
        <ele>989.02</ele>
        <time>2024-10-24T08:23:53.458Z</time>
      </trkpt>
      <trkpt lat="44.49006" lon="6.23942">
        <ele>988.97</ele>
        <time>2024-10-24T08:23:55.456Z</time>
      </trkpt>
      <trkpt lat="44.49009" lon="6.23945">
        <ele>988.9</ele>
        <time>2024-10-24T08:23:57.293Z</time>
      </trkpt>
      <trkpt lat="44.49012" lon="6.23948">
        <ele>989.03</ele>
        <time>2024-10-24T08:23:59.457Z</time>
      </trkpt>
      <trkpt lat="44.49015" lon="6.23952">
        <ele>989.19</ele>
        <time>2024-10-24T08:24:01.457Z</time>
      </trkpt>
      <trkpt lat="44.49019" lon="6.23955">
        <ele>989.03</ele>
        <time>2024-10-24T08:24:03.457Z</time>
      </trkpt>
      <trkpt lat="44.49022" lon="6.23958">
        <ele>989.19</ele>
        <time>2024-10-24T08:24:05.456Z</time>
      </trkpt>
      <trkpt lat="44.49025" lon="6.23961">
        <ele>989.24</ele>
        <time>2024-10-24T08:24:07.457Z</time>
      </trkpt>
      <trkpt lat="44.49028" lon="6.23963">
        <ele>989.31</ele>
        <time>2024-10-24T08:24:09.458Z</time>
      </trkpt>
      <trkpt lat="44.49031" lon="6.23966">
        <ele>989.44</ele>
        <time>2024-10-24T08:24:11.457Z</time>
      </trkpt>
      <trkpt lat="44.49034" lon="6.23968">
        <ele>989.62</ele>
        <time>2024-10-24T08:24:13.556Z</time>
      </trkpt>
      <trkpt lat="44.49036" lon="6.23968">
        <ele>989.77</ele>
        <time>2024-10-24T08:24:15.558Z</time>
      </trkpt>
      <trkpt lat="44.49039" lon="6.2397">
        <ele>989.9</ele>
        <time>2024-10-24T08:24:17.390Z</time>
      </trkpt>
      <trkpt lat="44.49043" lon="6.23972">
        <ele>990.03</ele>
        <time>2024-10-24T08:24:19.227Z</time>
      </trkpt>
      <trkpt lat="44.49047" lon="6.23975">
        <ele>990.19</ele>
        <time>2024-10-24T08:24:21.555Z</time>
      </trkpt>
      <trkpt lat="44.49052" lon="6.23979">
        <ele>990.28</ele>
        <time>2024-10-24T08:24:23.558Z</time>
      </trkpt>
      <trkpt lat="44.49057" lon="6.23983">
        <ele>990.43</ele>
        <time>2024-10-24T08:24:25.091Z</time>
      </trkpt>
      <trkpt lat="44.49063" lon="6.23985">
        <ele>990.46</ele>
        <time>2024-10-24T08:24:27.501Z</time>
      </trkpt>
      <trkpt lat="44.49068" lon="6.23986">
        <ele>990.58</ele>
        <time>2024-10-24T08:24:29.556Z</time>
      </trkpt>
      <trkpt lat="44.49073" lon="6.23985">
        <ele>990.71</ele>
        <time>2024-10-24T08:24:31.557Z</time>
      </trkpt>
      <trkpt lat="44.49078" lon="6.23984">
        <ele>990.82</ele>
        <time>2024-10-24T08:24:33.299Z</time>
      </trkpt>
      <trkpt lat="44.49083" lon="6.23984">
        <ele>990.95</ele>
        <time>2024-10-24T08:24:35.465Z</time>
      </trkpt>
      <trkpt lat="44.49088" lon="6.23983">
        <ele>991.01</ele>
        <time>2024-10-24T08:24:37.556Z</time>
      </trkpt>
      <trkpt lat="44.49092" lon="6.23984">
        <ele>991.14</ele>
        <time>2024-10-24T08:24:39.556Z</time>
      </trkpt>
      <trkpt lat="44.49096" lon="6.23984">
        <ele>991.3</ele>
        <time>2024-10-24T08:24:41.558Z</time>
      </trkpt>
      <trkpt lat="44.49099" lon="6.23985">
        <ele>991.54</ele>
        <time>2024-10-24T08:24:43.557Z</time>
      </trkpt>
      <trkpt lat="44.49103" lon="6.23987">
        <ele>991.91</ele>
        <time>2024-10-24T08:24:45.263Z</time>
      </trkpt>
      <trkpt lat="44.49107" lon="6.2399">
        <ele>992.09</ele>
        <time>2024-10-24T08:24:47.556Z</time>
      </trkpt>
      <trkpt lat="44.49111" lon="6.23993">
        <ele>992.37</ele>
        <time>2024-10-24T08:24:48.599Z</time>
      </trkpt>
      <trkpt lat="44.49115" lon="6.23996">
        <ele>992.81</ele>
        <time>2024-10-24T08:24:50.618Z</time>
      </trkpt>
      <trkpt lat="44.49118" lon="6.24">
        <ele>993.12</ele>
        <time>2024-10-24T08:24:53.269Z</time>
      </trkpt>
      <trkpt lat="44.49122" lon="6.24003">
        <ele>993.41</ele>
        <time>2024-10-24T08:24:54.623Z</time>
      </trkpt>
      <trkpt lat="44.49126" lon="6.24006">
        <ele>993.91</ele>
        <time>2024-10-24T08:24:56.649Z</time>
      </trkpt>
      <trkpt lat="44.4913" lon="6.2401">
        <ele>994.47</ele>
        <time>2024-10-24T08:24:59.557Z</time>
      </trkpt>
      <trkpt lat="44.49134" lon="6.24014">
        <ele>994.89</ele>
        <time>2024-10-24T08:25:01.557Z</time>
      </trkpt>
      <trkpt lat="44.49138" lon="6.24017">
        <ele>995.48</ele>
        <time>2024-10-24T08:25:03.557Z</time>
      </trkpt>
      <trkpt lat="44.49142" lon="6.24021">
        <ele>995.83</ele>
        <time>2024-10-24T08:25:05.556Z</time>
      </trkpt>
      <trkpt lat="44.49145" lon="6.24024">
        <ele>996.47</ele>
        <time>2024-10-24T08:25:07.557Z</time>
      </trkpt>
      <trkpt lat="44.49148" lon="6.24027">
        <ele>996.97</ele>
        <time>2024-10-24T08:25:09.186Z</time>
      </trkpt>
      <trkpt lat="44.49151" lon="6.24031">
        <ele>997.65</ele>
        <time>2024-10-24T08:25:11.556Z</time>
      </trkpt>
      <trkpt lat="44.49154" lon="6.24034">
        <ele>998.08</ele>
        <time>2024-10-24T08:25:13.556Z</time>
      </trkpt>
      <trkpt lat="44.49158" lon="6.24038">
        <ele>998.74</ele>
        <time>2024-10-24T08:25:15.556Z</time>
      </trkpt>
      <trkpt lat="44.49162" lon="6.24041">
        <ele>999.32</ele>
        <time>2024-10-24T08:25:17.588Z</time>
      </trkpt>
      <trkpt lat="44.49166" lon="6.24043">
        <ele>999.91</ele>
        <time>2024-10-24T08:25:19.557Z</time>
      </trkpt>
      <trkpt lat="44.49169" lon="6.24045">
        <ele>1000.5</ele>
        <time>2024-10-24T08:25:21.556Z</time>
      </trkpt>
      <trkpt lat="44.49172" lon="6.24046">
        <ele>1000.85</ele>
        <time>2024-10-24T08:25:23.512Z</time>
      </trkpt>
      <trkpt lat="44.49176" lon="6.24047">
        <ele>1001.4</ele>
        <time>2024-10-24T08:25:25.555Z</time>
      </trkpt>
      <trkpt lat="44.49179" lon="6.24048">
        <ele>1001.92</ele>
        <time>2024-10-24T08:25:27.557Z</time>
      </trkpt>
      <trkpt lat="44.49186" lon="6.2405">
        <ele>1002.54</ele>
        <time>2024-10-24T08:25:29.557Z</time>
      </trkpt>
      <trkpt lat="44.49192" lon="6.24053">
        <ele>1003.36</ele>
        <time>2024-10-24T08:25:31.557Z</time>
      </trkpt>
      <trkpt lat="44.49197" lon="6.24056">
        <ele>1003.92</ele>
        <time>2024-10-24T08:25:33.557Z</time>
      </trkpt>
      <trkpt lat="44.49202" lon="6.24061">
        <ele>1004.54</ele>
        <time>2024-10-24T08:25:35.656Z</time>
      </trkpt>
      <trkpt lat="44.49207" lon="6.24066">
        <ele>1005.37</ele>
        <time>2024-10-24T08:25:37.450Z</time>
      </trkpt>
      <trkpt lat="44.4921" lon="6.24072">
        <ele>1005.72</ele>
        <time>2024-10-24T08:25:39.257Z</time>
      </trkpt>
      <trkpt lat="44.49214" lon="6.24078">
        <ele>1006.33</ele>
        <time>2024-10-24T08:25:41.656Z</time>
      </trkpt>
      <trkpt lat="44.49217" lon="6.24084">
        <ele>1007.01</ele>
        <time>2024-10-24T08:25:43.657Z</time>
      </trkpt>
      <trkpt lat="44.4922" lon="6.24088">
        <ele>1007.65</ele>
        <time>2024-10-24T08:25:45.656Z</time>
      </trkpt>
      <trkpt lat="44.49223" lon="6.24093">
        <ele>1008.52</ele>
        <time>2024-10-24T08:25:47.596Z</time>
      </trkpt>
      <trkpt lat="44.49226" lon="6.24095">
        <ele>1008.97</ele>
        <time>2024-10-24T08:25:49.267Z</time>
      </trkpt>
      <trkpt lat="44.49229" lon="6.24099">
        <ele>1009.7</ele>
        <time>2024-10-24T08:25:51.656Z</time>
      </trkpt>
      <trkpt lat="44.49233" lon="6.24101">
        <ele>1010.31</ele>
        <time>2024-10-24T08:25:53.280Z</time>
      </trkpt>
      <trkpt lat="44.49237" lon="6.24102">
        <ele>1011.08</ele>
        <time>2024-10-24T08:25:54.754Z</time>
      </trkpt>
      <trkpt lat="44.49242" lon="6.24101">
        <ele>1011.62</ele>
        <time>2024-10-24T08:25:57.287Z</time>
      </trkpt>
      <trkpt lat="44.49247" lon="6.241">
        <ele>1012.27</ele>
        <time>2024-10-24T08:25:59.272Z</time>
      </trkpt>
      <trkpt lat="44.49252" lon="6.24099">
        <ele>1012.7</ele>
        <time>2024-10-24T08:26:01.525Z</time>
      </trkpt>
      <trkpt lat="44.49257" lon="6.24102">
        <ele>1013.3</ele>
        <time>2024-10-24T08:26:03.247Z</time>
      </trkpt>
      <trkpt lat="44.49261" lon="6.24106">
        <ele>1013.95</ele>
        <time>2024-10-24T08:26:05.658Z</time>
      </trkpt>
      <trkpt lat="44.49264" lon="6.2411">
        <ele>1014.61</ele>
        <time>2024-10-24T08:26:07.656Z</time>
      </trkpt>
      <trkpt lat="44.49267" lon="6.24116">
        <ele>1015.36</ele>
        <time>2024-10-24T08:26:08.754Z</time>
      </trkpt>
      <trkpt lat="44.49269" lon="6.2412">
        <ele>1015.95</ele>
        <time>2024-10-24T08:26:11.499Z</time>
      </trkpt>
      <trkpt lat="44.49271" lon="6.24124">
        <ele>1016.87</ele>
        <time>2024-10-24T08:26:13.657Z</time>
      </trkpt>
      <trkpt lat="44.49274" lon="6.24127">
        <ele>1017.38</ele>
        <time>2024-10-24T08:26:15.657Z</time>
      </trkpt>
      <trkpt lat="44.49277" lon="6.24129">
        <ele>1018.14</ele>
        <time>2024-10-24T08:26:17.657Z</time>
      </trkpt>
      <trkpt lat="44.4928" lon="6.24129">
        <ele>1018.78</ele>
        <time>2024-10-24T08:26:19.655Z</time>
      </trkpt>
      <trkpt lat="44.49284" lon="6.2413">
        <ele>1019.59</ele>
        <time>2024-10-24T08:26:21.658Z</time>
      </trkpt>
      <trkpt lat="44.49288" lon="6.24131">
        <ele>1020.52</ele>
        <time>2024-10-24T08:26:23.657Z</time>
      </trkpt>
      <trkpt lat="44.49293" lon="6.24132">
        <ele>1021.15</ele>
        <time>2024-10-24T08:26:25.656Z</time>
      </trkpt>
      <trkpt lat="44.49297" lon="6.24134">
        <ele>1021.78</ele>
        <time>2024-10-24T08:26:27.263Z</time>
      </trkpt>
      <trkpt lat="44.49301" lon="6.24139">
        <ele>1022.38</ele>
        <time>2024-10-24T08:26:29.656Z</time>
      </trkpt>
      <trkpt lat="44.49304" lon="6.24144">
        <ele>1022.98</ele>
        <time>2024-10-24T08:26:31.656Z</time>
      </trkpt>
      <trkpt lat="44.49307" lon="6.24149">
        <ele>1023.55</ele>
        <time>2024-10-24T08:26:33.657Z</time>
      </trkpt>
      <trkpt lat="44.4931" lon="6.24154">
        <ele>1023.98</ele>
        <time>2024-10-24T08:26:35.656Z</time>
      </trkpt>
      <trkpt lat="44.49313" lon="6.24159">
        <ele>1024.85</ele>
        <time>2024-10-24T08:26:37.254Z</time>
      </trkpt>
      <trkpt lat="44.49315" lon="6.24164">
        <ele>1025.29</ele>
        <time>2024-10-24T08:26:38.754Z</time>
      </trkpt>
      <trkpt lat="44.49318" lon="6.24169">
        <ele>1025.55</ele>
        <time>2024-10-24T08:26:41.658Z</time>
      </trkpt>
      <trkpt lat="44.49321" lon="6.24175">
        <ele>1025.94</ele>
        <time>2024-10-24T08:26:43.656Z</time>
      </trkpt>
      <trkpt lat="44.49324" lon="6.2418">
        <ele>1026.0901</ele>
        <time>2024-10-24T08:26:45.657Z</time>
      </trkpt>
      <trkpt lat="44.49329" lon="6.24185">
        <ele>1026.45</ele>
        <time>2024-10-24T08:26:47.658Z</time>
      </trkpt>
      <trkpt lat="44.49333" lon="6.24189">
        <ele>1026.9199</ele>
        <time>2024-10-24T08:26:49.316Z</time>
      </trkpt>
      <trkpt lat="44.49337" lon="6.24191">
        <ele>1027.27</ele>
        <time>2024-10-24T08:26:51.268Z</time>
      </trkpt>
      <trkpt lat="44.49342" lon="6.24193">
        <ele>1027.63</ele>
        <time>2024-10-24T08:26:52.772Z</time>
      </trkpt>
      <trkpt lat="44.49345" lon="6.24192">
        <ele>1027.8401</ele>
        <time>2024-10-24T08:26:55.269Z</time>
      </trkpt>
      <trkpt lat="44.4935" lon="6.24192">
        <ele>1028.01</ele>
        <time>2024-10-24T08:26:56.284Z</time>
      </trkpt>
      <trkpt lat="44.49354" lon="6.24192">
        <ele>1028.3201</ele>
        <time>2024-10-24T08:26:59.281Z</time>
      </trkpt>
      <trkpt lat="44.49359" lon="6.24193">
        <ele>1028.75</ele>
        <time>2024-10-24T08:27:00.758Z</time>
      </trkpt>
      <trkpt lat="44.49365" lon="6.24194">
        <ele>1028.8301</ele>
        <time>2024-10-24T08:27:02.776Z</time>
      </trkpt>
      <trkpt lat="44.49372" lon="6.24194">
        <ele>1029.1599</ele>
        <time>2024-10-24T08:27:04.763Z</time>
      </trkpt>
      <trkpt lat="44.49378" lon="6.24194">
        <ele>1029.48</ele>
        <time>2024-10-24T08:27:06.292Z</time>
      </trkpt>
      <trkpt lat="44.49383" lon="6.24194">
        <ele>1029.8301</ele>
        <time>2024-10-24T08:27:08.769Z</time>
      </trkpt>
      <trkpt lat="44.49389" lon="6.24193">
        <ele>1030.23</ele>
        <time>2024-10-24T08:27:10.278Z</time>
      </trkpt>
      <trkpt lat="44.49395" lon="6.24193">
        <ele>1030.53</ele>
        <time>2024-10-24T08:27:12.757Z</time>
      </trkpt>
      <trkpt lat="44.494" lon="6.24193">
        <ele>1030.88</ele>
        <time>2024-10-24T08:27:14.277Z</time>
      </trkpt>
      <trkpt lat="44.49405" lon="6.24193">
        <ele>1031.3301</ele>
        <time>2024-10-24T08:27:16.756Z</time>
      </trkpt>
      <trkpt lat="44.49409" lon="6.24192">
        <ele>1031.85</ele>
        <time>2024-10-24T08:27:18.289Z</time>
      </trkpt>
      <trkpt lat="44.49414" lon="6.24191">
        <ele>1032.37</ele>
        <time>2024-10-24T08:27:20.755Z</time>
      </trkpt>
      <trkpt lat="44.49418" lon="6.24188">
        <ele>1032.8301</ele>
        <time>2024-10-24T08:27:22.294Z</time>
      </trkpt>
      <trkpt lat="44.49422" lon="6.24185">
        <ele>1033.49</ele>
        <time>2024-10-24T08:27:24.786Z</time>
      </trkpt>
      <trkpt lat="44.49427" lon="6.24181">
        <ele>1033.9299</ele>
        <time>2024-10-24T08:27:26.254Z</time>
      </trkpt>
      <trkpt lat="44.49433" lon="6.24178">
        <ele>1034.31</ele>
        <time>2024-10-24T08:27:28.756Z</time>
      </trkpt>
      <trkpt lat="44.49438" lon="6.24176">
        <ele>1034.6599</ele>
        <time>2024-10-24T08:27:30.773Z</time>
      </trkpt>
      <trkpt lat="44.49442" lon="6.24174">
        <ele>1035.22</ele>
        <time>2024-10-24T08:27:32.768Z</time>
      </trkpt>
      <trkpt lat="44.49446" lon="6.24171">
        <ele>1035.88</ele>
        <time>2024-10-24T08:27:34.758Z</time>
      </trkpt>
      <trkpt lat="44.4945" lon="6.24169">
        <ele>1036.23</ele>
        <time>2024-10-24T08:27:36.776Z</time>
      </trkpt>
      <trkpt lat="44.49453" lon="6.24165">
        <ele>1036.9199</ele>
        <time>2024-10-24T08:27:38.755Z</time>
      </trkpt>
      <trkpt lat="44.49456" lon="6.24162">
        <ele>1037.36</ele>
        <time>2024-10-24T08:27:40.783Z</time>
      </trkpt>
      <trkpt lat="44.49459" lon="6.24158">
        <ele>1038.0801</ele>
        <time>2024-10-24T08:27:42.632Z</time>
      </trkpt>
      <trkpt lat="44.49462" lon="6.24154">
        <ele>1038.65</ele>
        <time>2024-10-24T08:27:44.755Z</time>
      </trkpt>
      <trkpt lat="44.49465" lon="6.24151">
        <ele>1039.29</ele>
        <time>2024-10-24T08:27:46.756Z</time>
      </trkpt>
      <trkpt lat="44.49468" lon="6.24147">
        <ele>1039.77</ele>
        <time>2024-10-24T08:27:48.757Z</time>
      </trkpt>
      <trkpt lat="44.49471" lon="6.24142">
        <ele>1040.25</ele>
        <time>2024-10-24T08:27:50.755Z</time>
      </trkpt>
      <trkpt lat="44.49475" lon="6.24138">
        <ele>1040.96</ele>
        <time>2024-10-24T08:27:52.756Z</time>
      </trkpt>
      <trkpt lat="44.49481" lon="6.24133">
        <ele>1041.3301</ele>
        <time>2024-10-24T08:27:54.757Z</time>
      </trkpt>
      <trkpt lat="44.49486" lon="6.2413">
        <ele>1041.8401</ele>
        <time>2024-10-24T08:27:56.755Z</time>
      </trkpt>
      <trkpt lat="44.4949" lon="6.24127">
        <ele>1042.3</ele>
        <time>2024-10-24T08:27:58.756Z</time>
      </trkpt>
      <trkpt lat="44.49494" lon="6.24123">
        <ele>1042.8201</ele>
        <time>2024-10-24T08:28:00.783Z</time>
      </trkpt>
      <trkpt lat="44.49497" lon="6.24119">
        <ele>1043.4299</ele>
        <time>2024-10-24T08:28:02.756Z</time>
      </trkpt>
      <trkpt lat="44.495" lon="6.24114">
        <ele>1043.95</ele>
        <time>2024-10-24T08:28:04.758Z</time>
      </trkpt>
      <trkpt lat="44.49503" lon="6.2411">
        <ele>1044.44</ele>
        <time>2024-10-24T08:28:06.757Z</time>
      </trkpt>
      <trkpt lat="44.49507" lon="6.24107">
        <ele>1044.94</ele>
        <time>2024-10-24T08:28:08.397Z</time>
      </trkpt>
      <trkpt lat="44.4951" lon="6.24105">
        <ele>1045.4</ele>
        <time>2024-10-24T08:28:10.756Z</time>
      </trkpt>
      <trkpt lat="44.49514" lon="6.24102">
        <ele>1045.9199</ele>
        <time>2024-10-24T08:28:12.756Z</time>
      </trkpt>
      <trkpt lat="44.49517" lon="6.241">
        <ele>1046.36</ele>
        <time>2024-10-24T08:28:14.757Z</time>
      </trkpt>
      <trkpt lat="44.4952" lon="6.24097">
        <ele>1046.77</ele>
        <time>2024-10-24T08:28:16.756Z</time>
      </trkpt>
      <trkpt lat="44.49523" lon="6.24094">
        <ele>1047.1699</ele>
        <time>2024-10-24T08:28:18.757Z</time>
      </trkpt>
      <trkpt lat="44.49526" lon="6.24091">
        <ele>1047.53</ele>
        <time>2024-10-24T08:28:20.756Z</time>
      </trkpt>
      <trkpt lat="44.4953" lon="6.24089">
        <ele>1047.95</ele>
        <time>2024-10-24T08:28:22.756Z</time>
      </trkpt>
      <trkpt lat="44.49533" lon="6.24087">
        <ele>1048.28</ele>
        <time>2024-10-24T08:28:24.756Z</time>
      </trkpt>
      <trkpt lat="44.49538" lon="6.24086">
        <ele>1048.51</ele>
        <time>2024-10-24T08:28:26.757Z</time>
      </trkpt>
      <trkpt lat="44.49542" lon="6.24086">
        <ele>1049</ele>
        <time>2024-10-24T08:28:28.336Z</time>
      </trkpt>
      <trkpt lat="44.49547" lon="6.24086">
        <ele>1049.24</ele>
        <time>2024-10-24T08:28:30.855Z</time>
      </trkpt>
      <trkpt lat="44.49551" lon="6.24086">
        <ele>1049.47</ele>
        <time>2024-10-24T08:28:32.856Z</time>
      </trkpt>
      <trkpt lat="44.49555" lon="6.24086">
        <ele>1049.71</ele>
        <time>2024-10-24T08:28:34.375Z</time>
      </trkpt>
      <trkpt lat="44.49559" lon="6.24086">
        <ele>1049.95</ele>
        <time>2024-10-24T08:28:36.395Z</time>
      </trkpt>
      <trkpt lat="44.49565" lon="6.24086">
        <ele>1050.05</ele>
        <time>2024-10-24T08:28:38.370Z</time>
      </trkpt>
      <trkpt lat="44.49576" lon="6.24086">
        <ele>1050.26</ele>
        <time>2024-10-24T08:28:40.856Z</time>
      </trkpt>
      <trkpt lat="44.49583" lon="6.24083">
        <ele>1050.38</ele>
        <time>2024-10-24T08:28:42.857Z</time>
      </trkpt>
      <trkpt lat="44.4959" lon="6.24078">
        <ele>1050.52</ele>
        <time>2024-10-24T08:28:43.901Z</time>
      </trkpt>
      <trkpt lat="44.49596" lon="6.24073">
        <ele>1050.7</ele>
        <time>2024-10-24T08:28:46.856Z</time>
      </trkpt>
      <trkpt lat="44.49601" lon="6.24064">
        <ele>1050.87</ele>
        <time>2024-10-24T08:28:48.860Z</time>
      </trkpt>
      <trkpt lat="44.49606" lon="6.24056">
        <ele>1050.9099</ele>
        <time>2024-10-24T08:28:50.859Z</time>
      </trkpt>
      <trkpt lat="44.4961" lon="6.24051">
        <ele>1051.01</ele>
        <time>2024-10-24T08:28:52.857Z</time>
      </trkpt>
      <trkpt lat="44.49614" lon="6.2405">
        <ele>1051.2</ele>
        <time>2024-10-24T08:28:54.498Z</time>
      </trkpt>
      <trkpt lat="44.49618" lon="6.24052">
        <ele>1051.31</ele>
        <time>2024-10-24T08:28:56.631Z</time>
      </trkpt>
      <trkpt lat="44.49622" lon="6.24056">
        <ele>1051.39</ele>
        <time>2024-10-24T08:28:58.856Z</time>
      </trkpt>
      <trkpt lat="44.49626" lon="6.24061">
        <ele>1051.53</ele>
        <time>2024-10-24T08:29:00.857Z</time>
      </trkpt>
      <trkpt lat="44.4963" lon="6.24066">
        <ele>1051.63</ele>
        <time>2024-10-24T08:29:02.857Z</time>
      </trkpt>
      <trkpt lat="44.49634" lon="6.2407">
        <ele>1051.69</ele>
        <time>2024-10-24T08:29:04.871Z</time>
      </trkpt>
      <trkpt lat="44.4964" lon="6.24074">
        <ele>1051.86</ele>
        <time>2024-10-24T08:29:06.857Z</time>
      </trkpt>
      <trkpt lat="44.49645" lon="6.24078">
        <ele>1051.8301</ele>
        <time>2024-10-24T08:29:08.857Z</time>
      </trkpt>
      <trkpt lat="44.4965" lon="6.24079">
        <ele>1051.9199</ele>
        <time>2024-10-24T08:29:10.856Z</time>
      </trkpt>
      <trkpt lat="44.49653" lon="6.2408">
        <ele>1052.04</ele>
        <time>2024-10-24T08:29:12.856Z</time>
      </trkpt>
      <trkpt lat="44.49657" lon="6.2408">
        <ele>1052.19</ele>
        <time>2024-10-24T08:29:14.857Z</time>
      </trkpt>
      <trkpt lat="44.49659" lon="6.2408">
        <ele>1052.3</ele>
        <time>2024-10-24T08:29:16.857Z</time>
      </trkpt>
      <trkpt lat="44.49663" lon="6.2408">
        <ele>1052.47</ele>
        <time>2024-10-24T08:29:18.856Z</time>
      </trkpt>
      <trkpt lat="44.49666" lon="6.24078">
        <ele>1052.8</ele>
        <time>2024-10-24T08:29:20.858Z</time>
      </trkpt>
      <trkpt lat="44.4967" lon="6.24078">
        <ele>1052.95</ele>
        <time>2024-10-24T08:29:22.856Z</time>
      </trkpt>
      <trkpt lat="44.49671" lon="6.24079">
        <ele>1053.13</ele>
        <time>2024-10-24T08:29:24.858Z</time>
      </trkpt>
      <trkpt lat="44.49678" lon="6.24083">
        <ele>1053.25</ele>
        <time>2024-10-24T08:29:26.857Z</time>
      </trkpt>
      <trkpt lat="44.4968" lon="6.24086">
        <ele>1053.44</ele>
        <time>2024-10-24T08:29:28.858Z</time>
      </trkpt>
      <trkpt lat="44.49681" lon="6.24086">
        <ele>1053.72</ele>
        <time>2024-10-24T08:29:52.107Z</time>
      </trkpt>
      <trkpt lat="44.49681" lon="6.24088">
        <ele>1053.72</ele>
        <time>2024-10-24T08:29:58.078Z</time>
      </trkpt>
      <trkpt lat="44.49691" lon="6.24094">
        <ele>1053.72</ele>
        <time>2024-10-24T08:29:59.108Z</time>
      </trkpt>
      <trkpt lat="44.49701" lon="6.24097">
        <ele>1054.85</ele>
        <time>2024-10-24T08:30:02.018Z</time>
      </trkpt>
      <trkpt lat="44.49705" lon="6.24097">
        <ele>1054.94</ele>
        <time>2024-10-24T08:30:04.075Z</time>
      </trkpt>
      <trkpt lat="44.49707" lon="6.24097">
        <ele>1055.03</ele>
        <time>2024-10-24T08:30:06.016Z</time>
      </trkpt>
      <trkpt lat="44.49711" lon="6.24099">
        <ele>1055</ele>
        <time>2024-10-24T08:30:08.017Z</time>
      </trkpt>
      <trkpt lat="44.49715" lon="6.24101">
        <ele>1055.4099</ele>
        <time>2024-10-24T08:30:10.071Z</time>
      </trkpt>
      <trkpt lat="44.49716" lon="6.24102">
        <ele>1055.55</ele>
        <time>2024-10-24T08:30:13.143Z</time>
      </trkpt>
      <trkpt lat="44.49717" lon="6.24106">
        <ele>1055.71</ele>
        <time>2024-10-24T08:30:19.475Z</time>
      </trkpt>
      <trkpt lat="44.49717" lon="6.24108">
        <ele>1056.3201</ele>
        <time>2024-10-24T08:30:27.256Z</time>
      </trkpt>
      <trkpt lat="44.49715" lon="6.24109">
        <ele>1057.86</ele>
        <time>2024-10-24T08:30:30.849Z</time>
      </trkpt>
      <trkpt lat="44.49716" lon="6.24109">
        <ele>1058.3301</ele>
        <time>2024-10-24T08:32:07.770Z</time>
      </trkpt>
      <trkpt lat="44.49725" lon="6.24119">
        <ele>1064.3</ele>
        <time>2024-10-24T08:33:28.233Z</time>
      </trkpt>
      <trkpt lat="44.49728" lon="6.2412">
        <ele>1064.4</ele>
        <time>2024-10-24T08:33:29.809Z</time>
      </trkpt>
      <trkpt lat="44.4973" lon="6.24122">
        <ele>1064.5</ele>
        <time>2024-10-24T08:33:32.464Z</time>
      </trkpt>
      <trkpt lat="44.49731" lon="6.24122">
        <ele>1064.64</ele>
        <time>2024-10-24T08:33:34.797Z</time>
      </trkpt>
      <trkpt lat="44.49732" lon="6.24122">
        <ele>1064.69</ele>
        <time>2024-10-24T08:33:36.938Z</time>
      </trkpt>
      <trkpt lat="44.49737" lon="6.24127">
        <ele>1064.9199</ele>
        <time>2024-10-24T08:33:38.938Z</time>
      </trkpt>
      <trkpt lat="44.49741" lon="6.24132">
        <ele>1065.0901</ele>
        <time>2024-10-24T08:33:40.937Z</time>
      </trkpt>
      <trkpt lat="44.49744" lon="6.24135">
        <ele>1065.39</ele>
        <time>2024-10-24T08:33:42.938Z</time>
      </trkpt>
      <trkpt lat="44.49747" lon="6.24135">
        <ele>1065.5901</ele>
        <time>2024-10-24T08:33:44.789Z</time>
      </trkpt>
      <trkpt lat="44.49752" lon="6.24138">
        <ele>1065.8301</ele>
        <time>2024-10-24T08:33:45.986Z</time>
      </trkpt>
      <trkpt lat="44.49754" lon="6.24141">
        <ele>1066.0801</ele>
        <time>2024-10-24T08:33:48.807Z</time>
      </trkpt>
      <trkpt lat="44.49759" lon="6.24141">
        <ele>1066.31</ele>
        <time>2024-10-24T08:33:50.014Z</time>
      </trkpt>
      <trkpt lat="44.49763" lon="6.24144">
        <ele>1066.51</ele>
        <time>2024-10-24T08:33:52.939Z</time>
      </trkpt>
      <trkpt lat="44.49766" lon="6.24148">
        <ele>1066.71</ele>
        <time>2024-10-24T08:33:54.513Z</time>
      </trkpt>
      <trkpt lat="44.4977" lon="6.24153">
        <ele>1066.96</ele>
        <time>2024-10-24T08:33:56.938Z</time>
      </trkpt>
      <trkpt lat="44.49773" lon="6.24154">
        <ele>1067.27</ele>
        <time>2024-10-24T08:33:58.826Z</time>
      </trkpt>
      <trkpt lat="44.49775" lon="6.24158">
        <ele>1067.5</ele>
        <time>2024-10-24T08:34:00.938Z</time>
      </trkpt>
      <trkpt lat="44.49778" lon="6.24158">
        <ele>1067.7</ele>
        <time>2024-10-24T08:34:02.940Z</time>
      </trkpt>
      <trkpt lat="44.49779" lon="6.24159">
        <ele>1067.85</ele>
        <time>2024-10-24T08:34:04.938Z</time>
      </trkpt>
      <trkpt lat="44.49782" lon="6.2416">
        <ele>1068.28</ele>
        <time>2024-10-24T08:34:06.939Z</time>
      </trkpt>
      <trkpt lat="44.49785" lon="6.24163">
        <ele>1068.55</ele>
        <time>2024-10-24T08:34:08.938Z</time>
      </trkpt>
      <trkpt lat="44.49788" lon="6.24164">
        <ele>1069.03</ele>
        <time>2024-10-24T08:34:10.938Z</time>
      </trkpt>
      <trkpt lat="44.49789" lon="6.24167">
        <ele>1069.44</ele>
        <time>2024-10-24T08:34:12.938Z</time>
      </trkpt>
      <trkpt lat="44.49791" lon="6.24172">
        <ele>1069.98</ele>
        <time>2024-10-24T08:34:14.938Z</time>
      </trkpt>
      <trkpt lat="44.49792" lon="6.24177">
        <ele>1070.44</ele>
        <time>2024-10-24T08:34:16.937Z</time>
      </trkpt>
      <trkpt lat="44.49794" lon="6.24179">
        <ele>1071.02</ele>
        <time>2024-10-24T08:34:18.764Z</time>
      </trkpt>
      <trkpt lat="44.49795" lon="6.24183">
        <ele>1071.5</ele>
        <time>2024-10-24T08:34:20.938Z</time>
      </trkpt>
      <trkpt lat="44.49797" lon="6.24187">
        <ele>1072.22</ele>
        <time>2024-10-24T08:34:22.940Z</time>
      </trkpt>
      <trkpt lat="44.49799" lon="6.24194">
        <ele>1072.86</ele>
        <time>2024-10-24T08:34:24.939Z</time>
      </trkpt>
      <trkpt lat="44.49801" lon="6.24199">
        <ele>1073.27</ele>
        <time>2024-10-24T08:34:26.937Z</time>
      </trkpt>
      <trkpt lat="44.49804" lon="6.24205">
        <ele>1073.72</ele>
        <time>2024-10-24T08:34:28.937Z</time>
      </trkpt>
      <trkpt lat="44.49806" lon="6.24209">
        <ele>1074.25</ele>
        <time>2024-10-24T08:34:30.938Z</time>
      </trkpt>
      <trkpt lat="44.4981" lon="6.24214">
        <ele>1074.8201</ele>
        <time>2024-10-24T08:34:32.938Z</time>
      </trkpt>
      <trkpt lat="44.49813" lon="6.24218">
        <ele>1075.4099</ele>
        <time>2024-10-24T08:34:34.938Z</time>
      </trkpt>
      <trkpt lat="44.49817" lon="6.24222">
        <ele>1076.0901</ele>
        <time>2024-10-24T08:34:36.937Z</time>
      </trkpt>
      <trkpt lat="44.49818" lon="6.24226">
        <ele>1076.6699</ele>
        <time>2024-10-24T08:34:39.037Z</time>
      </trkpt>
      <trkpt lat="44.49821" lon="6.24228">
        <ele>1077.27</ele>
        <time>2024-10-24T08:34:40.570Z</time>
      </trkpt>
      <trkpt lat="44.49825" lon="6.24231">
        <ele>1077.81</ele>
        <time>2024-10-24T08:34:42.789Z</time>
      </trkpt>
      <trkpt lat="44.4983" lon="6.24232">
        <ele>1078.3</ele>
        <time>2024-10-24T08:34:45.040Z</time>
      </trkpt>
      <trkpt lat="44.49834" lon="6.24235">
        <ele>1078.72</ele>
        <time>2024-10-24T08:34:47.039Z</time>
      </trkpt>
      <trkpt lat="44.49839" lon="6.24239">
        <ele>1079.1599</ele>
        <time>2024-10-24T08:34:48.845Z</time>
      </trkpt>
      <trkpt lat="44.49844" lon="6.2424">
        <ele>1079.9199</ele>
        <time>2024-10-24T08:34:50.866Z</time>
      </trkpt>
      <trkpt lat="44.4985" lon="6.24241">
        <ele>1080.45</ele>
        <time>2024-10-24T08:34:52.800Z</time>
      </trkpt>
      <trkpt lat="44.49855" lon="6.24245">
        <ele>1080.97</ele>
        <time>2024-10-24T08:34:54.599Z</time>
      </trkpt>
      <trkpt lat="44.49857" lon="6.24251">
        <ele>1081.45</ele>
        <time>2024-10-24T08:34:57.038Z</time>
      </trkpt>
      <trkpt lat="44.49858" lon="6.24254">
        <ele>1082.1799</ele>
        <time>2024-10-24T08:34:59.038Z</time>
      </trkpt>
      <trkpt lat="44.49865" lon="6.24261">
        <ele>1082.56</ele>
        <time>2024-10-24T08:35:01.039Z</time>
      </trkpt>
      <trkpt lat="44.49873" lon="6.24269">
        <ele>1082.94</ele>
        <time>2024-10-24T08:35:03.038Z</time>
      </trkpt>
      <trkpt lat="44.49878" lon="6.24276">
        <ele>1083.1799</ele>
        <time>2024-10-24T08:35:05.039Z</time>
      </trkpt>
      <trkpt lat="44.49883" lon="6.2428">
        <ele>1083.6699</ele>
        <time>2024-10-24T08:35:07.037Z</time>
      </trkpt>
      <trkpt lat="44.49885" lon="6.24284">
        <ele>1084.31</ele>
        <time>2024-10-24T08:35:09.038Z</time>
      </trkpt>
      <trkpt lat="44.49886" lon="6.24289">
        <ele>1084.8301</ele>
        <time>2024-10-24T08:35:11.037Z</time>
      </trkpt>
      <trkpt lat="44.49889" lon="6.24295">
        <ele>1085.01</ele>
        <time>2024-10-24T08:35:12.768Z</time>
      </trkpt>
      <trkpt lat="44.49892" lon="6.24299">
        <ele>1085.04</ele>
        <time>2024-10-24T08:35:15.039Z</time>
      </trkpt>
      <trkpt lat="44.49895" lon="6.24303">
        <ele>1085.3401</ele>
        <time>2024-10-24T08:35:16.979Z</time>
      </trkpt>
      <trkpt lat="44.49897" lon="6.24305">
        <ele>1085.6</ele>
        <time>2024-10-24T08:35:18.825Z</time>
      </trkpt>
      <trkpt lat="44.49898" lon="6.24305">
        <ele>1086.03</ele>
        <time>2024-10-24T08:35:25.750Z</time>
      </trkpt>
      <trkpt lat="44.49899" lon="6.24308">
        <ele>1086.03</ele>
        <time>2024-10-24T08:35:28.477Z</time>
      </trkpt>
      <trkpt lat="44.49901" lon="6.24311">
        <ele>1087.4199</ele>
        <time>2024-10-24T08:35:34.993Z</time>
      </trkpt>
      <trkpt lat="44.49902" lon="6.24314">
        <ele>1087.96</ele>
        <time>2024-10-24T08:35:40.635Z</time>
      </trkpt>
      <trkpt lat="44.49903" lon="6.24314">
        <ele>1088.4099</ele>
        <time>2024-10-24T08:35:43.141Z</time>
      </trkpt>
      <trkpt lat="44.49903" lon="6.24315">
        <ele>1089.1699</ele>
        <time>2024-10-24T08:36:03.801Z</time>
      </trkpt>
      <trkpt lat="44.49904" lon="6.24315">
        <ele>1089.5</ele>
        <time>2024-10-24T08:36:15.516Z</time>
      </trkpt>
      <trkpt lat="44.49912" lon="6.24323">
        <ele>1090.01</ele>
        <time>2024-10-24T08:36:20.430Z</time>
      </trkpt>
      <trkpt lat="44.49918" lon="6.24327">
        <ele>1090.47</ele>
        <time>2024-10-24T08:36:25.406Z</time>
      </trkpt>
      <trkpt lat="44.49919" lon="6.24326">
        <ele>1090.64</ele>
        <time>2024-10-24T08:36:26.953Z</time>
      </trkpt>
      <trkpt lat="44.4992" lon="6.24326">
        <ele>1090.7</ele>
        <time>2024-10-24T08:36:29.404Z</time>
      </trkpt>
      <trkpt lat="44.49923" lon="6.2433">
        <ele>1090.94</ele>
        <time>2024-10-24T08:36:30.956Z</time>
      </trkpt>
      <trkpt lat="44.49926" lon="6.24332">
        <ele>1091.22</ele>
        <time>2024-10-24T08:36:33.411Z</time>
      </trkpt>
      <trkpt lat="44.49929" lon="6.24334">
        <ele>1091.51</ele>
        <time>2024-10-24T08:36:35.351Z</time>
      </trkpt>
      <trkpt lat="44.49932" lon="6.24336">
        <ele>1091.7</ele>
        <time>2024-10-24T08:36:37.236Z</time>
      </trkpt>
      <trkpt lat="44.49934" lon="6.24339">
        <ele>1092.04</ele>
        <time>2024-10-24T08:36:38.450Z</time>
      </trkpt>
      <trkpt lat="44.49938" lon="6.24339">
        <ele>1092.24</ele>
        <time>2024-10-24T08:36:41.018Z</time>
      </trkpt>
      <trkpt lat="44.49941" lon="6.2434">
        <ele>1092.61</ele>
        <time>2024-10-24T08:36:43.358Z</time>
      </trkpt>
      <trkpt lat="44.49945" lon="6.24342">
        <ele>1092.95</ele>
        <time>2024-10-24T08:36:44.978Z</time>
      </trkpt>
      <trkpt lat="44.4995" lon="6.24345">
        <ele>1093.3201</ele>
        <time>2024-10-24T08:36:46.958Z</time>
      </trkpt>
      <trkpt lat="44.49955" lon="6.24346">
        <ele>1093.9299</ele>
        <time>2024-10-24T08:36:49.358Z</time>
      </trkpt>
      <trkpt lat="44.49959" lon="6.24347">
        <ele>1094.27</ele>
        <time>2024-10-24T08:36:51.361Z</time>
      </trkpt>
      <trkpt lat="44.49963" lon="6.24347">
        <ele>1094.63</ele>
        <time>2024-10-24T08:36:53.358Z</time>
      </trkpt>
      <trkpt lat="44.49969" lon="6.24348">
        <ele>1095.11</ele>
        <time>2024-10-24T08:36:55.359Z</time>
      </trkpt>
      <trkpt lat="44.49972" lon="6.2435">
        <ele>1095.71</ele>
        <time>2024-10-24T08:36:56.988Z</time>
      </trkpt>
      <trkpt lat="44.49974" lon="6.24352">
        <ele>1096</ele>
        <time>2024-10-24T08:36:59.459Z</time>
      </trkpt>
      <trkpt lat="44.49976" lon="6.24354">
        <ele>1096.85</ele>
        <time>2024-10-24T08:37:01.132Z</time>
      </trkpt>
      <trkpt lat="44.49978" lon="6.24358">
        <ele>1097.49</ele>
        <time>2024-10-24T08:37:03.442Z</time>
      </trkpt>
      <trkpt lat="44.49979" lon="6.24363">
        <ele>1098.28</ele>
        <time>2024-10-24T08:37:05.379Z</time>
      </trkpt>
      <trkpt lat="44.4998" lon="6.24365">
        <ele>1098.87</ele>
        <time>2024-10-24T08:37:07.050Z</time>
      </trkpt>
      <trkpt lat="44.49983" lon="6.24366">
        <ele>1099.35</ele>
        <time>2024-10-24T08:37:09.431Z</time>
      </trkpt>
      <trkpt lat="44.49986" lon="6.24366">
        <ele>1100.3301</ele>
        <time>2024-10-24T08:37:11.458Z</time>
      </trkpt>
      <trkpt lat="44.49989" lon="6.2437">
        <ele>1100.94</ele>
        <time>2024-10-24T08:37:13.460Z</time>
      </trkpt>
      <trkpt lat="44.49989" lon="6.24372">
        <ele>1101.72</ele>
        <time>2024-10-24T08:37:15.460Z</time>
      </trkpt>
      <trkpt lat="44.4999" lon="6.24375">
        <ele>1101.72</ele>
        <time>2024-10-24T08:37:17.460Z</time>
      </trkpt>
      <trkpt lat="44.49992" lon="6.24379">
        <ele>1103.1699</ele>
        <time>2024-10-24T08:37:19.442Z</time>
      </trkpt>
      <trkpt lat="44.49994" lon="6.24383">
        <ele>1103.9099</ele>
        <time>2024-10-24T08:37:21.458Z</time>
      </trkpt>
      <trkpt lat="44.49997" lon="6.24387">
        <ele>1104.6</ele>
        <time>2024-10-24T08:37:23.459Z</time>
      </trkpt>
      <trkpt lat="44.49999" lon="6.24392">
        <ele>1105.48</ele>
        <time>2024-10-24T08:37:25.022Z</time>
      </trkpt>
      <trkpt lat="44.49998" lon="6.24397">
        <ele>1106.54</ele>
        <time>2024-10-24T08:37:27.459Z</time>
      </trkpt>
      <trkpt lat="44.5" lon="6.24401">
        <ele>1107.59</ele>
        <time>2024-10-24T08:37:29.454Z</time>
      </trkpt>
      <trkpt lat="44.50002" lon="6.24406">
        <ele>1108.29</ele>
        <time>2024-10-24T08:37:31.458Z</time>
      </trkpt>
      <trkpt lat="44.50005" lon="6.2441">
        <ele>1109.08</ele>
        <time>2024-10-24T08:37:33.460Z</time>
      </trkpt>
      <trkpt lat="44.50008" lon="6.24414">
        <ele>1109.88</ele>
        <time>2024-10-24T08:37:35.458Z</time>
      </trkpt>
      <trkpt lat="44.50011" lon="6.24417">
        <ele>1110.8</ele>
        <time>2024-10-24T08:37:37.459Z</time>
      </trkpt>
      <trkpt lat="44.50013" lon="6.24421">
        <ele>1111.63</ele>
        <time>2024-10-24T08:37:39.459Z</time>
      </trkpt>
      <trkpt lat="44.50015" lon="6.24425">
        <ele>1112.39</ele>
        <time>2024-10-24T08:37:41.460Z</time>
      </trkpt>
      <trkpt lat="44.50018" lon="6.24428">
        <ele>1112.91</ele>
        <time>2024-10-24T08:37:43.476Z</time>
      </trkpt>
      <trkpt lat="44.50021" lon="6.2443">
        <ele>1113.81</ele>
        <time>2024-10-24T08:37:45.458Z</time>
      </trkpt>
      <trkpt lat="44.50024" lon="6.24434">
        <ele>1114.42</ele>
        <time>2024-10-24T08:37:47.458Z</time>
      </trkpt>
      <trkpt lat="44.50027" lon="6.24437">
        <ele>1115.09</ele>
        <time>2024-10-24T08:37:49.486Z</time>
      </trkpt>
      <trkpt lat="44.50031" lon="6.2444">
        <ele>1115.81</ele>
        <time>2024-10-24T08:37:51.460Z</time>
      </trkpt>
      <trkpt lat="44.50035" lon="6.24445">
        <ele>1116.41</ele>
        <time>2024-10-24T08:37:53.459Z</time>
      </trkpt>
      <trkpt lat="44.50039" lon="6.24449">
        <ele>1117.14</ele>
        <time>2024-10-24T08:37:55.459Z</time>
      </trkpt>
      <trkpt lat="44.50042" lon="6.24451">
        <ele>1117.98</ele>
        <time>2024-10-24T08:37:57.459Z</time>
      </trkpt>
      <trkpt lat="44.50045" lon="6.24453">
        <ele>1118.25</ele>
        <time>2024-10-24T08:37:59.457Z</time>
      </trkpt>
      <trkpt lat="44.50048" lon="6.24455">
        <ele>1118.58</ele>
        <time>2024-10-24T08:38:01.458Z</time>
      </trkpt>
      <trkpt lat="44.5005" lon="6.2446">
        <ele>1119.38</ele>
        <time>2024-10-24T08:38:03.458Z</time>
      </trkpt>
      <trkpt lat="44.50053" lon="6.24465">
        <ele>1119.86</ele>
        <time>2024-10-24T08:38:05.459Z</time>
      </trkpt>
      <trkpt lat="44.50056" lon="6.24468">
        <ele>1120.4</ele>
        <time>2024-10-24T08:38:07.347Z</time>
      </trkpt>
      <trkpt lat="44.5006" lon="6.24473">
        <ele>1121.03</ele>
        <time>2024-10-24T08:38:09.457Z</time>
      </trkpt>
      <trkpt lat="44.50064" lon="6.24476">
        <ele>1121.45</ele>
        <time>2024-10-24T08:38:11.460Z</time>
      </trkpt>
      <trkpt lat="44.50068" lon="6.24477">
        <ele>1121.78</ele>
        <time>2024-10-24T08:38:13.458Z</time>
      </trkpt>
      <trkpt lat="44.50071" lon="6.2448">
        <ele>1122.3</ele>
        <time>2024-10-24T08:38:15.460Z</time>
      </trkpt>
      <trkpt lat="44.50074" lon="6.24483">
        <ele>1122.52</ele>
        <time>2024-10-24T08:38:17.458Z</time>
      </trkpt>
      <trkpt lat="44.50076" lon="6.24487">
        <ele>1123.01</ele>
        <time>2024-10-24T08:38:19.458Z</time>
      </trkpt>
      <trkpt lat="44.50079" lon="6.24491">
        <ele>1123.39</ele>
        <time>2024-10-24T08:38:21.108Z</time>
      </trkpt>
      <trkpt lat="44.5008" lon="6.24494">
        <ele>1124.06</ele>
        <time>2024-10-24T08:38:23.458Z</time>
      </trkpt>
      <trkpt lat="44.50082" lon="6.24498">
        <ele>1124.52</ele>
        <time>2024-10-24T08:38:25.460Z</time>
      </trkpt>
      <trkpt lat="44.50083" lon="6.245">
        <ele>1125.05</ele>
        <time>2024-10-24T08:38:27.458Z</time>
      </trkpt>
      <trkpt lat="44.50085" lon="6.24502">
        <ele>1125.05</ele>
        <time>2024-10-24T08:38:29.086Z</time>
      </trkpt>
      <trkpt lat="44.50088" lon="6.24505">
        <ele>1126.08</ele>
        <time>2024-10-24T08:38:31.497Z</time>
      </trkpt>
      <trkpt lat="44.50091" lon="6.24508">
        <ele>1126.71</ele>
        <time>2024-10-24T08:38:33.446Z</time>
      </trkpt>
      <trkpt lat="44.50094" lon="6.24511">
        <ele>1127.21</ele>
        <time>2024-10-24T08:38:35.559Z</time>
      </trkpt>
      <trkpt lat="44.50098" lon="6.24513">
        <ele>1127.83</ele>
        <time>2024-10-24T08:38:36.569Z</time>
      </trkpt>
      <trkpt lat="44.50101" lon="6.24517">
        <ele>1128.12</ele>
        <time>2024-10-24T08:38:38.579Z</time>
      </trkpt>
      <trkpt lat="44.50104" lon="6.2452">
        <ele>1128.85</ele>
        <time>2024-10-24T08:38:40.597Z</time>
      </trkpt>
      <trkpt lat="44.50107" lon="6.24522">
        <ele>1129.42</ele>
        <time>2024-10-24T08:38:42.628Z</time>
      </trkpt>
      <trkpt lat="44.5011" lon="6.24523">
        <ele>1129.73</ele>
        <time>2024-10-24T08:38:44.652Z</time>
      </trkpt>
      <trkpt lat="44.50113" lon="6.24526">
        <ele>1130.38</ele>
        <time>2024-10-24T08:38:47.147Z</time>
      </trkpt>
      <trkpt lat="44.50116" lon="6.24529">
        <ele>1131.04</ele>
        <time>2024-10-24T08:38:48.653Z</time>
      </trkpt>
      <trkpt lat="44.50119" lon="6.2453">
        <ele>1131.76</ele>
        <time>2024-10-24T08:38:51.559Z</time>
      </trkpt>
      <trkpt lat="44.50122" lon="6.24534">
        <ele>1132.33</ele>
        <time>2024-10-24T08:38:53.416Z</time>
      </trkpt>
      <trkpt lat="44.50126" lon="6.24538">
        <ele>1133.04</ele>
        <time>2024-10-24T08:38:55.559Z</time>
      </trkpt>
      <trkpt lat="44.50129" lon="6.2454">
        <ele>1133.46</ele>
        <time>2024-10-24T08:38:57.559Z</time>
      </trkpt>
      <trkpt lat="44.50132" lon="6.24544">
        <ele>1134.07</ele>
        <time>2024-10-24T08:38:59.560Z</time>
      </trkpt>
      <trkpt lat="44.50135" lon="6.24547">
        <ele>1134.73</ele>
        <time>2024-10-24T08:39:01.558Z</time>
      </trkpt>
      <trkpt lat="44.50137" lon="6.24549">
        <ele>1136.07</ele>
        <time>2024-10-24T08:39:04.438Z</time>
      </trkpt>
      <trkpt lat="44.5014" lon="6.24554">
        <ele>1136.8</ele>
        <time>2024-10-24T08:39:11.137Z</time>
      </trkpt>
      <trkpt lat="44.50143" lon="6.24552">
        <ele>1138.79</ele>
        <time>2024-10-24T08:40:51.371Z</time>
      </trkpt>
      <trkpt lat="44.50139" lon="6.24565">
        <ele>1144.34</ele>
        <time>2024-10-24T08:40:55.598Z</time>
      </trkpt>
      <trkpt lat="44.50148" lon="6.24564">
        <ele>1144.79</ele>
        <time>2024-10-24T08:41:04.111Z</time>
      </trkpt>
      <trkpt lat="44.50148" lon="6.24565">
        <ele>1144.9</ele>
        <time>2024-10-24T08:41:06.046Z</time>
      </trkpt>
      <trkpt lat="44.50149" lon="6.24566">
        <ele>1144.96</ele>
        <time>2024-10-24T08:41:08.066Z</time>
      </trkpt>
      <trkpt lat="44.50151" lon="6.24569">
        <ele>1144.94</ele>
        <time>2024-10-24T08:41:10.066Z</time>
      </trkpt>
      <trkpt lat="44.50156" lon="6.24574">
        <ele>1144.95</ele>
        <time>2024-10-24T08:41:12.137Z</time>
      </trkpt>
      <trkpt lat="44.50161" lon="6.24578">
        <ele>1145.2</ele>
        <time>2024-10-24T08:41:14.166Z</time>
      </trkpt>
      <trkpt lat="44.50164" lon="6.2458">
        <ele>1145.4</ele>
        <time>2024-10-24T08:41:15.973Z</time>
      </trkpt>
      <trkpt lat="44.50167" lon="6.24583">
        <ele>1145.62</ele>
        <time>2024-10-24T08:41:18.167Z</time>
      </trkpt>
      <trkpt lat="44.50171" lon="6.24586">
        <ele>1146.04</ele>
        <time>2024-10-24T08:41:20.167Z</time>
      </trkpt>
      <trkpt lat="44.50175" lon="6.24587">
        <ele>1146.08</ele>
        <time>2024-10-24T08:41:22.167Z</time>
      </trkpt>
      <trkpt lat="44.50178" lon="6.24589">
        <ele>1146.27</ele>
        <time>2024-10-24T08:41:24.167Z</time>
      </trkpt>
      <trkpt lat="44.50181" lon="6.24591">
        <ele>1146.57</ele>
        <time>2024-10-24T08:41:26.166Z</time>
      </trkpt>
      <trkpt lat="44.50183" lon="6.24594">
        <ele>1147.02</ele>
        <time>2024-10-24T08:41:27.213Z</time>
      </trkpt>
      <trkpt lat="44.50186" lon="6.24598">
        <ele>1147.38</ele>
        <time>2024-10-24T08:41:30.169Z</time>
      </trkpt>
      <trkpt lat="44.50189" lon="6.246">
        <ele>1147.72</ele>
        <time>2024-10-24T08:41:31.951Z</time>
      </trkpt>
      <trkpt lat="44.50193" lon="6.24602">
        <ele>1148.07</ele>
        <time>2024-10-24T08:41:34.166Z</time>
      </trkpt>
      <trkpt lat="44.50197" lon="6.24602">
        <ele>1148.61</ele>
        <time>2024-10-24T08:41:36.168Z</time>
      </trkpt>
      <trkpt lat="44.50198" lon="6.24594">
        <ele>1148.96</ele>
        <time>2024-10-24T08:41:38.165Z</time>
      </trkpt>
      <trkpt lat="44.50198" lon="6.24586">
        <ele>1149.42</ele>
        <time>2024-10-24T08:41:39.208Z</time>
      </trkpt>
      <trkpt lat="44.50198" lon="6.24578">
        <ele>1149.85</ele>
        <time>2024-10-24T08:41:42.167Z</time>
      </trkpt>
      <trkpt lat="44.50203" lon="6.24577">
        <ele>1150.48</ele>
        <time>2024-10-24T08:41:44.167Z</time>
      </trkpt>
      <trkpt lat="44.50195" lon="6.24578">
        <ele>1152.24</ele>
        <time>2024-10-24T08:41:50.156Z</time>
      </trkpt>
      <trkpt lat="44.50196" lon="6.24574">
        <ele>1152.62</ele>
        <time>2024-10-24T08:41:52.163Z</time>
      </trkpt>
      <trkpt lat="44.50197" lon="6.24575">
        <ele>1153.13</ele>
        <time>2024-10-24T08:41:54.159Z</time>
      </trkpt>
      <trkpt lat="44.50199" lon="6.24575">
        <ele>1153.13</ele>
        <time>2024-10-24T08:41:57.135Z</time>
      </trkpt>
      <trkpt lat="44.502" lon="6.24576">
        <ele>1153.13</ele>
        <time>2024-10-24T08:41:58.164Z</time>
      </trkpt>
      <trkpt lat="44.50204" lon="6.24583">
        <ele>1153.13</ele>
        <time>2024-10-24T08:42:01.169Z</time>
      </trkpt>
      <trkpt lat="44.50206" lon="6.24583">
        <ele>1155.31</ele>
        <time>2024-10-24T08:42:03.168Z</time>
      </trkpt>
      <trkpt lat="44.50209" lon="6.24582">
        <ele>1155.73</ele>
        <time>2024-10-24T08:42:04.266Z</time>
      </trkpt>
      <trkpt lat="44.50212" lon="6.24584">
        <ele>1156.59</ele>
        <time>2024-10-24T08:42:07.170Z</time>
      </trkpt>
      <trkpt lat="44.50217" lon="6.24584">
        <ele>1156.94</ele>
        <time>2024-10-24T08:42:09.169Z</time>
      </trkpt>
      <trkpt lat="44.50218" lon="6.24586">
        <ele>1162.04</ele>
        <time>2024-10-24T08:42:43.120Z</time>
      </trkpt>
      <trkpt lat="44.5022" lon="6.24588">
        <ele>1162.5</ele>
        <time>2024-10-24T08:42:45.220Z</time>
      </trkpt>
      <trkpt lat="44.50222" lon="6.24589">
        <ele>1162.88</ele>
        <time>2024-10-24T08:42:46.278Z</time>
      </trkpt>
      <trkpt lat="44.50224" lon="6.24588">
        <ele>1163.35</ele>
        <time>2024-10-24T08:42:47.282Z</time>
      </trkpt>
      <trkpt lat="44.50227" lon="6.2458">
        <ele>1163.74</ele>
        <time>2024-10-24T08:42:49.224Z</time>
      </trkpt>
      <trkpt lat="44.50229" lon="6.24576">
        <ele>1164.34</ele>
        <time>2024-10-24T08:42:52.214Z</time>
      </trkpt>
      <trkpt lat="44.50229" lon="6.24574">
        <ele>1164.6</ele>
        <time>2024-10-24T08:42:53.228Z</time>
      </trkpt>
      <trkpt lat="44.50231" lon="6.24564">
        <ele>1164.95</ele>
        <time>2024-10-24T08:42:56.151Z</time>
      </trkpt>
      <trkpt lat="44.50231" lon="6.24559">
        <ele>1165.5</ele>
        <time>2024-10-24T08:42:58.224Z</time>
      </trkpt>
      <trkpt lat="44.50229" lon="6.24554">
        <ele>1166.15</ele>
        <time>2024-10-24T08:43:00.170Z</time>
      </trkpt>
      <trkpt lat="44.50229" lon="6.24552">
        <ele>1166.63</ele>
        <time>2024-10-24T08:43:02.165Z</time>
      </trkpt>
      <trkpt lat="44.5023" lon="6.2455">
        <ele>1166.63</ele>
        <time>2024-10-24T08:43:04.204Z</time>
      </trkpt>
      <trkpt lat="44.50233" lon="6.24546">
        <ele>1166.63</ele>
        <time>2024-10-24T08:43:06.219Z</time>
      </trkpt>
      <trkpt lat="44.50235" lon="6.24541">
        <ele>1168.63</ele>
        <time>2024-10-24T08:43:07.276Z</time>
      </trkpt>
      <trkpt lat="44.50236" lon="6.24535">
        <ele>1169.36</ele>
        <time>2024-10-24T08:43:10.210Z</time>
      </trkpt>
      <trkpt lat="44.50238" lon="6.24531">
        <ele>1170.17</ele>
        <time>2024-10-24T08:43:11.249Z</time>
      </trkpt>
      <trkpt lat="44.50242" lon="6.24526">
        <ele>1170.6</ele>
        <time>2024-10-24T08:43:14.225Z</time>
      </trkpt>
      <trkpt lat="44.50245" lon="6.24523">
        <ele>1171.3</ele>
        <time>2024-10-24T08:43:15.250Z</time>
      </trkpt>
      <trkpt lat="44.50247" lon="6.24519">
        <ele>1172.27</ele>
        <time>2024-10-24T08:43:17.258Z</time>
      </trkpt>
      <trkpt lat="44.5025" lon="6.24517">
        <ele>1172.85</ele>
        <time>2024-10-24T08:43:20.217Z</time>
      </trkpt>
      <trkpt lat="44.50254" lon="6.24514">
        <ele>1173.49</ele>
        <time>2024-10-24T08:43:21.264Z</time>
      </trkpt>
      <trkpt lat="44.50258" lon="6.24511">
        <ele>1174.28</ele>
        <time>2024-10-24T08:43:24.235Z</time>
      </trkpt>
      <trkpt lat="44.50261" lon="6.2451">
        <ele>1174.88</ele>
        <time>2024-10-24T08:43:25.262Z</time>
      </trkpt>
      <trkpt lat="44.50264" lon="6.24511">
        <ele>1175.66</ele>
        <time>2024-10-24T08:43:28.220Z</time>
      </trkpt>
      <trkpt lat="44.50265" lon="6.24513">
        <ele>1176.57</ele>
        <time>2024-10-24T08:43:30.256Z</time>
      </trkpt>
      <trkpt lat="44.50266" lon="6.24517">
        <ele>1176.7</ele>
        <time>2024-10-24T08:43:32.221Z</time>
      </trkpt>
      <trkpt lat="44.50267" lon="6.24522">
        <ele>1177.4</ele>
        <time>2024-10-24T08:43:34.221Z</time>
      </trkpt>
      <trkpt lat="44.50267" lon="6.24526">
        <ele>1178</ele>
        <time>2024-10-24T08:43:36.259Z</time>
      </trkpt>
      <trkpt lat="44.50267" lon="6.24529">
        <ele>1178.83</ele>
        <time>2024-10-24T08:43:38.220Z</time>
      </trkpt>
      <trkpt lat="44.50267" lon="6.24533">
        <ele>1179.32</ele>
        <time>2024-10-24T08:43:40.238Z</time>
      </trkpt>
      <trkpt lat="44.50269" lon="6.24537">
        <ele>1179.53</ele>
        <time>2024-10-24T08:43:42.222Z</time>
      </trkpt>
      <trkpt lat="44.5027" lon="6.2454">
        <ele>1180.04</ele>
        <time>2024-10-24T08:43:44.220Z</time>
      </trkpt>
      <trkpt lat="44.50273" lon="6.24544">
        <ele>1180.51</ele>
        <time>2024-10-24T08:43:46.221Z</time>
      </trkpt>
      <trkpt lat="44.50275" lon="6.24547">
        <ele>1181.1</ele>
        <time>2024-10-24T08:43:48.222Z</time>
      </trkpt>
      <trkpt lat="44.50277" lon="6.24551">
        <ele>1181.79</ele>
        <time>2024-10-24T08:43:50.270Z</time>
      </trkpt>
      <trkpt lat="44.50279" lon="6.24554">
        <ele>1182.33</ele>
        <time>2024-10-24T08:43:52.220Z</time>
      </trkpt>
      <trkpt lat="44.50281" lon="6.24557">
        <ele>1182.82</ele>
        <time>2024-10-24T08:43:54.090Z</time>
      </trkpt>
      <trkpt lat="44.50283" lon="6.24561">
        <ele>1183.47</ele>
        <time>2024-10-24T08:43:56.219Z</time>
      </trkpt>
      <trkpt lat="44.50285" lon="6.24565">
        <ele>1183.79</ele>
        <time>2024-10-24T08:43:58.220Z</time>
      </trkpt>
      <trkpt lat="44.50287" lon="6.24569">
        <ele>1184.54</ele>
        <time>2024-10-24T08:44:00.221Z</time>
      </trkpt>
      <trkpt lat="44.5029" lon="6.24573">
        <ele>1184.67</ele>
        <time>2024-10-24T08:44:02.222Z</time>
      </trkpt>
      <trkpt lat="44.50293" lon="6.24577">
        <ele>1185.18</ele>
        <time>2024-10-24T08:44:03.806Z</time>
      </trkpt>
      <trkpt lat="44.50296" lon="6.24579">
        <ele>1185.61</ele>
        <time>2024-10-24T08:44:06.220Z</time>
      </trkpt>
      <trkpt lat="44.50299" lon="6.24581">
        <ele>1186</ele>
        <time>2024-10-24T08:44:08.221Z</time>
      </trkpt>
      <trkpt lat="44.50302" lon="6.24582">
        <ele>1186.23</ele>
        <time>2024-10-24T08:44:10.221Z</time>
      </trkpt>
      <trkpt lat="44.50294" lon="6.24576">
        <ele>1187.17</ele>
        <time>2024-10-24T08:46:49.793Z</time>
      </trkpt>
      <trkpt lat="44.50304" lon="6.24572">
        <ele>1187.17</ele>
        <time>2024-10-24T08:46:52.889Z</time>
      </trkpt>
      <trkpt lat="44.50309" lon="6.24572">
        <ele>1187.17</ele>
        <time>2024-10-24T08:46:53.890Z</time>
      </trkpt>
      <trkpt lat="44.50319" lon="6.24572">
        <ele>1187.17</ele>
        <time>2024-10-24T08:46:56.796Z</time>
      </trkpt>
      <trkpt lat="44.50327" lon="6.24573">
        <ele>1192.6</ele>
        <time>2024-10-24T08:46:58.795Z</time>
      </trkpt>
      <trkpt lat="44.50334" lon="6.24578">
        <ele>1192.59</ele>
        <time>2024-10-24T08:47:00.895Z</time>
      </trkpt>
      <trkpt lat="44.50341" lon="6.24584">
        <ele>1192.61</ele>
        <time>2024-10-24T08:47:02.893Z</time>
      </trkpt>
      <trkpt lat="44.50346" lon="6.24593">
        <ele>1192.62</ele>
        <time>2024-10-24T08:47:04.896Z</time>
      </trkpt>
      <trkpt lat="44.50348" lon="6.24605">
        <ele>1192.57</ele>
        <time>2024-10-24T08:47:06.897Z</time>
      </trkpt>
      <trkpt lat="44.5035" lon="6.24615">
        <ele>1192.6</ele>
        <time>2024-10-24T08:47:08.895Z</time>
      </trkpt>
      <trkpt lat="44.50354" lon="6.24618">
        <ele>1192.57</ele>
        <time>2024-10-24T08:47:10.893Z</time>
      </trkpt>
      <trkpt lat="44.50361" lon="6.24615">
        <ele>1192.57</ele>
        <time>2024-10-24T08:47:12.881Z</time>
      </trkpt>
      <trkpt lat="44.50365" lon="6.24611">
        <ele>1192.59</ele>
        <time>2024-10-24T08:47:14.828Z</time>
      </trkpt>
      <trkpt lat="44.50368" lon="6.24606">
        <ele>1192.56</ele>
        <time>2024-10-24T08:47:16.886Z</time>
      </trkpt>
      <trkpt lat="44.50371" lon="6.24597">
        <ele>1192.52</ele>
        <time>2024-10-24T08:47:18.896Z</time>
      </trkpt>
      <trkpt lat="44.50372" lon="6.24589">
        <ele>1192.43</ele>
        <time>2024-10-24T08:47:20.894Z</time>
      </trkpt>
      <trkpt lat="44.50372" lon="6.2458">
        <ele>1192.47</ele>
        <time>2024-10-24T08:47:21.916Z</time>
      </trkpt>
      <trkpt lat="44.50373" lon="6.24569">
        <ele>1192.43</ele>
        <time>2024-10-24T08:47:24.637Z</time>
      </trkpt>
      <trkpt lat="44.50372" lon="6.24559">
        <ele>1192.48</ele>
        <time>2024-10-24T08:47:26.379Z</time>
      </trkpt>
      <trkpt lat="44.5037" lon="6.24549">
        <ele>1192.45</ele>
        <time>2024-10-24T08:47:28.893Z</time>
      </trkpt>
      <trkpt lat="44.50367" lon="6.24541">
        <ele>1192.43</ele>
        <time>2024-10-24T08:47:29.919Z</time>
      </trkpt>
      <trkpt lat="44.50364" lon="6.24533">
        <ele>1192.4</ele>
        <time>2024-10-24T08:47:32.881Z</time>
      </trkpt>
      <trkpt lat="44.50362" lon="6.24525">
        <ele>1192.4</ele>
        <time>2024-10-24T08:47:34.915Z</time>
      </trkpt>
      <trkpt lat="44.50361" lon="6.24517">
        <ele>1192.39</ele>
        <time>2024-10-24T08:47:36.621Z</time>
      </trkpt>
      <trkpt lat="44.5036" lon="6.2451">
        <ele>1192.39</ele>
        <time>2024-10-24T08:47:38.890Z</time>
      </trkpt>
      <trkpt lat="44.50362" lon="6.24502">
        <ele>1192.43</ele>
        <time>2024-10-24T08:47:40.894Z</time>
      </trkpt>
      <trkpt lat="44.50362" lon="6.24496">
        <ele>1192.54</ele>
        <time>2024-10-24T08:47:42.921Z</time>
      </trkpt>
      <trkpt lat="44.50364" lon="6.2449">
        <ele>1192.64</ele>
        <time>2024-10-24T08:47:43.930Z</time>
      </trkpt>
      <trkpt lat="44.50364" lon="6.24484">
        <ele>1192.67</ele>
        <time>2024-10-24T08:47:46.895Z</time>
      </trkpt>
      <trkpt lat="44.50365" lon="6.24479">
        <ele>1192.84</ele>
        <time>2024-10-24T08:47:48.899Z</time>
      </trkpt>
      <trkpt lat="44.50367" lon="6.24472">
        <ele>1192.96</ele>
        <time>2024-10-24T08:47:50.895Z</time>
      </trkpt>
      <trkpt lat="44.50368" lon="6.24466">
        <ele>1193.08</ele>
        <time>2024-10-24T08:47:52.894Z</time>
      </trkpt>
      <trkpt lat="44.5037" lon="6.24461">
        <ele>1193.19</ele>
        <time>2024-10-24T08:47:54.895Z</time>
      </trkpt>
      <trkpt lat="44.50371" lon="6.24457">
        <ele>1193.4</ele>
        <time>2024-10-24T08:47:56.797Z</time>
      </trkpt>
      <trkpt lat="44.50373" lon="6.24452">
        <ele>1193.56</ele>
        <time>2024-10-24T08:47:58.895Z</time>
      </trkpt>
      <trkpt lat="44.50376" lon="6.24446">
        <ele>1193.75</ele>
        <time>2024-10-24T08:48:00.774Z</time>
      </trkpt>
      <trkpt lat="44.50379" lon="6.24441">
        <ele>1193.84</ele>
        <time>2024-10-24T08:48:02.894Z</time>
      </trkpt>
      <trkpt lat="44.50383" lon="6.24436">
        <ele>1194.05</ele>
        <time>2024-10-24T08:48:04.728Z</time>
      </trkpt>
      <trkpt lat="44.50387" lon="6.24432">
        <ele>1194.39</ele>
        <time>2024-10-24T08:48:06.895Z</time>
      </trkpt>
      <trkpt lat="44.5039" lon="6.24428">
        <ele>1194.66</ele>
        <time>2024-10-24T08:48:08.894Z</time>
      </trkpt>
      <trkpt lat="44.50392" lon="6.24425">
        <ele>1194.83</ele>
        <time>2024-10-24T08:48:10.895Z</time>
      </trkpt>
      <trkpt lat="44.50394" lon="6.24422">
        <ele>1195.15</ele>
        <time>2024-10-24T08:48:12.894Z</time>
      </trkpt>
      <trkpt lat="44.50397" lon="6.2442">
        <ele>1195.59</ele>
        <time>2024-10-24T08:48:14.819Z</time>
      </trkpt>
      <trkpt lat="44.50401" lon="6.24417">
        <ele>1195.66</ele>
        <time>2024-10-24T08:48:16.894Z</time>
      </trkpt>
      <trkpt lat="44.50405" lon="6.24413">
        <ele>1195.93</ele>
        <time>2024-10-24T08:48:18.894Z</time>
      </trkpt>
      <trkpt lat="44.5041" lon="6.24409">
        <ele>1196.36</ele>
        <time>2024-10-24T08:48:20.894Z</time>
      </trkpt>
      <trkpt lat="44.50414" lon="6.24405">
        <ele>1196.69</ele>
        <time>2024-10-24T08:48:22.894Z</time>
      </trkpt>
      <trkpt lat="44.50418" lon="6.24402">
        <ele>1197.08</ele>
        <time>2024-10-24T08:48:24.894Z</time>
      </trkpt>
      <trkpt lat="44.50422" lon="6.24398">
        <ele>1197.61</ele>
        <time>2024-10-24T08:48:26.896Z</time>
      </trkpt>
      <trkpt lat="44.50427" lon="6.24394">
        <ele>1197.97</ele>
        <time>2024-10-24T08:48:28.894Z</time>
      </trkpt>
      <trkpt lat="44.50432" lon="6.24389">
        <ele>1198.21</ele>
        <time>2024-10-24T08:48:30.894Z</time>
      </trkpt>
      <trkpt lat="44.50437" lon="6.24385">
        <ele>1198.61</ele>
        <time>2024-10-24T08:48:31.981Z</time>
      </trkpt>
      <trkpt lat="44.50441" lon="6.24382">
        <ele>1199</ele>
        <time>2024-10-24T08:48:34.894Z</time>
      </trkpt>
      <trkpt lat="44.50447" lon="6.24379">
        <ele>1199.61</ele>
        <time>2024-10-24T08:48:36.935Z</time>
      </trkpt>
      <trkpt lat="44.50451" lon="6.24376">
        <ele>1199.88</ele>
        <time>2024-10-24T08:48:38.895Z</time>
      </trkpt>
      <trkpt lat="44.50455" lon="6.24372">
        <ele>1200.34</ele>
        <time>2024-10-24T08:48:40.894Z</time>
      </trkpt>
      <trkpt lat="44.5046" lon="6.24368">
        <ele>1200.66</ele>
        <time>2024-10-24T08:48:42.896Z</time>
      </trkpt>
      <trkpt lat="44.50465" lon="6.24365">
        <ele>1201.14</ele>
        <time>2024-10-24T08:48:44.894Z</time>
      </trkpt>
      <trkpt lat="44.5047" lon="6.24361">
        <ele>1201.53</ele>
        <time>2024-10-24T08:48:46.895Z</time>
      </trkpt>
      <trkpt lat="44.50475" lon="6.24358">
        <ele>1202.07</ele>
        <time>2024-10-24T08:48:48.994Z</time>
      </trkpt>
      <trkpt lat="44.5048" lon="6.24356">
        <ele>1202.62</ele>
        <time>2024-10-24T08:48:50.995Z</time>
      </trkpt>
      <trkpt lat="44.50486" lon="6.24354">
        <ele>1202.97</ele>
        <time>2024-10-24T08:48:52.798Z</time>
      </trkpt>
      <trkpt lat="44.50492" lon="6.2435">
        <ele>1203.37</ele>
        <time>2024-10-24T08:48:54.584Z</time>
      </trkpt>
      <trkpt lat="44.50495" lon="6.24345">
        <ele>1203.57</ele>
        <time>2024-10-24T08:48:56.994Z</time>
      </trkpt>
      <trkpt lat="44.50497" lon="6.2434">
        <ele>1203.89</ele>
        <time>2024-10-24T08:48:58.995Z</time>
      </trkpt>
      <trkpt lat="44.505" lon="6.24335">
        <ele>1204.26</ele>
        <time>2024-10-24T08:49:00.996Z</time>
      </trkpt>
      <trkpt lat="44.50503" lon="6.24329">
        <ele>1204.79</ele>
        <time>2024-10-24T08:49:02.995Z</time>
      </trkpt>
      <trkpt lat="44.50505" lon="6.24323">
        <ele>1205.05</ele>
        <time>2024-10-24T08:49:04.657Z</time>
      </trkpt>
      <trkpt lat="44.50508" lon="6.24317">
        <ele>1205.34</ele>
        <time>2024-10-24T08:49:06.997Z</time>
      </trkpt>
      <trkpt lat="44.50512" lon="6.24312">
        <ele>1205.96</ele>
        <time>2024-10-24T08:49:08.060Z</time>
      </trkpt>
      <trkpt lat="44.50517" lon="6.24305">
        <ele>1206.32</ele>
        <time>2024-10-24T08:49:10.994Z</time>
      </trkpt>
      <trkpt lat="44.50522" lon="6.24297">
        <ele>1206.66</ele>
        <time>2024-10-24T08:49:12.684Z</time>
      </trkpt>
      <trkpt lat="44.50526" lon="6.24291">
        <ele>1207.19</ele>
        <time>2024-10-24T08:49:14.753Z</time>
      </trkpt>
      <trkpt lat="44.50531" lon="6.24287">
        <ele>1207.44</ele>
        <time>2024-10-24T08:49:16.996Z</time>
      </trkpt>
      <trkpt lat="44.50534" lon="6.24285">
        <ele>1207.84</ele>
        <time>2024-10-24T08:49:18.995Z</time>
      </trkpt>
      <trkpt lat="44.50538" lon="6.24283">
        <ele>1208.38</ele>
        <time>2024-10-24T08:49:20.997Z</time>
      </trkpt>
      <trkpt lat="44.50543" lon="6.24281">
        <ele>1208.81</ele>
        <time>2024-10-24T08:49:22.687Z</time>
      </trkpt>
      <trkpt lat="44.50548" lon="6.24277">
        <ele>1209</ele>
        <time>2024-10-24T08:49:24.716Z</time>
      </trkpt>
      <trkpt lat="44.50554" lon="6.24273">
        <ele>1209.37</ele>
        <time>2024-10-24T08:49:26.817Z</time>
      </trkpt>
      <trkpt lat="44.50559" lon="6.24265">
        <ele>1209.64</ele>
        <time>2024-10-24T08:49:28.996Z</time>
      </trkpt>
      <trkpt lat="44.50563" lon="6.24259">
        <ele>1209.92</ele>
        <time>2024-10-24T08:49:30.996Z</time>
      </trkpt>
      <trkpt lat="44.50567" lon="6.24255">
        <ele>1210.09</ele>
        <time>2024-10-24T08:49:32.877Z</time>
      </trkpt>
      <trkpt lat="44.50571" lon="6.24251">
        <ele>1210.44</ele>
        <time>2024-10-24T08:49:34.995Z</time>
      </trkpt>
      <trkpt lat="44.50577" lon="6.24247">
        <ele>1210.79</ele>
        <time>2024-10-24T08:49:36.996Z</time>
      </trkpt>
      <trkpt lat="44.50583" lon="6.24247">
        <ele>1211.09</ele>
        <time>2024-10-24T08:49:38.997Z</time>
      </trkpt>
      <trkpt lat="44.50588" lon="6.24249">
        <ele>1211.41</ele>
        <time>2024-10-24T08:49:40.579Z</time>
      </trkpt>
      <trkpt lat="44.50594" lon="6.2425">
        <ele>1211.51</ele>
        <time>2024-10-24T08:49:42.994Z</time>
      </trkpt>
      <trkpt lat="44.50599" lon="6.24251">
        <ele>1212.06</ele>
        <time>2024-10-24T08:49:44.995Z</time>
      </trkpt>
      <trkpt lat="44.50606" lon="6.24252">
        <ele>1212.55</ele>
        <time>2024-10-24T08:49:46.996Z</time>
      </trkpt>
      <trkpt lat="44.50611" lon="6.24249">
        <ele>1212.89</ele>
        <time>2024-10-24T08:49:48.994Z</time>
      </trkpt>
      <trkpt lat="44.50616" lon="6.24244">
        <ele>1213.34</ele>
        <time>2024-10-24T08:49:50.997Z</time>
      </trkpt>
      <trkpt lat="44.50619" lon="6.24237">
        <ele>1213.82</ele>
        <time>2024-10-24T08:49:52.994Z</time>
      </trkpt>
      <trkpt lat="44.50621" lon="6.24229">
        <ele>1214.23</ele>
        <time>2024-10-24T08:49:54.995Z</time>
      </trkpt>
      <trkpt lat="44.5062" lon="6.2422">
        <ele>1214.87</ele>
        <time>2024-10-24T08:49:56.996Z</time>
      </trkpt>
      <trkpt lat="44.50618" lon="6.24212">
        <ele>1215.41</ele>
        <time>2024-10-24T08:49:58.994Z</time>
      </trkpt>
      <trkpt lat="44.50617" lon="6.24203">
        <ele>1216.05</ele>
        <time>2024-10-24T08:50:00.995Z</time>
      </trkpt>
      <trkpt lat="44.50619" lon="6.24195">
        <ele>1216.68</ele>
        <time>2024-10-24T08:50:02.994Z</time>
      </trkpt>
      <trkpt lat="44.50621" lon="6.24188">
        <ele>1217.3</ele>
        <time>2024-10-24T08:50:04.995Z</time>
      </trkpt>
      <trkpt lat="44.50624" lon="6.24182">
        <ele>1217.5</ele>
        <time>2024-10-24T08:50:06.997Z</time>
      </trkpt>
      <trkpt lat="44.50628" lon="6.24179">
        <ele>1217.97</ele>
        <time>2024-10-24T08:50:09.094Z</time>
      </trkpt>
      <trkpt lat="44.50631" lon="6.24176">
        <ele>1218.39</ele>
        <time>2024-10-24T08:50:11.094Z</time>
      </trkpt>
      <trkpt lat="44.50635" lon="6.24171">
        <ele>1218.89</ele>
        <time>2024-10-24T08:50:12.662Z</time>
      </trkpt>
      <trkpt lat="44.50639" lon="6.24168">
        <ele>1219.69</ele>
        <time>2024-10-24T08:50:15.095Z</time>
      </trkpt>
      <trkpt lat="44.50642" lon="6.24164">
        <ele>1220.27</ele>
        <time>2024-10-24T08:50:17.094Z</time>
      </trkpt>
      <trkpt lat="44.50645" lon="6.2416">
        <ele>1220.65</ele>
        <time>2024-10-24T08:50:19.095Z</time>
      </trkpt>
      <trkpt lat="44.50648" lon="6.24156">
        <ele>1221.29</ele>
        <time>2024-10-24T08:50:21.095Z</time>
      </trkpt>
      <trkpt lat="44.50654" lon="6.24153">
        <ele>1221.69</ele>
        <time>2024-10-24T08:50:22.679Z</time>
      </trkpt>
      <trkpt lat="44.5066" lon="6.24152">
        <ele>1222.16</ele>
        <time>2024-10-24T08:50:25.095Z</time>
      </trkpt>
      <trkpt lat="44.50664" lon="6.24153">
        <ele>1223.01</ele>
        <time>2024-10-24T08:50:27.095Z</time>
      </trkpt>
      <trkpt lat="44.50669" lon="6.24152">
        <ele>1223.52</ele>
        <time>2024-10-24T08:50:29.095Z</time>
      </trkpt>
      <trkpt lat="44.50674" lon="6.24149">
        <ele>1223.78</ele>
        <time>2024-10-24T08:50:31.095Z</time>
      </trkpt>
      <trkpt lat="44.50678" lon="6.24145">
        <ele>1223.93</ele>
        <time>2024-10-24T08:50:33.095Z</time>
      </trkpt>
      <trkpt lat="44.50681" lon="6.24139">
        <ele>1224.44</ele>
        <time>2024-10-24T08:50:35.094Z</time>
      </trkpt>
      <trkpt lat="44.50684" lon="6.24132">
        <ele>1225.07</ele>
        <time>2024-10-24T08:50:36.879Z</time>
      </trkpt>
      <trkpt lat="44.50686" lon="6.24125">
        <ele>1225.5</ele>
        <time>2024-10-24T08:50:39.095Z</time>
      </trkpt>
      <trkpt lat="44.50689" lon="6.24119">
        <ele>1226.01</ele>
        <time>2024-10-24T08:50:41.093Z</time>
      </trkpt>
      <trkpt lat="44.50693" lon="6.24113">
        <ele>1226.53</ele>
        <time>2024-10-24T08:50:43.096Z</time>
      </trkpt>
      <trkpt lat="44.50696" lon="6.24108">
        <ele>1226.88</ele>
        <time>2024-10-24T08:50:45.094Z</time>
      </trkpt>
      <trkpt lat="44.507" lon="6.24102">
        <ele>1227.55</ele>
        <time>2024-10-24T08:50:47.095Z</time>
      </trkpt>
      <trkpt lat="44.50703" lon="6.24096">
        <ele>1228.33</ele>
        <time>2024-10-24T08:50:49.095Z</time>
      </trkpt>
      <trkpt lat="44.50706" lon="6.24091">
        <ele>1228.79</ele>
        <time>2024-10-24T08:50:51.096Z</time>
      </trkpt>
      <trkpt lat="44.50709" lon="6.24086">
        <ele>1229.39</ele>
        <time>2024-10-24T08:50:53.095Z</time>
      </trkpt>
      <trkpt lat="44.50712" lon="6.2408">
        <ele>1229.83</ele>
        <time>2024-10-24T08:50:55.094Z</time>
      </trkpt>
      <trkpt lat="44.50714" lon="6.24075">
        <ele>1230.05</ele>
        <time>2024-10-24T08:50:57.094Z</time>
      </trkpt>
      <trkpt lat="44.50717" lon="6.24069">
        <ele>1230.52</ele>
        <time>2024-10-24T08:50:59.094Z</time>
      </trkpt>
      <trkpt lat="44.50719" lon="6.24064">
        <ele>1230.81</ele>
        <time>2024-10-24T08:51:01.096Z</time>
      </trkpt>
      <trkpt lat="44.50723" lon="6.2406">
        <ele>1231.23</ele>
        <time>2024-10-24T08:51:03.094Z</time>
      </trkpt>
      <trkpt lat="44.50726" lon="6.24057">
        <ele>1231.88</ele>
        <time>2024-10-24T08:51:05.094Z</time>
      </trkpt>
      <trkpt lat="44.50732" lon="6.24056">
        <ele>1232.29</ele>
        <time>2024-10-24T08:51:07.096Z</time>
      </trkpt>
      <trkpt lat="44.50737" lon="6.24056">
        <ele>1232.8</ele>
        <time>2024-10-24T08:51:09.094Z</time>
      </trkpt>
      <trkpt lat="44.50742" lon="6.24057">
        <ele>1233.21</ele>
        <time>2024-10-24T08:51:11.096Z</time>
      </trkpt>
      <trkpt lat="44.50747" lon="6.24059">
        <ele>1233.39</ele>
        <time>2024-10-24T08:51:13.095Z</time>
      </trkpt>
      <trkpt lat="44.50751" lon="6.24062">
        <ele>1233.81</ele>
        <time>2024-10-24T08:51:15.094Z</time>
      </trkpt>
      <trkpt lat="44.50756" lon="6.24065">
        <ele>1234.45</ele>
        <time>2024-10-24T08:51:17.095Z</time>
      </trkpt>
      <trkpt lat="44.5076" lon="6.24068">
        <ele>1235.05</ele>
        <time>2024-10-24T08:51:19.094Z</time>
      </trkpt>
      <trkpt lat="44.50764" lon="6.2407">
        <ele>1235.43</ele>
        <time>2024-10-24T08:51:21.094Z</time>
      </trkpt>
      <trkpt lat="44.50769" lon="6.24072">
        <ele>1235.87</ele>
        <time>2024-10-24T08:51:22.949Z</time>
      </trkpt>
      <trkpt lat="44.50774" lon="6.24074">
        <ele>1236.4</ele>
        <time>2024-10-24T08:51:25.094Z</time>
      </trkpt>
      <trkpt lat="44.50777" lon="6.24077">
        <ele>1236.97</ele>
        <time>2024-10-24T08:51:27.095Z</time>
      </trkpt>
      <trkpt lat="44.50782" lon="6.24079">
        <ele>1237.46</ele>
        <time>2024-10-24T08:51:29.094Z</time>
      </trkpt>
      <trkpt lat="44.50787" lon="6.24081">
        <ele>1238.01</ele>
        <time>2024-10-24T08:51:31.094Z</time>
      </trkpt>
      <trkpt lat="44.50792" lon="6.24082">
        <ele>1238.46</ele>
        <time>2024-10-24T08:51:33.096Z</time>
      </trkpt>
      <trkpt lat="44.50797" lon="6.24081">
        <ele>1238.8</ele>
        <time>2024-10-24T08:51:35.094Z</time>
      </trkpt>
      <trkpt lat="44.50803" lon="6.2408">
        <ele>1239.39</ele>
        <time>2024-10-24T08:51:37.096Z</time>
      </trkpt>
      <trkpt lat="44.50807" lon="6.24077">
        <ele>1239.75</ele>
        <time>2024-10-24T08:51:39.094Z</time>
      </trkpt>
      <trkpt lat="44.50811" lon="6.24072">
        <ele>1240.17</ele>
        <time>2024-10-24T08:51:41.096Z</time>
      </trkpt>
      <trkpt lat="44.50811" lon="6.24064">
        <ele>1240.58</ele>
        <time>2024-10-24T08:51:43.095Z</time>
      </trkpt>
      <trkpt lat="44.5081" lon="6.24056">
        <ele>1241.18</ele>
        <time>2024-10-24T08:51:45.094Z</time>
      </trkpt>
      <trkpt lat="44.50809" lon="6.24048">
        <ele>1241.53</ele>
        <time>2024-10-24T08:51:47.095Z</time>
      </trkpt>
      <trkpt lat="44.50808" lon="6.24041">
        <ele>1242.06</ele>
        <time>2024-10-24T08:51:49.095Z</time>
      </trkpt>
      <trkpt lat="44.50806" lon="6.24035">
        <ele>1242.48</ele>
        <time>2024-10-24T08:51:51.196Z</time>
      </trkpt>
      <trkpt lat="44.50804" lon="6.24029">
        <ele>1242.98</ele>
        <time>2024-10-24T08:51:52.752Z</time>
      </trkpt>
      <trkpt lat="44.50803" lon="6.24022">
        <ele>1243.54</ele>
        <time>2024-10-24T08:51:54.739Z</time>
      </trkpt>
      <trkpt lat="44.50801" lon="6.24015">
        <ele>1243.97</ele>
        <time>2024-10-24T08:51:56.754Z</time>
      </trkpt>
      <trkpt lat="44.508" lon="6.24009">
        <ele>1244.53</ele>
        <time>2024-10-24T08:51:58.881Z</time>
      </trkpt>
      <trkpt lat="44.50801" lon="6.24003">
        <ele>1244.96</ele>
        <time>2024-10-24T08:52:00.230Z</time>
      </trkpt>
      <trkpt lat="44.50803" lon="6.23998">
        <ele>1245.64</ele>
        <time>2024-10-24T08:52:02.906Z</time>
      </trkpt>
      <trkpt lat="44.50807" lon="6.23994">
        <ele>1246.21</ele>
        <time>2024-10-24T08:52:04.758Z</time>
      </trkpt>
      <trkpt lat="44.5081" lon="6.23992">
        <ele>1246.59</ele>
        <time>2024-10-24T08:52:06.257Z</time>
      </trkpt>
      <trkpt lat="44.50815" lon="6.23991">
        <ele>1247.19</ele>
        <time>2024-10-24T08:52:08.750Z</time>
      </trkpt>
      <trkpt lat="44.50819" lon="6.23992">
        <ele>1247.69</ele>
        <time>2024-10-24T08:52:10.792Z</time>
      </trkpt>
      <trkpt lat="44.50823" lon="6.23993">
        <ele>1247.88</ele>
        <time>2024-10-24T08:52:12.795Z</time>
      </trkpt>
      <trkpt lat="44.50827" lon="6.23996">
        <ele>1248.51</ele>
        <time>2024-10-24T08:52:14.778Z</time>
      </trkpt>
      <trkpt lat="44.50831" lon="6.23998">
        <ele>1248.92</ele>
        <time>2024-10-24T08:52:16.759Z</time>
      </trkpt>
      <trkpt lat="44.50835" lon="6.23998">
        <ele>1249.22</ele>
        <time>2024-10-24T08:52:18.846Z</time>
      </trkpt>
      <trkpt lat="44.50838" lon="6.23995">
        <ele>1249.64</ele>
        <time>2024-10-24T08:52:20.781Z</time>
      </trkpt>
      <trkpt lat="44.50842" lon="6.2399">
        <ele>1250.16</ele>
        <time>2024-10-24T08:52:22.751Z</time>
      </trkpt>
      <trkpt lat="44.50845" lon="6.23982">
        <ele>1250.57</ele>
        <time>2024-10-24T08:52:24.769Z</time>
      </trkpt>
      <trkpt lat="44.50847" lon="6.23973">
        <ele>1250.84</ele>
        <time>2024-10-24T08:52:26.908Z</time>
      </trkpt>
      <trkpt lat="44.50848" lon="6.23965">
        <ele>1251.4</ele>
        <time>2024-10-24T08:52:28.753Z</time>
      </trkpt>
      <trkpt lat="44.50847" lon="6.23958">
        <ele>1251.77</ele>
        <time>2024-10-24T08:52:30.817Z</time>
      </trkpt>
      <trkpt lat="44.50847" lon="6.23952">
        <ele>1252.08</ele>
        <time>2024-10-24T08:52:32.752Z</time>
      </trkpt>
      <trkpt lat="44.50847" lon="6.23947">
        <ele>1252.37</ele>
        <time>2024-10-24T08:52:34.780Z</time>
      </trkpt>
      <trkpt lat="44.50847" lon="6.2394">
        <ele>1252.8</ele>
        <time>2024-10-24T08:52:37.195Z</time>
      </trkpt>
      <trkpt lat="44.50848" lon="6.23934">
        <ele>1253.45</ele>
        <time>2024-10-24T08:52:39.240Z</time>
      </trkpt>
      <trkpt lat="44.50851" lon="6.2393">
        <ele>1253.98</ele>
        <time>2024-10-24T08:52:41.195Z</time>
      </trkpt>
      <trkpt lat="44.50854" lon="6.23926">
        <ele>1254.46</ele>
        <time>2024-10-24T08:52:42.747Z</time>
      </trkpt>
      <trkpt lat="44.50858" lon="6.23924">
        <ele>1255.3</ele>
        <time>2024-10-24T08:52:44.768Z</time>
      </trkpt>
      <trkpt lat="44.50862" lon="6.23922">
        <ele>1255.85</ele>
        <time>2024-10-24T08:52:46.750Z</time>
      </trkpt>
      <trkpt lat="44.50867" lon="6.2392">
        <ele>1256.34</ele>
        <time>2024-10-24T08:52:49.075Z</time>
      </trkpt>
      <trkpt lat="44.50871" lon="6.23918">
        <ele>1256.78</ele>
        <time>2024-10-24T08:52:50.776Z</time>
      </trkpt>
      <trkpt lat="44.50875" lon="6.23916">
        <ele>1257.12</ele>
        <time>2024-10-24T08:52:53.255Z</time>
      </trkpt>
      <trkpt lat="44.5088" lon="6.23914">
        <ele>1257.56</ele>
        <time>2024-10-24T08:52:54.792Z</time>
      </trkpt>
      <trkpt lat="44.50884" lon="6.23912">
        <ele>1257.87</ele>
        <time>2024-10-24T08:52:56.793Z</time>
      </trkpt>
      <trkpt lat="44.50889" lon="6.2391">
        <ele>1258.28</ele>
        <time>2024-10-24T08:52:58.790Z</time>
      </trkpt>
      <trkpt lat="44.50894" lon="6.23909">
        <ele>1258.62</ele>
        <time>2024-10-24T08:53:01.195Z</time>
      </trkpt>
      <trkpt lat="44.509" lon="6.23906">
        <ele>1258.85</ele>
        <time>2024-10-24T08:53:03.196Z</time>
      </trkpt>
      <trkpt lat="44.50903" lon="6.23901">
        <ele>1259.32</ele>
        <time>2024-10-24T08:53:05.193Z</time>
      </trkpt>
      <trkpt lat="44.50905" lon="6.23893">
        <ele>1259.77</ele>
        <time>2024-10-24T08:53:07.193Z</time>
      </trkpt>
      <trkpt lat="44.50905" lon="6.23886">
        <ele>1260.12</ele>
        <time>2024-10-24T08:53:09.247Z</time>
      </trkpt>
      <trkpt lat="44.50904" lon="6.23878">
        <ele>1260.67</ele>
        <time>2024-10-24T08:53:11.196Z</time>
      </trkpt>
      <trkpt lat="44.50902" lon="6.23872">
        <ele>1261.06</ele>
        <time>2024-10-24T08:53:13.195Z</time>
      </trkpt>
      <trkpt lat="44.50899" lon="6.23866">
        <ele>1261.34</ele>
        <time>2024-10-24T08:53:14.802Z</time>
      </trkpt>
      <trkpt lat="44.50897" lon="6.2386">
        <ele>1261.71</ele>
        <time>2024-10-24T08:53:17.194Z</time>
      </trkpt>
      <trkpt lat="44.50897" lon="6.23854">
        <ele>1262.32</ele>
        <time>2024-10-24T08:53:19.196Z</time>
      </trkpt>
      <trkpt lat="44.50897" lon="6.23847">
        <ele>1262.78</ele>
        <time>2024-10-24T08:53:21.196Z</time>
      </trkpt>
      <trkpt lat="44.50898" lon="6.2384">
        <ele>1263.29</ele>
        <time>2024-10-24T08:53:23.295Z</time>
      </trkpt>
      <trkpt lat="44.509" lon="6.23832">
        <ele>1263.74</ele>
        <time>2024-10-24T08:53:25.294Z</time>
      </trkpt>
      <trkpt lat="44.509" lon="6.23825">
        <ele>1264.32</ele>
        <time>2024-10-24T08:53:27.296Z</time>
      </trkpt>
      <trkpt lat="44.50901" lon="6.23817">
        <ele>1264.69</ele>
        <time>2024-10-24T08:53:28.762Z</time>
      </trkpt>
      <trkpt lat="44.50902" lon="6.2381">
        <ele>1265.04</ele>
        <time>2024-10-24T08:53:31.294Z</time>
      </trkpt>
      <trkpt lat="44.50904" lon="6.23804">
        <ele>1265.67</ele>
        <time>2024-10-24T08:53:33.295Z</time>
      </trkpt>
      <trkpt lat="44.50907" lon="6.23798">
        <ele>1266.22</ele>
        <time>2024-10-24T08:53:35.190Z</time>
      </trkpt>
      <trkpt lat="44.50909" lon="6.23792">
        <ele>1266.32</ele>
        <time>2024-10-24T08:53:37.296Z</time>
      </trkpt>
      <trkpt lat="44.50912" lon="6.23787">
        <ele>1266.89</ele>
        <time>2024-10-24T08:53:39.295Z</time>
      </trkpt>
      <trkpt lat="44.50914" lon="6.23781">
        <ele>1267.17</ele>
        <time>2024-10-24T08:53:40.948Z</time>
      </trkpt>
      <trkpt lat="44.50917" lon="6.23776">
        <ele>1267.25</ele>
        <time>2024-10-24T08:53:43.296Z</time>
      </trkpt>
      <trkpt lat="44.50919" lon="6.23771">
        <ele>1267.66</ele>
        <time>2024-10-24T08:53:45.296Z</time>
      </trkpt>
      <trkpt lat="44.50921" lon="6.23765">
        <ele>1268.09</ele>
        <time>2024-10-24T08:53:47.294Z</time>
      </trkpt>
      <trkpt lat="44.50924" lon="6.2376">
        <ele>1268.38</ele>
        <time>2024-10-24T08:53:49.201Z</time>
      </trkpt>
      <trkpt lat="44.50925" lon="6.23755">
        <ele>1268.82</ele>
        <time>2024-10-24T08:53:51.296Z</time>
      </trkpt>
      <trkpt lat="44.50927" lon="6.23751">
        <ele>1269.47</ele>
        <time>2024-10-24T08:53:53.295Z</time>
      </trkpt>
      <trkpt lat="44.50928" lon="6.23746">
        <ele>1269.84</ele>
        <time>2024-10-24T08:53:55.293Z</time>
      </trkpt>
      <trkpt lat="44.50929" lon="6.23739">
        <ele>1270.48</ele>
        <time>2024-10-24T08:53:57.296Z</time>
      </trkpt>
      <trkpt lat="44.50932" lon="6.23733">
        <ele>1270.8</ele>
        <time>2024-10-24T08:53:59.295Z</time>
      </trkpt>
      <trkpt lat="44.50935" lon="6.23728">
        <ele>1271.31</ele>
        <time>2024-10-24T08:54:01.295Z</time>
      </trkpt>
      <trkpt lat="44.50939" lon="6.23723">
        <ele>1271.68</ele>
        <time>2024-10-24T08:54:03.295Z</time>
      </trkpt>
      <trkpt lat="44.50943" lon="6.23719">
        <ele>1272.04</ele>
        <time>2024-10-24T08:54:05.294Z</time>
      </trkpt>
      <trkpt lat="44.50946" lon="6.23717">
        <ele>1272.5</ele>
        <time>2024-10-24T08:54:07.187Z</time>
      </trkpt>
      <trkpt lat="44.50951" lon="6.23715">
        <ele>1272.93</ele>
        <time>2024-10-24T08:54:08.359Z</time>
      </trkpt>
      <trkpt lat="44.50955" lon="6.23713">
        <ele>1273.33</ele>
        <time>2024-10-24T08:54:10.384Z</time>
      </trkpt>
      <trkpt lat="44.50959" lon="6.23711">
        <ele>1273.57</ele>
        <time>2024-10-24T08:54:13.295Z</time>
      </trkpt>
      <trkpt lat="44.50963" lon="6.23707">
        <ele>1274.09</ele>
        <time>2024-10-24T08:54:15.294Z</time>
      </trkpt>
      <trkpt lat="44.50965" lon="6.23701">
        <ele>1274.65</ele>
        <time>2024-10-24T08:54:17.295Z</time>
      </trkpt>
      <trkpt lat="44.50966" lon="6.23693">
        <ele>1275.05</ele>
        <time>2024-10-24T08:54:19.294Z</time>
      </trkpt>
      <trkpt lat="44.50966" lon="6.23685">
        <ele>1275.53</ele>
        <time>2024-10-24T08:54:21.293Z</time>
      </trkpt>
      <trkpt lat="44.50964" lon="6.23678">
        <ele>1275.87</ele>
        <time>2024-10-24T08:54:23.294Z</time>
      </trkpt>
      <trkpt lat="44.50964" lon="6.23671">
        <ele>1276.31</ele>
        <time>2024-10-24T08:54:25.209Z</time>
      </trkpt>
      <trkpt lat="44.50964" lon="6.23664">
        <ele>1276.8</ele>
        <time>2024-10-24T08:54:27.295Z</time>
      </trkpt>
      <trkpt lat="44.50965" lon="6.23657">
        <ele>1277.1</ele>
        <time>2024-10-24T08:54:29.294Z</time>
      </trkpt>
      <trkpt lat="44.50966" lon="6.23651">
        <ele>1277.73</ele>
        <time>2024-10-24T08:54:31.294Z</time>
      </trkpt>
      <trkpt lat="44.50969" lon="6.23646">
        <ele>1278.18</ele>
        <time>2024-10-24T08:54:33.294Z</time>
      </trkpt>
      <trkpt lat="44.50973" lon="6.23643">
        <ele>1278.48</ele>
        <time>2024-10-24T08:54:35.294Z</time>
      </trkpt>
      <trkpt lat="44.50977" lon="6.23643">
        <ele>1279.24</ele>
        <time>2024-10-24T08:54:37.293Z</time>
      </trkpt>
      <trkpt lat="44.5098" lon="6.23644">
        <ele>1279.6</ele>
        <time>2024-10-24T08:54:39.293Z</time>
      </trkpt>
      <trkpt lat="44.50982" lon="6.23647">
        <ele>1280.34</ele>
        <time>2024-10-24T08:54:41.294Z</time>
      </trkpt>
      <trkpt lat="44.50986" lon="6.23649">
        <ele>1280.93</ele>
        <time>2024-10-24T08:54:43.294Z</time>
      </trkpt>
      <trkpt lat="44.5099" lon="6.23647">
        <ele>1281.37</ele>
        <time>2024-10-24T08:54:45.294Z</time>
      </trkpt>
      <trkpt lat="44.50994" lon="6.23644">
        <ele>1281.9</ele>
        <time>2024-10-24T08:54:47.295Z</time>
      </trkpt>
      <trkpt lat="44.50996" lon="6.23638">
        <ele>1282.51</ele>
        <time>2024-10-24T08:54:49.293Z</time>
      </trkpt>
      <trkpt lat="44.50997" lon="6.23632">
        <ele>1283.17</ele>
        <time>2024-10-24T08:54:51.293Z</time>
      </trkpt>
      <trkpt lat="44.50998" lon="6.23625">
        <ele>1283.82</ele>
        <time>2024-10-24T08:54:53.294Z</time>
      </trkpt>
      <trkpt lat="44.50998" lon="6.23618">
        <ele>1284.18</ele>
        <time>2024-10-24T08:54:55.294Z</time>
      </trkpt>
      <trkpt lat="44.51" lon="6.23612">
        <ele>1284.89</ele>
        <time>2024-10-24T08:54:57.294Z</time>
      </trkpt>
      <trkpt lat="44.51001" lon="6.23606">
        <ele>1285.54</ele>
        <time>2024-10-24T08:54:59.294Z</time>
      </trkpt>
      <trkpt lat="44.51003" lon="6.236">
        <ele>1285.97</ele>
        <time>2024-10-24T08:55:01.294Z</time>
      </trkpt>
      <trkpt lat="44.51004" lon="6.23595">
        <ele>1286.61</ele>
        <time>2024-10-24T08:55:03.294Z</time>
      </trkpt>
      <trkpt lat="44.51006" lon="6.23589">
        <ele>1287.22</ele>
        <time>2024-10-24T08:55:05.293Z</time>
      </trkpt>
      <trkpt lat="44.51007" lon="6.23582">
        <ele>1288.14</ele>
        <time>2024-10-24T08:55:07.294Z</time>
      </trkpt>
      <trkpt lat="44.51006" lon="6.23575">
        <ele>1288.24</ele>
        <time>2024-10-24T08:55:09.294Z</time>
      </trkpt>
      <trkpt lat="44.51005" lon="6.23569">
        <ele>1288.71</ele>
        <time>2024-10-24T08:55:11.335Z</time>
      </trkpt>
      <trkpt lat="44.51002" lon="6.23564">
        <ele>1289.44</ele>
        <time>2024-10-24T08:55:13.394Z</time>
      </trkpt>
      <trkpt lat="44.50999" lon="6.2356">
        <ele>1289.91</ele>
        <time>2024-10-24T08:55:15.394Z</time>
      </trkpt>
      <trkpt lat="44.50996" lon="6.23557">
        <ele>1290.66</ele>
        <time>2024-10-24T08:55:17.301Z</time>
      </trkpt>
      <trkpt lat="44.50994" lon="6.23555">
        <ele>1291.17</ele>
        <time>2024-10-24T08:55:19.394Z</time>
      </trkpt>
      <trkpt lat="44.50992" lon="6.23552">
        <ele>1291.98</ele>
        <time>2024-10-24T08:55:21.394Z</time>
      </trkpt>
      <trkpt lat="44.50991" lon="6.23548">
        <ele>1292.49</ele>
        <time>2024-10-24T08:55:23.394Z</time>
      </trkpt>
      <trkpt lat="44.5099" lon="6.23541">
        <ele>1292.91</ele>
        <time>2024-10-24T08:55:24.927Z</time>
      </trkpt>
      <trkpt lat="44.5099" lon="6.23535">
        <ele>1293.62</ele>
        <time>2024-10-24T08:55:27.394Z</time>
      </trkpt>
      <trkpt lat="44.5099" lon="6.23529">
        <ele>1293.95</ele>
        <time>2024-10-24T08:55:28.952Z</time>
      </trkpt>
      <trkpt lat="44.50992" lon="6.23524">
        <ele>1294.42</ele>
        <time>2024-10-24T08:55:31.394Z</time>
      </trkpt>
      <trkpt lat="44.50996" lon="6.23521">
        <ele>1295.05</ele>
        <time>2024-10-24T08:55:33.394Z</time>
      </trkpt>
      <trkpt lat="44.50999" lon="6.23521">
        <ele>1295.88</ele>
        <time>2024-10-24T08:55:35.394Z</time>
      </trkpt>
      <trkpt lat="44.51001" lon="6.23525">
        <ele>1296.46</ele>
        <time>2024-10-24T08:55:37.186Z</time>
      </trkpt>
      <trkpt lat="44.51002" lon="6.23531">
        <ele>1296.89</ele>
        <time>2024-10-24T08:55:39.394Z</time>
      </trkpt>
      <trkpt lat="44.51003" lon="6.23538">
        <ele>1297.56</ele>
        <time>2024-10-24T08:55:41.394Z</time>
      </trkpt>
      <trkpt lat="44.51004" lon="6.23545">
        <ele>1298.3</ele>
        <time>2024-10-24T08:55:43.394Z</time>
      </trkpt>
      <trkpt lat="44.51006" lon="6.23548">
        <ele>1298.92</ele>
        <time>2024-10-24T08:55:45.284Z</time>
      </trkpt>
      <trkpt lat="44.51009" lon="6.23549">
        <ele>1299.63</ele>
        <time>2024-10-24T08:55:47.393Z</time>
      </trkpt>
      <trkpt lat="44.51013" lon="6.23548">
        <ele>1300.39</ele>
        <time>2024-10-24T08:55:49.394Z</time>
      </trkpt>
      <trkpt lat="44.51017" lon="6.23544">
        <ele>1301.02</ele>
        <time>2024-10-24T08:55:50.465Z</time>
      </trkpt>
      <trkpt lat="44.51019" lon="6.23539">
        <ele>1301.34</ele>
        <time>2024-10-24T08:55:53.432Z</time>
      </trkpt>
      <trkpt lat="44.5102" lon="6.23533">
        <ele>1302.08</ele>
        <time>2024-10-24T08:55:54.579Z</time>
      </trkpt>
      <trkpt lat="44.5102" lon="6.23527">
        <ele>1302.66</ele>
        <time>2024-10-24T08:55:56.565Z</time>
      </trkpt>
      <trkpt lat="44.51022" lon="6.23521">
        <ele>1303.27</ele>
        <time>2024-10-24T08:55:59.495Z</time>
      </trkpt>
      <trkpt lat="44.51023" lon="6.23516">
        <ele>1303.6</ele>
        <time>2024-10-24T08:56:00.573Z</time>
      </trkpt>
      <trkpt lat="44.51025" lon="6.23511">
        <ele>1304.37</ele>
        <time>2024-10-24T08:56:02.544Z</time>
      </trkpt>
      <trkpt lat="44.51027" lon="6.23506">
        <ele>1305.19</ele>
        <time>2024-10-24T08:56:04.576Z</time>
      </trkpt>
      <trkpt lat="44.51029" lon="6.23501">
        <ele>1305.6</ele>
        <time>2024-10-24T08:56:07.594Z</time>
      </trkpt>
      <trkpt lat="44.5103" lon="6.23495">
        <ele>1306.36</ele>
        <time>2024-10-24T08:56:09.594Z</time>
      </trkpt>
      <trkpt lat="44.51032" lon="6.23488">
        <ele>1306.65</ele>
        <time>2024-10-24T08:56:11.475Z</time>
      </trkpt>
      <trkpt lat="44.51032" lon="6.23482">
        <ele>1307.27</ele>
        <time>2024-10-24T08:56:13.595Z</time>
      </trkpt>
      <trkpt lat="44.51032" lon="6.23476">
        <ele>1307.94</ele>
        <time>2024-10-24T08:56:15.493Z</time>
      </trkpt>
      <trkpt lat="44.51032" lon="6.23471">
        <ele>1308.62</ele>
        <time>2024-10-24T08:56:17.694Z</time>
      </trkpt>
      <trkpt lat="44.51032" lon="6.23469">
        <ele>1309.2</ele>
        <time>2024-10-24T08:56:18.751Z</time>
      </trkpt>
      <trkpt lat="44.51032" lon="6.23464">
        <ele>1309.71</ele>
        <time>2024-10-24T08:56:20.748Z</time>
      </trkpt>
      <trkpt lat="44.51033" lon="6.23459">
        <ele>1310.57</ele>
        <time>2024-10-24T08:56:22.694Z</time>
      </trkpt>
      <trkpt lat="44.51034" lon="6.23454">
        <ele>1311.18</ele>
        <time>2024-10-24T08:56:24.694Z</time>
      </trkpt>
      <trkpt lat="44.51035" lon="6.23448">
        <ele>1311.88</ele>
        <time>2024-10-24T08:56:26.694Z</time>
      </trkpt>
      <trkpt lat="44.51036" lon="6.23441">
        <ele>1312.61</ele>
        <time>2024-10-24T08:56:27.792Z</time>
      </trkpt>
      <trkpt lat="44.51038" lon="6.23435">
        <ele>1313.42</ele>
        <time>2024-10-24T08:56:30.793Z</time>
      </trkpt>
      <trkpt lat="44.51038" lon="6.23428">
        <ele>1313.99</ele>
        <time>2024-10-24T08:56:32.786Z</time>
      </trkpt>
      <trkpt lat="44.51038" lon="6.23423">
        <ele>1314.22</ele>
        <time>2024-10-24T08:56:34.893Z</time>
      </trkpt>
      <trkpt lat="44.51038" lon="6.23417">
        <ele>1314.92</ele>
        <time>2024-10-24T08:56:36.894Z</time>
      </trkpt>
      <trkpt lat="44.51038" lon="6.23411">
        <ele>1315.38</ele>
        <time>2024-10-24T08:56:38.993Z</time>
      </trkpt>
      <trkpt lat="44.51036" lon="6.23404">
        <ele>1315.98</ele>
        <time>2024-10-24T08:56:40.994Z</time>
      </trkpt>
      <trkpt lat="44.51035" lon="6.23398">
        <ele>1316.67</ele>
        <time>2024-10-24T08:56:42.995Z</time>
      </trkpt>
      <trkpt lat="44.51034" lon="6.23392">
        <ele>1317.58</ele>
        <time>2024-10-24T08:56:44.995Z</time>
      </trkpt>
      <trkpt lat="44.51033" lon="6.23386">
        <ele>1318.01</ele>
        <time>2024-10-24T08:56:46.994Z</time>
      </trkpt>
      <trkpt lat="44.51033" lon="6.2338">
        <ele>1318.52</ele>
        <time>2024-10-24T08:56:48.994Z</time>
      </trkpt>
      <trkpt lat="44.51031" lon="6.23375">
        <ele>1319.12</ele>
        <time>2024-10-24T08:56:50.994Z</time>
      </trkpt>
      <trkpt lat="44.5103" lon="6.23369">
        <ele>1319.46</ele>
        <time>2024-10-24T08:56:52.994Z</time>
      </trkpt>
      <trkpt lat="44.51028" lon="6.23363">
        <ele>1320.08</ele>
        <time>2024-10-24T08:56:54.913Z</time>
      </trkpt>
      <trkpt lat="44.51027" lon="6.23357">
        <ele>1320.75</ele>
        <time>2024-10-24T08:56:56.993Z</time>
      </trkpt>
      <trkpt lat="44.51027" lon="6.23351">
        <ele>1321.24</ele>
        <time>2024-10-24T08:56:58.994Z</time>
      </trkpt>
      <trkpt lat="44.51026" lon="6.23345">
        <ele>1321.87</ele>
        <time>2024-10-24T08:57:00.077Z</time>
      </trkpt>
      <trkpt lat="44.51024" lon="6.2334">
        <ele>1322.39</ele>
        <time>2024-10-24T08:57:02.994Z</time>
      </trkpt>
      <trkpt lat="44.51023" lon="6.23334">
        <ele>1322.88</ele>
        <time>2024-10-24T08:57:04.994Z</time>
      </trkpt>
      <trkpt lat="44.51022" lon="6.23329">
        <ele>1323.41</ele>
        <time>2024-10-24T08:57:06.994Z</time>
      </trkpt>
      <trkpt lat="44.5102" lon="6.23323">
        <ele>1323.84</ele>
        <time>2024-10-24T08:57:08.995Z</time>
      </trkpt>
      <trkpt lat="44.5102" lon="6.23317">
        <ele>1324.36</ele>
        <time>2024-10-24T08:57:10.994Z</time>
      </trkpt>
      <trkpt lat="44.51023" lon="6.23311">
        <ele>1324.74</ele>
        <time>2024-10-24T08:57:12.609Z</time>
      </trkpt>
      <trkpt lat="44.51026" lon="6.23307">
        <ele>1325.34</ele>
        <time>2024-10-24T08:57:14.993Z</time>
      </trkpt>
      <trkpt lat="44.51029" lon="6.23303">
        <ele>1325.78</ele>
        <time>2024-10-24T08:57:16.993Z</time>
      </trkpt>
      <trkpt lat="44.51033" lon="6.233">
        <ele>1326.38</ele>
        <time>2024-10-24T08:57:18.993Z</time>
      </trkpt>
      <trkpt lat="44.51035" lon="6.23296">
        <ele>1326.91</ele>
        <time>2024-10-24T08:57:20.994Z</time>
      </trkpt>
      <trkpt lat="44.51038" lon="6.23291">
        <ele>1327.39</ele>
        <time>2024-10-24T08:57:22.995Z</time>
      </trkpt>
      <trkpt lat="44.5104" lon="6.23286">
        <ele>1327.67</ele>
        <time>2024-10-24T08:57:24.994Z</time>
      </trkpt>
      <trkpt lat="44.51041" lon="6.23281">
        <ele>1328.14</ele>
        <time>2024-10-24T08:57:27.094Z</time>
      </trkpt>
      <trkpt lat="44.51042" lon="6.23277">
        <ele>1328.82</ele>
        <time>2024-10-24T08:57:29.094Z</time>
      </trkpt>
      <trkpt lat="44.51043" lon="6.23273">
        <ele>1329.15</ele>
        <time>2024-10-24T08:57:31.094Z</time>
      </trkpt>
      <trkpt lat="44.51046" lon="6.23268">
        <ele>1329.63</ele>
        <time>2024-10-24T08:57:33.093Z</time>
      </trkpt>
      <trkpt lat="44.51048" lon="6.23262">
        <ele>1330.23</ele>
        <time>2024-10-24T08:57:34.638Z</time>
      </trkpt>
      <trkpt lat="44.51049" lon="6.23256">
        <ele>1330.55</ele>
        <time>2024-10-24T08:57:37.094Z</time>
      </trkpt>
      <trkpt lat="44.51048" lon="6.23249">
        <ele>1331.19</ele>
        <time>2024-10-24T08:57:39.094Z</time>
      </trkpt>
      <trkpt lat="44.51048" lon="6.23243">
        <ele>1331.86</ele>
        <time>2024-10-24T08:57:40.688Z</time>
      </trkpt>
      <trkpt lat="44.51048" lon="6.23236">
        <ele>1332.23</ele>
        <time>2024-10-24T08:57:43.007Z</time>
      </trkpt>
      <trkpt lat="44.51048" lon="6.2323">
        <ele>1332.86</ele>
        <time>2024-10-24T08:57:45.094Z</time>
      </trkpt>
      <trkpt lat="44.51051" lon="6.23226">
        <ele>1333.41</ele>
        <time>2024-10-24T08:57:47.094Z</time>
      </trkpt>
      <trkpt lat="44.51054" lon="6.23223">
        <ele>1334.02</ele>
        <time>2024-10-24T08:57:49.094Z</time>
      </trkpt>
      <trkpt lat="44.51055" lon="6.23218">
        <ele>1334.51</ele>
        <time>2024-10-24T08:57:50.976Z</time>
      </trkpt>
      <trkpt lat="44.51056" lon="6.23212">
        <ele>1335.13</ele>
        <time>2024-10-24T08:57:53.093Z</time>
      </trkpt>
      <trkpt lat="44.51057" lon="6.23206">
        <ele>1335.48</ele>
        <time>2024-10-24T08:57:55.095Z</time>
      </trkpt>
      <trkpt lat="44.51056" lon="6.23198">
        <ele>1336.16</ele>
        <time>2024-10-24T08:57:57.095Z</time>
      </trkpt>
      <trkpt lat="44.51056" lon="6.23192">
        <ele>1336.92</ele>
        <time>2024-10-24T08:57:58.625Z</time>
      </trkpt>
      <trkpt lat="44.51057" lon="6.23188">
        <ele>1337.49</ele>
        <time>2024-10-24T08:58:01.094Z</time>
      </trkpt>
      <trkpt lat="44.51059" lon="6.23181">
        <ele>1338.09</ele>
        <time>2024-10-24T08:58:03.094Z</time>
      </trkpt>
      <trkpt lat="44.51063" lon="6.23178">
        <ele>1338.61</ele>
        <time>2024-10-24T08:58:04.990Z</time>
      </trkpt>
      <trkpt lat="44.51067" lon="6.23178">
        <ele>1339.29</ele>
        <time>2024-10-24T08:58:07.094Z</time>
      </trkpt>
      <trkpt lat="44.51069" lon="6.23182">
        <ele>1340.04</ele>
        <time>2024-10-24T08:58:09.017Z</time>
      </trkpt>
      <trkpt lat="44.51071" lon="6.23187">
        <ele>1340.57</ele>
        <time>2024-10-24T08:58:11.095Z</time>
      </trkpt>
      <trkpt lat="44.51071" lon="6.23193">
        <ele>1341.26</ele>
        <time>2024-10-24T08:58:13.094Z</time>
      </trkpt>
      <trkpt lat="44.5107" lon="6.232">
        <ele>1342.05</ele>
        <time>2024-10-24T08:58:15.095Z</time>
      </trkpt>
      <trkpt lat="44.51068" lon="6.23208">
        <ele>1342.77</ele>
        <time>2024-10-24T08:58:17.095Z</time>
      </trkpt>
      <trkpt lat="44.51066" lon="6.23216">
        <ele>1343.81</ele>
        <time>2024-10-24T08:58:19.095Z</time>
      </trkpt>
      <trkpt lat="44.51064" lon="6.23223">
        <ele>1344.49</ele>
        <time>2024-10-24T08:58:21.094Z</time>
      </trkpt>
      <trkpt lat="44.51065" lon="6.23228">
        <ele>1345.05</ele>
        <time>2024-10-24T08:58:23.094Z</time>
      </trkpt>
      <trkpt lat="44.51066" lon="6.23233">
        <ele>1345.84</ele>
        <time>2024-10-24T08:58:24.708Z</time>
      </trkpt>
      <trkpt lat="44.51067" lon="6.23238">
        <ele>1346.44</ele>
        <time>2024-10-24T08:58:27.097Z</time>
      </trkpt>
      <trkpt lat="44.5107" lon="6.23244">
        <ele>1347.15</ele>
        <time>2024-10-24T08:58:29.096Z</time>
      </trkpt>
      <trkpt lat="44.51073" lon="6.23248">
        <ele>1347.68</ele>
        <time>2024-10-24T08:58:31.011Z</time>
      </trkpt>
      <trkpt lat="44.51075" lon="6.23253">
        <ele>1348.28</ele>
        <time>2024-10-24T08:58:33.093Z</time>
      </trkpt>
      <trkpt lat="44.51077" lon="6.23258">
        <ele>1348.84</ele>
        <time>2024-10-24T08:58:34.664Z</time>
      </trkpt>
      <trkpt lat="44.51078" lon="6.23263">
        <ele>1349.43</ele>
        <time>2024-10-24T08:58:37.095Z</time>
      </trkpt>
      <trkpt lat="44.51078" lon="6.23268">
        <ele>1350.17</ele>
        <time>2024-10-24T08:58:39.096Z</time>
      </trkpt>
      <trkpt lat="44.51076" lon="6.23272">
        <ele>1350.77</ele>
        <time>2024-10-24T08:58:41.064Z</time>
      </trkpt>
      <trkpt lat="44.51073" lon="6.23276">
        <ele>1351.42</ele>
        <time>2024-10-24T08:58:43.094Z</time>
      </trkpt>
      <trkpt lat="44.51073" lon="6.23279">
        <ele>1352.15</ele>
        <time>2024-10-24T08:58:45.094Z</time>
      </trkpt>
      <trkpt lat="44.51072" lon="6.23284">
        <ele>1352.66</ele>
        <time>2024-10-24T08:58:47.094Z</time>
      </trkpt>
      <trkpt lat="44.51071" lon="6.2329">
        <ele>1353.23</ele>
        <time>2024-10-24T08:58:49.095Z</time>
      </trkpt>
      <trkpt lat="44.5107" lon="6.23298">
        <ele>1353.82</ele>
        <time>2024-10-24T08:58:51.137Z</time>
      </trkpt>
      <trkpt lat="44.5107" lon="6.23305">
        <ele>1354.3</ele>
        <time>2024-10-24T08:58:53.095Z</time>
      </trkpt>
      <trkpt lat="44.51069" lon="6.23312">
        <ele>1355.24</ele>
        <time>2024-10-24T08:58:55.095Z</time>
      </trkpt>
      <trkpt lat="44.51069" lon="6.23318">
        <ele>1356.02</ele>
        <time>2024-10-24T08:58:57.094Z</time>
      </trkpt>
      <trkpt lat="44.5107" lon="6.23324">
        <ele>1356.71</ele>
        <time>2024-10-24T08:58:59.094Z</time>
      </trkpt>
      <trkpt lat="44.51072" lon="6.2333">
        <ele>1357.34</ele>
        <time>2024-10-24T08:59:01.094Z</time>
      </trkpt>
      <trkpt lat="44.51075" lon="6.23334">
        <ele>1357.74</ele>
        <time>2024-10-24T08:59:03.094Z</time>
      </trkpt>
      <trkpt lat="44.5108" lon="6.23336">
        <ele>1358.42</ele>
        <time>2024-10-24T08:59:05.094Z</time>
      </trkpt>
      <trkpt lat="44.51085" lon="6.23333">
        <ele>1359.16</ele>
        <time>2024-10-24T08:59:06.999Z</time>
      </trkpt>
      <trkpt lat="44.51088" lon="6.23327">
        <ele>1359.62</ele>
        <time>2024-10-24T08:59:09.095Z</time>
      </trkpt>
      <trkpt lat="44.5109" lon="6.23321">
        <ele>1360.27</ele>
        <time>2024-10-24T08:59:11.094Z</time>
      </trkpt>
      <trkpt lat="44.5109" lon="6.23315">
        <ele>1360.55</ele>
        <time>2024-10-24T08:59:13.094Z</time>
      </trkpt>
      <trkpt lat="44.51091" lon="6.23309">
        <ele>1361.07</ele>
        <time>2024-10-24T08:59:15.094Z</time>
      </trkpt>
      <trkpt lat="44.51093" lon="6.23302">
        <ele>1361.54</ele>
        <time>2024-10-24T08:59:17.093Z</time>
      </trkpt>
      <trkpt lat="44.51094" lon="6.23297">
        <ele>1362.15</ele>
        <time>2024-10-24T08:59:19.094Z</time>
      </trkpt>
      <trkpt lat="44.51097" lon="6.23293">
        <ele>1362.67</ele>
        <time>2024-10-24T08:59:21.094Z</time>
      </trkpt>
      <trkpt lat="44.51099" lon="6.23289">
        <ele>1363.1</ele>
        <time>2024-10-24T08:59:23.093Z</time>
      </trkpt>
      <trkpt lat="44.51102" lon="6.23286">
        <ele>1363.52</ele>
        <time>2024-10-24T08:59:25.094Z</time>
      </trkpt>
      <trkpt lat="44.51106" lon="6.23282">
        <ele>1364.2</ele>
        <time>2024-10-24T08:59:27.095Z</time>
      </trkpt>
      <trkpt lat="44.51109" lon="6.23277">
        <ele>1364.71</ele>
        <time>2024-10-24T08:59:29.095Z</time>
      </trkpt>
      <trkpt lat="44.51112" lon="6.23272">
        <ele>1365.54</ele>
        <time>2024-10-24T08:59:31.093Z</time>
      </trkpt>
      <trkpt lat="44.51114" lon="6.23267">
        <ele>1366.21</ele>
        <time>2024-10-24T08:59:33.095Z</time>
      </trkpt>
      <trkpt lat="44.51116" lon="6.23261">
        <ele>1366.72</ele>
        <time>2024-10-24T08:59:35.093Z</time>
      </trkpt>
      <trkpt lat="44.51117" lon="6.23255">
        <ele>1367.36</ele>
        <time>2024-10-24T08:59:37.193Z</time>
      </trkpt>
      <trkpt lat="44.51117" lon="6.23249">
        <ele>1367.84</ele>
        <time>2024-10-24T08:59:39.194Z</time>
      </trkpt>
      <trkpt lat="44.51117" lon="6.23243">
        <ele>1368.47</ele>
        <time>2024-10-24T08:59:41.194Z</time>
      </trkpt>
      <trkpt lat="44.51118" lon="6.23237">
        <ele>1369.02</ele>
        <time>2024-10-24T08:59:43.195Z</time>
      </trkpt>
      <trkpt lat="44.5112" lon="6.23232">
        <ele>1369.25</ele>
        <time>2024-10-24T08:59:44.977Z</time>
      </trkpt>
      <trkpt lat="44.51123" lon="6.23228">
        <ele>1369.61</ele>
        <time>2024-10-24T08:59:47.004Z</time>
      </trkpt>
      <trkpt lat="44.51125" lon="6.23225">
        <ele>1370.14</ele>
        <time>2024-10-24T08:59:49.193Z</time>
      </trkpt>
      <trkpt lat="44.51129" lon="6.23223">
        <ele>1370.71</ele>
        <time>2024-10-24T08:59:51.195Z</time>
      </trkpt>
      <trkpt lat="44.51133" lon="6.23221">
        <ele>1371.22</ele>
        <time>2024-10-24T08:59:53.045Z</time>
      </trkpt>
      <trkpt lat="44.51136" lon="6.2322">
        <ele>1371.71</ele>
        <time>2024-10-24T08:59:55.194Z</time>
      </trkpt>
      <trkpt lat="44.51141" lon="6.23219">
        <ele>1372.17</ele>
        <time>2024-10-24T08:59:57.194Z</time>
      </trkpt>
      <trkpt lat="44.51145" lon="6.23218">
        <ele>1372.81</ele>
        <time>2024-10-24T08:59:58.998Z</time>
      </trkpt>
      <trkpt lat="44.51149" lon="6.23217">
        <ele>1373.37</ele>
        <time>2024-10-24T09:00:01.194Z</time>
      </trkpt>
      <trkpt lat="44.51152" lon="6.23216">
        <ele>1373.85</ele>
        <time>2024-10-24T09:00:03.195Z</time>
      </trkpt>
      <trkpt lat="44.51155" lon="6.23214">
        <ele>1374.3</ele>
        <time>2024-10-24T09:00:05.070Z</time>
      </trkpt>
      <trkpt lat="44.51159" lon="6.23212">
        <ele>1374.83</ele>
        <time>2024-10-24T09:00:07.194Z</time>
      </trkpt>
      <trkpt lat="44.51162" lon="6.23211">
        <ele>1375.27</ele>
        <time>2024-10-24T09:00:09.193Z</time>
      </trkpt>
      <trkpt lat="44.51166" lon="6.2321">
        <ele>1375.75</ele>
        <time>2024-10-24T09:00:11.194Z</time>
      </trkpt>
      <trkpt lat="44.5117" lon="6.23208">
        <ele>1376.13</ele>
        <time>2024-10-24T09:00:13.194Z</time>
      </trkpt>
      <trkpt lat="44.51174" lon="6.23205">
        <ele>1376.43</ele>
        <time>2024-10-24T09:00:15.194Z</time>
      </trkpt>
      <trkpt lat="44.51178" lon="6.23203">
        <ele>1376.74</ele>
        <time>2024-10-24T09:00:17.194Z</time>
      </trkpt>
      <trkpt lat="44.51182" lon="6.232">
        <ele>1377.13</ele>
        <time>2024-10-24T09:00:18.752Z</time>
      </trkpt>
      <trkpt lat="44.51187" lon="6.23198">
        <ele>1377.43</ele>
        <time>2024-10-24T09:00:21.196Z</time>
      </trkpt>
      <trkpt lat="44.51192" lon="6.23195">
        <ele>1377.74</ele>
        <time>2024-10-24T09:00:23.194Z</time>
      </trkpt>
      <trkpt lat="44.51198" lon="6.23192">
        <ele>1378.24</ele>
        <time>2024-10-24T09:00:25.194Z</time>
      </trkpt>
      <trkpt lat="44.51204" lon="6.2319">
        <ele>1378.61</ele>
        <time>2024-10-24T09:00:27.195Z</time>
      </trkpt>
      <trkpt lat="44.51208" lon="6.23188">
        <ele>1379.11</ele>
        <time>2024-10-24T09:00:28.247Z</time>
      </trkpt>
      <trkpt lat="44.51214" lon="6.23186">
        <ele>1379.53</ele>
        <time>2024-10-24T09:00:30.886Z</time>
      </trkpt>
      <trkpt lat="44.51218" lon="6.23183">
        <ele>1379.95</ele>
        <time>2024-10-24T09:00:32.274Z</time>
      </trkpt>
      <trkpt lat="44.51224" lon="6.23181">
        <ele>1380.72</ele>
        <time>2024-10-24T09:00:35.193Z</time>
      </trkpt>
      <trkpt lat="44.51228" lon="6.23179">
        <ele>1381.26</ele>
        <time>2024-10-24T09:00:37.195Z</time>
      </trkpt>
      <trkpt lat="44.51232" lon="6.23177">
        <ele>1381.63</ele>
        <time>2024-10-24T09:00:39.196Z</time>
      </trkpt>
      <trkpt lat="44.51236" lon="6.23175">
        <ele>1382.44</ele>
        <time>2024-10-24T09:00:41.073Z</time>
      </trkpt>
      <trkpt lat="44.5124" lon="6.23173">
        <ele>1382.9</ele>
        <time>2024-10-24T09:00:43.194Z</time>
      </trkpt>
      <trkpt lat="44.51245" lon="6.23169">
        <ele>1383.53</ele>
        <time>2024-10-24T09:00:45.194Z</time>
      </trkpt>
      <trkpt lat="44.51249" lon="6.23164">
        <ele>1383.98</ele>
        <time>2024-10-24T09:00:47.195Z</time>
      </trkpt>
      <trkpt lat="44.51253" lon="6.23158">
        <ele>1384.46</ele>
        <time>2024-10-24T09:00:49.195Z</time>
      </trkpt>
      <trkpt lat="44.51256" lon="6.2315">
        <ele>1385</ele>
        <time>2024-10-24T09:00:51.195Z</time>
      </trkpt>
      <trkpt lat="44.51257" lon="6.23145">
        <ele>1385.46</ele>
        <time>2024-10-24T09:00:53.195Z</time>
      </trkpt>
      <trkpt lat="44.51261" lon="6.23131">
        <ele>1385.94</ele>
        <time>2024-10-24T09:00:55.194Z</time>
      </trkpt>
      <trkpt lat="44.51262" lon="6.23119">
        <ele>1386.18</ele>
        <time>2024-10-24T09:00:57.195Z</time>
      </trkpt>
      <trkpt lat="44.51263" lon="6.23107">
        <ele>1386.55</ele>
        <time>2024-10-24T09:00:59.094Z</time>
      </trkpt>
      <trkpt lat="44.51265" lon="6.23098">
        <ele>1386.83</ele>
        <time>2024-10-24T09:01:01.194Z</time>
      </trkpt>
      <trkpt lat="44.51268" lon="6.2309">
        <ele>1387.25</ele>
        <time>2024-10-24T09:01:03.194Z</time>
      </trkpt>
      <trkpt lat="44.51271" lon="6.23083">
        <ele>1387.56</ele>
        <time>2024-10-24T09:01:05.194Z</time>
      </trkpt>
      <trkpt lat="44.51274" lon="6.23077">
        <ele>1387.93</ele>
        <time>2024-10-24T09:01:07.195Z</time>
      </trkpt>
      <trkpt lat="44.51278" lon="6.23073">
        <ele>1388.28</ele>
        <time>2024-10-24T09:01:09.194Z</time>
      </trkpt>
      <trkpt lat="44.51281" lon="6.2307">
        <ele>1388.7</ele>
        <time>2024-10-24T09:01:11.195Z</time>
      </trkpt>
      <trkpt lat="44.51286" lon="6.23068">
        <ele>1388.95</ele>
        <time>2024-10-24T09:01:13.194Z</time>
      </trkpt>
      <trkpt lat="44.51291" lon="6.23065">
        <ele>1389.15</ele>
        <time>2024-10-24T09:01:15.194Z</time>
      </trkpt>
      <trkpt lat="44.51295" lon="6.23064">
        <ele>1389.35</ele>
        <time>2024-10-24T09:01:17.115Z</time>
      </trkpt>
      <trkpt lat="44.51299" lon="6.23066">
        <ele>1389.91</ele>
        <time>2024-10-24T09:01:19.194Z</time>
      </trkpt>
      <trkpt lat="44.51301" lon="6.2307">
        <ele>1390.27</ele>
        <time>2024-10-24T09:01:21.195Z</time>
      </trkpt>
      <trkpt lat="44.51302" lon="6.23075">
        <ele>1390.66</ele>
        <time>2024-10-24T09:01:23.195Z</time>
      </trkpt>
      <trkpt lat="44.513" lon="6.23081">
        <ele>1390.94</ele>
        <time>2024-10-24T09:01:25.193Z</time>
      </trkpt>
      <trkpt lat="44.51297" lon="6.23086">
        <ele>1391.3</ele>
        <time>2024-10-24T09:01:27.193Z</time>
      </trkpt>
      <trkpt lat="44.51296" lon="6.2309">
        <ele>1391.6</ele>
        <time>2024-10-24T09:01:29.194Z</time>
      </trkpt>
      <trkpt lat="44.51295" lon="6.23094">
        <ele>1391.75</ele>
        <time>2024-10-24T09:01:31.195Z</time>
      </trkpt>
      <trkpt lat="44.51294" lon="6.23097">
        <ele>1391.98</ele>
        <time>2024-10-24T09:01:33.195Z</time>
      </trkpt>
      <trkpt lat="44.51294" lon="6.23102">
        <ele>1392.38</ele>
        <time>2024-10-24T09:01:35.194Z</time>
      </trkpt>
      <trkpt lat="44.51294" lon="6.23098">
        <ele>1395.76</ele>
        <time>2024-10-24T09:03:44.150Z</time>
      </trkpt>
      <trkpt lat="44.51295" lon="6.23102">
        <ele>1396.05</ele>
        <time>2024-10-24T09:03:45.150Z</time>
      </trkpt>
      <trkpt lat="44.51298" lon="6.23115">
        <ele>1396.13</ele>
        <time>2024-10-24T09:03:47.150Z</time>
      </trkpt>
      <trkpt lat="44.51295" lon="6.2312">
        <ele>1396.14</ele>
        <time>2024-10-24T09:03:48.149Z</time>
      </trkpt>
      <trkpt lat="44.51292" lon="6.23126">
        <ele>1396.2</ele>
        <time>2024-10-24T09:03:50.149Z</time>
      </trkpt>
      <trkpt lat="44.5129" lon="6.23129">
        <ele>1396.41</ele>
        <time>2024-10-24T09:03:52.151Z</time>
      </trkpt>
      <trkpt lat="44.51289" lon="6.23133">
        <ele>1396.56</ele>
        <time>2024-10-24T09:03:54.149Z</time>
      </trkpt>
      <trkpt lat="44.51288" lon="6.23139">
        <ele>1396.72</ele>
        <time>2024-10-24T09:03:56.151Z</time>
      </trkpt>
      <trkpt lat="44.51289" lon="6.23146">
        <ele>1396.75</ele>
        <time>2024-10-24T09:03:58.062Z</time>
      </trkpt>
      <trkpt lat="44.51291" lon="6.23154">
        <ele>1396.91</ele>
        <time>2024-10-24T09:04:00.149Z</time>
      </trkpt>
      <trkpt lat="44.51292" lon="6.23161">
        <ele>1397.1</ele>
        <time>2024-10-24T09:04:01.683Z</time>
      </trkpt>
      <trkpt lat="44.51292" lon="6.23167">
        <ele>1397.02</ele>
        <time>2024-10-24T09:04:04.150Z</time>
      </trkpt>
      <trkpt lat="44.51293" lon="6.23173">
        <ele>1397.04</ele>
        <time>2024-10-24T09:04:06.150Z</time>
      </trkpt>
      <trkpt lat="44.51294" lon="6.2318">
        <ele>1397.16</ele>
        <time>2024-10-24T09:04:08.151Z</time>
      </trkpt>
      <trkpt lat="44.51297" lon="6.23186">
        <ele>1397.43</ele>
        <time>2024-10-24T09:04:10.149Z</time>
      </trkpt>
      <trkpt lat="44.51299" lon="6.23191">
        <ele>1397.59</ele>
        <time>2024-10-24T09:04:11.975Z</time>
      </trkpt>
      <trkpt lat="44.513" lon="6.23196">
        <ele>1397.78</ele>
        <time>2024-10-24T09:04:14.150Z</time>
      </trkpt>
      <trkpt lat="44.51303" lon="6.23202">
        <ele>1397.87</ele>
        <time>2024-10-24T09:04:16.160Z</time>
      </trkpt>
      <trkpt lat="44.51305" lon="6.23207">
        <ele>1398.03</ele>
        <time>2024-10-24T09:04:18.149Z</time>
      </trkpt>
      <trkpt lat="44.51306" lon="6.23213">
        <ele>1398.41</ele>
        <time>2024-10-24T09:04:19.765Z</time>
      </trkpt>
      <trkpt lat="44.51308" lon="6.23219">
        <ele>1398.66</ele>
        <time>2024-10-24T09:04:22.151Z</time>
      </trkpt>
      <trkpt lat="44.5131" lon="6.23226">
        <ele>1399</ele>
        <time>2024-10-24T09:04:24.150Z</time>
      </trkpt>
      <trkpt lat="44.51311" lon="6.23232">
        <ele>1399.2</ele>
        <time>2024-10-24T09:04:26.150Z</time>
      </trkpt>
      <trkpt lat="44.51313" lon="6.23239">
        <ele>1399.55</ele>
        <time>2024-10-24T09:04:27.716Z</time>
      </trkpt>
      <trkpt lat="44.51314" lon="6.23245">
        <ele>1399.97</ele>
        <time>2024-10-24T09:04:29.998Z</time>
      </trkpt>
      <trkpt lat="44.51315" lon="6.23253">
        <ele>1400.17</ele>
        <time>2024-10-24T09:04:31.733Z</time>
      </trkpt>
      <trkpt lat="44.51315" lon="6.23258">
        <ele>1400.41</ele>
        <time>2024-10-24T09:04:33.727Z</time>
      </trkpt>
      <trkpt lat="44.51316" lon="6.23264">
        <ele>1400.63</ele>
        <time>2024-10-24T09:04:36.151Z</time>
      </trkpt>
      <trkpt lat="44.51316" lon="6.23269">
        <ele>1401.18</ele>
        <time>2024-10-24T09:04:38.150Z</time>
      </trkpt>
      <trkpt lat="44.51316" lon="6.23275">
        <ele>1401.64</ele>
        <time>2024-10-24T09:04:40.150Z</time>
      </trkpt>
      <trkpt lat="44.51317" lon="6.2328">
        <ele>1402.16</ele>
        <time>2024-10-24T09:04:42.152Z</time>
      </trkpt>
      <trkpt lat="44.51317" lon="6.23286">
        <ele>1402.56</ele>
        <time>2024-10-24T09:04:44.149Z</time>
      </trkpt>
      <trkpt lat="44.51318" lon="6.23291">
        <ele>1403.2</ele>
        <time>2024-10-24T09:04:46.150Z</time>
      </trkpt>
      <trkpt lat="44.51319" lon="6.23297">
        <ele>1403.49</ele>
        <time>2024-10-24T09:04:48.037Z</time>
      </trkpt>
      <trkpt lat="44.51319" lon="6.23303">
        <ele>1403.94</ele>
        <time>2024-10-24T09:04:50.150Z</time>
      </trkpt>
      <trkpt lat="44.51319" lon="6.2331">
        <ele>1404.42</ele>
        <time>2024-10-24T09:04:52.150Z</time>
      </trkpt>
      <trkpt lat="44.5132" lon="6.23318">
        <ele>1404.69</ele>
        <time>2024-10-24T09:04:54.151Z</time>
      </trkpt>
      <trkpt lat="44.5132" lon="6.23325">
        <ele>1405.06</ele>
        <time>2024-10-24T09:04:56.149Z</time>
      </trkpt>
      <trkpt lat="44.51321" lon="6.23333">
        <ele>1405.79</ele>
        <time>2024-10-24T09:04:58.149Z</time>
      </trkpt>
      <trkpt lat="44.51321" lon="6.23341">
        <ele>1406.26</ele>
        <time>2024-10-24T09:05:00.151Z</time>
      </trkpt>
      <trkpt lat="44.51321" lon="6.23348">
        <ele>1406.83</ele>
        <time>2024-10-24T09:05:02.150Z</time>
      </trkpt>
      <trkpt lat="44.51322" lon="6.23355">
        <ele>1407.38</ele>
        <time>2024-10-24T09:05:04.250Z</time>
      </trkpt>
      <trkpt lat="44.51323" lon="6.23362">
        <ele>1407.61</ele>
        <time>2024-10-24T09:05:06.250Z</time>
      </trkpt>
      <trkpt lat="44.51323" lon="6.23369">
        <ele>1408.1</ele>
        <time>2024-10-24T09:05:08.103Z</time>
      </trkpt>
      <trkpt lat="44.51324" lon="6.23376">
        <ele>1408.59</ele>
        <time>2024-10-24T09:05:10.180Z</time>
      </trkpt>
      <trkpt lat="44.51324" lon="6.23382">
        <ele>1408.86</ele>
        <time>2024-10-24T09:05:12.250Z</time>
      </trkpt>
      <trkpt lat="44.51326" lon="6.23389">
        <ele>1409.4</ele>
        <time>2024-10-24T09:05:14.249Z</time>
      </trkpt>
      <trkpt lat="44.51328" lon="6.23396">
        <ele>1409.89</ele>
        <time>2024-10-24T09:05:16.251Z</time>
      </trkpt>
      <trkpt lat="44.5133" lon="6.23403">
        <ele>1410.18</ele>
        <time>2024-10-24T09:05:18.251Z</time>
      </trkpt>
      <trkpt lat="44.51332" lon="6.23409">
        <ele>1410.78</ele>
        <time>2024-10-24T09:05:20.250Z</time>
      </trkpt>
      <trkpt lat="44.51336" lon="6.23413">
        <ele>1411.1</ele>
        <time>2024-10-24T09:05:21.788Z</time>
      </trkpt>
      <trkpt lat="44.5134" lon="6.23418">
        <ele>1411.41</ele>
        <time>2024-10-24T09:05:24.133Z</time>
      </trkpt>
      <trkpt lat="44.51344" lon="6.23424">
        <ele>1411.82</ele>
        <time>2024-10-24T09:05:25.277Z</time>
      </trkpt>
      <trkpt lat="44.51348" lon="6.2343">
        <ele>1412.17</ele>
        <time>2024-10-24T09:05:27.887Z</time>
      </trkpt>
      <trkpt lat="44.51353" lon="6.23435">
        <ele>1412.42</ele>
        <time>2024-10-24T09:05:30.249Z</time>
      </trkpt>
      <trkpt lat="44.51358" lon="6.2344">
        <ele>1412.83</ele>
        <time>2024-10-24T09:05:32.250Z</time>
      </trkpt>
      <trkpt lat="44.51364" lon="6.23444">
        <ele>1413.19</ele>
        <time>2024-10-24T09:05:34.252Z</time>
      </trkpt>
      <trkpt lat="44.51369" lon="6.2345">
        <ele>1413.55</ele>
        <time>2024-10-24T09:05:36.250Z</time>
      </trkpt>
      <trkpt lat="44.51375" lon="6.23456">
        <ele>1413.83</ele>
        <time>2024-10-24T09:05:38.251Z</time>
      </trkpt>
      <trkpt lat="44.5138" lon="6.23461">
        <ele>1414</ele>
        <time>2024-10-24T09:05:40.250Z</time>
      </trkpt>
      <trkpt lat="44.51382" lon="6.23469">
        <ele>1414.23</ele>
        <time>2024-10-24T09:05:41.832Z</time>
      </trkpt>
      <trkpt lat="44.51385" lon="6.23477">
        <ele>1414.47</ele>
        <time>2024-10-24T09:05:44.250Z</time>
      </trkpt>
      <trkpt lat="44.51389" lon="6.23486">
        <ele>1414.69</ele>
        <time>2024-10-24T09:05:46.252Z</time>
      </trkpt>
      <trkpt lat="44.51392" lon="6.23494">
        <ele>1414.88</ele>
        <time>2024-10-24T09:05:48.251Z</time>
      </trkpt>
      <trkpt lat="44.51394" lon="6.23501">
        <ele>1415.05</ele>
        <time>2024-10-24T09:05:50.251Z</time>
      </trkpt>
      <trkpt lat="44.51396" lon="6.23507">
        <ele>1415.13</ele>
        <time>2024-10-24T09:05:52.251Z</time>
      </trkpt>
      <trkpt lat="44.51398" lon="6.23513">
        <ele>1415.25</ele>
        <time>2024-10-24T09:05:54.251Z</time>
      </trkpt>
      <trkpt lat="44.514" lon="6.23517">
        <ele>1415.37</ele>
        <time>2024-10-24T09:05:55.342Z</time>
      </trkpt>
      <trkpt lat="44.51401" lon="6.23518">
        <ele>1415.48</ele>
        <time>2024-10-24T09:05:58.251Z</time>
      </trkpt>
      <trkpt lat="44.51403" lon="6.23523">
        <ele>1415.6</ele>
        <time>2024-10-24T09:06:00.251Z</time>
      </trkpt>
      <trkpt lat="44.51406" lon="6.23527">
        <ele>1415.77</ele>
        <time>2024-10-24T09:06:01.346Z</time>
      </trkpt>
      <trkpt lat="44.51408" lon="6.2353">
        <ele>1415.9</ele>
        <time>2024-10-24T09:06:04.294Z</time>
      </trkpt>
      <trkpt lat="44.51409" lon="6.23532">
        <ele>1416.07</ele>
        <time>2024-10-24T09:06:06.253Z</time>
      </trkpt>
      <trkpt lat="44.5141" lon="6.23534">
        <ele>1416.19</ele>
        <time>2024-10-24T09:06:08.250Z</time>
      </trkpt>
      <trkpt lat="44.51411" lon="6.23535">
        <ele>1416.27</ele>
        <time>2024-10-24T09:06:10.251Z</time>
      </trkpt>
      <trkpt lat="44.51413" lon="6.23537">
        <ele>1416.32</ele>
        <time>2024-10-24T09:06:12.251Z</time>
      </trkpt>
      <trkpt lat="44.51415" lon="6.23541">
        <ele>1416.57</ele>
        <time>2024-10-24T09:06:14.250Z</time>
      </trkpt>
      <trkpt lat="44.51418" lon="6.23545">
        <ele>1416.7</ele>
        <time>2024-10-24T09:06:16.164Z</time>
      </trkpt>
      <trkpt lat="44.51422" lon="6.23549">
        <ele>1416.89</ele>
        <time>2024-10-24T09:06:18.250Z</time>
      </trkpt>
      <trkpt lat="44.51426" lon="6.23553">
        <ele>1416.97</ele>
        <time>2024-10-24T09:06:20.251Z</time>
      </trkpt>
      <trkpt lat="44.51429" lon="6.23557">
        <ele>1417.18</ele>
        <time>2024-10-24T09:06:22.252Z</time>
      </trkpt>
      <trkpt lat="44.51432" lon="6.23562">
        <ele>1417.19</ele>
        <time>2024-10-24T09:06:24.252Z</time>
      </trkpt>
      <trkpt lat="44.51434" lon="6.23568">
        <ele>1417.35</ele>
        <time>2024-10-24T09:06:26.250Z</time>
      </trkpt>
      <trkpt lat="44.51437" lon="6.23572">
        <ele>1417.47</ele>
        <time>2024-10-24T09:06:28.251Z</time>
      </trkpt>
      <trkpt lat="44.51439" lon="6.23577">
        <ele>1417.75</ele>
        <time>2024-10-24T09:06:30.252Z</time>
      </trkpt>
      <trkpt lat="44.51441" lon="6.23582">
        <ele>1417.79</ele>
        <time>2024-10-24T09:06:32.350Z</time>
      </trkpt>
      <trkpt lat="44.51443" lon="6.23587">
        <ele>1418.13</ele>
        <time>2024-10-24T09:06:34.350Z</time>
      </trkpt>
      <trkpt lat="44.51446" lon="6.23592">
        <ele>1418.21</ele>
        <time>2024-10-24T09:06:36.352Z</time>
      </trkpt>
      <trkpt lat="44.51448" lon="6.23596">
        <ele>1418.43</ele>
        <time>2024-10-24T09:06:38.154Z</time>
      </trkpt>
      <trkpt lat="44.51451" lon="6.23602">
        <ele>1418.71</ele>
        <time>2024-10-24T09:06:40.350Z</time>
      </trkpt>
      <trkpt lat="44.51453" lon="6.23607">
        <ele>1418.93</ele>
        <time>2024-10-24T09:06:42.350Z</time>
      </trkpt>
      <trkpt lat="44.51456" lon="6.23612">
        <ele>1419.25</ele>
        <time>2024-10-24T09:06:44.350Z</time>
      </trkpt>
      <trkpt lat="44.51459" lon="6.23616">
        <ele>1419.59</ele>
        <time>2024-10-24T09:06:46.147Z</time>
      </trkpt>
      <trkpt lat="44.51461" lon="6.23621">
        <ele>1419.86</ele>
        <time>2024-10-24T09:06:48.351Z</time>
      </trkpt>
      <trkpt lat="44.51463" lon="6.23625">
        <ele>1420.18</ele>
        <time>2024-10-24T09:06:50.193Z</time>
      </trkpt>
      <trkpt lat="44.51464" lon="6.23629">
        <ele>1420.18</ele>
        <time>2024-10-24T09:06:52.350Z</time>
      </trkpt>
      <trkpt lat="44.51466" lon="6.23633">
        <ele>1420.35</ele>
        <time>2024-10-24T09:06:54.351Z</time>
      </trkpt>
      <trkpt lat="44.51468" lon="6.23638">
        <ele>1420.79</ele>
        <time>2024-10-24T09:06:56.086Z</time>
      </trkpt>
      <trkpt lat="44.51469" lon="6.23644">
        <ele>1421.18</ele>
        <time>2024-10-24T09:06:58.351Z</time>
      </trkpt>
      <trkpt lat="44.5147" lon="6.2365">
        <ele>1421.44</ele>
        <time>2024-10-24T09:07:00.349Z</time>
      </trkpt>
      <trkpt lat="44.51471" lon="6.23656">
        <ele>1421.87</ele>
        <time>2024-10-24T09:07:02.350Z</time>
      </trkpt>
      <trkpt lat="44.5147" lon="6.23662">
        <ele>1422.19</ele>
        <time>2024-10-24T09:07:04.049Z</time>
      </trkpt>
      <trkpt lat="44.51469" lon="6.23667">
        <ele>1422.49</ele>
        <time>2024-10-24T09:07:06.351Z</time>
      </trkpt>
      <trkpt lat="44.51466" lon="6.23669">
        <ele>1423.01</ele>
        <time>2024-10-24T09:07:08.154Z</time>
      </trkpt>
      <trkpt lat="44.51464" lon="6.23673">
        <ele>1423.42</ele>
        <time>2024-10-24T09:07:10.351Z</time>
      </trkpt>
      <trkpt lat="44.51463" lon="6.23678">
        <ele>1423.63</ele>
        <time>2024-10-24T09:07:12.350Z</time>
      </trkpt>
      <trkpt lat="44.51461" lon="6.23683">
        <ele>1423.97</ele>
        <time>2024-10-24T09:07:14.183Z</time>
      </trkpt>
      <trkpt lat="44.5146" lon="6.2369">
        <ele>1424.39</ele>
        <time>2024-10-24T09:07:16.199Z</time>
      </trkpt>
      <trkpt lat="44.51459" lon="6.23698">
        <ele>1424.78</ele>
        <time>2024-10-24T09:07:18.352Z</time>
      </trkpt>
      <trkpt lat="44.5146" lon="6.23707">
        <ele>1425.23</ele>
        <time>2024-10-24T09:07:20.350Z</time>
      </trkpt>
      <trkpt lat="44.51461" lon="6.23716">
        <ele>1425.57</ele>
        <time>2024-10-24T09:07:22.152Z</time>
      </trkpt>
      <trkpt lat="44.51462" lon="6.23724">
        <ele>1426.2</ele>
        <time>2024-10-24T09:07:24.350Z</time>
      </trkpt>
      <trkpt lat="44.51462" lon="6.23732">
        <ele>1426.6</ele>
        <time>2024-10-24T09:07:26.351Z</time>
      </trkpt>
      <trkpt lat="44.51462" lon="6.23739">
        <ele>1426.94</ele>
        <time>2024-10-24T09:07:28.239Z</time>
      </trkpt>
      <trkpt lat="44.51461" lon="6.23744">
        <ele>1427.19</ele>
        <time>2024-10-24T09:07:30.351Z</time>
      </trkpt>
      <trkpt lat="44.5146" lon="6.23749">
        <ele>1427.42</ele>
        <time>2024-10-24T09:07:32.351Z</time>
      </trkpt>
      <trkpt lat="44.51457" lon="6.23754">
        <ele>1428.12</ele>
        <time>2024-10-24T09:07:34.350Z</time>
      </trkpt>
      <trkpt lat="44.51457" lon="6.2376">
        <ele>1428.37</ele>
        <time>2024-10-24T09:07:36.352Z</time>
      </trkpt>
      <trkpt lat="44.51456" lon="6.23767">
        <ele>1428.6</ele>
        <time>2024-10-24T09:07:38.349Z</time>
      </trkpt>
      <trkpt lat="44.51453" lon="6.23774">
        <ele>1429.29</ele>
        <time>2024-10-24T09:07:40.351Z</time>
      </trkpt>
      <trkpt lat="44.51452" lon="6.23781">
        <ele>1429.64</ele>
        <time>2024-10-24T09:07:42.351Z</time>
      </trkpt>
      <trkpt lat="44.51451" lon="6.23789">
        <ele>1430.05</ele>
        <time>2024-10-24T09:07:44.351Z</time>
      </trkpt>
      <trkpt lat="44.51449" lon="6.23796">
        <ele>1430.27</ele>
        <time>2024-10-24T09:07:46.449Z</time>
      </trkpt>
      <trkpt lat="44.51448" lon="6.23804">
        <ele>1430.49</ele>
        <time>2024-10-24T09:07:48.449Z</time>
      </trkpt>
      <trkpt lat="44.51447" lon="6.23812">
        <ele>1430.65</ele>
        <time>2024-10-24T09:07:50.449Z</time>
      </trkpt>
      <trkpt lat="44.51445" lon="6.23817">
        <ele>1430.86</ele>
        <time>2024-10-24T09:07:52.063Z</time>
      </trkpt>
      <trkpt lat="44.51442" lon="6.23822">
        <ele>1431.24</ele>
        <time>2024-10-24T09:07:54.451Z</time>
      </trkpt>
      <trkpt lat="44.51439" lon="6.23826">
        <ele>1431.53</ele>
        <time>2024-10-24T09:07:56.452Z</time>
      </trkpt>
      <trkpt lat="44.51436" lon="6.23829">
        <ele>1432.03</ele>
        <time>2024-10-24T09:07:58.235Z</time>
      </trkpt>
      <trkpt lat="44.51432" lon="6.23833">
        <ele>1432.45</ele>
        <time>2024-10-24T09:08:00.450Z</time>
      </trkpt>
      <trkpt lat="44.51427" lon="6.23836">
        <ele>1432.61</ele>
        <time>2024-10-24T09:08:02.198Z</time>
      </trkpt>
      <trkpt lat="44.51423" lon="6.23838">
        <ele>1433.1</ele>
        <time>2024-10-24T09:08:04.084Z</time>
      </trkpt>
      <trkpt lat="44.5142" lon="6.2384">
        <ele>1433.66</ele>
        <time>2024-10-24T09:08:06.452Z</time>
      </trkpt>
      <trkpt lat="44.51416" lon="6.23843">
        <ele>1434.3</ele>
        <time>2024-10-24T09:08:14.111Z</time>
      </trkpt>
      <trkpt lat="44.51412" lon="6.23848">
        <ele>1435.03</ele>
        <time>2024-10-24T09:08:33.530Z</time>
      </trkpt>
      <trkpt lat="44.51411" lon="6.2385">
        <ele>1436.9</ele>
        <time>2024-10-24T09:09:07.169Z</time>
      </trkpt>
      <trkpt lat="44.51411" lon="6.23853">
        <ele>1438.47</ele>
        <time>2024-10-24T09:09:13.193Z</time>
      </trkpt>
      <trkpt lat="44.51405" lon="6.23847">
        <ele>1438.35</ele>
        <time>2024-10-24T09:15:05.960Z</time>
      </trkpt>
      <trkpt lat="44.51404" lon="6.23843">
        <ele>1438.35</ele>
        <time>2024-10-24T09:15:07.961Z</time>
      </trkpt>
      <trkpt lat="44.514" lon="6.23846">
        <ele>1438.35</ele>
        <time>2024-10-24T09:15:09.960Z</time>
      </trkpt>
      <trkpt lat="44.51398" lon="6.23849">
        <ele>1438.35</ele>
        <time>2024-10-24T09:15:10.619Z</time>
      </trkpt>
      <trkpt lat="44.51389" lon="6.23858">
        <ele>1438.35</ele>
        <time>2024-10-24T09:15:12.961Z</time>
      </trkpt>
      <trkpt lat="44.51381" lon="6.23864">
        <ele>1435.81</ele>
        <time>2024-10-24T09:15:14.961Z</time>
      </trkpt>
      <trkpt lat="44.51371" lon="6.23871">
        <ele>1435.74</ele>
        <time>2024-10-24T09:15:16.962Z</time>
      </trkpt>
      <trkpt lat="44.51361" lon="6.23874">
        <ele>1435.64</ele>
        <time>2024-10-24T09:15:18.962Z</time>
      </trkpt>
      <trkpt lat="44.51352" lon="6.23879">
        <ele>1435.63</ele>
        <time>2024-10-24T09:15:20.962Z</time>
      </trkpt>
      <trkpt lat="44.51345" lon="6.23888">
        <ele>1435.66</ele>
        <time>2024-10-24T09:15:22.962Z</time>
      </trkpt>
      <trkpt lat="44.51337" lon="6.23899">
        <ele>1435.7</ele>
        <time>2024-10-24T09:15:24.962Z</time>
      </trkpt>
      <trkpt lat="44.51329" lon="6.23908">
        <ele>1435.68</ele>
        <time>2024-10-24T09:15:26.961Z</time>
      </trkpt>
      <trkpt lat="44.51322" lon="6.23917">
        <ele>1435.66</ele>
        <time>2024-10-24T09:15:28.962Z</time>
      </trkpt>
      <trkpt lat="44.51314" lon="6.23925">
        <ele>1435.66</ele>
        <time>2024-10-24T09:15:30.961Z</time>
      </trkpt>
      <trkpt lat="44.51304" lon="6.2393">
        <ele>1435.69</ele>
        <time>2024-10-24T09:15:32.962Z</time>
      </trkpt>
      <trkpt lat="44.51293" lon="6.23932">
        <ele>1435.67</ele>
        <time>2024-10-24T09:15:34.961Z</time>
      </trkpt>
      <trkpt lat="44.51283" lon="6.23932">
        <ele>1435.69</ele>
        <time>2024-10-24T09:15:36.962Z</time>
      </trkpt>
      <trkpt lat="44.51275" lon="6.23932">
        <ele>1435.65</ele>
        <time>2024-10-24T09:15:38.959Z</time>
      </trkpt>
      <trkpt lat="44.51268" lon="6.2393">
        <ele>1435.61</ele>
        <time>2024-10-24T09:15:40.959Z</time>
      </trkpt>
      <trkpt lat="44.51262" lon="6.23928">
        <ele>1435.66</ele>
        <time>2024-10-24T09:15:42.961Z</time>
      </trkpt>
      <trkpt lat="44.51255" lon="6.23927">
        <ele>1435.7</ele>
        <time>2024-10-24T09:15:44.959Z</time>
      </trkpt>
      <trkpt lat="44.51248" lon="6.23928">
        <ele>1435.73</ele>
        <time>2024-10-24T09:15:46.959Z</time>
      </trkpt>
      <trkpt lat="44.5124" lon="6.2393">
        <ele>1435.76</ele>
        <time>2024-10-24T09:15:48.960Z</time>
      </trkpt>
      <trkpt lat="44.51233" lon="6.23936">
        <ele>1435.73</ele>
        <time>2024-10-24T09:15:50.962Z</time>
      </trkpt>
      <trkpt lat="44.51225" lon="6.23944">
        <ele>1435.79</ele>
        <time>2024-10-24T09:15:52.961Z</time>
      </trkpt>
      <trkpt lat="44.51217" lon="6.23956">
        <ele>1435.81</ele>
        <time>2024-10-24T09:15:54.962Z</time>
      </trkpt>
      <trkpt lat="44.5121" lon="6.23966">
        <ele>1435.85</ele>
        <time>2024-10-24T09:15:56.962Z</time>
      </trkpt>
      <trkpt lat="44.51202" lon="6.23975">
        <ele>1435.92</ele>
        <time>2024-10-24T09:15:58.962Z</time>
      </trkpt>
      <trkpt lat="44.51197" lon="6.23985">
        <ele>1435.97</ele>
        <time>2024-10-24T09:16:00.962Z</time>
      </trkpt>
      <trkpt lat="44.51191" lon="6.23992">
        <ele>1436.02</ele>
        <time>2024-10-24T09:16:02.099Z</time>
      </trkpt>
      <trkpt lat="44.51184" lon="6.23999">
        <ele>1436.05</ele>
        <time>2024-10-24T09:16:04.552Z</time>
      </trkpt>
      <trkpt lat="44.51178" lon="6.24006">
        <ele>1436.11</ele>
        <time>2024-10-24T09:16:07.043Z</time>
      </trkpt>
      <trkpt lat="44.51171" lon="6.24012">
        <ele>1436.22</ele>
        <time>2024-10-24T09:16:08.101Z</time>
      </trkpt>
      <trkpt lat="44.51165" lon="6.2402">
        <ele>1436.3</ele>
        <time>2024-10-24T09:16:11.041Z</time>
      </trkpt>
      <trkpt lat="44.51161" lon="6.2403">
        <ele>1436.36</ele>
        <time>2024-10-24T09:16:12.110Z</time>
      </trkpt>
      <trkpt lat="44.51158" lon="6.24039">
        <ele>1436.41</ele>
        <time>2024-10-24T09:16:15.056Z</time>
      </trkpt>
      <trkpt lat="44.51159" lon="6.24052">
        <ele>1436.51</ele>
        <time>2024-10-24T09:16:16.113Z</time>
      </trkpt>
      <trkpt lat="44.51164" lon="6.24066">
        <ele>1436.64</ele>
        <time>2024-10-24T09:16:19.060Z</time>
      </trkpt>
      <trkpt lat="44.51171" lon="6.24078">
        <ele>1436.64</ele>
        <time>2024-10-24T09:16:20.114Z</time>
      </trkpt>
      <trkpt lat="44.51178" lon="6.24091">
        <ele>1436.66</ele>
        <time>2024-10-24T09:16:22.093Z</time>
      </trkpt>
      <trkpt lat="44.51183" lon="6.24105">
        <ele>1436.7</ele>
        <time>2024-10-24T09:16:24.595Z</time>
      </trkpt>
      <trkpt lat="44.51188" lon="6.24122">
        <ele>1436.7</ele>
        <time>2024-10-24T09:16:26.583Z</time>
      </trkpt>
      <trkpt lat="44.51194" lon="6.24139">
        <ele>1436.69</ele>
        <time>2024-10-24T09:16:28.599Z</time>
      </trkpt>
      <trkpt lat="44.51199" lon="6.24156">
        <ele>1436.66</ele>
        <time>2024-10-24T09:16:30.130Z</time>
      </trkpt>
      <trkpt lat="44.51201" lon="6.24176">
        <ele>1436.58</ele>
        <time>2024-10-24T09:16:32.104Z</time>
      </trkpt>
      <trkpt lat="44.512" lon="6.24196">
        <ele>1436.54</ele>
        <time>2024-10-24T09:16:34.631Z</time>
      </trkpt>
      <trkpt lat="44.51202" lon="6.24209">
        <ele>1436.51</ele>
        <time>2024-10-24T09:16:36.114Z</time>
      </trkpt>
      <trkpt lat="44.51202" lon="6.24218">
        <ele>1436.44</ele>
        <time>2024-10-24T09:16:38.590Z</time>
      </trkpt>
      <trkpt lat="44.51202" lon="6.24223">
        <ele>1436.39</ele>
        <time>2024-10-24T09:16:40.115Z</time>
      </trkpt>
      <trkpt lat="44.51202" lon="6.24225">
        <ele>1436.3</ele>
        <time>2024-10-24T09:17:50.726Z</time>
      </trkpt>
      <trkpt lat="44.51181" lon="6.24248">
        <ele>1434.72</ele>
        <time>2024-10-24T09:18:06.605Z</time>
      </trkpt>
      <trkpt lat="44.51187" lon="6.24244">
        <ele>1434.68</ele>
        <time>2024-10-24T09:18:07.606Z</time>
      </trkpt>
      <trkpt lat="44.51197" lon="6.24236">
        <ele>1434.67</ele>
        <time>2024-10-24T09:18:11.605Z</time>
      </trkpt>
      <trkpt lat="44.51198" lon="6.2424">
        <ele>1434.63</ele>
        <time>2024-10-24T09:18:12.696Z</time>
      </trkpt>
      <trkpt lat="44.51197" lon="6.24247">
        <ele>1434.6</ele>
        <time>2024-10-24T09:18:14.698Z</time>
      </trkpt>
      <trkpt lat="44.51196" lon="6.24252">
        <ele>1434.65</ele>
        <time>2024-10-24T09:18:17.673Z</time>
      </trkpt>
      <trkpt lat="44.51193" lon="6.24256">
        <ele>1434.6</ele>
        <time>2024-10-24T09:18:19.606Z</time>
      </trkpt>
      <trkpt lat="44.51189" lon="6.2426">
        <ele>1434.6</ele>
        <time>2024-10-24T09:18:21.606Z</time>
      </trkpt>
      <trkpt lat="44.51185" lon="6.24264">
        <ele>1434.52</ele>
        <time>2024-10-24T09:18:23.606Z</time>
      </trkpt>
      <trkpt lat="44.51182" lon="6.24268">
        <ele>1434.59</ele>
        <time>2024-10-24T09:18:25.605Z</time>
      </trkpt>
      <trkpt lat="44.51178" lon="6.24273">
        <ele>1434.67</ele>
        <time>2024-10-24T09:18:26.768Z</time>
      </trkpt>
      <trkpt lat="44.51175" lon="6.24277">
        <ele>1434.69</ele>
        <time>2024-10-24T09:18:29.318Z</time>
      </trkpt>
      <trkpt lat="44.51171" lon="6.24279">
        <ele>1434.79</ele>
        <time>2024-10-24T09:18:30.778Z</time>
      </trkpt>
      <trkpt lat="44.51167" lon="6.24281">
        <ele>1434.86</ele>
        <time>2024-10-24T09:18:32.761Z</time>
      </trkpt>
      <trkpt lat="44.51163" lon="6.24283">
        <ele>1434.91</ele>
        <time>2024-10-24T09:18:34.778Z</time>
      </trkpt>
      <trkpt lat="44.51159" lon="6.24284">
        <ele>1435.03</ele>
        <time>2024-10-24T09:18:36.755Z</time>
      </trkpt>
      <trkpt lat="44.51155" lon="6.24286">
        <ele>1435.14</ele>
        <time>2024-10-24T09:18:39.515Z</time>
      </trkpt>
      <trkpt lat="44.51152" lon="6.24289">
        <ele>1435.37</ele>
        <time>2024-10-24T09:18:40.789Z</time>
      </trkpt>
      <trkpt lat="44.51149" lon="6.24292">
        <ele>1435.6</ele>
        <time>2024-10-24T09:18:43.605Z</time>
      </trkpt>
      <trkpt lat="44.51146" lon="6.24296">
        <ele>1435.82</ele>
        <time>2024-10-24T09:18:45.603Z</time>
      </trkpt>
      <trkpt lat="44.51144" lon="6.24298">
        <ele>1436.09</ele>
        <time>2024-10-24T09:18:46.779Z</time>
      </trkpt>
      <trkpt lat="44.51143" lon="6.24301">
        <ele>1436.29</ele>
        <time>2024-10-24T09:18:48.779Z</time>
      </trkpt>
      <trkpt lat="44.51141" lon="6.24305">
        <ele>1436.48</ele>
        <time>2024-10-24T09:18:50.766Z</time>
      </trkpt>
      <trkpt lat="44.51137" lon="6.2431">
        <ele>1436.61</ele>
        <time>2024-10-24T09:18:53.693Z</time>
      </trkpt>
      <trkpt lat="44.51134" lon="6.24315">
        <ele>1436.92</ele>
        <time>2024-10-24T09:18:54.752Z</time>
      </trkpt>
      <trkpt lat="44.51131" lon="6.24319">
        <ele>1437.06</ele>
        <time>2024-10-24T09:18:57.572Z</time>
      </trkpt>
      <trkpt lat="44.51128" lon="6.24324">
        <ele>1437.32</ele>
        <time>2024-10-24T09:18:58.757Z</time>
      </trkpt>
      <trkpt lat="44.51126" lon="6.24329">
        <ele>1437.76</ele>
        <time>2024-10-24T09:19:00.775Z</time>
      </trkpt>
      <trkpt lat="44.51123" lon="6.24334">
        <ele>1438.06</ele>
        <time>2024-10-24T09:19:02.761Z</time>
      </trkpt>
      <trkpt lat="44.51122" lon="6.24338">
        <ele>1438.47</ele>
        <time>2024-10-24T09:19:04.774Z</time>
      </trkpt>
      <trkpt lat="44.51119" lon="6.24341">
        <ele>1438.9</ele>
        <time>2024-10-24T09:19:06.758Z</time>
      </trkpt>
      <trkpt lat="44.51117" lon="6.24344">
        <ele>1439.37</ele>
        <time>2024-10-24T09:19:08.773Z</time>
      </trkpt>
      <trkpt lat="44.51114" lon="6.24348">
        <ele>1439.76</ele>
        <time>2024-10-24T09:19:10.776Z</time>
      </trkpt>
      <trkpt lat="44.5111" lon="6.24354">
        <ele>1440.19</ele>
        <time>2024-10-24T09:19:12.765Z</time>
      </trkpt>
      <trkpt lat="44.51107" lon="6.24359">
        <ele>1440.79</ele>
        <time>2024-10-24T09:19:14.777Z</time>
      </trkpt>
      <trkpt lat="44.51104" lon="6.24363">
        <ele>1441.21</ele>
        <time>2024-10-24T09:19:16.774Z</time>
      </trkpt>
      <trkpt lat="44.51102" lon="6.24367">
        <ele>1441.51</ele>
        <time>2024-10-24T09:19:18.776Z</time>
      </trkpt>
      <trkpt lat="44.51101" lon="6.24371">
        <ele>1442.27</ele>
        <time>2024-10-24T09:19:20.788Z</time>
      </trkpt>
      <trkpt lat="44.51099" lon="6.24374">
        <ele>1442.55</ele>
        <time>2024-10-24T09:19:22.778Z</time>
      </trkpt>
      <trkpt lat="44.51097" lon="6.24379">
        <ele>1443.35</ele>
        <time>2024-10-24T09:19:24.781Z</time>
      </trkpt>
      <trkpt lat="44.51094" lon="6.24384">
        <ele>1443.89</ele>
        <time>2024-10-24T09:19:26.784Z</time>
      </trkpt>
      <trkpt lat="44.51091" lon="6.24388">
        <ele>1444.56</ele>
        <time>2024-10-24T09:19:28.781Z</time>
      </trkpt>
      <trkpt lat="44.51089" lon="6.24393">
        <ele>1445.2</ele>
        <time>2024-10-24T09:19:30.777Z</time>
      </trkpt>
      <trkpt lat="44.51088" lon="6.24399">
        <ele>1445.9</ele>
        <time>2024-10-24T09:19:32.705Z</time>
      </trkpt>
      <trkpt lat="44.51087" lon="6.24405">
        <ele>1446.61</ele>
        <time>2024-10-24T09:19:34.705Z</time>
      </trkpt>
      <trkpt lat="44.51086" lon="6.2441">
        <ele>1447.13</ele>
        <time>2024-10-24T09:19:36.704Z</time>
      </trkpt>
      <trkpt lat="44.51086" lon="6.24415">
        <ele>1447.82</ele>
        <time>2024-10-24T09:19:38.785Z</time>
      </trkpt>
      <trkpt lat="44.51086" lon="6.24422">
        <ele>1448.6</ele>
        <time>2024-10-24T09:19:40.705Z</time>
      </trkpt>
      <trkpt lat="44.51086" lon="6.24428">
        <ele>1449</ele>
        <time>2024-10-24T09:19:42.706Z</time>
      </trkpt>
      <trkpt lat="44.51086" lon="6.24434">
        <ele>1449.5</ele>
        <time>2024-10-24T09:19:44.704Z</time>
      </trkpt>
      <trkpt lat="44.51085" lon="6.24439">
        <ele>1450</ele>
        <time>2024-10-24T09:19:46.705Z</time>
      </trkpt>
      <trkpt lat="44.51084" lon="6.24444">
        <ele>1450.63</ele>
        <time>2024-10-24T09:19:48.705Z</time>
      </trkpt>
      <trkpt lat="44.51083" lon="6.24449">
        <ele>1451.45</ele>
        <time>2024-10-24T09:19:50.708Z</time>
      </trkpt>
      <trkpt lat="44.51082" lon="6.24453">
        <ele>1452.06</ele>
        <time>2024-10-24T09:19:52.705Z</time>
      </trkpt>
      <trkpt lat="44.5108" lon="6.24457">
        <ele>1452.77</ele>
        <time>2024-10-24T09:19:54.705Z</time>
      </trkpt>
      <trkpt lat="44.51078" lon="6.24464">
        <ele>1453.29</ele>
        <time>2024-10-24T09:19:56.805Z</time>
      </trkpt>
      <trkpt lat="44.51078" lon="6.2447">
        <ele>1453.69</ele>
        <time>2024-10-24T09:19:57.848Z</time>
      </trkpt>
      <trkpt lat="44.51078" lon="6.24475">
        <ele>1454.42</ele>
        <time>2024-10-24T09:20:00.464Z</time>
      </trkpt>
      <trkpt lat="44.51077" lon="6.2448">
        <ele>1455.28</ele>
        <time>2024-10-24T09:20:02.626Z</time>
      </trkpt>
      <trkpt lat="44.51077" lon="6.24485">
        <ele>1455.85</ele>
        <time>2024-10-24T09:20:03.815Z</time>
      </trkpt>
      <trkpt lat="44.51076" lon="6.24489">
        <ele>1456.73</ele>
        <time>2024-10-24T09:20:05.813Z</time>
      </trkpt>
      <trkpt lat="44.51075" lon="6.24494">
        <ele>1457.37</ele>
        <time>2024-10-24T09:20:07.854Z</time>
      </trkpt>
      <trkpt lat="44.51075" lon="6.24499">
        <ele>1457.9</ele>
        <time>2024-10-24T09:20:09.854Z</time>
      </trkpt>
      <trkpt lat="44.51075" lon="6.24503">
        <ele>1458.45</ele>
        <time>2024-10-24T09:20:11.825Z</time>
      </trkpt>
      <trkpt lat="44.51074" lon="6.24508">
        <ele>1459.05</ele>
        <time>2024-10-24T09:20:13.840Z</time>
      </trkpt>
      <trkpt lat="44.51075" lon="6.24514">
        <ele>1460.01</ele>
        <time>2024-10-24T09:20:15.847Z</time>
      </trkpt>
      <trkpt lat="44.51075" lon="6.24519">
        <ele>1460.83</ele>
        <time>2024-10-24T09:20:17.838Z</time>
      </trkpt>
      <trkpt lat="44.51075" lon="6.24524">
        <ele>1461.64</ele>
        <time>2024-10-24T09:20:19.877Z</time>
      </trkpt>
      <trkpt lat="44.51075" lon="6.24528">
        <ele>1462.29</ele>
        <time>2024-10-24T09:20:21.864Z</time>
      </trkpt>
      <trkpt lat="44.51075" lon="6.24532">
        <ele>1462.92</ele>
        <time>2024-10-24T09:20:23.895Z</time>
      </trkpt>
      <trkpt lat="44.51075" lon="6.24536">
        <ele>1463.92</ele>
        <time>2024-10-24T09:20:25.866Z</time>
      </trkpt>
      <trkpt lat="44.51075" lon="6.2454">
        <ele>1464.83</ele>
        <time>2024-10-24T09:20:27.834Z</time>
      </trkpt>
      <trkpt lat="44.51076" lon="6.24545">
        <ele>1464.83</ele>
        <time>2024-10-24T09:20:30.816Z</time>
      </trkpt>
      <trkpt lat="44.51076" lon="6.24552">
        <ele>1466.68</ele>
        <time>2024-10-24T09:20:32.431Z</time>
      </trkpt>
      <trkpt lat="44.51077" lon="6.24559">
        <ele>1467.97</ele>
        <time>2024-10-24T09:20:33.873Z</time>
      </trkpt>
      <trkpt lat="44.51077" lon="6.24565">
        <ele>1468.77</ele>
        <time>2024-10-24T09:20:35.856Z</time>
      </trkpt>
      <trkpt lat="44.51079" lon="6.24571">
        <ele>1469.7</ele>
        <time>2024-10-24T09:20:38.830Z</time>
      </trkpt>
      <trkpt lat="44.51081" lon="6.24576">
        <ele>1470.48</ele>
        <time>2024-10-24T09:20:39.854Z</time>
      </trkpt>
      <trkpt lat="44.51081" lon="6.2458">
        <ele>1471.2</ele>
        <time>2024-10-24T09:20:42.377Z</time>
      </trkpt>
      <trkpt lat="44.51082" lon="6.24584">
        <ele>1472.17</ele>
        <time>2024-10-24T09:20:43.894Z</time>
      </trkpt>
      <trkpt lat="44.51081" lon="6.24587">
        <ele>1472.17</ele>
        <time>2024-10-24T09:20:45.880Z</time>
      </trkpt>
      <trkpt lat="44.51081" lon="6.24589">
        <ele>1472.17</ele>
        <time>2024-10-24T09:20:47.856Z</time>
      </trkpt>
      <trkpt lat="44.5108" lon="6.24592">
        <ele>1472.17</ele>
        <time>2024-10-24T09:20:49.868Z</time>
      </trkpt>
      <trkpt lat="44.51079" lon="6.24597">
        <ele>1475.72</ele>
        <time>2024-10-24T09:20:52.845Z</time>
      </trkpt>
      <trkpt lat="44.51078" lon="6.24602">
        <ele>1476.2</ele>
        <time>2024-10-24T09:20:54.817Z</time>
      </trkpt>
      <trkpt lat="44.51077" lon="6.24608">
        <ele>1477.27</ele>
        <time>2024-10-24T09:20:56.389Z</time>
      </trkpt>
      <trkpt lat="44.51077" lon="6.24616">
        <ele>1478.45</ele>
        <time>2024-10-24T09:20:58.805Z</time>
      </trkpt>
      <trkpt lat="44.51076" lon="6.24622">
        <ele>1479.25</ele>
        <time>2024-10-24T09:21:00.805Z</time>
      </trkpt>
      <trkpt lat="44.51076" lon="6.24628">
        <ele>1480.28</ele>
        <time>2024-10-24T09:21:02.377Z</time>
      </trkpt>
      <trkpt lat="44.51076" lon="6.24633">
        <ele>1480.76</ele>
        <time>2024-10-24T09:21:04.805Z</time>
      </trkpt>
      <trkpt lat="44.51075" lon="6.24638">
        <ele>1481.73</ele>
        <time>2024-10-24T09:21:05.884Z</time>
      </trkpt>
      <trkpt lat="44.51075" lon="6.24642">
        <ele>1482.34</ele>
        <time>2024-10-24T09:21:08.805Z</time>
      </trkpt>
      <trkpt lat="44.51074" lon="6.24647">
        <ele>1483.05</ele>
        <time>2024-10-24T09:21:09.868Z</time>
      </trkpt>
      <trkpt lat="44.51073" lon="6.2465">
        <ele>1484.04</ele>
        <time>2024-10-24T09:21:12.396Z</time>
      </trkpt>
      <trkpt lat="44.51071" lon="6.24655">
        <ele>1484.57</ele>
        <time>2024-10-24T09:21:14.776Z</time>
      </trkpt>
      <trkpt lat="44.51069" lon="6.24661">
        <ele>1485.03</ele>
        <time>2024-10-24T09:21:16.580Z</time>
      </trkpt>
      <trkpt lat="44.51067" lon="6.24666">
        <ele>1486.1</ele>
        <time>2024-10-24T09:21:18.805Z</time>
      </trkpt>
      <trkpt lat="44.51065" lon="6.24671">
        <ele>1486.48</ele>
        <time>2024-10-24T09:21:20.406Z</time>
      </trkpt>
      <trkpt lat="44.51064" lon="6.24676">
        <ele>1487.22</ele>
        <time>2024-10-24T09:21:22.804Z</time>
      </trkpt>
      <trkpt lat="44.51062" lon="6.24681">
        <ele>1487.79</ele>
        <time>2024-10-24T09:21:24.813Z</time>
      </trkpt>
      <trkpt lat="44.51061" lon="6.24685">
        <ele>1488.18</ele>
        <time>2024-10-24T09:21:26.806Z</time>
      </trkpt>
      <trkpt lat="44.51061" lon="6.24688">
        <ele>1489.11</ele>
        <time>2024-10-24T09:21:28.807Z</time>
      </trkpt>
      <trkpt lat="44.51061" lon="6.24693">
        <ele>1489.56</ele>
        <time>2024-10-24T09:21:30.813Z</time>
      </trkpt>
      <trkpt lat="44.5106" lon="6.24698">
        <ele>1490.22</ele>
        <time>2024-10-24T09:21:32.806Z</time>
      </trkpt>
      <trkpt lat="44.5106" lon="6.24704">
        <ele>1490.33</ele>
        <time>2024-10-24T09:21:34.804Z</time>
      </trkpt>
      <trkpt lat="44.5106" lon="6.24713">
        <ele>1491.07</ele>
        <time>2024-10-24T09:21:36.868Z</time>
      </trkpt>
      <trkpt lat="44.5106" lon="6.24721">
        <ele>1491.55</ele>
        <time>2024-10-24T09:21:38.805Z</time>
      </trkpt>
      <trkpt lat="44.5106" lon="6.24728">
        <ele>1492.26</ele>
        <time>2024-10-24T09:21:40.805Z</time>
      </trkpt>
      <trkpt lat="44.51059" lon="6.24734">
        <ele>1493.22</ele>
        <time>2024-10-24T09:21:42.805Z</time>
      </trkpt>
      <trkpt lat="44.51059" lon="6.2474">
        <ele>1493.53</ele>
        <time>2024-10-24T09:21:44.806Z</time>
      </trkpt>
      <trkpt lat="44.51058" lon="6.24746">
        <ele>1494.05</ele>
        <time>2024-10-24T09:21:46.805Z</time>
      </trkpt>
      <trkpt lat="44.51057" lon="6.24752">
        <ele>1494.65</ele>
        <time>2024-10-24T09:21:48.804Z</time>
      </trkpt>
      <trkpt lat="44.51057" lon="6.24757">
        <ele>1495.39</ele>
        <time>2024-10-24T09:21:50.805Z</time>
      </trkpt>
      <trkpt lat="44.51057" lon="6.24762">
        <ele>1496.01</ele>
        <time>2024-10-24T09:21:52.804Z</time>
      </trkpt>
      <trkpt lat="44.51057" lon="6.24767">
        <ele>1496.69</ele>
        <time>2024-10-24T09:21:54.904Z</time>
      </trkpt>
      <trkpt lat="44.51056" lon="6.24773">
        <ele>1496.91</ele>
        <time>2024-10-24T09:21:56.678Z</time>
      </trkpt>
      <trkpt lat="44.51056" lon="6.24777">
        <ele>1497.58</ele>
        <time>2024-10-24T09:21:58.905Z</time>
      </trkpt>
      <trkpt lat="44.51056" lon="6.24781">
        <ele>1498.13</ele>
        <time>2024-10-24T09:22:00.880Z</time>
      </trkpt>
      <trkpt lat="44.51054" lon="6.24785">
        <ele>1498.7</ele>
        <time>2024-10-24T09:22:02.904Z</time>
      </trkpt>
      <trkpt lat="44.51053" lon="6.24791">
        <ele>1499.29</ele>
        <time>2024-10-24T09:22:04.808Z</time>
      </trkpt>
      <trkpt lat="44.51052" lon="6.24796">
        <ele>1499.87</ele>
        <time>2024-10-24T09:22:06.883Z</time>
      </trkpt>
      <trkpt lat="44.5105" lon="6.24801">
        <ele>1500.44</ele>
        <time>2024-10-24T09:22:08.905Z</time>
      </trkpt>
      <trkpt lat="44.51049" lon="6.24807">
        <ele>1501.06</ele>
        <time>2024-10-24T09:22:10.408Z</time>
      </trkpt>
      <trkpt lat="44.51048" lon="6.24812">
        <ele>1501.57</ele>
        <time>2024-10-24T09:22:12.905Z</time>
      </trkpt>
      <trkpt lat="44.51046" lon="6.24818">
        <ele>1502.03</ele>
        <time>2024-10-24T09:22:14.905Z</time>
      </trkpt>
      <trkpt lat="44.51045" lon="6.24823">
        <ele>1502.57</ele>
        <time>2024-10-24T09:22:16.905Z</time>
      </trkpt>
      <trkpt lat="44.51044" lon="6.24829">
        <ele>1503.17</ele>
        <time>2024-10-24T09:22:18.723Z</time>
      </trkpt>
      <trkpt lat="44.51043" lon="6.24835">
        <ele>1503.69</ele>
        <time>2024-10-24T09:22:20.905Z</time>
      </trkpt>
      <trkpt lat="44.51041" lon="6.24839">
        <ele>1504.34</ele>
        <time>2024-10-24T09:22:22.904Z</time>
      </trkpt>
      <trkpt lat="44.51039" lon="6.24844">
        <ele>1504.83</ele>
        <time>2024-10-24T09:22:24.904Z</time>
      </trkpt>
      <trkpt lat="44.51037" lon="6.2485">
        <ele>1505.19</ele>
        <time>2024-10-24T09:22:26.906Z</time>
      </trkpt>
      <trkpt lat="44.51035" lon="6.24856">
        <ele>1505.71</ele>
        <time>2024-10-24T09:22:28.816Z</time>
      </trkpt>
      <trkpt lat="44.51033" lon="6.24863">
        <ele>1506.05</ele>
        <time>2024-10-24T09:22:30.905Z</time>
      </trkpt>
      <trkpt lat="44.51032" lon="6.2487">
        <ele>1506.58</ele>
        <time>2024-10-24T09:22:32.904Z</time>
      </trkpt>
      <trkpt lat="44.51031" lon="6.24877">
        <ele>1507.21</ele>
        <time>2024-10-24T09:22:34.904Z</time>
      </trkpt>
      <trkpt lat="44.51028" lon="6.24883">
        <ele>1507.99</ele>
        <time>2024-10-24T09:22:36.904Z</time>
      </trkpt>
      <trkpt lat="44.51025" lon="6.24891">
        <ele>1508.25</ele>
        <time>2024-10-24T09:22:38.904Z</time>
      </trkpt>
      <trkpt lat="44.51021" lon="6.24897">
        <ele>1508.51</ele>
        <time>2024-10-24T09:22:40.947Z</time>
      </trkpt>
      <trkpt lat="44.51018" lon="6.24903">
        <ele>1508.94</ele>
        <time>2024-10-24T09:22:42.906Z</time>
      </trkpt>
      <trkpt lat="44.51015" lon="6.2491">
        <ele>1509.48</ele>
        <time>2024-10-24T09:22:44.906Z</time>
      </trkpt>
      <trkpt lat="44.51012" lon="6.24917">
        <ele>1509.88</ele>
        <time>2024-10-24T09:22:46.465Z</time>
      </trkpt>
      <trkpt lat="44.5101" lon="6.24922">
        <ele>1510.25</ele>
        <time>2024-10-24T09:22:48.905Z</time>
      </trkpt>
      <trkpt lat="44.51008" lon="6.24925">
        <ele>1510.77</ele>
        <time>2024-10-24T09:22:50.905Z</time>
      </trkpt>
      <trkpt lat="44.51006" lon="6.24929">
        <ele>1511.41</ele>
        <time>2024-10-24T09:22:52.459Z</time>
      </trkpt>
      <trkpt lat="44.51001" lon="6.24933">
        <ele>1511.88</ele>
        <time>2024-10-24T09:22:54.905Z</time>
      </trkpt>
      <trkpt lat="44.50998" lon="6.24938">
        <ele>1512.33</ele>
        <time>2024-10-24T09:22:56.904Z</time>
      </trkpt>
      <trkpt lat="44.50996" lon="6.24944">
        <ele>1512.69</ele>
        <time>2024-10-24T09:22:58.904Z</time>
      </trkpt>
      <trkpt lat="44.50993" lon="6.24949">
        <ele>1513.47</ele>
        <time>2024-10-24T09:23:00.904Z</time>
      </trkpt>
      <trkpt lat="44.50989" lon="6.24953">
        <ele>1514.15</ele>
        <time>2024-10-24T09:23:02.460Z</time>
      </trkpt>
      <trkpt lat="44.50985" lon="6.24956">
        <ele>1514.73</ele>
        <time>2024-10-24T09:23:04.905Z</time>
      </trkpt>
      <trkpt lat="44.50983" lon="6.2496">
        <ele>1515.15</ele>
        <time>2024-10-24T09:23:06.907Z</time>
      </trkpt>
      <trkpt lat="44.5098" lon="6.24963">
        <ele>1515.66</ele>
        <time>2024-10-24T09:23:08.702Z</time>
      </trkpt>
      <trkpt lat="44.50978" lon="6.24967">
        <ele>1516.31</ele>
        <time>2024-10-24T09:23:10.904Z</time>
      </trkpt>
      <trkpt lat="44.50976" lon="6.2497">
        <ele>1516.77</ele>
        <time>2024-10-24T09:23:12.905Z</time>
      </trkpt>
      <trkpt lat="44.50974" lon="6.24973">
        <ele>1517.38</ele>
        <time>2024-10-24T09:23:14.905Z</time>
      </trkpt>
      <trkpt lat="44.5097" lon="6.24976">
        <ele>1517.9</ele>
        <time>2024-10-24T09:23:16.904Z</time>
      </trkpt>
      <trkpt lat="44.50967" lon="6.24981">
        <ele>1518.53</ele>
        <time>2024-10-24T09:23:18.906Z</time>
      </trkpt>
      <trkpt lat="44.50965" lon="6.24986">
        <ele>1518.93</ele>
        <time>2024-10-24T09:23:20.904Z</time>
      </trkpt>
      <trkpt lat="44.50961" lon="6.24991">
        <ele>1519.45</ele>
        <time>2024-10-24T09:23:22.906Z</time>
      </trkpt>
      <trkpt lat="44.50957" lon="6.24995">
        <ele>1519.93</ele>
        <time>2024-10-24T09:23:24.905Z</time>
      </trkpt>
      <trkpt lat="44.50954" lon="6.24998">
        <ele>1520.16</ele>
        <time>2024-10-24T09:23:26.904Z</time>
      </trkpt>
      <trkpt lat="44.50951" lon="6.25001">
        <ele>1520.26</ele>
        <time>2024-10-24T09:23:28.904Z</time>
      </trkpt>
      <trkpt lat="44.50947" lon="6.25003">
        <ele>1521.07</ele>
        <time>2024-10-24T09:23:31.007Z</time>
      </trkpt>
      <trkpt lat="44.50943" lon="6.25005">
        <ele>1521.72</ele>
        <time>2024-10-24T09:23:32.837Z</time>
      </trkpt>
      <trkpt lat="44.50939" lon="6.25008">
        <ele>1522.27</ele>
        <time>2024-10-24T09:23:35.007Z</time>
      </trkpt>
      <trkpt lat="44.50936" lon="6.2501">
        <ele>1523.1</ele>
        <time>2024-10-24T09:23:36.940Z</time>
      </trkpt>
      <trkpt lat="44.50934" lon="6.25012">
        <ele>1523.7</ele>
        <time>2024-10-24T09:23:39.005Z</time>
      </trkpt>
      <trkpt lat="44.50932" lon="6.25014">
        <ele>1523.7</ele>
        <time>2024-10-24T09:23:40.666Z</time>
      </trkpt>
      <trkpt lat="44.50928" lon="6.25015">
        <ele>1525.36</ele>
        <time>2024-10-24T09:23:42.025Z</time>
      </trkpt>
      <trkpt lat="44.50923" lon="6.25017">
        <ele>1526.27</ele>
        <time>2024-10-24T09:23:44.042Z</time>
      </trkpt>
      <trkpt lat="44.50919" lon="6.2502">
        <ele>1527.05</ele>
        <time>2024-10-24T09:23:46.071Z</time>
      </trkpt>
      <trkpt lat="44.50916" lon="6.25022">
        <ele>1527.73</ele>
        <time>2024-10-24T09:23:48.069Z</time>
      </trkpt>
      <trkpt lat="44.50912" lon="6.25023">
        <ele>1528.47</ele>
        <time>2024-10-24T09:23:50.914Z</time>
      </trkpt>
      <trkpt lat="44.50908" lon="6.25024">
        <ele>1529.29</ele>
        <time>2024-10-24T09:23:53.008Z</time>
      </trkpt>
      <trkpt lat="44.50904" lon="6.25026">
        <ele>1529.86</ele>
        <time>2024-10-24T09:23:55.006Z</time>
      </trkpt>
      <trkpt lat="44.50899" lon="6.25029">
        <ele>1530.55</ele>
        <time>2024-10-24T09:23:57.006Z</time>
      </trkpt>
      <trkpt lat="44.50895" lon="6.25033">
        <ele>1531.3</ele>
        <time>2024-10-24T09:23:59.005Z</time>
      </trkpt>
      <trkpt lat="44.50891" lon="6.25036">
        <ele>1532.29</ele>
        <time>2024-10-24T09:24:01.004Z</time>
      </trkpt>
      <trkpt lat="44.50888" lon="6.2504">
        <ele>1532.84</ele>
        <time>2024-10-24T09:24:03.005Z</time>
      </trkpt>
      <trkpt lat="44.50885" lon="6.25044">
        <ele>1533.63</ele>
        <time>2024-10-24T09:24:05.006Z</time>
      </trkpt>
      <trkpt lat="44.50882" lon="6.25047">
        <ele>1534.2</ele>
        <time>2024-10-24T09:24:07.005Z</time>
      </trkpt>
      <trkpt lat="44.50879" lon="6.25052">
        <ele>1534.77</ele>
        <time>2024-10-24T09:24:08.925Z</time>
      </trkpt>
      <trkpt lat="44.50877" lon="6.25056">
        <ele>1535.28</ele>
        <time>2024-10-24T09:24:11.005Z</time>
      </trkpt>
      <trkpt lat="44.50874" lon="6.2506">
        <ele>1535.97</ele>
        <time>2024-10-24T09:24:13.007Z</time>
      </trkpt>
      <trkpt lat="44.50871" lon="6.25063">
        <ele>1536.56</ele>
        <time>2024-10-24T09:24:14.607Z</time>
      </trkpt>
      <trkpt lat="44.50867" lon="6.25065">
        <ele>1537.36</ele>
        <time>2024-10-24T09:24:17.005Z</time>
      </trkpt>
      <trkpt lat="44.50863" lon="6.25067">
        <ele>1537.83</ele>
        <time>2024-10-24T09:24:19.005Z</time>
      </trkpt>
      <trkpt lat="44.50859" lon="6.25069">
        <ele>1538.59</ele>
        <time>2024-10-24T09:24:20.894Z</time>
      </trkpt>
      <trkpt lat="44.50855" lon="6.25073">
        <ele>1539.36</ele>
        <time>2024-10-24T09:24:23.005Z</time>
      </trkpt>
      <trkpt lat="44.50851" lon="6.25076">
        <ele>1539.83</ele>
        <time>2024-10-24T09:24:25.004Z</time>
      </trkpt>
      <trkpt lat="44.50848" lon="6.25081">
        <ele>1540.54</ele>
        <time>2024-10-24T09:24:27.009Z</time>
      </trkpt>
      <trkpt lat="44.50845" lon="6.25087">
        <ele>1541.18</ele>
        <time>2024-10-24T09:24:29.005Z</time>
      </trkpt>
      <trkpt lat="44.50842" lon="6.25092">
        <ele>1541.64</ele>
        <time>2024-10-24T09:24:31.004Z</time>
      </trkpt>
      <trkpt lat="44.5084" lon="6.25096">
        <ele>1542.06</ele>
        <time>2024-10-24T09:24:33.006Z</time>
      </trkpt>
      <trkpt lat="44.50841" lon="6.25099">
        <ele>1545.02</ele>
        <time>2024-10-24T09:24:45.253Z</time>
      </trkpt>
      <trkpt lat="44.50837" lon="6.25103">
        <ele>1545.51</ele>
        <time>2024-10-24T09:24:49.252Z</time>
      </trkpt>
      <trkpt lat="44.50838" lon="6.25102">
        <ele>1545.75</ele>
        <time>2024-10-24T09:24:51.253Z</time>
      </trkpt>
      <trkpt lat="44.5084" lon="6.25101">
        <ele>1546.12</ele>
        <time>2024-10-24T09:24:54.157Z</time>
      </trkpt>
      <trkpt lat="44.50842" lon="6.25102">
        <ele>1546.34</ele>
        <time>2024-10-24T09:24:56.158Z</time>
      </trkpt>
      <trkpt lat="44.50844" lon="6.25105">
        <ele>1549.16</ele>
        <time>2024-10-24T09:26:18.086Z</time>
      </trkpt>
      <trkpt lat="44.50839" lon="6.2511">
        <ele>1549.33</ele>
        <time>2024-10-24T09:26:22.189Z</time>
      </trkpt>
      <trkpt lat="44.50835" lon="6.25114">
        <ele>1549.37</ele>
        <time>2024-10-24T09:26:25.163Z</time>
      </trkpt>
      <trkpt lat="44.50832" lon="6.25119">
        <ele>1549.45</ele>
        <time>2024-10-24T09:26:27.054Z</time>
      </trkpt>
      <trkpt lat="44.50826" lon="6.25126">
        <ele>1549.53</ele>
        <time>2024-10-24T09:26:28.260Z</time>
      </trkpt>
      <trkpt lat="44.5082" lon="6.25133">
        <ele>1549.6</ele>
        <time>2024-10-24T09:26:31.176Z</time>
      </trkpt>
      <trkpt lat="44.50815" lon="6.2514">
        <ele>1549.68</ele>
        <time>2024-10-24T09:26:32.199Z</time>
      </trkpt>
      <trkpt lat="44.5081" lon="6.25148">
        <ele>1549.72</ele>
        <time>2024-10-24T09:26:35.173Z</time>
      </trkpt>
      <trkpt lat="44.50805" lon="6.25157">
        <ele>1549.75</ele>
        <time>2024-10-24T09:26:36.200Z</time>
      </trkpt>
      <trkpt lat="44.50799" lon="6.2517">
        <ele>1549.75</ele>
        <time>2024-10-24T09:26:39.137Z</time>
      </trkpt>
      <trkpt lat="44.5079" lon="6.25179">
        <ele>1549.7</ele>
        <time>2024-10-24T09:26:41.170Z</time>
      </trkpt>
      <trkpt lat="44.50784" lon="6.25188">
        <ele>1549.7</ele>
        <time>2024-10-24T09:26:42.261Z</time>
      </trkpt>
      <trkpt lat="44.50778" lon="6.25196">
        <ele>1549.77</ele>
        <time>2024-10-24T09:26:45.204Z</time>
      </trkpt>
      <trkpt lat="44.50774" lon="6.25202">
        <ele>1549.84</ele>
        <time>2024-10-24T09:26:46.371Z</time>
      </trkpt>
      <trkpt lat="44.50768" lon="6.25207">
        <ele>1549.92</ele>
        <time>2024-10-24T09:26:48.209Z</time>
      </trkpt>
      <trkpt lat="44.50761" lon="6.25214">
        <ele>1550</ele>
        <time>2024-10-24T09:26:51.176Z</time>
      </trkpt>
      <trkpt lat="44.50754" lon="6.25222">
        <ele>1550.09</ele>
        <time>2024-10-24T09:26:53.186Z</time>
      </trkpt>
      <trkpt lat="44.50747" lon="6.2523">
        <ele>1550.14</ele>
        <time>2024-10-24T09:26:55.185Z</time>
      </trkpt>
      <trkpt lat="44.5074" lon="6.25239">
        <ele>1550.18</ele>
        <time>2024-10-24T09:26:57.185Z</time>
      </trkpt>
      <trkpt lat="44.50731" lon="6.25248">
        <ele>1550.21</ele>
        <time>2024-10-24T09:26:59.185Z</time>
      </trkpt>
      <trkpt lat="44.50722" lon="6.25259">
        <ele>1550.26</ele>
        <time>2024-10-24T09:27:01.186Z</time>
      </trkpt>
      <trkpt lat="44.50715" lon="6.25271">
        <ele>1550.23</ele>
        <time>2024-10-24T09:27:03.186Z</time>
      </trkpt>
      <trkpt lat="44.50708" lon="6.25282">
        <ele>1550.22</ele>
        <time>2024-10-24T09:27:05.189Z</time>
      </trkpt>
      <trkpt lat="44.50703" lon="6.25294">
        <ele>1550.29</ele>
        <time>2024-10-24T09:27:07.218Z</time>
      </trkpt>
      <trkpt lat="44.50699" lon="6.25306">
        <ele>1550.32</ele>
        <time>2024-10-24T09:27:09.186Z</time>
      </trkpt>
      <trkpt lat="44.50692" lon="6.25316">
        <ele>1550.34</ele>
        <time>2024-10-24T09:27:11.185Z</time>
      </trkpt>
      <trkpt lat="44.50684" lon="6.25323">
        <ele>1550.32</ele>
        <time>2024-10-24T09:27:12.885Z</time>
      </trkpt>
      <trkpt lat="44.50678" lon="6.25332">
        <ele>1550.32</ele>
        <time>2024-10-24T09:27:15.186Z</time>
      </trkpt>
      <trkpt lat="44.50674" lon="6.25345">
        <ele>1550.38</ele>
        <time>2024-10-24T09:27:17.181Z</time>
      </trkpt>
      <trkpt lat="44.5067" lon="6.25359">
        <ele>1550.4</ele>
        <time>2024-10-24T09:27:19.234Z</time>
      </trkpt>
      <trkpt lat="44.50667" lon="6.25369">
        <ele>1550.47</ele>
        <time>2024-10-24T09:27:21.186Z</time>
      </trkpt>
      <trkpt lat="44.50664" lon="6.2538">
        <ele>1550.53</ele>
        <time>2024-10-24T09:27:23.215Z</time>
      </trkpt>
      <trkpt lat="44.50661" lon="6.25393">
        <ele>1550.58</ele>
        <time>2024-10-24T09:27:25.185Z</time>
      </trkpt>
      <trkpt lat="44.50659" lon="6.25406">
        <ele>1550.69</ele>
        <time>2024-10-24T09:27:27.184Z</time>
      </trkpt>
      <trkpt lat="44.50658" lon="6.25416">
        <ele>1550.8</ele>
        <time>2024-10-24T09:27:29.185Z</time>
      </trkpt>
      <trkpt lat="44.50658" lon="6.25428">
        <ele>1550.86</ele>
        <time>2024-10-24T09:27:31.184Z</time>
      </trkpt>
      <trkpt lat="44.50656" lon="6.25441">
        <ele>1550.96</ele>
        <time>2024-10-24T09:27:33.184Z</time>
      </trkpt>
      <trkpt lat="44.50655" lon="6.25457">
        <ele>1551</ele>
        <time>2024-10-24T09:27:35.187Z</time>
      </trkpt>
      <trkpt lat="44.50655" lon="6.25476">
        <ele>1551.03</ele>
        <time>2024-10-24T09:27:37.184Z</time>
      </trkpt>
      <trkpt lat="44.50652" lon="6.25495">
        <ele>1551.04</ele>
        <time>2024-10-24T09:27:39.187Z</time>
      </trkpt>
      <trkpt lat="44.50648" lon="6.25515">
        <ele>1550.99</ele>
        <time>2024-10-24T09:27:41.186Z</time>
      </trkpt>
      <trkpt lat="44.50644" lon="6.25532">
        <ele>1550.92</ele>
        <time>2024-10-24T09:27:43.184Z</time>
      </trkpt>
      <trkpt lat="44.50637" lon="6.2555">
        <ele>1550.89</ele>
        <time>2024-10-24T09:27:45.186Z</time>
      </trkpt>
      <trkpt lat="44.50633" lon="6.25566">
        <ele>1550.81</ele>
        <time>2024-10-24T09:27:47.187Z</time>
      </trkpt>
      <trkpt lat="44.50629" lon="6.25585">
        <ele>1550.73</ele>
        <time>2024-10-24T09:27:49.187Z</time>
      </trkpt>
      <trkpt lat="44.50624" lon="6.25605">
        <ele>1550.63</ele>
        <time>2024-10-24T09:27:51.185Z</time>
      </trkpt>
      <trkpt lat="44.50618" lon="6.25624">
        <ele>1550.51</ele>
        <time>2024-10-24T09:27:53.187Z</time>
      </trkpt>
      <trkpt lat="44.50609" lon="6.25644">
        <ele>1550.37</ele>
        <time>2024-10-24T09:27:55.184Z</time>
      </trkpt>
      <trkpt lat="44.50602" lon="6.25662">
        <ele>1550.31</ele>
        <time>2024-10-24T09:27:57.186Z</time>
      </trkpt>
      <trkpt lat="44.50595" lon="6.2568">
        <ele>1550.07</ele>
        <time>2024-10-24T09:27:59.186Z</time>
      </trkpt>
      <trkpt lat="44.5059" lon="6.25696">
        <ele>1549.86</ele>
        <time>2024-10-24T09:28:01.185Z</time>
      </trkpt>
      <trkpt lat="44.50587" lon="6.25712">
        <ele>1549.62</ele>
        <time>2024-10-24T09:28:03.221Z</time>
      </trkpt>
      <trkpt lat="44.50585" lon="6.25729">
        <ele>1549.37</ele>
        <time>2024-10-24T09:28:05.286Z</time>
      </trkpt>
      <trkpt lat="44.50581" lon="6.25746">
        <ele>1549.14</ele>
        <time>2024-10-24T09:28:07.290Z</time>
      </trkpt>
      <trkpt lat="44.50575" lon="6.25762">
        <ele>1548.81</ele>
        <time>2024-10-24T09:28:09.287Z</time>
      </trkpt>
      <trkpt lat="44.50571" lon="6.25776">
        <ele>1548.49</ele>
        <time>2024-10-24T09:28:11.285Z</time>
      </trkpt>
      <trkpt lat="44.5057" lon="6.2579">
        <ele>1548.04</ele>
        <time>2024-10-24T09:28:13.287Z</time>
      </trkpt>
      <trkpt lat="44.50573" lon="6.2581">
        <ele>1547.54</ele>
        <time>2024-10-24T09:28:15.287Z</time>
      </trkpt>
      <trkpt lat="44.50573" lon="6.2583">
        <ele>1546.94</ele>
        <time>2024-10-24T09:28:17.284Z</time>
      </trkpt>
      <trkpt lat="44.50569" lon="6.25848">
        <ele>1546.21</ele>
        <time>2024-10-24T09:28:19.287Z</time>
      </trkpt>
      <trkpt lat="44.50569" lon="6.25867">
        <ele>1545.36</ele>
        <time>2024-10-24T09:28:21.286Z</time>
      </trkpt>
      <trkpt lat="44.50571" lon="6.25887">
        <ele>1544.5</ele>
        <time>2024-10-24T09:28:23.289Z</time>
      </trkpt>
      <trkpt lat="44.50573" lon="6.25908">
        <ele>1543.48</ele>
        <time>2024-10-24T09:28:25.285Z</time>
      </trkpt>
      <trkpt lat="44.50572" lon="6.25928">
        <ele>1542.46</ele>
        <time>2024-10-24T09:28:27.286Z</time>
      </trkpt>
      <trkpt lat="44.50568" lon="6.25949">
        <ele>1541.37</ele>
        <time>2024-10-24T09:28:29.285Z</time>
      </trkpt>
      <trkpt lat="44.50562" lon="6.25969">
        <ele>1540.15</ele>
        <time>2024-10-24T09:28:31.287Z</time>
      </trkpt>
      <trkpt lat="44.50557" lon="6.25988">
        <ele>1538.94</ele>
        <time>2024-10-24T09:28:33.285Z</time>
      </trkpt>
      <trkpt lat="44.5055" lon="6.26006">
        <ele>1537.62</ele>
        <time>2024-10-24T09:28:35.285Z</time>
      </trkpt>
      <trkpt lat="44.50546" lon="6.26032">
        <ele>1536.6</ele>
        <time>2024-10-24T09:28:37.286Z</time>
      </trkpt>
      <trkpt lat="44.5054" lon="6.26048">
        <ele>1535.32</ele>
        <time>2024-10-24T09:28:39.288Z</time>
      </trkpt>
      <trkpt lat="44.50537" lon="6.26057">
        <ele>1533.88</ele>
        <time>2024-10-24T09:28:41.285Z</time>
      </trkpt>
      <trkpt lat="44.50535" lon="6.26059">
        <ele>1532.47</ele>
        <time>2024-10-24T09:28:43.285Z</time>
      </trkpt>
      <trkpt lat="44.50529" lon="6.26057">
        <ele>1532.47</ele>
        <time>2024-10-24T09:28:45.285Z</time>
      </trkpt>
      <trkpt lat="44.50528" lon="6.26061">
        <ele>1529.85</ele>
        <time>2024-10-24T09:28:47.285Z</time>
      </trkpt>
      <trkpt lat="44.50522" lon="6.26077">
        <ele>1527.65</ele>
        <time>2024-10-24T09:34:21.632Z</time>
      </trkpt>
      <trkpt lat="44.50523" lon="6.2608">
        <ele>1527.65</ele>
        <time>2024-10-24T09:34:23.672Z</time>
      </trkpt>
      <trkpt lat="44.50526" lon="6.26087">
        <ele>1527.65</ele>
        <time>2024-10-24T09:34:25.637Z</time>
      </trkpt>
      <trkpt lat="44.50527" lon="6.26092">
        <ele>1527.65</ele>
        <time>2024-10-24T09:34:26.652Z</time>
      </trkpt>
      <trkpt lat="44.50529" lon="6.26108">
        <ele>1527.65</ele>
        <time>2024-10-24T09:34:28.649Z</time>
      </trkpt>
      <trkpt lat="44.5053" lon="6.26117">
        <ele>1527.65</ele>
        <time>2024-10-24T09:34:30.652Z</time>
      </trkpt>
      <trkpt lat="44.50533" lon="6.26124">
        <ele>1527.65</ele>
        <time>2024-10-24T09:34:32.654Z</time>
      </trkpt>
      <trkpt lat="44.50538" lon="6.26139">
        <ele>1527.65</ele>
        <time>2024-10-24T09:34:34.653Z</time>
      </trkpt>
      <trkpt lat="44.50546" lon="6.26154">
        <ele>1527.65</ele>
        <time>2024-10-24T09:34:36.652Z</time>
      </trkpt>
      <trkpt lat="44.5055" lon="6.2617">
        <ele>1527.65</ele>
        <time>2024-10-24T09:34:38.652Z</time>
      </trkpt>
      <trkpt lat="44.50551" lon="6.2619">
        <ele>1527.65</ele>
        <time>2024-10-24T09:34:40.652Z</time>
      </trkpt>
      <trkpt lat="44.50554" lon="6.26212">
        <ele>1494.33</ele>
        <time>2024-10-24T09:34:42.652Z</time>
      </trkpt>
      <trkpt lat="44.50556" lon="6.26232">
        <ele>1493.75</ele>
        <time>2024-10-24T09:34:43.747Z</time>
      </trkpt>
      <trkpt lat="44.50555" lon="6.26247">
        <ele>1493.09</ele>
        <time>2024-10-24T09:34:46.652Z</time>
      </trkpt>
      <trkpt lat="44.50553" lon="6.2626">
        <ele>1492.38</ele>
        <time>2024-10-24T09:34:48.652Z</time>
      </trkpt>
      <trkpt lat="44.50552" lon="6.26271">
        <ele>1491.55</ele>
        <time>2024-10-24T09:34:50.652Z</time>
      </trkpt>
      <trkpt lat="44.50548" lon="6.26282">
        <ele>1490.68</ele>
        <time>2024-10-24T09:34:52.652Z</time>
      </trkpt>
      <trkpt lat="44.50547" lon="6.26297">
        <ele>1489.62</ele>
        <time>2024-10-24T09:34:54.652Z</time>
      </trkpt>
      <trkpt lat="44.50549" lon="6.26311">
        <ele>1488.46</ele>
        <time>2024-10-24T09:34:56.654Z</time>
      </trkpt>
      <trkpt lat="44.50553" lon="6.26324">
        <ele>1487.1</ele>
        <time>2024-10-24T09:34:58.652Z</time>
      </trkpt>
      <trkpt lat="44.50555" lon="6.26334">
        <ele>1485.6</ele>
        <time>2024-10-24T09:35:00.652Z</time>
      </trkpt>
      <trkpt lat="44.50554" lon="6.26346">
        <ele>1483.9</ele>
        <time>2024-10-24T09:35:02.652Z</time>
      </trkpt>
      <trkpt lat="44.50552" lon="6.26358">
        <ele>1482.2</ele>
        <time>2024-10-24T09:35:04.652Z</time>
      </trkpt>
      <trkpt lat="44.50552" lon="6.2637">
        <ele>1480.22</ele>
        <time>2024-10-24T09:35:06.674Z</time>
      </trkpt>
      <trkpt lat="44.50549" lon="6.26384">
        <ele>1478.19</ele>
        <time>2024-10-24T09:35:08.652Z</time>
      </trkpt>
      <trkpt lat="44.50547" lon="6.264">
        <ele>1475.92</ele>
        <time>2024-10-24T09:35:10.654Z</time>
      </trkpt>
      <trkpt lat="44.50547" lon="6.26417">
        <ele>1473.38</ele>
        <time>2024-10-24T09:35:12.654Z</time>
      </trkpt>
      <trkpt lat="44.50549" lon="6.26433">
        <ele>1470.62</ele>
        <time>2024-10-24T09:35:14.653Z</time>
      </trkpt>
      <trkpt lat="44.50553" lon="6.26448">
        <ele>1467.86</ele>
        <time>2024-10-24T09:35:16.653Z</time>
      </trkpt>
      <trkpt lat="44.5056" lon="6.26465">
        <ele>1465.22</ele>
        <time>2024-10-24T09:35:17.748Z</time>
      </trkpt>
      <trkpt lat="44.50569" lon="6.26484">
        <ele>1462.16</ele>
        <time>2024-10-24T09:35:19.750Z</time>
      </trkpt>
      <trkpt lat="44.50574" lon="6.26502">
        <ele>1459.15</ele>
        <time>2024-10-24T09:35:22.651Z</time>
      </trkpt>
      <trkpt lat="44.50579" lon="6.2652">
        <ele>1456.08</ele>
        <time>2024-10-24T09:35:23.751Z</time>
      </trkpt>
      <trkpt lat="44.50584" lon="6.26542">
        <ele>1453.02</ele>
        <time>2024-10-24T09:35:26.653Z</time>
      </trkpt>
      <trkpt lat="44.50587" lon="6.26566">
        <ele>1450.05</ele>
        <time>2024-10-24T09:35:28.654Z</time>
      </trkpt>
      <trkpt lat="44.50586" lon="6.26585">
        <ele>1447.01</ele>
        <time>2024-10-24T09:35:29.744Z</time>
      </trkpt>
      <trkpt lat="44.50583" lon="6.26601">
        <ele>1444.36</ele>
        <time>2024-10-24T09:35:32.654Z</time>
      </trkpt>
      <trkpt lat="44.50586" lon="6.26616">
        <ele>1441.69</ele>
        <time>2024-10-24T09:35:34.654Z</time>
      </trkpt>
      <trkpt lat="44.50593" lon="6.2663">
        <ele>1439.15</ele>
        <time>2024-10-24T09:35:36.654Z</time>
      </trkpt>
      <trkpt lat="44.50594" lon="6.26639">
        <ele>1436.59</ele>
        <time>2024-10-24T09:35:38.652Z</time>
      </trkpt>
      <trkpt lat="44.5059" lon="6.26648">
        <ele>1434.07</ele>
        <time>2024-10-24T09:35:40.652Z</time>
      </trkpt>
      <trkpt lat="44.50586" lon="6.26658">
        <ele>1431.49</ele>
        <time>2024-10-24T09:35:42.652Z</time>
      </trkpt>
      <trkpt lat="44.50586" lon="6.26671">
        <ele>1428.85</ele>
        <time>2024-10-24T09:35:43.777Z</time>
      </trkpt>
      <trkpt lat="44.50584" lon="6.26687">
        <ele>1426.46</ele>
        <time>2024-10-24T09:35:45.753Z</time>
      </trkpt>
      <trkpt lat="44.50582" lon="6.26702">
        <ele>1423.95</ele>
        <time>2024-10-24T09:35:47.758Z</time>
      </trkpt>
      <trkpt lat="44.50576" lon="6.26715">
        <ele>1421.36</ele>
        <time>2024-10-24T09:35:49.754Z</time>
      </trkpt>
      <trkpt lat="44.50574" lon="6.26735">
        <ele>1418.79</ele>
        <time>2024-10-24T09:35:51.754Z</time>
      </trkpt>
      <trkpt lat="44.50578" lon="6.26756">
        <ele>1416.08</ele>
        <time>2024-10-24T09:35:53.762Z</time>
      </trkpt>
      <trkpt lat="44.50575" lon="6.26772">
        <ele>1413.59</ele>
        <time>2024-10-24T09:35:55.752Z</time>
      </trkpt>
      <trkpt lat="44.50573" lon="6.26785">
        <ele>1410.91</ele>
        <time>2024-10-24T09:35:57.753Z</time>
      </trkpt>
      <trkpt lat="44.5057" lon="6.26793">
        <ele>1408.38</ele>
        <time>2024-10-24T09:36:00.289Z</time>
      </trkpt>
      <trkpt lat="44.50565" lon="6.26805">
        <ele>1405.92</ele>
        <time>2024-10-24T09:36:01.771Z</time>
      </trkpt>
      <trkpt lat="44.50565" lon="6.2682">
        <ele>1403.58</ele>
        <time>2024-10-24T09:36:03.770Z</time>
      </trkpt>
      <trkpt lat="44.50565" lon="6.26833">
        <ele>1401.18</ele>
        <time>2024-10-24T09:36:05.331Z</time>
      </trkpt>
      <trkpt lat="44.50568" lon="6.26854">
        <ele>1398.63</ele>
        <time>2024-10-24T09:36:07.313Z</time>
      </trkpt>
      <trkpt lat="44.50569" lon="6.26877">
        <ele>1396.07</ele>
        <time>2024-10-24T09:36:09.326Z</time>
      </trkpt>
      <trkpt lat="44.50562" lon="6.26902">
        <ele>1393.92</ele>
        <time>2024-10-24T09:36:11.296Z</time>
      </trkpt>
      <trkpt lat="44.50556" lon="6.26919">
        <ele>1391.96</ele>
        <time>2024-10-24T09:36:13.775Z</time>
      </trkpt>
      <trkpt lat="44.50556" lon="6.26935">
        <ele>1389.85</ele>
        <time>2024-10-24T09:36:15.315Z</time>
      </trkpt>
      <trkpt lat="44.5056" lon="6.2695">
        <ele>1387.87</ele>
        <time>2024-10-24T09:36:17.339Z</time>
      </trkpt>
      <trkpt lat="44.50559" lon="6.26964">
        <ele>1386.1</ele>
        <time>2024-10-24T09:36:19.326Z</time>
      </trkpt>
      <trkpt lat="44.5056" lon="6.26981">
        <ele>1383.82</ele>
        <time>2024-10-24T09:36:21.309Z</time>
      </trkpt>
      <trkpt lat="44.50557" lon="6.26996">
        <ele>1381.85</ele>
        <time>2024-10-24T09:36:23.328Z</time>
      </trkpt>
      <trkpt lat="44.50554" lon="6.27014">
        <ele>1380.06</ele>
        <time>2024-10-24T09:36:25.313Z</time>
      </trkpt>
      <trkpt lat="44.50548" lon="6.27031">
        <ele>1378.19</ele>
        <time>2024-10-24T09:36:27.316Z</time>
      </trkpt>
      <trkpt lat="44.50544" lon="6.27047">
        <ele>1376.5</ele>
        <time>2024-10-24T09:36:29.779Z</time>
      </trkpt>
      <trkpt lat="44.50541" lon="6.27055">
        <ele>1374.5</ele>
        <time>2024-10-24T09:36:32.364Z</time>
      </trkpt>
      <trkpt lat="44.50544" lon="6.27064">
        <ele>1372.56</ele>
        <time>2024-10-24T09:36:33.435Z</time>
      </trkpt>
      <trkpt lat="44.50544" lon="6.27067">
        <ele>1362.34</ele>
        <time>2024-10-24T09:37:40.508Z</time>
      </trkpt>
      <trkpt lat="44.5055" lon="6.27065">
        <ele>1361.93</ele>
        <time>2024-10-24T09:37:44.476Z</time>
      </trkpt>
      <trkpt lat="44.5055" lon="6.27064">
        <ele>1361.23</ele>
        <time>2024-10-24T09:37:44.531Z</time>
      </trkpt>
      <trkpt lat="44.50562" lon="6.27058">
        <ele>1360.98</ele>
        <time>2024-10-24T09:37:46.522Z</time>
      </trkpt>
      <trkpt lat="44.50565" lon="6.2706">
        <ele>1360.61</ele>
        <time>2024-10-24T09:37:48.526Z</time>
      </trkpt>
      <trkpt lat="44.50566" lon="6.27065">
        <ele>1359.96</ele>
        <time>2024-10-24T09:37:50.523Z</time>
      </trkpt>
      <trkpt lat="44.50563" lon="6.27078">
        <ele>1359.56</ele>
        <time>2024-10-24T09:37:53.552Z</time>
      </trkpt>
      <trkpt lat="44.5056" lon="6.2709">
        <ele>1359.03</ele>
        <time>2024-10-24T09:37:55.284Z</time>
      </trkpt>
      <trkpt lat="44.50553" lon="6.27099">
        <ele>1358.38</ele>
        <time>2024-10-24T09:37:57.552Z</time>
      </trkpt>
      <trkpt lat="44.5055" lon="6.27104">
        <ele>1357.78</ele>
        <time>2024-10-24T09:37:59.554Z</time>
      </trkpt>
      <trkpt lat="44.5055" lon="6.2711">
        <ele>1357.1</ele>
        <time>2024-10-24T09:38:01.552Z</time>
      </trkpt>
      <trkpt lat="44.50554" lon="6.27113">
        <ele>1356.31</ele>
        <time>2024-10-24T09:38:03.629Z</time>
      </trkpt>
      <trkpt lat="44.50557" lon="6.27115">
        <ele>1355.58</ele>
        <time>2024-10-24T09:38:05.551Z</time>
      </trkpt>
      <trkpt lat="44.50556" lon="6.27118">
        <ele>1354.76</ele>
        <time>2024-10-24T09:38:07.553Z</time>
      </trkpt>
      <trkpt lat="44.50553" lon="6.27122">
        <ele>1354.02</ele>
        <time>2024-10-24T09:38:09.181Z</time>
      </trkpt>
      <trkpt lat="44.50552" lon="6.27128">
        <ele>1353.17</ele>
        <time>2024-10-24T09:38:11.223Z</time>
      </trkpt>
      <trkpt lat="44.50555" lon="6.27131">
        <ele>1352.35</ele>
        <time>2024-10-24T09:38:27.163Z</time>
      </trkpt>
      <trkpt lat="44.5056" lon="6.27134">
        <ele>1347.46</ele>
        <time>2024-10-24T09:38:29.725Z</time>
      </trkpt>
      <trkpt lat="44.50562" lon="6.27135">
        <ele>1347.18</ele>
        <time>2024-10-24T09:38:31.727Z</time>
      </trkpt>
      <trkpt lat="44.50565" lon="6.27136">
        <ele>1346.52</ele>
        <time>2024-10-24T09:38:33.728Z</time>
      </trkpt>
      <trkpt lat="44.50565" lon="6.2714">
        <ele>1345.73</ele>
        <time>2024-10-24T09:38:36.754Z</time>
      </trkpt>
      <trkpt lat="44.50558" lon="6.27146">
        <ele>1344.97</ele>
        <time>2024-10-24T09:38:37.724Z</time>
      </trkpt>
      <trkpt lat="44.5055" lon="6.27154">
        <ele>1344.36</ele>
        <time>2024-10-24T09:38:39.824Z</time>
      </trkpt>
      <trkpt lat="44.50542" lon="6.27156">
        <ele>1343.74</ele>
        <time>2024-10-24T09:38:41.827Z</time>
      </trkpt>
      <trkpt lat="44.50536" lon="6.27159">
        <ele>1342.96</ele>
        <time>2024-10-24T09:38:43.825Z</time>
      </trkpt>
      <trkpt lat="44.50534" lon="6.27164">
        <ele>1342.28</ele>
        <time>2024-10-24T09:38:45.825Z</time>
      </trkpt>
      <trkpt lat="44.50537" lon="6.27173">
        <ele>1341.37</ele>
        <time>2024-10-24T09:38:47.825Z</time>
      </trkpt>
      <trkpt lat="44.50541" lon="6.27181">
        <ele>1340.51</ele>
        <time>2024-10-24T09:38:49.824Z</time>
      </trkpt>
      <trkpt lat="44.50543" lon="6.27185">
        <ele>1339.64</ele>
        <time>2024-10-24T09:38:51.825Z</time>
      </trkpt>
      <trkpt lat="44.50542" lon="6.27188">
        <ele>1338.62</ele>
        <time>2024-10-24T09:38:53.825Z</time>
      </trkpt>
      <trkpt lat="44.50536" lon="6.27192">
        <ele>1337.93</ele>
        <time>2024-10-24T09:38:55.824Z</time>
      </trkpt>
      <trkpt lat="44.50528" lon="6.27191">
        <ele>1336.99</ele>
        <time>2024-10-24T09:38:57.825Z</time>
      </trkpt>
      <trkpt lat="44.50526" lon="6.27194">
        <ele>1336.26</ele>
        <time>2024-10-24T09:38:59.925Z</time>
      </trkpt>
      <trkpt lat="44.50531" lon="6.27203">
        <ele>1335.31</ele>
        <time>2024-10-24T09:39:01.925Z</time>
      </trkpt>
      <trkpt lat="44.50539" lon="6.27214">
        <ele>1334.25</ele>
        <time>2024-10-24T09:39:03.927Z</time>
      </trkpt>
      <trkpt lat="44.50546" lon="6.27224">
        <ele>1333.21</ele>
        <time>2024-10-24T09:39:05.925Z</time>
      </trkpt>
      <trkpt lat="44.50549" lon="6.2723">
        <ele>1332.01</ele>
        <time>2024-10-24T09:39:07.925Z</time>
      </trkpt>
      <trkpt lat="44.50549" lon="6.27231">
        <ele>1331.36</ele>
        <time>2024-10-24T09:39:09.924Z</time>
      </trkpt>
      <trkpt lat="44.5054" lon="6.27232">
        <ele>1331.36</ele>
        <time>2024-10-24T09:39:11.927Z</time>
      </trkpt>
      <trkpt lat="44.50532" lon="6.27235">
        <ele>1329.19</ele>
        <time>2024-10-24T09:39:13.926Z</time>
      </trkpt>
      <trkpt lat="44.50525" lon="6.27235">
        <ele>1327.84</ele>
        <time>2024-10-24T09:39:15.926Z</time>
      </trkpt>
      <trkpt lat="44.50521" lon="6.27235">
        <ele>1326.34</ele>
        <time>2024-10-24T09:39:17.925Z</time>
      </trkpt>
      <trkpt lat="44.50522" lon="6.27244">
        <ele>1326.34</ele>
        <time>2024-10-24T09:39:19.924Z</time>
      </trkpt>
      <trkpt lat="44.50528" lon="6.27251">
        <ele>1326.34</ele>
        <time>2024-10-24T09:39:21.925Z</time>
      </trkpt>
      <trkpt lat="44.50539" lon="6.27257">
        <ele>1321.99</ele>
        <time>2024-10-24T09:39:23.925Z</time>
      </trkpt>
      <trkpt lat="44.5055" lon="6.27262">
        <ele>1320.62</ele>
        <time>2024-10-24T09:39:25.926Z</time>
      </trkpt>
      <trkpt lat="44.50561" lon="6.27267">
        <ele>1319.26</ele>
        <time>2024-10-24T09:39:27.928Z</time>
      </trkpt>
      <trkpt lat="44.50569" lon="6.27269">
        <ele>1317.94</ele>
        <time>2024-10-24T09:39:29.926Z</time>
      </trkpt>
      <trkpt lat="44.50575" lon="6.2727">
        <ele>1316.27</ele>
        <time>2024-10-24T09:39:31.924Z</time>
      </trkpt>
      <trkpt lat="44.50583" lon="6.27269">
        <ele>1314.77</ele>
        <time>2024-10-24T09:39:33.924Z</time>
      </trkpt>
      <trkpt lat="44.5059" lon="6.27267">
        <ele>1313.07</ele>
        <time>2024-10-24T09:39:35.925Z</time>
      </trkpt>
      <trkpt lat="44.50595" lon="6.27267">
        <ele>1311.29</ele>
        <time>2024-10-24T09:39:37.951Z</time>
      </trkpt>
      <trkpt lat="44.50594" lon="6.27275">
        <ele>1309.89</ele>
        <time>2024-10-24T09:39:39.520Z</time>
      </trkpt>
      <trkpt lat="44.50594" lon="6.27283">
        <ele>1308.45</ele>
        <time>2024-10-24T09:39:41.743Z</time>
      </trkpt>
      <trkpt lat="44.50592" lon="6.27287">
        <ele>1300.55</ele>
        <time>2024-10-24T09:40:40.016Z</time>
      </trkpt>
      <trkpt lat="44.50593" lon="6.27283">
        <ele>1295.5</ele>
        <time>2024-10-24T09:40:44.584Z</time>
      </trkpt>
      <trkpt lat="44.50589" lon="6.27286">
        <ele>1295.15</ele>
        <time>2024-10-24T09:40:47.642Z</time>
      </trkpt>
      <trkpt lat="44.50572" lon="6.27297">
        <ele>1294.58</ele>
        <time>2024-10-24T09:40:49.585Z</time>
      </trkpt>
      <trkpt lat="44.50555" lon="6.27303">
        <ele>1294.13</ele>
        <time>2024-10-24T09:40:51.587Z</time>
      </trkpt>
      <trkpt lat="44.50546" lon="6.27305">
        <ele>1293.69</ele>
        <time>2024-10-24T09:40:53.583Z</time>
      </trkpt>
      <trkpt lat="44.50536" lon="6.27312">
        <ele>1293.46</ele>
        <time>2024-10-24T09:40:55.585Z</time>
      </trkpt>
      <trkpt lat="44.50528" lon="6.27322">
        <ele>1292.26</ele>
        <time>2024-10-24T09:40:57.585Z</time>
      </trkpt>
      <trkpt lat="44.50514" lon="6.27327">
        <ele>1291.63</ele>
        <time>2024-10-24T09:40:59.586Z</time>
      </trkpt>
      <trkpt lat="44.50499" lon="6.27334">
        <ele>1291.01</ele>
        <time>2024-10-24T09:41:01.585Z</time>
      </trkpt>
      <trkpt lat="44.50489" lon="6.2734">
        <ele>1290.31</ele>
        <time>2024-10-24T09:41:03.684Z</time>
      </trkpt>
      <trkpt lat="44.5048" lon="6.27345">
        <ele>1289.48</ele>
        <time>2024-10-24T09:41:05.318Z</time>
      </trkpt>
      <trkpt lat="44.50471" lon="6.27351">
        <ele>1288.35</ele>
        <time>2024-10-24T09:41:07.320Z</time>
      </trkpt>
      <trkpt lat="44.50464" lon="6.27361">
        <ele>1287.32</ele>
        <time>2024-10-24T09:41:08.759Z</time>
      </trkpt>
      <trkpt lat="44.50462" lon="6.27377">
        <ele>1286.13</ele>
        <time>2024-10-24T09:41:11.398Z</time>
      </trkpt>
      <trkpt lat="44.50454" lon="6.2739">
        <ele>1284.93</ele>
        <time>2024-10-24T09:41:13.309Z</time>
      </trkpt>
      <trkpt lat="44.50444" lon="6.27402">
        <ele>1283.72</ele>
        <time>2024-10-24T09:41:14.757Z</time>
      </trkpt>
      <trkpt lat="44.50437" lon="6.27409">
        <ele>1282.29</ele>
        <time>2024-10-24T09:41:17.303Z</time>
      </trkpt>
      <trkpt lat="44.50433" lon="6.27411">
        <ele>1280.87</ele>
        <time>2024-10-24T09:41:19.332Z</time>
      </trkpt>
      <trkpt lat="44.50426" lon="6.27412">
        <ele>1279.43</ele>
        <time>2024-10-24T09:41:21.269Z</time>
      </trkpt>
      <trkpt lat="44.5042" lon="6.27411">
        <ele>1278.25</ele>
        <time>2024-10-24T09:41:23.295Z</time>
      </trkpt>
      <trkpt lat="44.50414" lon="6.27411">
        <ele>1276.92</ele>
        <time>2024-10-24T09:41:24.747Z</time>
      </trkpt>
      <trkpt lat="44.50407" lon="6.27413">
        <ele>1275.79</ele>
        <time>2024-10-24T09:41:27.217Z</time>
      </trkpt>
      <trkpt lat="44.50401" lon="6.27416">
        <ele>1274.53</ele>
        <time>2024-10-24T09:41:29.247Z</time>
      </trkpt>
      <trkpt lat="44.50396" lon="6.2742">
        <ele>1273.33</ele>
        <time>2024-10-24T09:41:31.260Z</time>
      </trkpt>
      <trkpt lat="44.5039" lon="6.27423">
        <ele>1272.35</ele>
        <time>2024-10-24T09:41:32.779Z</time>
      </trkpt>
      <trkpt lat="44.50386" lon="6.27427">
        <ele>1271.64</ele>
        <time>2024-10-24T09:41:35.321Z</time>
      </trkpt>
      <trkpt lat="44.50381" lon="6.27432">
        <ele>1270.74</ele>
        <time>2024-10-24T09:41:36.744Z</time>
      </trkpt>
      <trkpt lat="44.50378" lon="6.2744">
        <ele>1269.67</ele>
        <time>2024-10-24T09:41:38.746Z</time>
      </trkpt>
      <trkpt lat="44.50376" lon="6.27448">
        <ele>1268.87</ele>
        <time>2024-10-24T09:41:41.295Z</time>
      </trkpt>
      <trkpt lat="44.50373" lon="6.27457">
        <ele>1267.99</ele>
        <time>2024-10-24T09:41:43.259Z</time>
      </trkpt>
      <trkpt lat="44.50371" lon="6.27466">
        <ele>1267.52</ele>
        <time>2024-10-24T09:41:45.283Z</time>
      </trkpt>
      <trkpt lat="44.5037" lon="6.27475">
        <ele>1267.23</ele>
        <time>2024-10-24T09:41:46.761Z</time>
      </trkpt>
      <trkpt lat="44.50368" lon="6.27484">
        <ele>1267.1</ele>
        <time>2024-10-24T09:41:49.278Z</time>
      </trkpt>
      <trkpt lat="44.50365" lon="6.27493">
        <ele>1266.75</ele>
        <time>2024-10-24T09:41:51.304Z</time>
      </trkpt>
      <trkpt lat="44.50363" lon="6.27502">
        <ele>1266.48</ele>
        <time>2024-10-24T09:41:52.764Z</time>
      </trkpt>
      <trkpt lat="44.50361" lon="6.2751">
        <ele>1266.57</ele>
        <time>2024-10-24T09:41:55.292Z</time>
      </trkpt>
      <trkpt lat="44.5036" lon="6.27518">
        <ele>1266.41</ele>
        <time>2024-10-24T09:41:57.288Z</time>
      </trkpt>
      <trkpt lat="44.5036" lon="6.27527">
        <ele>1266.02</ele>
        <time>2024-10-24T09:41:59.339Z</time>
      </trkpt>
      <trkpt lat="44.50361" lon="6.27538">
        <ele>1265.99</ele>
        <time>2024-10-24T09:42:01.278Z</time>
      </trkpt>
      <trkpt lat="44.50363" lon="6.27547">
        <ele>1265.86</ele>
        <time>2024-10-24T09:42:02.773Z</time>
      </trkpt>
      <trkpt lat="44.50365" lon="6.27556">
        <ele>1265.83</ele>
        <time>2024-10-24T09:42:05.685Z</time>
      </trkpt>
      <trkpt lat="44.50367" lon="6.27566">
        <ele>1265.7</ele>
        <time>2024-10-24T09:42:06.766Z</time>
      </trkpt>
      <trkpt lat="44.50365" lon="6.27577">
        <ele>1265.91</ele>
        <time>2024-10-24T09:42:08.777Z</time>
      </trkpt>
      <trkpt lat="44.50364" lon="6.27585">
        <ele>1266.01</ele>
        <time>2024-10-24T09:42:10.684Z</time>
      </trkpt>
      <trkpt lat="44.50363" lon="6.27592">
        <ele>1266.14</ele>
        <time>2024-10-24T09:42:12.766Z</time>
      </trkpt>
      <trkpt lat="44.50362" lon="6.27603">
        <ele>1266.25</ele>
        <time>2024-10-24T09:42:14.760Z</time>
      </trkpt>
      <trkpt lat="44.50362" lon="6.27617">
        <ele>1266.52</ele>
        <time>2024-10-24T09:42:17.685Z</time>
      </trkpt>
      <trkpt lat="44.5036" lon="6.27631">
        <ele>1266.56</ele>
        <time>2024-10-24T09:42:19.684Z</time>
      </trkpt>
      <trkpt lat="44.50361" lon="6.27645">
        <ele>1266.71</ele>
        <time>2024-10-24T09:42:20.770Z</time>
      </trkpt>
      <trkpt lat="44.50362" lon="6.27661">
        <ele>1266.71</ele>
        <time>2024-10-24T09:42:22.686Z</time>
      </trkpt>
      <trkpt lat="44.50365" lon="6.27675">
        <ele>1266.76</ele>
        <time>2024-10-24T09:42:24.268Z</time>
      </trkpt>
      <trkpt lat="44.50371" lon="6.27687">
        <ele>1266.76</ele>
        <time>2024-10-24T09:42:26.780Z</time>
      </trkpt>
      <trkpt lat="44.50377" lon="6.27698">
        <ele>1266.76</ele>
        <time>2024-10-24T09:42:28.276Z</time>
      </trkpt>
      <trkpt lat="44.50385" lon="6.2771">
        <ele>1266.84</ele>
        <time>2024-10-24T09:42:30.686Z</time>
      </trkpt>
      <trkpt lat="44.50393" lon="6.27724">
        <ele>1266.81</ele>
        <time>2024-10-24T09:42:32.686Z</time>
      </trkpt>
      <trkpt lat="44.50398" lon="6.27741">
        <ele>1266.83</ele>
        <time>2024-10-24T09:42:34.685Z</time>
      </trkpt>
      <trkpt lat="44.50402" lon="6.27761">
        <ele>1266.83</ele>
        <time>2024-10-24T09:42:36.784Z</time>
      </trkpt>
      <trkpt lat="44.50401" lon="6.27784">
        <ele>1266.79</ele>
        <time>2024-10-24T09:42:38.783Z</time>
      </trkpt>
      <trkpt lat="44.50401" lon="6.27808">
        <ele>1266.72</ele>
        <time>2024-10-24T09:42:40.785Z</time>
      </trkpt>
      <trkpt lat="44.50399" lon="6.2783">
        <ele>1266.56</ele>
        <time>2024-10-24T09:42:42.783Z</time>
      </trkpt>
      <trkpt lat="44.50398" lon="6.27849">
        <ele>1266.35</ele>
        <time>2024-10-24T09:42:44.366Z</time>
      </trkpt>
      <trkpt lat="44.50397" lon="6.27865">
        <ele>1266.12</ele>
        <time>2024-10-24T09:42:46.329Z</time>
      </trkpt>
      <trkpt lat="44.50391" lon="6.27879">
        <ele>1265.82</ele>
        <time>2024-10-24T09:42:48.784Z</time>
      </trkpt>
      <trkpt lat="44.50381" lon="6.2789">
        <ele>1265.42</ele>
        <time>2024-10-24T09:42:50.347Z</time>
      </trkpt>
      <trkpt lat="44.50372" lon="6.27901">
        <ele>1265.16</ele>
        <time>2024-10-24T09:42:52.784Z</time>
      </trkpt>
      <trkpt lat="44.50364" lon="6.27914">
        <ele>1264.7</ele>
        <time>2024-10-24T09:42:54.310Z</time>
      </trkpt>
      <trkpt lat="44.5036" lon="6.27923">
        <ele>1264.16</ele>
        <time>2024-10-24T09:42:56.784Z</time>
      </trkpt>
      <trkpt lat="44.50357" lon="6.27929">
        <ele>1263.56</ele>
        <time>2024-10-24T09:42:58.356Z</time>
      </trkpt>
      <trkpt lat="44.50355" lon="6.27935">
        <ele>1262.87</ele>
        <time>2024-10-24T09:43:00.784Z</time>
      </trkpt>
      <trkpt lat="44.50353" lon="6.27939">
        <ele>1262.11</ele>
        <time>2024-10-24T09:43:02.782Z</time>
      </trkpt>
      <trkpt lat="44.50351" lon="6.27941">
        <ele>1261.2</ele>
        <time>2024-10-24T09:43:04.784Z</time>
      </trkpt>
      <trkpt lat="44.50353" lon="6.27939">
        <ele>1261.2</ele>
        <time>2024-10-24T09:43:47.569Z</time>
      </trkpt>
      <trkpt lat="44.50351" lon="6.27943">
        <ele>1261.2</ele>
        <time>2024-10-24T09:43:47.623Z</time>
      </trkpt>
      <trkpt lat="44.50348" lon="6.27952">
        <ele>1261.2</ele>
        <time>2024-10-24T09:43:52.510Z</time>
      </trkpt>
      <trkpt lat="44.50345" lon="6.27956">
        <ele>1261.2</ele>
        <time>2024-10-24T09:43:53.511Z</time>
      </trkpt>
      <trkpt lat="44.50337" lon="6.2797">
        <ele>1261.2</ele>
        <time>2024-10-24T09:43:55.511Z</time>
      </trkpt>
      <trkpt lat="44.50333" lon="6.27979">
        <ele>1253.68</ele>
        <time>2024-10-24T09:43:57.512Z</time>
      </trkpt>
      <trkpt lat="44.5033" lon="6.27987">
        <ele>1253.04</ele>
        <time>2024-10-24T09:43:59.511Z</time>
      </trkpt>
      <trkpt lat="44.50327" lon="6.27999">
        <ele>1252.46</ele>
        <time>2024-10-24T09:44:01.511Z</time>
      </trkpt>
      <trkpt lat="44.50319" lon="6.28007">
        <ele>1251.63</ele>
        <time>2024-10-24T09:44:03.609Z</time>
      </trkpt>
      <trkpt lat="44.50311" lon="6.28012">
        <ele>1250.37</ele>
        <time>2024-10-24T09:44:05.610Z</time>
      </trkpt>
      <trkpt lat="44.50301" lon="6.28011">
        <ele>1249.3</ele>
        <time>2024-10-24T09:44:07.597Z</time>
      </trkpt>
      <trkpt lat="44.50291" lon="6.28012">
        <ele>1247.88</ele>
        <time>2024-10-24T09:44:09.612Z</time>
      </trkpt>
      <trkpt lat="44.50284" lon="6.28016">
        <ele>1246.68</ele>
        <time>2024-10-24T09:44:11.609Z</time>
      </trkpt>
      <trkpt lat="44.50275" lon="6.2802">
        <ele>1245.26</ele>
        <time>2024-10-24T09:44:12.618Z</time>
      </trkpt>
      <trkpt lat="44.50268" lon="6.28027">
        <ele>1243.86</ele>
        <time>2024-10-24T09:44:15.611Z</time>
      </trkpt>
      <trkpt lat="44.50262" lon="6.28036">
        <ele>1242.12</ele>
        <time>2024-10-24T09:44:17.610Z</time>
      </trkpt>
      <trkpt lat="44.50256" lon="6.28048">
        <ele>1240.94</ele>
        <time>2024-10-24T09:44:19.611Z</time>
      </trkpt>
      <trkpt lat="44.50249" lon="6.28058">
        <ele>1239.01</ele>
        <time>2024-10-24T09:44:21.591Z</time>
      </trkpt>
      <trkpt lat="44.50242" lon="6.28064">
        <ele>1236.91</ele>
        <time>2024-10-24T09:44:23.610Z</time>
      </trkpt>
      <trkpt lat="44.50234" lon="6.28071">
        <ele>1234.86</ele>
        <time>2024-10-24T09:44:25.612Z</time>
      </trkpt>
      <trkpt lat="44.50226" lon="6.28075">
        <ele>1232.54</ele>
        <time>2024-10-24T09:44:27.611Z</time>
      </trkpt>
      <trkpt lat="44.50219" lon="6.28083">
        <ele>1230.25</ele>
        <time>2024-10-24T09:44:29.611Z</time>
      </trkpt>
      <trkpt lat="44.50212" lon="6.28092">
        <ele>1228.03</ele>
        <time>2024-10-24T09:44:31.610Z</time>
      </trkpt>
      <trkpt lat="44.50203" lon="6.28098">
        <ele>1225.47</ele>
        <time>2024-10-24T09:44:33.611Z</time>
      </trkpt>
      <trkpt lat="44.50193" lon="6.28104">
        <ele>1223.46</ele>
        <time>2024-10-24T09:44:34.640Z</time>
      </trkpt>
      <trkpt lat="44.50184" lon="6.28109">
        <ele>1221.55</ele>
        <time>2024-10-24T09:44:37.612Z</time>
      </trkpt>
      <trkpt lat="44.50174" lon="6.28114">
        <ele>1219.23</ele>
        <time>2024-10-24T09:44:39.610Z</time>
      </trkpt>
      <trkpt lat="44.50163" lon="6.28123">
        <ele>1217.03</ele>
        <time>2024-10-24T09:44:41.610Z</time>
      </trkpt>
      <trkpt lat="44.50151" lon="6.28128">
        <ele>1214.88</ele>
        <time>2024-10-24T09:44:43.612Z</time>
      </trkpt>
      <trkpt lat="44.5014" lon="6.28136">
        <ele>1212.41</ele>
        <time>2024-10-24T09:44:45.611Z</time>
      </trkpt>
      <trkpt lat="44.5013" lon="6.28139">
        <ele>1210.3</ele>
        <time>2024-10-24T09:44:47.623Z</time>
      </trkpt>
      <trkpt lat="44.50121" lon="6.28142">
        <ele>1208.21</ele>
        <time>2024-10-24T09:44:49.611Z</time>
      </trkpt>
      <trkpt lat="44.50117" lon="6.28144">
        <ele>1206.59</ele>
        <time>2024-10-24T09:44:50.663Z</time>
      </trkpt>
      <trkpt lat="44.50117" lon="6.28149">
        <ele>1206.59</ele>
        <time>2024-10-24T09:44:53.611Z</time>
      </trkpt>
      <trkpt lat="44.50123" lon="6.28155">
        <ele>1206.59</ele>
        <time>2024-10-24T09:44:55.610Z</time>
      </trkpt>
      <trkpt lat="44.50132" lon="6.28161">
        <ele>1206.59</ele>
        <time>2024-10-24T09:44:57.611Z</time>
      </trkpt>
      <trkpt lat="44.5014" lon="6.28164">
        <ele>1206.59</ele>
        <time>2024-10-24T09:44:59.272Z</time>
      </trkpt>
      <trkpt lat="44.50145" lon="6.28166">
        <ele>1197.56</ele>
        <time>2024-10-24T09:45:01.611Z</time>
      </trkpt>
      <trkpt lat="44.50144" lon="6.28168">
        <ele>1195.9</ele>
        <time>2024-10-24T09:45:03.610Z</time>
      </trkpt>
      <trkpt lat="44.50136" lon="6.28171">
        <ele>1195.9</ele>
        <time>2024-10-24T09:45:05.611Z</time>
      </trkpt>
      <trkpt lat="44.50126" lon="6.28174">
        <ele>1192.37</ele>
        <time>2024-10-24T09:45:07.610Z</time>
      </trkpt>
      <trkpt lat="44.50114" lon="6.28179">
        <ele>1190.73</ele>
        <time>2024-10-24T09:45:09.612Z</time>
      </trkpt>
      <trkpt lat="44.50101" lon="6.28183">
        <ele>1189.08</ele>
        <time>2024-10-24T09:45:11.612Z</time>
      </trkpt>
      <trkpt lat="44.5009" lon="6.28187">
        <ele>1187.74</ele>
        <time>2024-10-24T09:45:13.613Z</time>
      </trkpt>
      <trkpt lat="44.50081" lon="6.28189">
        <ele>1186.66</ele>
        <time>2024-10-24T09:45:15.611Z</time>
      </trkpt>
      <trkpt lat="44.50077" lon="6.28192">
        <ele>1184.83</ele>
        <time>2024-10-24T09:45:16.710Z</time>
      </trkpt>
      <trkpt lat="44.50079" lon="6.28196">
        <ele>1184.83</ele>
        <time>2024-10-24T09:45:19.610Z</time>
      </trkpt>
      <trkpt lat="44.50086" lon="6.28201">
        <ele>1184.83</ele>
        <time>2024-10-24T09:45:21.610Z</time>
      </trkpt>
      <trkpt lat="44.50097" lon="6.28208">
        <ele>1184.83</ele>
        <time>2024-10-24T09:45:23.612Z</time>
      </trkpt>
      <trkpt lat="44.50103" lon="6.28213">
        <ele>1178.64</ele>
        <time>2024-10-24T09:45:25.610Z</time>
      </trkpt>
      <trkpt lat="44.50103" lon="6.28219">
        <ele>1177.49</ele>
        <time>2024-10-24T09:45:27.610Z</time>
      </trkpt>
      <trkpt lat="44.50095" lon="6.28223">
        <ele>1175.85</ele>
        <time>2024-10-24T09:45:29.610Z</time>
      </trkpt>
      <trkpt lat="44.50085" lon="6.28226">
        <ele>1174.12</ele>
        <time>2024-10-24T09:45:31.611Z</time>
      </trkpt>
      <trkpt lat="44.50076" lon="6.28225">
        <ele>1171.9</ele>
        <time>2024-10-24T09:45:33.612Z</time>
      </trkpt>
      <trkpt lat="44.50067" lon="6.28224">
        <ele>1170.58</ele>
        <time>2024-10-24T09:45:35.610Z</time>
      </trkpt>
      <trkpt lat="44.50057" lon="6.28223">
        <ele>1169.39</ele>
        <time>2024-10-24T09:45:37.612Z</time>
      </trkpt>
      <trkpt lat="44.50045" lon="6.28222">
        <ele>1167.56</ele>
        <time>2024-10-24T09:45:39.610Z</time>
      </trkpt>
      <trkpt lat="44.50034" lon="6.28217">
        <ele>1165.91</ele>
        <time>2024-10-24T09:45:41.712Z</time>
      </trkpt>
      <trkpt lat="44.50024" lon="6.28212">
        <ele>1164.2</ele>
        <time>2024-10-24T09:45:43.712Z</time>
      </trkpt>
      <trkpt lat="44.50016" lon="6.28207">
        <ele>1162.55</ele>
        <time>2024-10-24T09:45:44.772Z</time>
      </trkpt>
      <trkpt lat="44.5001" lon="6.28204">
        <ele>1161.04</ele>
        <time>2024-10-24T09:45:46.780Z</time>
      </trkpt>
      <trkpt lat="44.50007" lon="6.28207">
        <ele>1159.5</ele>
        <time>2024-10-24T09:45:48.742Z</time>
      </trkpt>
      <trkpt lat="44.5001" lon="6.28215">
        <ele>1158.13</ele>
        <time>2024-10-24T09:45:50.771Z</time>
      </trkpt>
      <trkpt lat="44.50013" lon="6.28225">
        <ele>1156.78</ele>
        <time>2024-10-24T09:45:52.758Z</time>
      </trkpt>
      <trkpt lat="44.50016" lon="6.2823">
        <ele>1155.63</ele>
        <time>2024-10-24T09:45:54.770Z</time>
      </trkpt>
      <trkpt lat="44.50014" lon="6.2823">
        <ele>1154.04</ele>
        <time>2024-10-24T09:45:57.526Z</time>
      </trkpt>
      <trkpt lat="44.50011" lon="6.2823">
        <ele>1154.04</ele>
        <time>2024-10-24T09:45:58.766Z</time>
      </trkpt>
      <trkpt lat="44.50014" lon="6.28237">
        <ele>1154.04</ele>
        <time>2024-10-24T09:46:00.767Z</time>
      </trkpt>
      <trkpt lat="44.50019" lon="6.28247">
        <ele>1154.04</ele>
        <time>2024-10-24T09:46:02.770Z</time>
      </trkpt>
      <trkpt lat="44.50018" lon="6.28251">
        <ele>1154.04</ele>
        <time>2024-10-24T09:46:04.772Z</time>
      </trkpt>
      <trkpt lat="44.50012" lon="6.28249">
        <ele>1154.04</ele>
        <time>2024-10-24T09:46:06.751Z</time>
      </trkpt>
      <trkpt lat="44.50002" lon="6.28248">
        <ele>1154.04</ele>
        <time>2024-10-24T09:46:08.754Z</time>
      </trkpt>
      <trkpt lat="44.4999" lon="6.28247">
        <ele>1154.04</ele>
        <time>2024-10-24T09:46:10.766Z</time>
      </trkpt>
      <trkpt lat="44.49984" lon="6.28246">
        <ele>1154.04</ele>
        <time>2024-10-24T09:46:12.758Z</time>
      </trkpt>
      <trkpt lat="44.49979" lon="6.28239">
        <ele>1154.04</ele>
        <time>2024-10-24T09:46:14.769Z</time>
      </trkpt>
      <trkpt lat="44.49971" lon="6.28239">
        <ele>1139.41</ele>
        <time>2024-10-24T09:46:16.769Z</time>
      </trkpt>
      <trkpt lat="44.49963" lon="6.28242">
        <ele>1138.06</ele>
        <time>2024-10-24T09:46:18.754Z</time>
      </trkpt>
      <trkpt lat="44.49958" lon="6.28249">
        <ele>1136.4</ele>
        <time>2024-10-24T09:46:20.773Z</time>
      </trkpt>
      <trkpt lat="44.49954" lon="6.28255">
        <ele>1134.63</ele>
        <time>2024-10-24T09:46:22.775Z</time>
      </trkpt>
      <trkpt lat="44.49949" lon="6.28259">
        <ele>1133.01</ele>
        <time>2024-10-24T09:46:24.772Z</time>
      </trkpt>
      <trkpt lat="44.49952" lon="6.28269">
        <ele>1131.64</ele>
        <time>2024-10-24T09:46:26.777Z</time>
      </trkpt>
      <trkpt lat="44.49957" lon="6.28276">
        <ele>1129.99</ele>
        <time>2024-10-24T09:46:28.779Z</time>
      </trkpt>
      <trkpt lat="44.4996" lon="6.28279">
        <ele>1128.42</ele>
        <time>2024-10-24T09:46:30.710Z</time>
      </trkpt>
      <trkpt lat="44.4996" lon="6.28288">
        <ele>1128.42</ele>
        <time>2024-10-24T09:46:32.712Z</time>
      </trkpt>
      <trkpt lat="44.49961" lon="6.28296">
        <ele>1125.31</ele>
        <time>2024-10-24T09:46:34.712Z</time>
      </trkpt>
      <trkpt lat="44.49965" lon="6.28305">
        <ele>1123.57</ele>
        <time>2024-10-24T09:46:36.712Z</time>
      </trkpt>
      <trkpt lat="44.49968" lon="6.28309">
        <ele>1121.7</ele>
        <time>2024-10-24T09:46:38.710Z</time>
      </trkpt>
      <trkpt lat="44.49976" lon="6.28308">
        <ele>1121.7</ele>
        <time>2024-10-24T09:46:40.710Z</time>
      </trkpt>
      <trkpt lat="44.4998" lon="6.28316">
        <ele>1118.07</ele>
        <time>2024-10-24T09:46:42.750Z</time>
      </trkpt>
      <trkpt lat="44.49982" lon="6.28328">
        <ele>1116.57</ele>
        <time>2024-10-24T09:46:44.710Z</time>
      </trkpt>
      <trkpt lat="44.49987" lon="6.28337">
        <ele>1115.01</ele>
        <time>2024-10-24T09:46:46.746Z</time>
      </trkpt>
      <trkpt lat="44.49994" lon="6.28337">
        <ele>1113.31</ele>
        <time>2024-10-24T09:46:48.710Z</time>
      </trkpt>
      <trkpt lat="44.50001" lon="6.28344">
        <ele>1111.96</ele>
        <time>2024-10-24T09:46:50.710Z</time>
      </trkpt>
      <trkpt lat="44.5001" lon="6.28349">
        <ele>1110.87</ele>
        <time>2024-10-24T09:46:52.710Z</time>
      </trkpt>
      <trkpt lat="44.50018" lon="6.28348">
        <ele>1109.64</ele>
        <time>2024-10-24T09:46:54.711Z</time>
      </trkpt>
      <trkpt lat="44.50023" lon="6.28349">
        <ele>1108.56</ele>
        <time>2024-10-24T09:46:56.710Z</time>
      </trkpt>
      <trkpt lat="44.50029" lon="6.28351">
        <ele>1107.22</ele>
        <time>2024-10-24T09:46:58.710Z</time>
      </trkpt>
      <trkpt lat="44.50034" lon="6.2837">
        <ele>1106.47</ele>
        <time>2024-10-24T09:47:00.712Z</time>
      </trkpt>
      <trkpt lat="44.50042" lon="6.28384">
        <ele>1105.3</ele>
        <time>2024-10-24T09:47:02.710Z</time>
      </trkpt>
      <trkpt lat="44.50049" lon="6.28396">
        <ele>1104.49</ele>
        <time>2024-10-24T09:47:04.712Z</time>
      </trkpt>
      <trkpt lat="44.50058" lon="6.28406">
        <ele>1102.8301</ele>
        <time>2024-10-24T09:47:06.711Z</time>
      </trkpt>
      <trkpt lat="44.50064" lon="6.28401">
        <ele>1101.81</ele>
        <time>2024-10-24T09:47:08.712Z</time>
      </trkpt>
      <trkpt lat="44.50066" lon="6.284">
        <ele>1099.47</ele>
        <time>2024-10-24T09:47:16.811Z</time>
      </trkpt>
      <trkpt lat="44.50061" lon="6.28391">
        <ele>1091.5</ele>
        <time>2024-10-24T09:49:08.798Z</time>
      </trkpt>
      <trkpt lat="44.5006" lon="6.28392">
        <ele>1090.89</ele>
        <time>2024-10-24T09:49:13.737Z</time>
      </trkpt>
      <trkpt lat="44.50056" lon="6.28391">
        <ele>1090.64</ele>
        <time>2024-10-24T09:49:16.734Z</time>
      </trkpt>
      <trkpt lat="44.50044" lon="6.2839">
        <ele>1090.64</ele>
        <time>2024-10-24T09:49:17.748Z</time>
      </trkpt>
      <trkpt lat="44.50031" lon="6.28383">
        <ele>1090.45</ele>
        <time>2024-10-24T09:49:20.655Z</time>
      </trkpt>
      <trkpt lat="44.50021" lon="6.28375">
        <ele>1090.27</ele>
        <time>2024-10-24T09:49:22.654Z</time>
      </trkpt>
      <trkpt lat="44.50011" lon="6.28372">
        <ele>1090.14</ele>
        <time>2024-10-24T09:49:24.657Z</time>
      </trkpt>
      <trkpt lat="44.50001" lon="6.28375">
        <ele>1089.98</ele>
        <time>2024-10-24T09:49:26.654Z</time>
      </trkpt>
      <trkpt lat="44.49989" lon="6.2837">
        <ele>1089.86</ele>
        <time>2024-10-24T09:49:28.656Z</time>
      </trkpt>
      <trkpt lat="44.49977" lon="6.28374">
        <ele>1089.5701</ele>
        <time>2024-10-24T09:49:30.755Z</time>
      </trkpt>
      <trkpt lat="44.49969" lon="6.28373">
        <ele>1089.4099</ele>
        <time>2024-10-24T09:49:32.189Z</time>
      </trkpt>
      <trkpt lat="44.49963" lon="6.28364">
        <ele>1089.19</ele>
        <time>2024-10-24T09:49:34.740Z</time>
      </trkpt>
      <trkpt lat="44.49956" lon="6.28352">
        <ele>1088.97</ele>
        <time>2024-10-24T09:49:35.765Z</time>
      </trkpt>
      <trkpt lat="44.49945" lon="6.28349">
        <ele>1088.69</ele>
        <time>2024-10-24T09:49:37.732Z</time>
      </trkpt>
      <trkpt lat="44.49932" lon="6.2835">
        <ele>1088.5</ele>
        <time>2024-10-24T09:49:39.760Z</time>
      </trkpt>
      <trkpt lat="44.49926" lon="6.2834">
        <ele>1088.3301</ele>
        <time>2024-10-24T09:49:41.770Z</time>
      </trkpt>
      <trkpt lat="44.49918" lon="6.28338">
        <ele>1087.86</ele>
        <time>2024-10-24T09:49:44.741Z</time>
      </trkpt>
      <trkpt lat="44.49906" lon="6.28339">
        <ele>1087.63</ele>
        <time>2024-10-24T09:49:45.773Z</time>
      </trkpt>
      <trkpt lat="44.49893" lon="6.28344">
        <ele>1087.3301</ele>
        <time>2024-10-24T09:49:46.769Z</time>
      </trkpt>
      <trkpt lat="44.49883" lon="6.28341">
        <ele>1086.88</ele>
        <time>2024-10-24T09:49:49.780Z</time>
      </trkpt>
      <trkpt lat="44.4987" lon="6.2834">
        <ele>1086.4</ele>
        <time>2024-10-24T09:49:51.735Z</time>
      </trkpt>
      <trkpt lat="44.4986" lon="6.28336">
        <ele>1085.8301</ele>
        <time>2024-10-24T09:49:53.778Z</time>
      </trkpt>
      <trkpt lat="44.49854" lon="6.28325">
        <ele>1085.31</ele>
        <time>2024-10-24T09:49:55.754Z</time>
      </trkpt>
      <trkpt lat="44.49846" lon="6.28319">
        <ele>1084.8401</ele>
        <time>2024-10-24T09:49:57.753Z</time>
      </trkpt>
      <trkpt lat="44.49835" lon="6.28326">
        <ele>1084.21</ele>
        <time>2024-10-24T09:49:59.776Z</time>
      </trkpt>
      <trkpt lat="44.49823" lon="6.28326">
        <ele>1083.3</ele>
        <time>2024-10-24T09:50:01.726Z</time>
      </trkpt>
      <trkpt lat="44.49811" lon="6.28328">
        <ele>1082.39</ele>
        <time>2024-10-24T09:50:03.756Z</time>
      </trkpt>
      <trkpt lat="44.49803" lon="6.28341">
        <ele>1081.5901</ele>
        <time>2024-10-24T09:50:05.755Z</time>
      </trkpt>
      <trkpt lat="44.49796" lon="6.28354">
        <ele>1080.73</ele>
        <time>2024-10-24T09:50:07.754Z</time>
      </trkpt>
      <trkpt lat="44.49783" lon="6.28359">
        <ele>1079.72</ele>
        <time>2024-10-24T09:50:09.753Z</time>
      </trkpt>
      <trkpt lat="44.4977" lon="6.28365">
        <ele>1078.36</ele>
        <time>2024-10-24T09:50:11.753Z</time>
      </trkpt>
      <trkpt lat="44.49759" lon="6.28372">
        <ele>1077.25</ele>
        <time>2024-10-24T09:50:13.754Z</time>
      </trkpt>
      <trkpt lat="44.49748" lon="6.2838">
        <ele>1076.06</ele>
        <time>2024-10-24T09:50:15.754Z</time>
      </trkpt>
      <trkpt lat="44.49739" lon="6.28379">
        <ele>1074.5701</ele>
        <time>2024-10-24T09:50:17.754Z</time>
      </trkpt>
      <trkpt lat="44.49727" lon="6.28379">
        <ele>1073.05</ele>
        <time>2024-10-24T09:50:19.755Z</time>
      </trkpt>
      <trkpt lat="44.49717" lon="6.28378">
        <ele>1071.52</ele>
        <time>2024-10-24T09:50:21.755Z</time>
      </trkpt>
      <trkpt lat="44.49706" lon="6.28377">
        <ele>1069.8401</ele>
        <time>2024-10-24T09:50:23.753Z</time>
      </trkpt>
      <trkpt lat="44.49695" lon="6.28375">
        <ele>1068.1699</ele>
        <time>2024-10-24T09:50:25.755Z</time>
      </trkpt>
      <trkpt lat="44.49683" lon="6.28377">
        <ele>1066.36</ele>
        <time>2024-10-24T09:50:27.755Z</time>
      </trkpt>
      <trkpt lat="44.49677" lon="6.28389">
        <ele>1064.6</ele>
        <time>2024-10-24T09:50:29.755Z</time>
      </trkpt>
      <trkpt lat="44.49672" lon="6.28404">
        <ele>1062.9199</ele>
        <time>2024-10-24T09:50:31.755Z</time>
      </trkpt>
      <trkpt lat="44.49664" lon="6.28414">
        <ele>1061.21</ele>
        <time>2024-10-24T09:50:33.755Z</time>
      </trkpt>
      <trkpt lat="44.49656" lon="6.2842">
        <ele>1059.49</ele>
        <time>2024-10-24T09:50:35.755Z</time>
      </trkpt>
      <trkpt lat="44.49649" lon="6.28422">
        <ele>1057.65</ele>
        <time>2024-10-24T09:50:37.767Z</time>
      </trkpt>
      <trkpt lat="44.49643" lon="6.28424">
        <ele>1056.26</ele>
        <time>2024-10-24T09:50:39.753Z</time>
      </trkpt>
      <trkpt lat="44.49639" lon="6.28421">
        <ele>1054.6599</ele>
        <time>2024-10-24T09:50:41.754Z</time>
      </trkpt>
      <trkpt lat="44.49638" lon="6.28418">
        <ele>1054.6599</ele>
        <time>2024-10-24T09:50:43.753Z</time>
      </trkpt>
      <trkpt lat="44.49637" lon="6.28414">
        <ele>1054.6599</ele>
        <time>2024-10-24T09:50:45.756Z</time>
      </trkpt>
      <trkpt lat="44.49637" lon="6.28412">
        <ele>1054.6599</ele>
        <time>2024-10-24T09:51:27.985Z</time>
      </trkpt>
      <trkpt lat="44.49635" lon="6.28409">
        <ele>1054.6599</ele>
        <time>2024-10-24T09:51:32.513Z</time>
      </trkpt>
      <trkpt lat="44.49629" lon="6.28398">
        <ele>1054.6599</ele>
        <time>2024-10-24T09:51:34.581Z</time>
      </trkpt>
      <trkpt lat="44.49625" lon="6.28394">
        <ele>1054.6599</ele>
        <time>2024-10-24T09:51:35.512Z</time>
      </trkpt>
      <trkpt lat="44.49614" lon="6.28385">
        <ele>1054.6599</ele>
        <time>2024-10-24T09:51:37.565Z</time>
      </trkpt>
      <trkpt lat="44.49604" lon="6.28377">
        <ele>1042.4099</ele>
        <time>2024-10-24T09:51:39.512Z</time>
      </trkpt>
      <trkpt lat="44.49593" lon="6.2837">
        <ele>1041.46</ele>
        <time>2024-10-24T09:51:41.587Z</time>
      </trkpt>
      <trkpt lat="44.49585" lon="6.28356">
        <ele>1040.9199</ele>
        <time>2024-10-24T09:51:42.597Z</time>
      </trkpt>
      <trkpt lat="44.49578" lon="6.28339">
        <ele>1040.55</ele>
        <time>2024-10-24T09:51:45.514Z</time>
      </trkpt>
      <trkpt lat="44.49574" lon="6.28321">
        <ele>1039.89</ele>
        <time>2024-10-24T09:51:47.513Z</time>
      </trkpt>
      <trkpt lat="44.49573" lon="6.28304">
        <ele>1039.25</ele>
        <time>2024-10-24T09:51:49.514Z</time>
      </trkpt>
      <trkpt lat="44.49577" lon="6.28287">
        <ele>1038.53</ele>
        <time>2024-10-24T09:51:51.514Z</time>
      </trkpt>
      <trkpt lat="44.49581" lon="6.28273">
        <ele>1037.8401</ele>
        <time>2024-10-24T09:51:53.513Z</time>
      </trkpt>
      <trkpt lat="44.49587" lon="6.28261">
        <ele>1037.9</ele>
        <time>2024-10-24T09:51:55.515Z</time>
      </trkpt>
      <trkpt lat="44.49594" lon="6.28252">
        <ele>1037.35</ele>
        <time>2024-10-24T09:51:57.514Z</time>
      </trkpt>
      <trkpt lat="44.49597" lon="6.28243">
        <ele>1036.94</ele>
        <time>2024-10-24T09:51:59.613Z</time>
      </trkpt>
      <trkpt lat="44.496" lon="6.28235">
        <ele>1036.36</ele>
        <time>2024-10-24T09:52:01.613Z</time>
      </trkpt>
      <trkpt lat="44.49605" lon="6.28228">
        <ele>1035.72</ele>
        <time>2024-10-24T09:52:03.612Z</time>
      </trkpt>
      <trkpt lat="44.49611" lon="6.2822">
        <ele>1035.2</ele>
        <time>2024-10-24T09:52:05.612Z</time>
      </trkpt>
      <trkpt lat="44.49614" lon="6.28211">
        <ele>1034.8301</ele>
        <time>2024-10-24T09:52:07.612Z</time>
      </trkpt>
      <trkpt lat="44.49616" lon="6.28199">
        <ele>1034.5801</ele>
        <time>2024-10-24T09:52:09.611Z</time>
      </trkpt>
      <trkpt lat="44.49618" lon="6.28186">
        <ele>1034.28</ele>
        <time>2024-10-24T09:52:11.614Z</time>
      </trkpt>
      <trkpt lat="44.49617" lon="6.28172">
        <ele>1033.95</ele>
        <time>2024-10-24T09:52:13.613Z</time>
      </trkpt>
      <trkpt lat="44.49612" lon="6.28159">
        <ele>1033.6</ele>
        <time>2024-10-24T09:52:15.525Z</time>
      </trkpt>
      <trkpt lat="44.49606" lon="6.28156">
        <ele>1033.4</ele>
        <time>2024-10-24T09:52:17.613Z</time>
      </trkpt>
      <trkpt lat="44.496" lon="6.28154">
        <ele>1033.3</ele>
        <time>2024-10-24T09:52:19.612Z</time>
      </trkpt>
      <trkpt lat="44.49596" lon="6.28147">
        <ele>1032.94</ele>
        <time>2024-10-24T09:52:21.613Z</time>
      </trkpt>
      <trkpt lat="44.49594" lon="6.28141">
        <ele>1032.7</ele>
        <time>2024-10-24T09:52:23.611Z</time>
      </trkpt>
      <trkpt lat="44.49593" lon="6.28133">
        <ele>1032.3201</ele>
        <time>2024-10-24T09:52:25.613Z</time>
      </trkpt>
      <trkpt lat="44.49594" lon="6.28124">
        <ele>1032.29</ele>
        <time>2024-10-24T09:52:27.612Z</time>
      </trkpt>
      <trkpt lat="44.49594" lon="6.28115">
        <ele>1032.1599</ele>
        <time>2024-10-24T09:52:29.516Z</time>
      </trkpt>
      <trkpt lat="44.49595" lon="6.28107">
        <ele>1032.1799</ele>
        <time>2024-10-24T09:52:31.612Z</time>
      </trkpt>
      <trkpt lat="44.49596" lon="6.28098">
        <ele>1032.27</ele>
        <time>2024-10-24T09:52:33.612Z</time>
      </trkpt>
      <trkpt lat="44.49597" lon="6.28091">
        <ele>1032.4199</ele>
        <time>2024-10-24T09:52:35.611Z</time>
      </trkpt>
      <trkpt lat="44.49599" lon="6.28082">
        <ele>1032.4299</ele>
        <time>2024-10-24T09:52:37.611Z</time>
      </trkpt>
      <trkpt lat="44.49602" lon="6.28074">
        <ele>1032.46</ele>
        <time>2024-10-24T09:52:39.612Z</time>
      </trkpt>
      <trkpt lat="44.49604" lon="6.28067">
        <ele>1032.5901</ele>
        <time>2024-10-24T09:52:41.612Z</time>
      </trkpt>
      <trkpt lat="44.49607" lon="6.2806">
        <ele>1032.63</ele>
        <time>2024-10-24T09:52:43.612Z</time>
      </trkpt>
      <trkpt lat="44.49611" lon="6.28054">
        <ele>1032.72</ele>
        <time>2024-10-24T09:52:45.613Z</time>
      </trkpt>
      <trkpt lat="44.49616" lon="6.28049">
        <ele>1032.94</ele>
        <time>2024-10-24T09:52:47.538Z</time>
      </trkpt>
      <trkpt lat="44.4962" lon="6.28045">
        <ele>1033.02</ele>
        <time>2024-10-24T09:52:49.612Z</time>
      </trkpt>
      <trkpt lat="44.49623" lon="6.28039">
        <ele>1033.05</ele>
        <time>2024-10-24T09:52:51.612Z</time>
      </trkpt>
      <trkpt lat="44.49626" lon="6.28031">
        <ele>1033.15</ele>
        <time>2024-10-24T09:52:53.611Z</time>
      </trkpt>
      <trkpt lat="44.49628" lon="6.28026">
        <ele>1033.26</ele>
        <time>2024-10-24T09:52:55.613Z</time>
      </trkpt>
      <trkpt lat="44.49628" lon="6.28022">
        <ele>1033.4199</ele>
        <time>2024-10-24T09:52:57.611Z</time>
      </trkpt>
      <trkpt lat="44.49628" lon="6.28017">
        <ele>1033.52</ele>
        <time>2024-10-24T09:52:59.613Z</time>
      </trkpt>
      <trkpt lat="44.49627" lon="6.28014">
        <ele>1033.5801</ele>
        <time>2024-10-24T09:53:01.613Z</time>
      </trkpt>
      <trkpt lat="44.49623" lon="6.28013">
        <ele>1033.5701</ele>
        <time>2024-10-24T09:53:03.614Z</time>
      </trkpt>
      <trkpt lat="44.49619" lon="6.28014">
        <ele>1033.69</ele>
        <time>2024-10-24T09:53:05.517Z</time>
      </trkpt>
      <trkpt lat="44.49608" lon="6.28009">
        <ele>1033.7</ele>
        <time>2024-10-24T09:53:07.613Z</time>
      </trkpt>
      <trkpt lat="44.49601" lon="6.28005">
        <ele>1033.85</ele>
        <time>2024-10-24T09:53:09.612Z</time>
      </trkpt>
      <trkpt lat="44.49596" lon="6.28">
        <ele>1034</ele>
        <time>2024-10-24T09:53:11.613Z</time>
      </trkpt>
      <trkpt lat="44.49592" lon="6.27996">
        <ele>1034.12</ele>
        <time>2024-10-24T09:53:13.613Z</time>
      </trkpt>
      <trkpt lat="44.49587" lon="6.27991">
        <ele>1034.35</ele>
        <time>2024-10-24T09:53:15.612Z</time>
      </trkpt>
      <trkpt lat="44.49583" lon="6.27985">
        <ele>1034.6699</ele>
        <time>2024-10-24T09:53:17.613Z</time>
      </trkpt>
      <trkpt lat="44.4958" lon="6.2798">
        <ele>1034.97</ele>
        <time>2024-10-24T09:53:19.612Z</time>
      </trkpt>
      <trkpt lat="44.49576" lon="6.27976">
        <ele>1035.22</ele>
        <time>2024-10-24T09:53:21.613Z</time>
      </trkpt>
      <trkpt lat="44.49571" lon="6.2797">
        <ele>1035.53</ele>
        <time>2024-10-24T09:53:23.613Z</time>
      </trkpt>
      <trkpt lat="44.49566" lon="6.27967">
        <ele>1036.03</ele>
        <time>2024-10-24T09:53:25.612Z</time>
      </trkpt>
      <trkpt lat="44.49559" lon="6.27965">
        <ele>1036.48</ele>
        <time>2024-10-24T09:53:27.613Z</time>
      </trkpt>
      <trkpt lat="44.49554" lon="6.27963">
        <ele>1036.8201</ele>
        <time>2024-10-24T09:53:29.713Z</time>
      </trkpt>
      <trkpt lat="44.49548" lon="6.2796">
        <ele>1037.38</ele>
        <time>2024-10-24T09:53:31.713Z</time>
      </trkpt>
      <trkpt lat="44.49542" lon="6.27957">
        <ele>1037.85</ele>
        <time>2024-10-24T09:53:32.785Z</time>
      </trkpt>
      <trkpt lat="44.49537" lon="6.27953">
        <ele>1038.38</ele>
        <time>2024-10-24T09:53:34.780Z</time>
      </trkpt>
      <trkpt lat="44.49532" lon="6.27949">
        <ele>1039.04</ele>
        <time>2024-10-24T09:53:36.761Z</time>
      </trkpt>
      <trkpt lat="44.49527" lon="6.27946">
        <ele>1039.74</ele>
        <time>2024-10-24T09:53:38.758Z</time>
      </trkpt>
      <trkpt lat="44.49523" lon="6.27942">
        <ele>1040.24</ele>
        <time>2024-10-24T09:53:40.777Z</time>
      </trkpt>
      <trkpt lat="44.49519" lon="6.27937">
        <ele>1040.81</ele>
        <time>2024-10-24T09:53:43.476Z</time>
      </trkpt>
      <trkpt lat="44.49516" lon="6.27934">
        <ele>1041.37</ele>
        <time>2024-10-24T09:53:44.734Z</time>
      </trkpt>
      <trkpt lat="44.49512" lon="6.27928">
        <ele>1042.13</ele>
        <time>2024-10-24T09:53:47.449Z</time>
      </trkpt>
      <trkpt lat="44.4951" lon="6.2792">
        <ele>1042.77</ele>
        <time>2024-10-24T09:53:49.552Z</time>
      </trkpt>
      <trkpt lat="44.4951" lon="6.27912">
        <ele>1043.62</ele>
        <time>2024-10-24T09:53:50.742Z</time>
      </trkpt>
      <trkpt lat="44.49512" lon="6.27906">
        <ele>1044.1</ele>
        <time>2024-10-24T09:53:52.761Z</time>
      </trkpt>
      <trkpt lat="44.49516" lon="6.27899">
        <ele>1044.97</ele>
        <time>2024-10-24T09:53:54.771Z</time>
      </trkpt>
      <trkpt lat="44.49521" lon="6.27895">
        <ele>1045.53</ele>
        <time>2024-10-24T09:53:56.761Z</time>
      </trkpt>
      <trkpt lat="44.49524" lon="6.27889">
        <ele>1046.35</ele>
        <time>2024-10-24T09:53:58.780Z</time>
      </trkpt>
      <trkpt lat="44.49526" lon="6.27881">
        <ele>1047.01</ele>
        <time>2024-10-24T09:54:00.774Z</time>
      </trkpt>
      <trkpt lat="44.49527" lon="6.27873">
        <ele>1047.62</ele>
        <time>2024-10-24T09:54:03.302Z</time>
      </trkpt>
      <trkpt lat="44.49529" lon="6.27864">
        <ele>1048.6</ele>
        <time>2024-10-24T09:54:04.770Z</time>
      </trkpt>
      <trkpt lat="44.49528" lon="6.27856">
        <ele>1049.3201</ele>
        <time>2024-10-24T09:54:06.781Z</time>
      </trkpt>
      <trkpt lat="44.49528" lon="6.27849">
        <ele>1049.85</ele>
        <time>2024-10-24T09:54:08.775Z</time>
      </trkpt>
      <trkpt lat="44.49528" lon="6.27841">
        <ele>1050.7</ele>
        <time>2024-10-24T09:54:10.767Z</time>
      </trkpt>
      <trkpt lat="44.49527" lon="6.27833">
        <ele>1051.4299</ele>
        <time>2024-10-24T09:54:12.772Z</time>
      </trkpt>
      <trkpt lat="44.49524" lon="6.27825">
        <ele>1051.98</ele>
        <time>2024-10-24T09:54:14.779Z</time>
      </trkpt>
      <trkpt lat="44.49519" lon="6.2782">
        <ele>1052.9</ele>
        <time>2024-10-24T09:54:16.712Z</time>
      </trkpt>
      <trkpt lat="44.49515" lon="6.27816">
        <ele>1053.46</ele>
        <time>2024-10-24T09:54:18.768Z</time>
      </trkpt>
      <trkpt lat="44.49511" lon="6.27811">
        <ele>1054.3301</ele>
        <time>2024-10-24T09:54:20.767Z</time>
      </trkpt>
      <trkpt lat="44.49507" lon="6.27806">
        <ele>1054.89</ele>
        <time>2024-10-24T09:54:22.775Z</time>
      </trkpt>
      <trkpt lat="44.49502" lon="6.27801">
        <ele>1055.9199</ele>
        <time>2024-10-24T09:54:24.712Z</time>
      </trkpt>
      <trkpt lat="44.49499" lon="6.27795">
        <ele>1056.69</ele>
        <time>2024-10-24T09:54:26.789Z</time>
      </trkpt>
      <trkpt lat="44.49497" lon="6.27789">
        <ele>1057.49</ele>
        <time>2024-10-24T09:54:29.642Z</time>
      </trkpt>
      <trkpt lat="44.49496" lon="6.27783">
        <ele>1058.19</ele>
        <time>2024-10-24T09:54:30.713Z</time>
      </trkpt>
      <trkpt lat="44.49495" lon="6.27778">
        <ele>1059.0701</ele>
        <time>2024-10-24T09:54:32.784Z</time>
      </trkpt>
      <trkpt lat="44.49492" lon="6.27772">
        <ele>1060</ele>
        <time>2024-10-24T09:54:34.712Z</time>
      </trkpt>
      <trkpt lat="44.49489" lon="6.27766">
        <ele>1060.55</ele>
        <time>2024-10-24T09:54:36.714Z</time>
      </trkpt>
      <trkpt lat="44.49487" lon="6.27758">
        <ele>1061.46</ele>
        <time>2024-10-24T09:54:38.713Z</time>
      </trkpt>
      <trkpt lat="44.49486" lon="6.27752">
        <ele>1062.19</ele>
        <time>2024-10-24T09:54:40.780Z</time>
      </trkpt>
      <trkpt lat="44.49483" lon="6.27743">
        <ele>1062.79</ele>
        <time>2024-10-24T09:54:42.712Z</time>
      </trkpt>
      <trkpt lat="44.49481" lon="6.27738">
        <ele>1063.5</ele>
        <time>2024-10-24T09:54:44.713Z</time>
      </trkpt>
      <trkpt lat="44.4948" lon="6.27732">
        <ele>1064.13</ele>
        <time>2024-10-24T09:54:46.711Z</time>
      </trkpt>
      <trkpt lat="44.49479" lon="6.27726">
        <ele>1064.79</ele>
        <time>2024-10-24T09:54:48.716Z</time>
      </trkpt>
      <trkpt lat="44.49478" lon="6.27721">
        <ele>1065.28</ele>
        <time>2024-10-24T09:54:50.713Z</time>
      </trkpt>
      <trkpt lat="44.49477" lon="6.27716">
        <ele>1065.6599</ele>
        <time>2024-10-24T09:54:52.712Z</time>
      </trkpt>
      <trkpt lat="44.49475" lon="6.27711">
        <ele>1066.44</ele>
        <time>2024-10-24T09:54:54.713Z</time>
      </trkpt>
      <trkpt lat="44.49474" lon="6.27706">
        <ele>1067.1699</ele>
        <time>2024-10-24T09:54:56.711Z</time>
      </trkpt>
      <trkpt lat="44.49473" lon="6.27699">
        <ele>1067.95</ele>
        <time>2024-10-24T09:54:58.713Z</time>
      </trkpt>
      <trkpt lat="44.49472" lon="6.27692">
        <ele>1068.72</ele>
        <time>2024-10-24T09:55:00.712Z</time>
      </trkpt>
      <trkpt lat="44.49472" lon="6.27685">
        <ele>1069.1699</ele>
        <time>2024-10-24T09:55:02.812Z</time>
      </trkpt>
      <trkpt lat="44.49471" lon="6.27678">
        <ele>1069.9199</ele>
        <time>2024-10-24T09:55:04.626Z</time>
      </trkpt>
      <trkpt lat="44.49471" lon="6.27671">
        <ele>1070.5801</ele>
        <time>2024-10-24T09:55:06.813Z</time>
      </trkpt>
      <trkpt lat="44.4947" lon="6.27665">
        <ele>1071.35</ele>
        <time>2024-10-24T09:55:08.813Z</time>
      </trkpt>
      <trkpt lat="44.49469" lon="6.27659">
        <ele>1071.73</ele>
        <time>2024-10-24T09:55:10.686Z</time>
      </trkpt>
      <trkpt lat="44.49467" lon="6.27654">
        <ele>1072.28</ele>
        <time>2024-10-24T09:55:12.811Z</time>
      </trkpt>
      <trkpt lat="44.49466" lon="6.27647">
        <ele>1072.75</ele>
        <time>2024-10-24T09:55:14.425Z</time>
      </trkpt>
      <trkpt lat="44.49465" lon="6.27639">
        <ele>1073.4099</ele>
        <time>2024-10-24T09:55:16.640Z</time>
      </trkpt>
      <trkpt lat="44.49464" lon="6.27632">
        <ele>1074.04</ele>
        <time>2024-10-24T09:55:18.378Z</time>
      </trkpt>
      <trkpt lat="44.49462" lon="6.27626">
        <ele>1074.71</ele>
        <time>2024-10-24T09:55:20.814Z</time>
      </trkpt>
      <trkpt lat="44.49461" lon="6.2762">
        <ele>1075.36</ele>
        <time>2024-10-24T09:55:22.812Z</time>
      </trkpt>
      <trkpt lat="44.49459" lon="6.27614">
        <ele>1075.96</ele>
        <time>2024-10-24T09:55:24.813Z</time>
      </trkpt>
      <trkpt lat="44.49456" lon="6.27607">
        <ele>1076.6599</ele>
        <time>2024-10-24T09:55:26.812Z</time>
      </trkpt>
      <trkpt lat="44.49452" lon="6.27601">
        <ele>1077.22</ele>
        <time>2024-10-24T09:55:28.695Z</time>
      </trkpt>
      <trkpt lat="44.49448" lon="6.27596">
        <ele>1077.6799</ele>
        <time>2024-10-24T09:55:30.812Z</time>
      </trkpt>
      <trkpt lat="44.49443" lon="6.27592">
        <ele>1078.26</ele>
        <time>2024-10-24T09:55:32.624Z</time>
      </trkpt>
      <trkpt lat="44.49439" lon="6.27588">
        <ele>1079.1599</ele>
        <time>2024-10-24T09:55:34.546Z</time>
      </trkpt>
      <trkpt lat="44.49435" lon="6.27583">
        <ele>1080.03</ele>
        <time>2024-10-24T09:55:36.591Z</time>
      </trkpt>
      <trkpt lat="44.4943" lon="6.27578">
        <ele>1081.02</ele>
        <time>2024-10-24T09:55:37.864Z</time>
      </trkpt>
      <trkpt lat="44.49425" lon="6.27573">
        <ele>1081.77</ele>
        <time>2024-10-24T09:55:40.605Z</time>
      </trkpt>
      <trkpt lat="44.49421" lon="6.27569">
        <ele>1082.44</ele>
        <time>2024-10-24T09:55:41.865Z</time>
      </trkpt>
      <trkpt lat="44.49417" lon="6.27565">
        <ele>1083.1699</ele>
        <time>2024-10-24T09:55:43.891Z</time>
      </trkpt>
      <trkpt lat="44.49413" lon="6.27561">
        <ele>1083.9099</ele>
        <time>2024-10-24T09:55:46.813Z</time>
      </trkpt>
      <trkpt lat="44.49409" lon="6.27558">
        <ele>1084.52</ele>
        <time>2024-10-24T09:55:48.813Z</time>
      </trkpt>
      <trkpt lat="44.49405" lon="6.27556">
        <ele>1085.27</ele>
        <time>2024-10-24T09:55:50.811Z</time>
      </trkpt>
      <trkpt lat="44.494" lon="6.27553">
        <ele>1085.96</ele>
        <time>2024-10-24T09:55:52.811Z</time>
      </trkpt>
      <trkpt lat="44.49395" lon="6.27551">
        <ele>1086.49</ele>
        <time>2024-10-24T09:55:54.362Z</time>
      </trkpt>
      <trkpt lat="44.49389" lon="6.2755">
        <ele>1086.99</ele>
        <time>2024-10-24T09:55:56.812Z</time>
      </trkpt>
      <trkpt lat="44.49385" lon="6.2755">
        <ele>1087.56</ele>
        <time>2024-10-24T09:55:57.873Z</time>
      </trkpt>
      <trkpt lat="44.49381" lon="6.27549">
        <ele>1088.26</ele>
        <time>2024-10-24T09:56:00.812Z</time>
      </trkpt>
      <trkpt lat="44.49377" lon="6.27543">
        <ele>1090.48</ele>
        <time>2024-10-24T09:56:09.018Z</time>
      </trkpt>
      <trkpt lat="44.49372" lon="6.27542">
        <ele>1090.7</ele>
        <time>2024-10-24T09:56:11.020Z</time>
      </trkpt>
      <trkpt lat="44.49365" lon="6.27542">
        <ele>1090.9</ele>
        <time>2024-10-24T09:56:13.017Z</time>
      </trkpt>
      <trkpt lat="44.49359" lon="6.27543">
        <ele>1091.15</ele>
        <time>2024-10-24T09:56:14.607Z</time>
      </trkpt>
      <trkpt lat="44.49352" lon="6.27544">
        <ele>1091.27</ele>
        <time>2024-10-24T09:56:16.607Z</time>
      </trkpt>
      <trkpt lat="44.49344" lon="6.27545">
        <ele>1091.44</ele>
        <time>2024-10-24T09:56:19.082Z</time>
      </trkpt>
      <trkpt lat="44.4934" lon="6.27538">
        <ele>1091.3301</ele>
        <time>2024-10-24T09:56:20.621Z</time>
      </trkpt>
      <trkpt lat="44.49333" lon="6.27532">
        <ele>1091.4299</ele>
        <time>2024-10-24T09:56:23.019Z</time>
      </trkpt>
      <trkpt lat="44.49326" lon="6.27527">
        <ele>1091.11</ele>
        <time>2024-10-24T09:56:24.625Z</time>
      </trkpt>
      <trkpt lat="44.49318" lon="6.27521">
        <ele>1091.21</ele>
        <time>2024-10-24T09:56:27.018Z</time>
      </trkpt>
      <trkpt lat="44.4931" lon="6.2752">
        <ele>1091.0901</ele>
        <time>2024-10-24T09:56:28.639Z</time>
      </trkpt>
      <trkpt lat="44.49303" lon="6.27518">
        <ele>1090.8201</ele>
        <time>2024-10-24T09:56:31.017Z</time>
      </trkpt>
      <trkpt lat="44.49298" lon="6.27512">
        <ele>1091.0801</ele>
        <time>2024-10-24T09:56:33.076Z</time>
      </trkpt>
      <trkpt lat="44.49294" lon="6.27505">
        <ele>1090.98</ele>
        <time>2024-10-24T09:56:35.017Z</time>
      </trkpt>
      <trkpt lat="44.49287" lon="6.27501">
        <ele>1091.03</ele>
        <time>2024-10-24T09:56:37.017Z</time>
      </trkpt>
      <trkpt lat="44.49281" lon="6.27496">
        <ele>1091.01</ele>
        <time>2024-10-24T09:56:39.018Z</time>
      </trkpt>
      <trkpt lat="44.49274" lon="6.27492">
        <ele>1090.94</ele>
        <time>2024-10-24T09:56:41.017Z</time>
      </trkpt>
      <trkpt lat="44.49267" lon="6.27487">
        <ele>1091</ele>
        <time>2024-10-24T09:56:43.017Z</time>
      </trkpt>
      <trkpt lat="44.4926" lon="6.27485">
        <ele>1091.14</ele>
        <time>2024-10-24T09:56:45.119Z</time>
      </trkpt>
      <trkpt lat="44.49252" lon="6.27484">
        <ele>1091.3301</ele>
        <time>2024-10-24T09:56:47.119Z</time>
      </trkpt>
      <trkpt lat="44.49245" lon="6.27482">
        <ele>1091.5801</ele>
        <time>2024-10-24T09:56:49.119Z</time>
      </trkpt>
      <trkpt lat="44.49238" lon="6.2748">
        <ele>1091.71</ele>
        <time>2024-10-24T09:56:51.120Z</time>
      </trkpt>
      <trkpt lat="44.4923" lon="6.2748">
        <ele>1091.71</ele>
        <time>2024-10-24T09:56:52.734Z</time>
      </trkpt>
      <trkpt lat="44.49223" lon="6.27479">
        <ele>1091.97</ele>
        <time>2024-10-24T09:56:54.707Z</time>
      </trkpt>
      <trkpt lat="44.49216" lon="6.27478">
        <ele>1092.0901</ele>
        <time>2024-10-24T09:56:57.119Z</time>
      </trkpt>
      <trkpt lat="44.49209" lon="6.27477">
        <ele>1092.23</ele>
        <time>2024-10-24T09:56:58.761Z</time>
      </trkpt>
      <trkpt lat="44.49202" lon="6.27477">
        <ele>1092.36</ele>
        <time>2024-10-24T09:57:01.119Z</time>
      </trkpt>
      <trkpt lat="44.49195" lon="6.27479">
        <ele>1092.53</ele>
        <time>2024-10-24T09:57:02.755Z</time>
      </trkpt>
      <trkpt lat="44.4919" lon="6.27481">
        <ele>1092.6</ele>
        <time>2024-10-24T09:57:05.122Z</time>
      </trkpt>
      <trkpt lat="44.49183" lon="6.27483">
        <ele>1092.86</ele>
        <time>2024-10-24T09:57:07.119Z</time>
      </trkpt>
      <trkpt lat="44.49177" lon="6.27484">
        <ele>1093.1699</ele>
        <time>2024-10-24T09:57:09.119Z</time>
      </trkpt>
      <trkpt lat="44.49171" lon="6.27487">
        <ele>1093.54</ele>
        <time>2024-10-24T09:57:11.120Z</time>
      </trkpt>
      <trkpt lat="44.49165" lon="6.27489">
        <ele>1093.86</ele>
        <time>2024-10-24T09:57:13.118Z</time>
      </trkpt>
      <trkpt lat="44.49161" lon="6.27492">
        <ele>1094.27</ele>
        <time>2024-10-24T09:57:14.668Z</time>
      </trkpt>
      <trkpt lat="44.49155" lon="6.27494">
        <ele>1094.5901</ele>
        <time>2024-10-24T09:57:16.814Z</time>
      </trkpt>
      <trkpt lat="44.49149" lon="6.27495">
        <ele>1094.94</ele>
        <time>2024-10-24T09:57:18.955Z</time>
      </trkpt>
      <trkpt lat="44.49143" lon="6.27498">
        <ele>1095.22</ele>
        <time>2024-10-24T09:57:21.117Z</time>
      </trkpt>
      <trkpt lat="44.49137" lon="6.27501">
        <ele>1095.72</ele>
        <time>2024-10-24T09:57:23.119Z</time>
      </trkpt>
      <trkpt lat="44.49133" lon="6.27503">
        <ele>1096.14</ele>
        <time>2024-10-24T09:57:25.119Z</time>
      </trkpt>
      <trkpt lat="44.49127" lon="6.27507">
        <ele>1096.56</ele>
        <time>2024-10-24T09:57:27.168Z</time>
      </trkpt>
      <trkpt lat="44.49122" lon="6.27511">
        <ele>1096.9199</ele>
        <time>2024-10-24T09:57:28.692Z</time>
      </trkpt>
      <trkpt lat="44.49116" lon="6.27513">
        <ele>1097.15</ele>
        <time>2024-10-24T09:57:30.700Z</time>
      </trkpt>
      <trkpt lat="44.4911" lon="6.27515">
        <ele>1097.47</ele>
        <time>2024-10-24T09:57:33.119Z</time>
      </trkpt>
      <trkpt lat="44.49105" lon="6.27519">
        <ele>1097.85</ele>
        <time>2024-10-24T09:57:35.119Z</time>
      </trkpt>
      <trkpt lat="44.49102" lon="6.27522">
        <ele>1098.13</ele>
        <time>2024-10-24T09:57:37.119Z</time>
      </trkpt>
      <trkpt lat="44.49098" lon="6.2752">
        <ele>1098.36</ele>
        <time>2024-10-24T09:57:39.118Z</time>
      </trkpt>
      <trkpt lat="44.49094" lon="6.27518">
        <ele>1098.9099</ele>
        <time>2024-10-24T09:57:41.119Z</time>
      </trkpt>
      <trkpt lat="44.49088" lon="6.27518">
        <ele>1099.4099</ele>
        <time>2024-10-24T09:57:43.118Z</time>
      </trkpt>
      <trkpt lat="44.49083" lon="6.27517">
        <ele>1100.37</ele>
        <time>2024-10-24T09:57:45.120Z</time>
      </trkpt>
      <trkpt lat="44.49077" lon="6.27516">
        <ele>1101.04</ele>
        <time>2024-10-24T09:57:47.118Z</time>
      </trkpt>
      <trkpt lat="44.49072" lon="6.27515">
        <ele>1101.65</ele>
        <time>2024-10-24T09:57:49.118Z</time>
      </trkpt>
      <trkpt lat="44.49068" lon="6.27514">
        <ele>1102.05</ele>
        <time>2024-10-24T09:57:51.119Z</time>
      </trkpt>
      <trkpt lat="44.49063" lon="6.27516">
        <ele>1102.35</ele>
        <time>2024-10-24T09:57:53.120Z</time>
      </trkpt>
      <trkpt lat="44.49057" lon="6.27517">
        <ele>1103</ele>
        <time>2024-10-24T09:57:55.119Z</time>
      </trkpt>
      <trkpt lat="44.49052" lon="6.27519">
        <ele>1103.29</ele>
        <time>2024-10-24T09:57:57.118Z</time>
      </trkpt>
      <trkpt lat="44.49044" lon="6.27521">
        <ele>1103.98</ele>
        <time>2024-10-24T09:57:59.118Z</time>
      </trkpt>
      <trkpt lat="44.49038" lon="6.27523">
        <ele>1104.6799</ele>
        <time>2024-10-24T09:58:01.120Z</time>
      </trkpt>
      <trkpt lat="44.49031" lon="6.27524">
        <ele>1105.24</ele>
        <time>2024-10-24T09:58:03.119Z</time>
      </trkpt>
      <trkpt lat="44.49025" lon="6.27525">
        <ele>1105.7</ele>
        <time>2024-10-24T09:58:05.119Z</time>
      </trkpt>
      <trkpt lat="44.49019" lon="6.27526">
        <ele>1106.16</ele>
        <time>2024-10-24T09:58:07.023Z</time>
      </trkpt>
      <trkpt lat="44.49014" lon="6.27526">
        <ele>1106.47</ele>
        <time>2024-10-24T09:58:09.219Z</time>
      </trkpt>
      <trkpt lat="44.49007" lon="6.27528">
        <ele>1106.9</ele>
        <time>2024-10-24T09:58:10.277Z</time>
      </trkpt>
      <trkpt lat="44.49001" lon="6.2753">
        <ele>1107.36</ele>
        <time>2024-10-24T09:58:13.218Z</time>
      </trkpt>
      <trkpt lat="44.48994" lon="6.27532">
        <ele>1107.95</ele>
        <time>2024-10-24T09:58:14.273Z</time>
      </trkpt>
      <trkpt lat="44.48988" lon="6.27535">
        <ele>1108.51</ele>
        <time>2024-10-24T09:58:16.299Z</time>
      </trkpt>
      <trkpt lat="44.48981" lon="6.27535">
        <ele>1108.97</ele>
        <time>2024-10-24T09:58:19.218Z</time>
      </trkpt>
      <trkpt lat="44.48973" lon="6.27536">
        <ele>1109.33</ele>
        <time>2024-10-24T09:58:21.219Z</time>
      </trkpt>
      <trkpt lat="44.48966" lon="6.27539">
        <ele>1109.52</ele>
        <time>2024-10-24T09:58:23.217Z</time>
      </trkpt>
      <trkpt lat="44.48961" lon="6.2754">
        <ele>1109.87</ele>
        <time>2024-10-24T09:58:25.219Z</time>
      </trkpt>
      <trkpt lat="44.48955" lon="6.27541">
        <ele>1110.2</ele>
        <time>2024-10-24T09:58:26.308Z</time>
      </trkpt>
      <trkpt lat="44.48948" lon="6.27544">
        <ele>1110.73</ele>
        <time>2024-10-24T09:58:28.272Z</time>
      </trkpt>
      <trkpt lat="44.48942" lon="6.27547">
        <ele>1111.28</ele>
        <time>2024-10-24T09:58:30.262Z</time>
      </trkpt>
      <trkpt lat="44.48938" lon="6.27548">
        <ele>1111.84</ele>
        <time>2024-10-24T09:58:32.289Z</time>
      </trkpt>
      <trkpt lat="44.48936" lon="6.27549">
        <ele>1111.83</ele>
        <time>2024-10-24T09:58:34.282Z</time>
      </trkpt>
      <trkpt lat="44.48933" lon="6.27552">
        <ele>1111.99</ele>
        <time>2024-10-24T09:58:37.351Z</time>
      </trkpt>
      <trkpt lat="44.48935" lon="6.27553">
        <ele>1112.78</ele>
        <time>2024-10-24T09:58:39.919Z</time>
      </trkpt>
      <trkpt lat="44.48933" lon="6.27553">
        <ele>1113.32</ele>
        <time>2024-10-24T09:58:43.918Z</time>
      </trkpt>
      <trkpt lat="44.48931" lon="6.27553">
        <ele>1113.57</ele>
        <time>2024-10-24T09:58:48.113Z</time>
      </trkpt>
      <trkpt lat="44.4893" lon="6.27554">
        <ele>1113.94</ele>
        <time>2024-10-24T09:58:49.112Z</time>
      </trkpt>
      <trkpt lat="44.48926" lon="6.27556">
        <ele>1114.41</ele>
        <time>2024-10-24T09:58:53.169Z</time>
      </trkpt>
      <trkpt lat="44.48925" lon="6.27556">
        <ele>1114.78</ele>
        <time>2024-10-24T09:58:55.115Z</time>
      </trkpt>
      <trkpt lat="44.48925" lon="6.27557">
        <ele>1116.18</ele>
        <time>2024-10-24T09:59:02.861Z</time>
      </trkpt>
      <trkpt lat="44.48919" lon="6.2756">
        <ele>1116.23</ele>
        <time>2024-10-24T09:59:04.862Z</time>
      </trkpt>
      <trkpt lat="44.48913" lon="6.27564">
        <ele>1116.4</ele>
        <time>2024-10-24T09:59:06.690Z</time>
      </trkpt>
      <trkpt lat="44.48909" lon="6.27566">
        <ele>1116.74</ele>
        <time>2024-10-24T09:59:08.901Z</time>
      </trkpt>
      <trkpt lat="44.48906" lon="6.27571">
        <ele>1116.97</ele>
        <time>2024-10-24T09:59:09.978Z</time>
      </trkpt>
      <trkpt lat="44.48901" lon="6.27576">
        <ele>1117.18</ele>
        <time>2024-10-24T09:59:12.963Z</time>
      </trkpt>
      <trkpt lat="44.48896" lon="6.27582">
        <ele>1117.21</ele>
        <time>2024-10-24T09:59:14.961Z</time>
      </trkpt>
      <trkpt lat="44.4889" lon="6.27588">
        <ele>1117.67</ele>
        <time>2024-10-24T09:59:16.739Z</time>
      </trkpt>
      <trkpt lat="44.48884" lon="6.2759">
        <ele>1117.93</ele>
        <time>2024-10-24T09:59:18.962Z</time>
      </trkpt>
      <trkpt lat="44.48877" lon="6.27589">
        <ele>1117.98</ele>
        <time>2024-10-24T09:59:20.962Z</time>
      </trkpt>
      <trkpt lat="44.48868" lon="6.27588">
        <ele>1118.2</ele>
        <time>2024-10-24T09:59:22.963Z</time>
      </trkpt>
      <trkpt lat="44.48861" lon="6.27591">
        <ele>1118.42</ele>
        <time>2024-10-24T09:59:23.984Z</time>
      </trkpt>
      <trkpt lat="44.48857" lon="6.27588">
        <ele>1118.57</ele>
        <time>2024-10-24T09:59:26.961Z</time>
      </trkpt>
      <trkpt lat="44.48855" lon="6.27582">
        <ele>1118.62</ele>
        <time>2024-10-24T09:59:28.963Z</time>
      </trkpt>
      <trkpt lat="44.48851" lon="6.27579">
        <ele>1118.64</ele>
        <time>2024-10-24T09:59:30.492Z</time>
      </trkpt>
      <trkpt lat="44.48848" lon="6.2758">
        <ele>1118.59</ele>
        <time>2024-10-24T09:59:32.963Z</time>
      </trkpt>
      <trkpt lat="44.48855" lon="6.27594">
        <ele>1118.18</ele>
        <time>2024-10-24T10:01:49.743Z</time>
      </trkpt>
      <trkpt lat="44.48848" lon="6.27581">
        <ele>1117.56</ele>
        <time>2024-10-24T10:02:24.850Z</time>
      </trkpt>
      <trkpt lat="44.48843" lon="6.27593">
        <ele>1117.53</ele>
        <time>2024-10-24T10:02:28.454Z</time>
      </trkpt>
      <trkpt lat="44.48838" lon="6.27602">
        <ele>1117.47</ele>
        <time>2024-10-24T10:02:29.550Z</time>
      </trkpt>
      <trkpt lat="44.48832" lon="6.27613">
        <ele>1117.44</ele>
        <time>2024-10-24T10:02:32.555Z</time>
      </trkpt>
      <trkpt lat="44.48822" lon="6.27621">
        <ele>1117.33</ele>
        <time>2024-10-24T10:02:34.556Z</time>
      </trkpt>
      <trkpt lat="44.48813" lon="6.27627">
        <ele>1117.19</ele>
        <time>2024-10-24T10:02:36.555Z</time>
      </trkpt>
      <trkpt lat="44.48806" lon="6.27638">
        <ele>1117</ele>
        <time>2024-10-24T10:02:38.592Z</time>
      </trkpt>
      <trkpt lat="44.48794" lon="6.27642">
        <ele>1116.77</ele>
        <time>2024-10-24T10:02:40.555Z</time>
      </trkpt>
      <trkpt lat="44.48785" lon="6.27647">
        <ele>1116.54</ele>
        <time>2024-10-24T10:02:42.555Z</time>
      </trkpt>
      <trkpt lat="44.48779" lon="6.27654">
        <ele>1116.27</ele>
        <time>2024-10-24T10:02:44.553Z</time>
      </trkpt>
      <trkpt lat="44.48776" lon="6.27666">
        <ele>1115.91</ele>
        <time>2024-10-24T10:02:46.556Z</time>
      </trkpt>
      <trkpt lat="44.48777" lon="6.2768">
        <ele>1115.56</ele>
        <time>2024-10-24T10:02:48.555Z</time>
      </trkpt>
      <trkpt lat="44.48781" lon="6.27695">
        <ele>1114.86</ele>
        <time>2024-10-24T10:02:50.655Z</time>
      </trkpt>
      <trkpt lat="44.48788" lon="6.2771">
        <ele>1114.36</ele>
        <time>2024-10-24T10:02:52.166Z</time>
      </trkpt>
      <trkpt lat="44.48791" lon="6.27725">
        <ele>1113.64</ele>
        <time>2024-10-24T10:02:54.192Z</time>
      </trkpt>
      <trkpt lat="44.48795" lon="6.27743">
        <ele>1112.77</ele>
        <time>2024-10-24T10:02:56.210Z</time>
      </trkpt>
      <trkpt lat="44.488" lon="6.27759">
        <ele>1112.08</ele>
        <time>2024-10-24T10:02:58.233Z</time>
      </trkpt>
      <trkpt lat="44.48809" lon="6.27771">
        <ele>1110.92</ele>
        <time>2024-10-24T10:03:00.171Z</time>
      </trkpt>
      <trkpt lat="44.48816" lon="6.27779">
        <ele>1110.12</ele>
        <time>2024-10-24T10:03:02.239Z</time>
      </trkpt>
      <trkpt lat="44.48817" lon="6.27786">
        <ele>1109.03</ele>
        <time>2024-10-24T10:03:04.220Z</time>
      </trkpt>
      <trkpt lat="44.48818" lon="6.27782">
        <ele>1107.65</ele>
        <time>2024-10-24T10:03:06.173Z</time>
      </trkpt>
      <trkpt lat="44.48812" lon="6.27779">
        <ele>1106.62</ele>
        <time>2024-10-24T10:03:08.204Z</time>
      </trkpt>
      <trkpt lat="44.48801" lon="6.27783">
        <ele>1105.61</ele>
        <time>2024-10-24T10:03:10.655Z</time>
      </trkpt>
      <trkpt lat="44.48789" lon="6.27785">
        <ele>1103.8</ele>
        <time>2024-10-24T10:03:12.206Z</time>
      </trkpt>
      <trkpt lat="44.48777" lon="6.27787">
        <ele>1101.96</ele>
        <time>2024-10-24T10:03:14.654Z</time>
      </trkpt>
      <trkpt lat="44.48769" lon="6.27784">
        <ele>1100.6</ele>
        <time>2024-10-24T10:03:16.174Z</time>
      </trkpt>
      <trkpt lat="44.48756" lon="6.27778">
        <ele>1099</ele>
        <time>2024-10-24T10:03:18.186Z</time>
      </trkpt>
      <trkpt lat="44.48748" lon="6.2777">
        <ele>1097.5801</ele>
        <time>2024-10-24T10:03:20.655Z</time>
      </trkpt>
      <trkpt lat="44.48746" lon="6.27764">
        <ele>1096.13</ele>
        <time>2024-10-24T10:03:22.198Z</time>
      </trkpt>
      <trkpt lat="44.48746" lon="6.27758">
        <ele>1094.6599</ele>
        <time>2024-10-24T10:03:24.228Z</time>
      </trkpt>
      <trkpt lat="44.48746" lon="6.27754">
        <ele>1092.98</ele>
        <time>2024-10-24T10:03:26.677Z</time>
      </trkpt>
      <trkpt lat="44.48745" lon="6.27759">
        <ele>1092.98</ele>
        <time>2024-10-24T10:03:30.820Z</time>
      </trkpt>
      <trkpt lat="44.48742" lon="6.27768">
        <ele>1092.98</ele>
        <time>2024-10-24T10:03:32.819Z</time>
      </trkpt>
      <trkpt lat="44.48742" lon="6.27779">
        <ele>1092.98</ele>
        <time>2024-10-24T10:03:34.819Z</time>
      </trkpt>
      <trkpt lat="44.48743" lon="6.2779">
        <ele>1092.98</ele>
        <time>2024-10-24T10:03:36.818Z</time>
      </trkpt>
      <trkpt lat="44.48745" lon="6.278">
        <ele>1092.98</ele>
        <time>2024-10-24T10:03:38.820Z</time>
      </trkpt>
      <trkpt lat="44.48751" lon="6.27812">
        <ele>1082.27</ele>
        <time>2024-10-24T10:03:40.819Z</time>
      </trkpt>
      <trkpt lat="44.48756" lon="6.27827">
        <ele>1081.1599</ele>
        <time>2024-10-24T10:03:42.821Z</time>
      </trkpt>
      <trkpt lat="44.48763" lon="6.27841">
        <ele>1079.69</ele>
        <time>2024-10-24T10:03:44.820Z</time>
      </trkpt>
      <trkpt lat="44.48769" lon="6.27849">
        <ele>1078.02</ele>
        <time>2024-10-24T10:03:46.921Z</time>
      </trkpt>
      <trkpt lat="44.48781" lon="6.27852">
        <ele>1076.38</ele>
        <time>2024-10-24T10:03:48.919Z</time>
      </trkpt>
      <trkpt lat="44.48793" lon="6.27857">
        <ele>1074.9099</ele>
        <time>2024-10-24T10:03:50.920Z</time>
      </trkpt>
      <trkpt lat="44.48804" lon="6.27856">
        <ele>1073.4</ele>
        <time>2024-10-24T10:03:52.922Z</time>
      </trkpt>
      <trkpt lat="44.48813" lon="6.27859">
        <ele>1072.15</ele>
        <time>2024-10-24T10:03:54.919Z</time>
      </trkpt>
      <trkpt lat="44.48819" lon="6.27865">
        <ele>1070.79</ele>
        <time>2024-10-24T10:03:56.919Z</time>
      </trkpt>
      <trkpt lat="44.48827" lon="6.2787">
        <ele>1069.4299</ele>
        <time>2024-10-24T10:03:58.921Z</time>
      </trkpt>
      <trkpt lat="44.48835" lon="6.27873">
        <ele>1067.76</ele>
        <time>2024-10-24T10:04:00.918Z</time>
      </trkpt>
      <trkpt lat="44.48836" lon="6.27873">
        <ele>1066.3401</ele>
        <time>2024-10-24T10:04:02.918Z</time>
      </trkpt>
      <trkpt lat="44.48829" lon="6.27872">
        <ele>1066.3401</ele>
        <time>2024-10-24T10:04:04.919Z</time>
      </trkpt>
      <trkpt lat="44.48822" lon="6.27867">
        <ele>1066.3401</ele>
        <time>2024-10-24T10:04:06.918Z</time>
      </trkpt>
      <trkpt lat="44.48811" lon="6.27865">
        <ele>1062.54</ele>
        <time>2024-10-24T10:04:08.920Z</time>
      </trkpt>
      <trkpt lat="44.48801" lon="6.27874">
        <ele>1060.9</ele>
        <time>2024-10-24T10:04:10.919Z</time>
      </trkpt>
      <trkpt lat="44.48791" lon="6.27879">
        <ele>1059.55</ele>
        <time>2024-10-24T10:04:12.920Z</time>
      </trkpt>
      <trkpt lat="44.48782" lon="6.27878">
        <ele>1058.23</ele>
        <time>2024-10-24T10:04:14.920Z</time>
      </trkpt>
      <trkpt lat="44.48772" lon="6.27878">
        <ele>1056.77</ele>
        <time>2024-10-24T10:04:16.918Z</time>
      </trkpt>
      <trkpt lat="44.48762" lon="6.2788">
        <ele>1055.5801</ele>
        <time>2024-10-24T10:04:18.919Z</time>
      </trkpt>
      <trkpt lat="44.48751" lon="6.27881">
        <ele>1054.51</ele>
        <time>2024-10-24T10:04:20.920Z</time>
      </trkpt>
      <trkpt lat="44.4874" lon="6.2788">
        <ele>1053.31</ele>
        <time>2024-10-24T10:04:22.921Z</time>
      </trkpt>
      <trkpt lat="44.4873" lon="6.27879">
        <ele>1052.3301</ele>
        <time>2024-10-24T10:04:24.919Z</time>
      </trkpt>
      <trkpt lat="44.48723" lon="6.27876">
        <ele>1051.31</ele>
        <time>2024-10-24T10:04:26.919Z</time>
      </trkpt>
      <trkpt lat="44.48718" lon="6.2787">
        <ele>1050.06</ele>
        <time>2024-10-24T10:04:28.921Z</time>
      </trkpt>
      <trkpt lat="44.48716" lon="6.27863">
        <ele>1049.1599</ele>
        <time>2024-10-24T10:04:30.918Z</time>
      </trkpt>
      <trkpt lat="44.48713" lon="6.27862">
        <ele>1048.21</ele>
        <time>2024-10-24T10:04:32.919Z</time>
      </trkpt>
      <trkpt lat="44.48712" lon="6.27866">
        <ele>1048.21</ele>
        <time>2024-10-24T10:04:34.918Z</time>
      </trkpt>
      <trkpt lat="44.48716" lon="6.27876">
        <ele>1048.21</ele>
        <time>2024-10-24T10:04:36.918Z</time>
      </trkpt>
      <trkpt lat="44.48721" lon="6.27884">
        <ele>1044.8301</ele>
        <time>2024-10-24T10:04:38.919Z</time>
      </trkpt>
      <trkpt lat="44.48726" lon="6.27889">
        <ele>1043.96</ele>
        <time>2024-10-24T10:04:40.918Z</time>
      </trkpt>
      <trkpt lat="44.4873" lon="6.27893">
        <ele>1043.14</ele>
        <time>2024-10-24T10:04:42.920Z</time>
      </trkpt>
      <trkpt lat="44.48737" lon="6.27898">
        <ele>1042.52</ele>
        <time>2024-10-24T10:04:44.920Z</time>
      </trkpt>
      <trkpt lat="44.48742" lon="6.279">
        <ele>1041.3401</ele>
        <time>2024-10-24T10:04:46.920Z</time>
      </trkpt>
      <trkpt lat="44.48744" lon="6.27902">
        <ele>1040.35</ele>
        <time>2024-10-24T10:04:48.919Z</time>
      </trkpt>
      <trkpt lat="44.48745" lon="6.27904">
        <ele>1040.35</ele>
        <time>2024-10-24T10:04:55.642Z</time>
      </trkpt>
      <trkpt lat="44.48742" lon="6.27904">
        <ele>1040.35</ele>
        <time>2024-10-24T10:04:57.254Z</time>
      </trkpt>
      <trkpt lat="44.48735" lon="6.27903">
        <ele>1040.35</ele>
        <time>2024-10-24T10:04:59.263Z</time>
      </trkpt>
      <trkpt lat="44.48726" lon="6.279">
        <ele>1040.35</ele>
        <time>2024-10-24T10:05:01.261Z</time>
      </trkpt>
      <trkpt lat="44.48719" lon="6.27897">
        <ele>1035</ele>
        <time>2024-10-24T10:05:04.168Z</time>
      </trkpt>
      <trkpt lat="44.48712" lon="6.27894">
        <ele>1034.13</ele>
        <time>2024-10-24T10:05:06.168Z</time>
      </trkpt>
      <trkpt lat="44.48704" lon="6.27891">
        <ele>1033.26</ele>
        <time>2024-10-24T10:05:08.169Z</time>
      </trkpt>
      <trkpt lat="44.48697" lon="6.27883">
        <ele>1032.46</ele>
        <time>2024-10-24T10:05:10.169Z</time>
      </trkpt>
      <trkpt lat="44.48688" lon="6.27873">
        <ele>1031.76</ele>
        <time>2024-10-24T10:05:12.170Z</time>
      </trkpt>
      <trkpt lat="44.48684" lon="6.27867">
        <ele>1031.1699</ele>
        <time>2024-10-24T10:05:14.167Z</time>
      </trkpt>
      <trkpt lat="44.48683" lon="6.27863">
        <ele>1030.44</ele>
        <time>2024-10-24T10:05:16.267Z</time>
      </trkpt>
      <trkpt lat="44.48681" lon="6.27866">
        <ele>1029.54</ele>
        <time>2024-10-24T10:05:17.772Z</time>
      </trkpt>
      <trkpt lat="44.48682" lon="6.27873">
        <ele>1028.76</ele>
        <time>2024-10-24T10:05:19.769Z</time>
      </trkpt>
      <trkpt lat="44.48686" lon="6.27883">
        <ele>1028.19</ele>
        <time>2024-10-24T10:05:21.273Z</time>
      </trkpt>
      <trkpt lat="44.4869" lon="6.27896">
        <ele>1027.3</ele>
        <time>2024-10-24T10:05:24.265Z</time>
      </trkpt>
      <trkpt lat="44.48698" lon="6.27906">
        <ele>1026.61</ele>
        <time>2024-10-24T10:05:25.281Z</time>
      </trkpt>
      <trkpt lat="44.48705" lon="6.27916">
        <ele>1025.76</ele>
        <time>2024-10-24T10:05:28.267Z</time>
      </trkpt>
      <trkpt lat="44.48712" lon="6.27923">
        <ele>1024.8201</ele>
        <time>2024-10-24T10:05:29.805Z</time>
      </trkpt>
      <trkpt lat="44.48722" lon="6.27928">
        <ele>1024.14</ele>
        <time>2024-10-24T10:05:32.254Z</time>
      </trkpt>
      <trkpt lat="44.48732" lon="6.27934">
        <ele>1023.41</ele>
        <time>2024-10-24T10:05:34.267Z</time>
      </trkpt>
      <trkpt lat="44.48741" lon="6.27941">
        <ele>1022.79</ele>
        <time>2024-10-24T10:05:35.293Z</time>
      </trkpt>
      <trkpt lat="44.48746" lon="6.27947">
        <ele>1021.99</ele>
        <time>2024-10-24T10:05:37.868Z</time>
      </trkpt>
      <trkpt lat="44.48755" lon="6.27952">
        <ele>1021.36</ele>
        <time>2024-10-24T10:05:40.270Z</time>
      </trkpt>
      <trkpt lat="44.48762" lon="6.27956">
        <ele>1020.31</ele>
        <time>2024-10-24T10:05:41.863Z</time>
      </trkpt>
      <trkpt lat="44.48767" lon="6.27955">
        <ele>1019</ele>
        <time>2024-10-24T10:05:44.267Z</time>
      </trkpt>
      <trkpt lat="44.48771" lon="6.27957">
        <ele>1017.55</ele>
        <time>2024-10-24T10:05:48.267Z</time>
      </trkpt>
      <trkpt lat="44.48765" lon="6.27962">
        <ele>1017.55</ele>
        <time>2024-10-24T10:05:50.268Z</time>
      </trkpt>
      <trkpt lat="44.48762" lon="6.27965">
        <ele>1017.55</ele>
        <time>2024-10-24T10:05:52.267Z</time>
      </trkpt>
      <trkpt lat="44.48762" lon="6.27967">
        <ele>1017.55</ele>
        <time>2024-10-24T10:05:54.267Z</time>
      </trkpt>
      <trkpt lat="44.48768" lon="6.27967">
        <ele>1017.55</ele>
        <time>2024-10-24T10:05:56.270Z</time>
      </trkpt>
      <trkpt lat="44.48773" lon="6.27966">
        <ele>1017.55</ele>
        <time>2024-10-24T10:05:57.337Z</time>
      </trkpt>
      <trkpt lat="44.48782" lon="6.27977">
        <ele>1017.55</ele>
        <time>2024-10-24T10:05:59.879Z</time>
      </trkpt>
      <trkpt lat="44.48788" lon="6.27988">
        <ele>1017.55</ele>
        <time>2024-10-24T10:06:01.864Z</time>
      </trkpt>
      <trkpt lat="44.48793" lon="6.27994">
        <ele>1006.6</ele>
        <time>2024-10-24T10:06:04.268Z</time>
      </trkpt>
      <trkpt lat="44.48793" lon="6.27993">
        <ele>1005.28</ele>
        <time>2024-10-24T10:06:06.267Z</time>
      </trkpt>
      <trkpt lat="44.48789" lon="6.27991">
        <ele>1005.28</ele>
        <time>2024-10-24T10:06:08.269Z</time>
      </trkpt>
      <trkpt lat="44.48784" lon="6.27988">
        <ele>1005.28</ele>
        <time>2024-10-24T10:06:10.267Z</time>
      </trkpt>
      <trkpt lat="44.48778" lon="6.27985">
        <ele>1005.28</ele>
        <time>2024-10-24T10:06:12.267Z</time>
      </trkpt>
      <trkpt lat="44.48771" lon="6.27989">
        <ele>1005.28</ele>
        <time>2024-10-24T10:06:14.267Z</time>
      </trkpt>
      <trkpt lat="44.48766" lon="6.28">
        <ele>997.67</ele>
        <time>2024-10-24T10:06:16.267Z</time>
      </trkpt>
      <trkpt lat="44.48762" lon="6.2801">
        <ele>996.22</ele>
        <time>2024-10-24T10:06:18.267Z</time>
      </trkpt>
      <trkpt lat="44.48757" lon="6.28014">
        <ele>994.36</ele>
        <time>2024-10-24T10:06:20.267Z</time>
      </trkpt>
      <trkpt lat="44.48752" lon="6.28014">
        <ele>992.68</ele>
        <time>2024-10-24T10:06:22.271Z</time>
      </trkpt>
      <trkpt lat="44.48745" lon="6.2801">
        <ele>992.68</ele>
        <time>2024-10-24T10:06:24.268Z</time>
      </trkpt>
      <trkpt lat="44.48737" lon="6.28019">
        <ele>989</ele>
        <time>2024-10-24T10:06:26.321Z</time>
      </trkpt>
      <trkpt lat="44.48731" lon="6.28023">
        <ele>987.31</ele>
        <time>2024-10-24T10:06:28.267Z</time>
      </trkpt>
      <trkpt lat="44.48728" lon="6.28026">
        <ele>985.48</ele>
        <time>2024-10-24T10:06:30.268Z</time>
      </trkpt>
      <trkpt lat="44.48731" lon="6.28033">
        <ele>985.48</ele>
        <time>2024-10-24T10:06:32.268Z</time>
      </trkpt>
      <trkpt lat="44.48737" lon="6.28032">
        <ele>985.48</ele>
        <time>2024-10-24T10:06:34.267Z</time>
      </trkpt>
      <trkpt lat="44.48742" lon="6.28028">
        <ele>985.48</ele>
        <time>2024-10-24T10:06:35.901Z</time>
      </trkpt>
      <trkpt lat="44.48746" lon="6.28034">
        <ele>985.48</ele>
        <time>2024-10-24T10:06:38.268Z</time>
      </trkpt>
      <trkpt lat="44.48751" lon="6.28044">
        <ele>985.48</ele>
        <time>2024-10-24T10:06:39.893Z</time>
      </trkpt>
      <trkpt lat="44.48756" lon="6.28053">
        <ele>985.48</ele>
        <time>2024-10-24T10:06:42.268Z</time>
      </trkpt>
      <trkpt lat="44.48763" lon="6.28058">
        <ele>973.38</ele>
        <time>2024-10-24T10:06:44.269Z</time>
      </trkpt>
      <trkpt lat="44.48768" lon="6.28056">
        <ele>971.5</ele>
        <time>2024-10-24T10:06:45.917Z</time>
      </trkpt>
      <trkpt lat="44.48774" lon="6.28051">
        <ele>969.83</ele>
        <time>2024-10-24T10:06:47.900Z</time>
      </trkpt>
      <trkpt lat="44.48779" lon="6.28052">
        <ele>968.07</ele>
        <time>2024-10-24T10:06:49.939Z</time>
      </trkpt>
      <trkpt lat="44.48783" lon="6.2806">
        <ele>966.49</ele>
        <time>2024-10-24T10:06:51.903Z</time>
      </trkpt>
      <trkpt lat="44.48788" lon="6.28069">
        <ele>964.5</ele>
        <time>2024-10-24T10:06:53.942Z</time>
      </trkpt>
      <trkpt lat="44.48795" lon="6.28077">
        <ele>962.92</ele>
        <time>2024-10-24T10:06:55.930Z</time>
      </trkpt>
      <trkpt lat="44.48804" lon="6.28083">
        <ele>961.17</ele>
        <time>2024-10-24T10:06:57.911Z</time>
      </trkpt>
      <trkpt lat="44.48814" lon="6.28087">
        <ele>958.52</ele>
        <time>2024-10-24T10:06:59.940Z</time>
      </trkpt>
      <trkpt lat="44.48819" lon="6.28086">
        <ele>956.86</ele>
        <time>2024-10-24T10:07:01.906Z</time>
      </trkpt>
      <trkpt lat="44.48829" lon="6.28074">
        <ele>939.51</ele>
        <time>2024-10-24T10:12:03.418Z</time>
      </trkpt>
      <trkpt lat="44.48827" lon="6.28069">
        <ele>939.48</ele>
        <time>2024-10-24T10:12:04.509Z</time>
      </trkpt>
      <trkpt lat="44.48829" lon="6.28063">
        <ele>939.42</ele>
        <time>2024-10-24T10:12:07.418Z</time>
      </trkpt>
      <trkpt lat="44.48827" lon="6.28061">
        <ele>939.44</ele>
        <time>2024-10-24T10:12:08.419Z</time>
      </trkpt>
      <trkpt lat="44.48824" lon="6.28055">
        <ele>939.41</ele>
        <time>2024-10-24T10:12:10.418Z</time>
      </trkpt>
      <trkpt lat="44.48822" lon="6.28052">
        <ele>939.37</ele>
        <time>2024-10-24T10:12:17.498Z</time>
      </trkpt>
      <trkpt lat="44.48827" lon="6.28059">
        <ele>939.12</ele>
        <time>2024-10-24T10:12:22.110Z</time>
      </trkpt>
      <trkpt lat="44.48817" lon="6.28046">
        <ele>938.84</ele>
        <time>2024-10-24T10:12:27.489Z</time>
      </trkpt>
      <trkpt lat="44.4864" lon="6.27418">
        <ele>932.33</ele>
        <time>2024-10-24T10:13:06.133Z</time>
      </trkpt>
      <trkpt lat="44.48639" lon="6.2741">
        <ele>930.7</ele>
        <time>2024-10-24T10:13:07.518Z</time>
      </trkpt>
      <trkpt lat="44.48635" lon="6.27392">
        <ele>930.37</ele>
        <time>2024-10-24T10:13:09.128Z</time>
      </trkpt>
      <trkpt lat="44.48628" lon="6.27366">
        <ele>929.58</ele>
        <time>2024-10-24T10:13:11.518Z</time>
      </trkpt>
      <trkpt lat="44.4862" lon="6.27342">
        <ele>928.74</ele>
        <time>2024-10-24T10:13:13.519Z</time>
      </trkpt>
      <trkpt lat="44.48614" lon="6.27316">
        <ele>927.85</ele>
        <time>2024-10-24T10:13:15.519Z</time>
      </trkpt>
      <trkpt lat="44.4861" lon="6.27288">
        <ele>926.81</ele>
        <time>2024-10-24T10:13:17.518Z</time>
      </trkpt>
      <trkpt lat="44.48608" lon="6.27258">
        <ele>925.74</ele>
        <time>2024-10-24T10:13:19.519Z</time>
      </trkpt>
      <trkpt lat="44.48611" lon="6.27226">
        <ele>924.55</ele>
        <time>2024-10-24T10:13:21.518Z</time>
      </trkpt>
      <trkpt lat="44.48619" lon="6.27196">
        <ele>923.19</ele>
        <time>2024-10-24T10:13:23.517Z</time>
      </trkpt>
      <trkpt lat="44.48633" lon="6.27168">
        <ele>921.78</ele>
        <time>2024-10-24T10:13:25.518Z</time>
      </trkpt>
      <trkpt lat="44.4865" lon="6.27146">
        <ele>920.17</ele>
        <time>2024-10-24T10:13:27.517Z</time>
      </trkpt>
      <trkpt lat="44.4867" lon="6.27128">
        <ele>918.56</ele>
        <time>2024-10-24T10:13:29.518Z</time>
      </trkpt>
      <trkpt lat="44.48692" lon="6.27115">
        <ele>916.79</ele>
        <time>2024-10-24T10:13:31.518Z</time>
      </trkpt>
      <trkpt lat="44.48713" lon="6.27103">
        <ele>914.8</ele>
        <time>2024-10-24T10:13:33.120Z</time>
      </trkpt>
      <trkpt lat="44.48728" lon="6.27089">
        <ele>912.75</ele>
        <time>2024-10-24T10:13:35.518Z</time>
      </trkpt>
      <trkpt lat="44.48736" lon="6.27071">
        <ele>910.69</ele>
        <time>2024-10-24T10:13:37.520Z</time>
      </trkpt>
      <trkpt lat="44.48737" lon="6.2706">
        <ele>908.6</ele>
        <time>2024-10-24T10:13:39.520Z</time>
      </trkpt>
      <trkpt lat="44.48742" lon="6.27058">
        <ele>906.11</ele>
        <time>2024-10-24T10:13:41.517Z</time>
      </trkpt>
      <trkpt lat="44.48746" lon="6.2706">
        <ele>906.11</ele>
        <time>2024-10-24T10:13:43.480Z</time>
      </trkpt>
      <trkpt lat="44.4875" lon="6.27063">
        <ele>906.11</ele>
        <time>2024-10-24T10:13:45.518Z</time>
      </trkpt>
      <trkpt lat="44.48753" lon="6.27062">
        <ele>901.21</ele>
        <time>2024-10-24T10:13:47.522Z</time>
      </trkpt>
      <trkpt lat="44.48759" lon="6.2706">
        <ele>900.04</ele>
        <time>2024-10-24T10:13:49.517Z</time>
      </trkpt>
      <trkpt lat="44.48767" lon="6.27061">
        <ele>898.75</ele>
        <time>2024-10-24T10:13:51.518Z</time>
      </trkpt>
      <trkpt lat="44.48775" lon="6.27064">
        <ele>897.42</ele>
        <time>2024-10-24T10:13:53.517Z</time>
      </trkpt>
      <trkpt lat="44.48782" lon="6.27066">
        <ele>896.31</ele>
        <time>2024-10-24T10:13:55.619Z</time>
      </trkpt>
      <trkpt lat="44.48789" lon="6.2707">
        <ele>895.64</ele>
        <time>2024-10-24T10:13:57.233Z</time>
      </trkpt>
      <trkpt lat="44.48796" lon="6.27079">
        <ele>894.92</ele>
        <time>2024-10-24T10:13:59.618Z</time>
      </trkpt>
      <trkpt lat="44.48799" lon="6.27094">
        <ele>894.04</ele>
        <time>2024-10-24T10:14:01.620Z</time>
      </trkpt>
      <trkpt lat="44.48806" lon="6.27104">
        <ele>893.32</ele>
        <time>2024-10-24T10:14:03.620Z</time>
      </trkpt>
      <trkpt lat="44.48814" lon="6.27102">
        <ele>893.46</ele>
        <time>2024-10-24T10:14:05.619Z</time>
      </trkpt>
      <trkpt lat="44.48824" lon="6.271">
        <ele>892.88</ele>
        <time>2024-10-24T10:14:07.618Z</time>
      </trkpt>
      <trkpt lat="44.48835" lon="6.27103">
        <ele>892.2</ele>
        <time>2024-10-24T10:14:09.620Z</time>
      </trkpt>
      <trkpt lat="44.48843" lon="6.27108">
        <ele>891.64</ele>
        <time>2024-10-24T10:14:11.620Z</time>
      </trkpt>
      <trkpt lat="44.48852" lon="6.2711">
        <ele>891.11</ele>
        <time>2024-10-24T10:14:13.435Z</time>
      </trkpt>
      <trkpt lat="44.48861" lon="6.2711">
        <ele>890.91</ele>
        <time>2024-10-24T10:14:15.618Z</time>
      </trkpt>
      <trkpt lat="44.48869" lon="6.27108">
        <ele>890.62</ele>
        <time>2024-10-24T10:14:17.618Z</time>
      </trkpt>
      <trkpt lat="44.48873" lon="6.27103">
        <ele>890.36</ele>
        <time>2024-10-24T10:14:19.618Z</time>
      </trkpt>
      <trkpt lat="44.48877" lon="6.27095">
        <ele>890.06</ele>
        <time>2024-10-24T10:14:21.218Z</time>
      </trkpt>
      <trkpt lat="44.48879" lon="6.27083">
        <ele>889.65</ele>
        <time>2024-10-24T10:14:23.152Z</time>
      </trkpt>
      <trkpt lat="44.48882" lon="6.2707">
        <ele>889.64</ele>
        <time>2024-10-24T10:14:25.648Z</time>
      </trkpt>
      <trkpt lat="44.48886" lon="6.27059">
        <ele>889.5</ele>
        <time>2024-10-24T10:14:27.198Z</time>
      </trkpt>
      <trkpt lat="44.48893" lon="6.2705">
        <ele>889.36</ele>
        <time>2024-10-24T10:14:29.655Z</time>
      </trkpt>
      <trkpt lat="44.48904" lon="6.27044">
        <ele>889.01</ele>
        <time>2024-10-24T10:14:31.225Z</time>
      </trkpt>
      <trkpt lat="44.48914" lon="6.27042">
        <ele>888.75</ele>
        <time>2024-10-24T10:14:33.619Z</time>
      </trkpt>
      <trkpt lat="44.48921" lon="6.27041">
        <ele>888.35</ele>
        <time>2024-10-24T10:14:35.618Z</time>
      </trkpt>
      <trkpt lat="44.48925" lon="6.27037">
        <ele>888.18</ele>
        <time>2024-10-24T10:14:36.711Z</time>
      </trkpt>
      <trkpt lat="44.48927" lon="6.27035">
        <ele>887.94</ele>
        <time>2024-10-24T10:14:39.379Z</time>
      </trkpt>
      <trkpt lat="44.4893" lon="6.27034">
        <ele>887.73</ele>
        <time>2024-10-24T10:14:41.619Z</time>
      </trkpt>
      <trkpt lat="44.48935" lon="6.2703">
        <ele>887.38</ele>
        <time>2024-10-24T10:14:43.618Z</time>
      </trkpt>
      <trkpt lat="44.48937" lon="6.27025">
        <ele>887.11</ele>
        <time>2024-10-24T10:14:45.618Z</time>
      </trkpt>
      <trkpt lat="44.48938" lon="6.27021">
        <ele>886.75</ele>
        <time>2024-10-24T10:14:47.619Z</time>
      </trkpt>
      <trkpt lat="44.48937" lon="6.27018">
        <ele>886.43</ele>
        <time>2024-10-24T10:14:49.619Z</time>
      </trkpt>
      <trkpt lat="44.48937" lon="6.27014">
        <ele>886.12</ele>
        <time>2024-10-24T10:14:51.617Z</time>
      </trkpt>
      <trkpt lat="44.4894" lon="6.27011">
        <ele>885.87</ele>
        <time>2024-10-24T10:14:53.671Z</time>
      </trkpt>
      <trkpt lat="44.48942" lon="6.27007">
        <ele>885.53</ele>
        <time>2024-10-24T10:14:55.618Z</time>
      </trkpt>
      <trkpt lat="44.48942" lon="6.27003">
        <ele>885.26</ele>
        <time>2024-10-24T10:14:57.618Z</time>
      </trkpt>
      <trkpt lat="44.4894" lon="6.26997">
        <ele>885.13</ele>
        <time>2024-10-24T10:14:59.620Z</time>
      </trkpt>
      <trkpt lat="44.48937" lon="6.26994">
        <ele>884.9</ele>
        <time>2024-10-24T10:15:15.398Z</time>
      </trkpt>
      <trkpt lat="44.48938" lon="6.26981">
        <ele>884.11</ele>
        <time>2024-10-24T10:15:18.437Z</time>
      </trkpt>
      <trkpt lat="44.48936" lon="6.26978">
        <ele>884.01</ele>
        <time>2024-10-24T10:15:20.400Z</time>
      </trkpt>
      <trkpt lat="44.48937" lon="6.2697">
        <ele>883.88</ele>
        <time>2024-10-24T10:15:22.034Z</time>
      </trkpt>
      <trkpt lat="44.48942" lon="6.26961">
        <ele>883.79</ele>
        <time>2024-10-24T10:15:24.400Z</time>
      </trkpt>
      <trkpt lat="44.48945" lon="6.26949">
        <ele>883.68</ele>
        <time>2024-10-24T10:15:26.031Z</time>
      </trkpt>
      <trkpt lat="44.48949" lon="6.26939">
        <ele>883.56</ele>
        <time>2024-10-24T10:15:28.400Z</time>
      </trkpt>
      <trkpt lat="44.48957" lon="6.26932">
        <ele>883.65</ele>
        <time>2024-10-24T10:15:30.400Z</time>
      </trkpt>
      <trkpt lat="44.48964" lon="6.26925">
        <ele>883.46</ele>
        <time>2024-10-24T10:15:32.045Z</time>
      </trkpt>
      <trkpt lat="44.48972" lon="6.26916">
        <ele>883.3</ele>
        <time>2024-10-24T10:15:34.402Z</time>
      </trkpt>
      <trkpt lat="44.48979" lon="6.269">
        <ele>883.14</ele>
        <time>2024-10-24T10:15:36.401Z</time>
      </trkpt>
      <trkpt lat="44.48983" lon="6.26883">
        <ele>882.98</ele>
        <time>2024-10-24T10:15:38.499Z</time>
      </trkpt>
      <trkpt lat="44.48985" lon="6.26865">
        <ele>882.71</ele>
        <time>2024-10-24T10:15:40.498Z</time>
      </trkpt>
      <trkpt lat="44.48988" lon="6.26854">
        <ele>882.53</ele>
        <time>2024-10-24T10:15:42.498Z</time>
      </trkpt>
      <trkpt lat="44.48988" lon="6.26849">
        <ele>882.3</ele>
        <time>2024-10-24T10:15:44.498Z</time>
      </trkpt>
      <trkpt lat="44.48988" lon="6.26844">
        <ele>881.99</ele>
        <time>2024-10-24T10:15:46.074Z</time>
      </trkpt>
      <trkpt lat="44.48987" lon="6.26841">
        <ele>881.14</ele>
        <time>2024-10-24T10:15:52.498Z</time>
      </trkpt>
      <trkpt lat="44.48986" lon="6.2684">
        <ele>880.53</ele>
        <time>2024-10-24T10:16:00.802Z</time>
      </trkpt>
      <trkpt lat="44.4898" lon="6.2683">
        <ele>876.42</ele>
        <time>2024-10-24T10:16:23.696Z</time>
      </trkpt>
      <trkpt lat="44.48975" lon="6.26825">
        <ele>876.23</ele>
        <time>2024-10-24T10:16:25.689Z</time>
      </trkpt>
      <trkpt lat="44.4897" lon="6.26825">
        <ele>876.23</ele>
        <time>2024-10-24T10:16:27.663Z</time>
      </trkpt>
      <trkpt lat="44.4896" lon="6.2683">
        <ele>876.14</ele>
        <time>2024-10-24T10:16:29.611Z</time>
      </trkpt>
      <trkpt lat="44.48949" lon="6.26836">
        <ele>876</ele>
        <time>2024-10-24T10:16:31.612Z</time>
      </trkpt>
      <trkpt lat="44.4894" lon="6.26843">
        <ele>875.89</ele>
        <time>2024-10-24T10:16:32.698Z</time>
      </trkpt>
      <trkpt lat="44.48934" lon="6.26851">
        <ele>875.67</ele>
        <time>2024-10-24T10:16:35.611Z</time>
      </trkpt>
      <trkpt lat="44.48929" lon="6.26857">
        <ele>875.42</ele>
        <time>2024-10-24T10:16:37.686Z</time>
      </trkpt>
      <trkpt lat="44.48922" lon="6.26862">
        <ele>875.28</ele>
        <time>2024-10-24T10:16:39.609Z</time>
      </trkpt>
      <trkpt lat="44.48914" lon="6.26865">
        <ele>875.27</ele>
        <time>2024-10-24T10:16:41.609Z</time>
      </trkpt>
      <trkpt lat="44.48906" lon="6.26868">
        <ele>875.36</ele>
        <time>2024-10-24T10:16:43.611Z</time>
      </trkpt>
      <trkpt lat="44.48898" lon="6.26871">
        <ele>875.19</ele>
        <time>2024-10-24T10:16:45.609Z</time>
      </trkpt>
      <trkpt lat="44.48887" lon="6.26876">
        <ele>875.08</ele>
        <time>2024-10-24T10:16:47.612Z</time>
      </trkpt>
      <trkpt lat="44.48879" lon="6.26885">
        <ele>874.99</ele>
        <time>2024-10-24T10:16:48.710Z</time>
      </trkpt>
      <trkpt lat="44.48872" lon="6.26895">
        <ele>874.8</ele>
        <time>2024-10-24T10:16:50.713Z</time>
      </trkpt>
      <trkpt lat="44.48864" lon="6.26906">
        <ele>874.71</ele>
        <time>2024-10-24T10:16:53.697Z</time>
      </trkpt>
      <trkpt lat="44.48856" lon="6.26911">
        <ele>874.76</ele>
        <time>2024-10-24T10:16:55.702Z</time>
      </trkpt>
      <trkpt lat="44.48846" lon="6.26911">
        <ele>874.55</ele>
        <time>2024-10-24T10:16:57.279Z</time>
      </trkpt>
      <trkpt lat="44.48836" lon="6.26912">
        <ele>874.28</ele>
        <time>2024-10-24T10:16:59.270Z</time>
      </trkpt>
      <trkpt lat="44.48825" lon="6.26908">
        <ele>874.26</ele>
        <time>2024-10-24T10:17:00.725Z</time>
      </trkpt>
      <trkpt lat="44.48817" lon="6.26903">
        <ele>874.23</ele>
        <time>2024-10-24T10:17:03.312Z</time>
      </trkpt>
      <trkpt lat="44.48811" lon="6.26899">
        <ele>874.34</ele>
        <time>2024-10-24T10:17:05.691Z</time>
      </trkpt>
      <trkpt lat="44.48803" lon="6.26895">
        <ele>874.29</ele>
        <time>2024-10-24T10:17:06.765Z</time>
      </trkpt>
      <trkpt lat="44.48795" lon="6.26892">
        <ele>874.2</ele>
        <time>2024-10-24T10:17:09.312Z</time>
      </trkpt>
      <trkpt lat="44.48786" lon="6.26889">
        <ele>874.06</ele>
        <time>2024-10-24T10:17:10.780Z</time>
      </trkpt>
      <trkpt lat="44.48776" lon="6.26886">
        <ele>874.09</ele>
        <time>2024-10-24T10:17:13.325Z</time>
      </trkpt>
      <trkpt lat="44.48766" lon="6.26883">
        <ele>874</ele>
        <time>2024-10-24T10:17:14.775Z</time>
      </trkpt>
      <trkpt lat="44.48755" lon="6.26879">
        <ele>874.03</ele>
        <time>2024-10-24T10:17:16.775Z</time>
      </trkpt>
      <trkpt lat="44.48747" lon="6.26875">
        <ele>873.94</ele>
        <time>2024-10-24T10:17:19.314Z</time>
      </trkpt>
      <trkpt lat="44.48738" lon="6.2687">
        <ele>873.85</ele>
        <time>2024-10-24T10:17:20.765Z</time>
      </trkpt>
      <trkpt lat="44.48732" lon="6.26863">
        <ele>873.75</ele>
        <time>2024-10-24T10:17:23.275Z</time>
      </trkpt>
      <trkpt lat="44.48728" lon="6.26854">
        <ele>873.72</ele>
        <time>2024-10-24T10:17:24.767Z</time>
      </trkpt>
      <trkpt lat="44.48725" lon="6.26845">
        <ele>873.74</ele>
        <time>2024-10-24T10:17:26.766Z</time>
      </trkpt>
      <trkpt lat="44.48722" lon="6.26837">
        <ele>873.73</ele>
        <time>2024-10-24T10:17:29.696Z</time>
      </trkpt>
      <trkpt lat="44.48721" lon="6.26831">
        <ele>873.68</ele>
        <time>2024-10-24T10:17:30.767Z</time>
      </trkpt>
      <trkpt lat="44.4872" lon="6.26827">
        <ele>873.71</ele>
        <time>2024-10-24T10:17:44.242Z</time>
      </trkpt>
      <trkpt lat="44.48716" lon="6.2682">
        <ele>873.95</ele>
        <time>2024-10-24T10:17:46.783Z</time>
      </trkpt>
      <trkpt lat="44.48712" lon="6.2681">
        <ele>873.94</ele>
        <time>2024-10-24T10:17:48.784Z</time>
      </trkpt>
      <trkpt lat="44.48707" lon="6.26803">
        <ele>874.02</ele>
        <time>2024-10-24T10:17:50.783Z</time>
      </trkpt>
      <trkpt lat="44.487" lon="6.26805">
        <ele>874.01</ele>
        <time>2024-10-24T10:17:52.783Z</time>
      </trkpt>
      <trkpt lat="44.48693" lon="6.2681">
        <ele>873.97</ele>
        <time>2024-10-24T10:17:54.783Z</time>
      </trkpt>
      <trkpt lat="44.48684" lon="6.26813">
        <ele>873.9</ele>
        <time>2024-10-24T10:17:56.784Z</time>
      </trkpt>
      <trkpt lat="44.48676" lon="6.26813">
        <ele>873.95</ele>
        <time>2024-10-24T10:17:58.785Z</time>
      </trkpt>
      <trkpt lat="44.48671" lon="6.26814">
        <ele>873.99</ele>
        <time>2024-10-24T10:18:00.784Z</time>
      </trkpt>
      <trkpt lat="44.48667" lon="6.26815">
        <ele>874.04</ele>
        <time>2024-10-24T10:18:02.783Z</time>
      </trkpt>
      <trkpt lat="44.48663" lon="6.26817">
        <ele>874.07</ele>
        <time>2024-10-24T10:18:04.883Z</time>
      </trkpt>
      <trkpt lat="44.4866" lon="6.26817">
        <ele>874.1</ele>
        <time>2024-10-24T10:18:06.885Z</time>
      </trkpt>
      <trkpt lat="44.48655" lon="6.26817">
        <ele>874.11</ele>
        <time>2024-10-24T10:18:08.512Z</time>
      </trkpt>
      <trkpt lat="44.48647" lon="6.26815">
        <ele>874.12</ele>
        <time>2024-10-24T10:18:10.499Z</time>
      </trkpt>
      <trkpt lat="44.48638" lon="6.26814">
        <ele>874.11</ele>
        <time>2024-10-24T10:18:12.471Z</time>
      </trkpt>
      <trkpt lat="44.48626" lon="6.26816">
        <ele>874.13</ele>
        <time>2024-10-24T10:18:14.886Z</time>
      </trkpt>
      <trkpt lat="44.48612" lon="6.26812">
        <ele>874.11</ele>
        <time>2024-10-24T10:18:16.883Z</time>
      </trkpt>
      <trkpt lat="44.48605" lon="6.26802">
        <ele>874.08</ele>
        <time>2024-10-24T10:18:18.886Z</time>
      </trkpt>
      <trkpt lat="44.48603" lon="6.26792">
        <ele>873.94</ele>
        <time>2024-10-24T10:18:20.884Z</time>
      </trkpt>
      <trkpt lat="44.48603" lon="6.26781">
        <ele>873.85</ele>
        <time>2024-10-24T10:18:22.885Z</time>
      </trkpt>
      <trkpt lat="44.48604" lon="6.26772">
        <ele>873.77</ele>
        <time>2024-10-24T10:18:24.491Z</time>
      </trkpt>
      <trkpt lat="44.48605" lon="6.2676">
        <ele>873.68</ele>
        <time>2024-10-24T10:18:26.810Z</time>
      </trkpt>
      <trkpt lat="44.48605" lon="6.26746">
        <ele>873.58</ele>
        <time>2024-10-24T10:18:28.885Z</time>
      </trkpt>
      <trkpt lat="44.48606" lon="6.2673">
        <ele>873.46</ele>
        <time>2024-10-24T10:18:30.476Z</time>
      </trkpt>
      <trkpt lat="44.48611" lon="6.26713">
        <ele>873.38</ele>
        <time>2024-10-24T10:18:32.886Z</time>
      </trkpt>
      <trkpt lat="44.48621" lon="6.26697">
        <ele>873.14</ele>
        <time>2024-10-24T10:18:34.883Z</time>
      </trkpt>
      <trkpt lat="44.48631" lon="6.26684">
        <ele>872.89</ele>
        <time>2024-10-24T10:18:36.884Z</time>
      </trkpt>
      <trkpt lat="44.48642" lon="6.26671">
        <ele>872.67</ele>
        <time>2024-10-24T10:18:38.885Z</time>
      </trkpt>
      <trkpt lat="44.48652" lon="6.26656">
        <ele>872.49</ele>
        <time>2024-10-24T10:18:40.463Z</time>
      </trkpt>
      <trkpt lat="44.48661" lon="6.26638">
        <ele>872.31</ele>
        <time>2024-10-24T10:18:42.886Z</time>
      </trkpt>
      <trkpt lat="44.48668" lon="6.26623">
        <ele>871.97</ele>
        <time>2024-10-24T10:18:44.493Z</time>
      </trkpt>
      <trkpt lat="44.48668" lon="6.26607">
        <ele>871.44</ele>
        <time>2024-10-24T10:18:46.886Z</time>
      </trkpt>
      <trkpt lat="44.48663" lon="6.26595">
        <ele>870.98</ele>
        <time>2024-10-24T10:18:48.497Z</time>
      </trkpt>
      <trkpt lat="44.48655" lon="6.26593">
        <ele>870.73</ele>
        <time>2024-10-24T10:18:50.884Z</time>
      </trkpt>
      <trkpt lat="44.4865" lon="6.26595">
        <ele>869.85</ele>
        <time>2024-10-24T10:18:52.549Z</time>
      </trkpt>
      <trkpt lat="44.48647" lon="6.26601">
        <ele>869.38</ele>
        <time>2024-10-24T10:18:54.884Z</time>
      </trkpt>
      <trkpt lat="44.48642" lon="6.26607">
        <ele>869.02</ele>
        <time>2024-10-24T10:18:56.772Z</time>
      </trkpt>
      <trkpt lat="44.4864" lon="6.26609">
        <ele>868.43</ele>
        <time>2024-10-24T10:18:58.884Z</time>
      </trkpt>
      <trkpt lat="44.48637" lon="6.26608">
        <ele>865.16</ele>
        <time>2024-10-24T10:19:21.487Z</time>
      </trkpt>
      <trkpt lat="44.48627" lon="6.26608">
        <ele>864.75</ele>
        <time>2024-10-24T10:19:22.516Z</time>
      </trkpt>
      <trkpt lat="44.48615" lon="6.26609">
        <ele>864.38</ele>
        <time>2024-10-24T10:19:25.424Z</time>
      </trkpt>
      <trkpt lat="44.48613" lon="6.2661">
        <ele>864.41</ele>
        <time>2024-10-24T10:19:26.424Z</time>
      </trkpt>
      <trkpt lat="44.48611" lon="6.26612">
        <ele>864.26</ele>
        <time>2024-10-24T10:19:28.478Z</time>
      </trkpt>
      <trkpt lat="44.48608" lon="6.26613">
        <ele>864.03</ele>
        <time>2024-10-24T10:19:30.424Z</time>
      </trkpt>
      <trkpt lat="44.48605" lon="6.26612">
        <ele>863.98</ele>
        <time>2024-10-24T10:19:32.424Z</time>
      </trkpt>
      <trkpt lat="44.486" lon="6.2661">
        <ele>863.79</ele>
        <time>2024-10-24T10:19:34.423Z</time>
      </trkpt>
      <trkpt lat="44.48597" lon="6.26608">
        <ele>863.57</ele>
        <time>2024-10-24T10:19:36.423Z</time>
      </trkpt>
      <trkpt lat="44.48595" lon="6.26604">
        <ele>863.37</ele>
        <time>2024-10-24T10:19:38.424Z</time>
      </trkpt>
      <trkpt lat="44.48593" lon="6.26597">
        <ele>863.17</ele>
        <time>2024-10-24T10:19:40.524Z</time>
      </trkpt>
      <trkpt lat="44.48594" lon="6.26586">
        <ele>862.96</ele>
        <time>2024-10-24T10:19:42.525Z</time>
      </trkpt>
      <trkpt lat="44.48595" lon="6.26572">
        <ele>862.79</ele>
        <time>2024-10-24T10:19:44.523Z</time>
      </trkpt>
      <trkpt lat="44.48592" lon="6.26559">
        <ele>862.59</ele>
        <time>2024-10-24T10:19:46.524Z</time>
      </trkpt>
      <trkpt lat="44.4859" lon="6.26545">
        <ele>862.35</ele>
        <time>2024-10-24T10:19:48.524Z</time>
      </trkpt>
      <trkpt lat="44.48592" lon="6.26533">
        <ele>862.11</ele>
        <time>2024-10-24T10:19:50.525Z</time>
      </trkpt>
      <trkpt lat="44.4859" lon="6.26522">
        <ele>861.78</ele>
        <time>2024-10-24T10:19:52.524Z</time>
      </trkpt>
      <trkpt lat="44.48586" lon="6.26518">
        <ele>861.88</ele>
        <time>2024-10-24T10:19:54.523Z</time>
      </trkpt>
      <trkpt lat="44.48579" lon="6.26519">
        <ele>861.63</ele>
        <time>2024-10-24T10:19:56.515Z</time>
      </trkpt>
      <trkpt lat="44.48575" lon="6.26523">
        <ele>861.5</ele>
        <time>2024-10-24T10:19:58.444Z</time>
      </trkpt>
      <trkpt lat="44.48571" lon="6.26528">
        <ele>861.25</ele>
        <time>2024-10-24T10:20:00.523Z</time>
      </trkpt>
      <trkpt lat="44.48568" lon="6.26533">
        <ele>861.08</ele>
        <time>2024-10-24T10:20:02.392Z</time>
      </trkpt>
      <trkpt lat="44.48564" lon="6.26539">
        <ele>860.89</ele>
        <time>2024-10-24T10:20:04.522Z</time>
      </trkpt>
      <trkpt lat="44.48561" lon="6.26546">
        <ele>860.72</ele>
        <time>2024-10-24T10:20:06.522Z</time>
      </trkpt>
      <trkpt lat="44.48559" lon="6.26551">
        <ele>860.57</ele>
        <time>2024-10-24T10:20:08.522Z</time>
      </trkpt>
      <trkpt lat="44.48557" lon="6.26556">
        <ele>860.49</ele>
        <time>2024-10-24T10:20:10.525Z</time>
      </trkpt>
      <trkpt lat="44.48554" lon="6.26561">
        <ele>860.29</ele>
        <time>2024-10-24T10:20:12.524Z</time>
      </trkpt>
      <trkpt lat="44.4855" lon="6.26565">
        <ele>860.21</ele>
        <time>2024-10-24T10:20:14.523Z</time>
      </trkpt>
      <trkpt lat="44.48543" lon="6.26566">
        <ele>860.18</ele>
        <time>2024-10-24T10:20:16.525Z</time>
      </trkpt>
      <trkpt lat="44.48536" lon="6.2657">
        <ele>860.22</ele>
        <time>2024-10-24T10:20:18.524Z</time>
      </trkpt>
      <trkpt lat="44.48532" lon="6.26578">
        <ele>860.24</ele>
        <time>2024-10-24T10:20:20.523Z</time>
      </trkpt>
      <trkpt lat="44.48531" lon="6.26586">
        <ele>860.2</ele>
        <time>2024-10-24T10:20:22.400Z</time>
      </trkpt>
      <trkpt lat="44.48528" lon="6.26592">
        <ele>860.21</ele>
        <time>2024-10-24T10:20:24.524Z</time>
      </trkpt>
      <trkpt lat="44.48523" lon="6.26594">
        <ele>860.18</ele>
        <time>2024-10-24T10:20:26.524Z</time>
      </trkpt>
      <trkpt lat="44.48519" lon="6.26597">
        <ele>860.26</ele>
        <time>2024-10-24T10:20:28.088Z</time>
      </trkpt>
      <trkpt lat="44.48515" lon="6.26602">
        <ele>860.31</ele>
        <time>2024-10-24T10:20:30.227Z</time>
      </trkpt>
      <trkpt lat="44.48509" lon="6.26607">
        <ele>860.3</ele>
        <time>2024-10-24T10:20:32.524Z</time>
      </trkpt>
      <trkpt lat="44.48504" lon="6.26614">
        <ele>860.26</ele>
        <time>2024-10-24T10:20:34.524Z</time>
      </trkpt>
      <trkpt lat="44.485" lon="6.26621">
        <ele>860.23</ele>
        <time>2024-10-24T10:20:36.524Z</time>
      </trkpt>
      <trkpt lat="44.48496" lon="6.26628">
        <ele>860.21</ele>
        <time>2024-10-24T10:20:38.523Z</time>
      </trkpt>
      <trkpt lat="44.48492" lon="6.26635">
        <ele>860.24</ele>
        <time>2024-10-24T10:20:40.525Z</time>
      </trkpt>
      <trkpt lat="44.48486" lon="6.2664">
        <ele>860.35</ele>
        <time>2024-10-24T10:20:42.523Z</time>
      </trkpt>
      <trkpt lat="44.48479" lon="6.2664">
        <ele>860.42</ele>
        <time>2024-10-24T10:20:44.522Z</time>
      </trkpt>
      <trkpt lat="44.48472" lon="6.2664">
        <ele>860.44</ele>
        <time>2024-10-24T10:20:46.523Z</time>
      </trkpt>
      <trkpt lat="44.48467" lon="6.26636">
        <ele>860.48</ele>
        <time>2024-10-24T10:20:48.524Z</time>
      </trkpt>
      <trkpt lat="44.48461" lon="6.26631">
        <ele>860.5</ele>
        <time>2024-10-24T10:20:50.524Z</time>
      </trkpt>
      <trkpt lat="44.48455" lon="6.26626">
        <ele>860.49</ele>
        <time>2024-10-24T10:20:52.523Z</time>
      </trkpt>
      <trkpt lat="44.4845" lon="6.2662">
        <ele>860.54</ele>
        <time>2024-10-24T10:20:54.524Z</time>
      </trkpt>
      <trkpt lat="44.48445" lon="6.26614">
        <ele>860.55</ele>
        <time>2024-10-24T10:20:56.523Z</time>
      </trkpt>
      <trkpt lat="44.4844" lon="6.26607">
        <ele>860.55</ele>
        <time>2024-10-24T10:20:58.524Z</time>
      </trkpt>
      <trkpt lat="44.48435" lon="6.26601">
        <ele>860.56</ele>
        <time>2024-10-24T10:21:00.524Z</time>
      </trkpt>
      <trkpt lat="44.48429" lon="6.26595">
        <ele>860.54</ele>
        <time>2024-10-24T10:21:02.168Z</time>
      </trkpt>
      <trkpt lat="44.48423" lon="6.26591">
        <ele>860.53</ele>
        <time>2024-10-24T10:21:04.524Z</time>
      </trkpt>
      <trkpt lat="44.48417" lon="6.26587">
        <ele>860.54</ele>
        <time>2024-10-24T10:21:06.624Z</time>
      </trkpt>
      <trkpt lat="44.48411" lon="6.26584">
        <ele>860.53</ele>
        <time>2024-10-24T10:21:08.626Z</time>
      </trkpt>
      <trkpt lat="44.48404" lon="6.2658">
        <ele>860.5</ele>
        <time>2024-10-24T10:21:10.627Z</time>
      </trkpt>
      <trkpt lat="44.48398" lon="6.26577">
        <ele>860.44</ele>
        <time>2024-10-24T10:21:12.277Z</time>
      </trkpt>
      <trkpt lat="44.48392" lon="6.26573">
        <ele>860.39</ele>
        <time>2024-10-24T10:21:14.625Z</time>
      </trkpt>
      <trkpt lat="44.48386" lon="6.26567">
        <ele>860.42</ele>
        <time>2024-10-24T10:21:16.623Z</time>
      </trkpt>
      <trkpt lat="44.48383" lon="6.26559">
        <ele>860.35</ele>
        <time>2024-10-24T10:21:18.623Z</time>
      </trkpt>
      <trkpt lat="44.48381" lon="6.2655">
        <ele>860.27</ele>
        <time>2024-10-24T10:21:20.624Z</time>
      </trkpt>
      <trkpt lat="44.48381" lon="6.26541">
        <ele>860.16</ele>
        <time>2024-10-24T10:21:22.484Z</time>
      </trkpt>
      <trkpt lat="44.48379" lon="6.26533">
        <ele>860.12</ele>
        <time>2024-10-24T10:21:24.624Z</time>
      </trkpt>
      <trkpt lat="44.48376" lon="6.26528">
        <ele>859.97</ele>
        <time>2024-10-24T10:21:26.625Z</time>
      </trkpt>
      <trkpt lat="44.48375" lon="6.26523">
        <ele>859.92</ele>
        <time>2024-10-24T10:21:28.625Z</time>
      </trkpt>
      <trkpt lat="44.48374" lon="6.2652">
        <ele>859.89</ele>
        <time>2024-10-24T10:21:30.624Z</time>
      </trkpt>
      <trkpt lat="44.48373" lon="6.26518">
        <ele>859.79</ele>
        <time>2024-10-24T10:21:32.625Z</time>
      </trkpt>
      <trkpt lat="44.4837" lon="6.26516">
        <ele>858.73</ele>
        <time>2024-10-24T10:23:53.912Z</time>
      </trkpt>
      <trkpt lat="44.48365" lon="6.26515">
        <ele>858.73</ele>
        <time>2024-10-24T10:23:54.943Z</time>
      </trkpt>
      <trkpt lat="44.48357" lon="6.26517">
        <ele>858.68</ele>
        <time>2024-10-24T10:23:57.932Z</time>
      </trkpt>
      <trkpt lat="44.48353" lon="6.26518">
        <ele>858.67</ele>
        <time>2024-10-24T10:23:58.932Z</time>
      </trkpt>
      <trkpt lat="44.48345" lon="6.26525">
        <ele>858.61</ele>
        <time>2024-10-24T10:24:00.941Z</time>
      </trkpt>
      <trkpt lat="44.48338" lon="6.26532">
        <ele>858.48</ele>
        <time>2024-10-24T10:24:02.927Z</time>
      </trkpt>
      <trkpt lat="44.48331" lon="6.26534">
        <ele>858.23</ele>
        <time>2024-10-24T10:24:04.930Z</time>
      </trkpt>
      <trkpt lat="44.48326" lon="6.26531">
        <ele>858.25</ele>
        <time>2024-10-24T10:24:06.931Z</time>
      </trkpt>
      <trkpt lat="44.4832" lon="6.26527">
        <ele>858.28</ele>
        <time>2024-10-24T10:24:08.476Z</time>
      </trkpt>
      <trkpt lat="44.48315" lon="6.26522">
        <ele>858.21</ele>
        <time>2024-10-24T10:24:10.931Z</time>
      </trkpt>
      <trkpt lat="44.4831" lon="6.26519">
        <ele>858.17</ele>
        <time>2024-10-24T10:24:12.553Z</time>
      </trkpt>
      <trkpt lat="44.48308" lon="6.26516">
        <ele>858.14</ele>
        <time>2024-10-24T10:24:14.933Z</time>
      </trkpt>
      <trkpt lat="44.48303" lon="6.26513">
        <ele>858.08</ele>
        <time>2024-10-24T10:24:16.605Z</time>
      </trkpt>
      <trkpt lat="44.48297" lon="6.26509">
        <ele>858.03</ele>
        <time>2024-10-24T10:24:18.935Z</time>
      </trkpt>
      <trkpt lat="44.48291" lon="6.26505">
        <ele>858.06</ele>
        <time>2024-10-24T10:24:20.931Z</time>
      </trkpt>
      <trkpt lat="44.48285" lon="6.265">
        <ele>858.04</ele>
        <time>2024-10-24T10:24:22.489Z</time>
      </trkpt>
      <trkpt lat="44.4828" lon="6.26496">
        <ele>857.94</ele>
        <time>2024-10-24T10:24:24.017Z</time>
      </trkpt>
      <trkpt lat="44.48278" lon="6.26493">
        <ele>857.9</ele>
        <time>2024-10-24T10:24:26.931Z</time>
      </trkpt>
      <trkpt lat="44.48277" lon="6.26494">
        <ele>857.85</ele>
        <time>2024-10-24T10:24:30.823Z</time>
      </trkpt>
      <trkpt lat="44.48275" lon="6.26489">
        <ele>857.77</ele>
        <time>2024-10-24T10:24:32.853Z</time>
      </trkpt>
      <trkpt lat="44.48272" lon="6.26481">
        <ele>857.78</ele>
        <time>2024-10-24T10:24:35.757Z</time>
      </trkpt>
      <trkpt lat="44.4827" lon="6.26473">
        <ele>857.72</ele>
        <time>2024-10-24T10:24:37.758Z</time>
      </trkpt>
      <trkpt lat="44.48269" lon="6.26463">
        <ele>857.72</ele>
        <time>2024-10-24T10:24:39.758Z</time>
      </trkpt>
      <trkpt lat="44.48269" lon="6.26453">
        <ele>857.72</ele>
        <time>2024-10-24T10:24:41.858Z</time>
      </trkpt>
      <trkpt lat="44.48268" lon="6.26445">
        <ele>857.65</ele>
        <time>2024-10-24T10:24:42.865Z</time>
      </trkpt>
      <trkpt lat="44.48267" lon="6.26433">
        <ele>857.5</ele>
        <time>2024-10-24T10:24:45.858Z</time>
      </trkpt>
      <trkpt lat="44.48261" lon="6.26427">
        <ele>857.41</ele>
        <time>2024-10-24T10:24:47.819Z</time>
      </trkpt>
      <trkpt lat="44.48253" lon="6.2643">
        <ele>857.28</ele>
        <time>2024-10-24T10:24:49.848Z</time>
      </trkpt>
      <trkpt lat="44.48247" lon="6.26433">
        <ele>857.18</ele>
        <time>2024-10-24T10:24:51.835Z</time>
      </trkpt>
      <trkpt lat="44.48241" lon="6.26438">
        <ele>856.99</ele>
        <time>2024-10-24T10:24:53.359Z</time>
      </trkpt>
      <trkpt lat="44.48235" lon="6.26443">
        <ele>856.83</ele>
        <time>2024-10-24T10:24:55.857Z</time>
      </trkpt>
      <trkpt lat="44.48231" lon="6.26447">
        <ele>856.67</ele>
        <time>2024-10-24T10:24:57.858Z</time>
      </trkpt>
      <trkpt lat="44.48227" lon="6.26453">
        <ele>856.44</ele>
        <time>2024-10-24T10:24:59.858Z</time>
      </trkpt>
      <trkpt lat="44.48223" lon="6.26463">
        <ele>856.22</ele>
        <time>2024-10-24T10:25:01.812Z</time>
      </trkpt>
      <trkpt lat="44.48222" lon="6.26473">
        <ele>855.94</ele>
        <time>2024-10-24T10:25:03.859Z</time>
      </trkpt>
      <trkpt lat="44.4822" lon="6.26485">
        <ele>855.58</ele>
        <time>2024-10-24T10:25:05.859Z</time>
      </trkpt>
      <trkpt lat="44.48218" lon="6.26494">
        <ele>855.13</ele>
        <time>2024-10-24T10:25:07.857Z</time>
      </trkpt>
      <trkpt lat="44.48217" lon="6.265">
        <ele>854.72</ele>
        <time>2024-10-24T10:25:09.859Z</time>
      </trkpt>
      <trkpt lat="44.48216" lon="6.26505">
        <ele>854.19</ele>
        <time>2024-10-24T10:25:11.857Z</time>
      </trkpt>
      <trkpt lat="44.48216" lon="6.26512">
        <ele>853.61</ele>
        <time>2024-10-24T10:25:13.859Z</time>
      </trkpt>
      <trkpt lat="44.48217" lon="6.26518">
        <ele>852.98</ele>
        <time>2024-10-24T10:25:15.857Z</time>
      </trkpt>
      <trkpt lat="44.48215" lon="6.26522">
        <ele>852.31</ele>
        <time>2024-10-24T10:25:17.837Z</time>
      </trkpt>
      <trkpt lat="44.48212" lon="6.26523">
        <ele>851.74</ele>
        <time>2024-10-24T10:25:19.858Z</time>
      </trkpt>
      <trkpt lat="44.48213" lon="6.26523">
        <ele>847.79</ele>
        <time>2024-10-24T10:25:33.186Z</time>
      </trkpt>
      <trkpt lat="44.48214" lon="6.26521">
        <ele>847.24</ele>
        <time>2024-10-24T10:25:36.286Z</time>
      </trkpt>
      <trkpt lat="44.48215" lon="6.2652">
        <ele>846.96</ele>
        <time>2024-10-24T10:25:42.485Z</time>
      </trkpt>
      <trkpt lat="44.48214" lon="6.26517">
        <ele>844.53</ele>
        <time>2024-10-24T10:25:47.046Z</time>
      </trkpt>
      <trkpt lat="44.48213" lon="6.26516">
        <ele>844.07</ele>
        <time>2024-10-24T10:25:50.099Z</time>
      </trkpt>
      <trkpt lat="44.48212" lon="6.26515">
        <ele>844.07</ele>
        <time>2024-10-24T10:25:51.113Z</time>
      </trkpt>
      <trkpt lat="44.4821" lon="6.26513">
        <ele>844.07</ele>
        <time>2024-10-24T10:25:53.100Z</time>
      </trkpt>
      <trkpt lat="44.48209" lon="6.26509">
        <ele>843.15</ele>
        <time>2024-10-24T10:25:55.201Z</time>
      </trkpt>
      <trkpt lat="44.48208" lon="6.26507">
        <ele>842.93</ele>
        <time>2024-10-24T10:25:56.243Z</time>
      </trkpt>
      <trkpt lat="44.48206" lon="6.26507">
        <ele>842.79</ele>
        <time>2024-10-24T10:25:58.222Z</time>
      </trkpt>
      <trkpt lat="44.48202" lon="6.26507">
        <ele>842.55</ele>
        <time>2024-10-24T10:26:00.250Z</time>
      </trkpt>
      <trkpt lat="44.482" lon="6.26505">
        <ele>842.41</ele>
        <time>2024-10-24T10:26:02.229Z</time>
      </trkpt>
      <trkpt lat="44.48199" lon="6.26501">
        <ele>842.51</ele>
        <time>2024-10-24T10:26:04.249Z</time>
      </trkpt>
      <trkpt lat="44.482" lon="6.26497">
        <ele>842.43</ele>
        <time>2024-10-24T10:26:06.235Z</time>
      </trkpt>
      <trkpt lat="44.48201" lon="6.26494">
        <ele>842.48</ele>
        <time>2024-10-24T10:26:08.223Z</time>
      </trkpt>
      <trkpt lat="44.48202" lon="6.26491">
        <ele>842.1</ele>
        <time>2024-10-24T10:26:11.215Z</time>
      </trkpt>
      <trkpt lat="44.48203" lon="6.26487">
        <ele>842.28</ele>
        <time>2024-10-24T10:26:12.219Z</time>
      </trkpt>
      <trkpt lat="44.48205" lon="6.26483">
        <ele>842.41</ele>
        <time>2024-10-24T10:26:14.225Z</time>
      </trkpt>
      <trkpt lat="44.48206" lon="6.2648">
        <ele>842.53</ele>
        <time>2024-10-24T10:26:17.198Z</time>
      </trkpt>
      <trkpt lat="44.48206" lon="6.26476">
        <ele>842.67</ele>
        <time>2024-10-24T10:26:18.229Z</time>
      </trkpt>
      <trkpt lat="44.48205" lon="6.26472">
        <ele>842.81</ele>
        <time>2024-10-24T10:26:20.248Z</time>
      </trkpt>
      <trkpt lat="44.48206" lon="6.26468">
        <ele>842.97</ele>
        <time>2024-10-24T10:26:22.238Z</time>
      </trkpt>
      <trkpt lat="44.48205" lon="6.26465">
        <ele>843.22</ele>
        <time>2024-10-24T10:26:25.228Z</time>
      </trkpt>
      <trkpt lat="44.48204" lon="6.26461">
        <ele>843.37</ele>
        <time>2024-10-24T10:26:27.202Z</time>
      </trkpt>
      <trkpt lat="44.48204" lon="6.26458">
        <ele>843.42</ele>
        <time>2024-10-24T10:26:28.234Z</time>
      </trkpt>
      <trkpt lat="44.48204" lon="6.26454">
        <ele>843.59</ele>
        <time>2024-10-24T10:26:31.214Z</time>
      </trkpt>
      <trkpt lat="44.48203" lon="6.26451">
        <ele>843.74</ele>
        <time>2024-10-24T10:26:32.237Z</time>
      </trkpt>
      <trkpt lat="44.48204" lon="6.26448">
        <ele>843.99</ele>
        <time>2024-10-24T10:26:34.266Z</time>
      </trkpt>
      <trkpt lat="44.48204" lon="6.26444">
        <ele>844.17</ele>
        <time>2024-10-24T10:26:36.246Z</time>
      </trkpt>
      <trkpt lat="44.48202" lon="6.26441">
        <ele>844.54</ele>
        <time>2024-10-24T10:26:39.229Z</time>
      </trkpt>
      <trkpt lat="44.48199" lon="6.26438">
        <ele>844.91</ele>
        <time>2024-10-24T10:26:40.350Z</time>
      </trkpt>
      <trkpt lat="44.48198" lon="6.26436">
        <ele>845.13</ele>
        <time>2024-10-24T10:26:42.251Z</time>
      </trkpt>
      <trkpt lat="44.48197" lon="6.26432">
        <ele>845.59</ele>
        <time>2024-10-24T10:26:45.200Z</time>
      </trkpt>
      <trkpt lat="44.48195" lon="6.26425">
        <ele>846.14</ele>
        <time>2024-10-24T10:26:47.218Z</time>
      </trkpt>
      <trkpt lat="44.48193" lon="6.26419">
        <ele>846.38</ele>
        <time>2024-10-24T10:26:49.201Z</time>
      </trkpt>
      <trkpt lat="44.48193" lon="6.26415">
        <ele>846.95</ele>
        <time>2024-10-24T10:26:51.242Z</time>
      </trkpt>
      <trkpt lat="44.48193" lon="6.26411">
        <ele>847.49</ele>
        <time>2024-10-24T10:26:53.199Z</time>
      </trkpt>
      <trkpt lat="44.48192" lon="6.26407">
        <ele>848.13</ele>
        <time>2024-10-24T10:26:55.200Z</time>
      </trkpt>
      <trkpt lat="44.48191" lon="6.26402">
        <ele>849.12</ele>
        <time>2024-10-24T10:26:57.199Z</time>
      </trkpt>
      <trkpt lat="44.48189" lon="6.26397">
        <ele>849.86</ele>
        <time>2024-10-24T10:26:59.199Z</time>
      </trkpt>
      <trkpt lat="44.48188" lon="6.26392">
        <ele>850.77</ele>
        <time>2024-10-24T10:27:01.220Z</time>
      </trkpt>
      <trkpt lat="44.48188" lon="6.26388">
        <ele>851.23</ele>
        <time>2024-10-24T10:27:03.085Z</time>
      </trkpt>
      <trkpt lat="44.48187" lon="6.26383">
        <ele>852.04</ele>
        <time>2024-10-24T10:27:05.199Z</time>
      </trkpt>
      <trkpt lat="44.48186" lon="6.26379">
        <ele>852.78</ele>
        <time>2024-10-24T10:27:07.257Z</time>
      </trkpt>
      <trkpt lat="44.48185" lon="6.26376">
        <ele>853.68</ele>
        <time>2024-10-24T10:27:09.239Z</time>
      </trkpt>
      <trkpt lat="44.48183" lon="6.26374">
        <ele>854.43</ele>
        <time>2024-10-24T10:27:11.200Z</time>
      </trkpt>
      <trkpt lat="44.48185" lon="6.26376">
        <ele>854.43</ele>
        <time>2024-10-24T10:27:14.814Z</time>
      </trkpt>
      <trkpt lat="44.48183" lon="6.26374">
        <ele>854.43</ele>
        <time>2024-10-24T10:27:16.350Z</time>
      </trkpt>
      <trkpt lat="44.48175" lon="6.26364">
        <ele>854.43</ele>
        <time>2024-10-24T10:27:17.091Z</time>
      </trkpt>
      <trkpt lat="44.48174" lon="6.26356">
        <ele>858.32</ele>
        <time>2024-10-24T10:27:20.085Z</time>
      </trkpt>
      <trkpt lat="44.48173" lon="6.26354">
        <ele>859.61</ele>
        <time>2024-10-24T10:27:22.998Z</time>
      </trkpt>
      <trkpt lat="44.48173" lon="6.26352">
        <ele>859.61</ele>
        <time>2024-10-24T10:27:24.087Z</time>
      </trkpt>
      <trkpt lat="44.48172" lon="6.26348">
        <ele>859.61</ele>
        <time>2024-10-24T10:27:27.083Z</time>
      </trkpt>
      <trkpt lat="44.4817" lon="6.26344">
        <ele>859.61</ele>
        <time>2024-10-24T10:27:28.094Z</time>
      </trkpt>
      <trkpt lat="44.48168" lon="6.26339">
        <ele>862.88</ele>
        <time>2024-10-24T10:27:30.997Z</time>
      </trkpt>
      <trkpt lat="44.48166" lon="6.26335">
        <ele>863.4</ele>
        <time>2024-10-24T10:27:32.998Z</time>
      </trkpt>
      <trkpt lat="44.48164" lon="6.2633">
        <ele>863.85</ele>
        <time>2024-10-24T10:27:34.999Z</time>
      </trkpt>
      <trkpt lat="44.48162" lon="6.26326">
        <ele>864.48</ele>
        <time>2024-10-24T10:27:36.999Z</time>
      </trkpt>
      <trkpt lat="44.48161" lon="6.26322">
        <ele>865.19</ele>
        <time>2024-10-24T10:27:38.099Z</time>
      </trkpt>
      <trkpt lat="44.48158" lon="6.26318">
        <ele>866.34</ele>
        <time>2024-10-24T10:27:40.222Z</time>
      </trkpt>
      <trkpt lat="44.48154" lon="6.26315">
        <ele>867.17</ele>
        <time>2024-10-24T10:27:43.074Z</time>
      </trkpt>
      <trkpt lat="44.48151" lon="6.26312">
        <ele>868.35</ele>
        <time>2024-10-24T10:27:44.111Z</time>
      </trkpt>
      <trkpt lat="44.48147" lon="6.26309">
        <ele>869.3</ele>
        <time>2024-10-24T10:27:47.104Z</time>
      </trkpt>
      <trkpt lat="44.48143" lon="6.26306">
        <ele>870.59</ele>
        <time>2024-10-24T10:27:48.119Z</time>
      </trkpt>
      <trkpt lat="44.4814" lon="6.26304">
        <ele>871.7</ele>
        <time>2024-10-24T10:27:50.667Z</time>
      </trkpt>
      <trkpt lat="44.48144" lon="6.26307">
        <ele>873.95</ele>
        <time>2024-10-24T10:27:54.813Z</time>
      </trkpt>
      <trkpt lat="44.48142" lon="6.26303">
        <ele>874.99</ele>
        <time>2024-10-24T10:27:58.806Z</time>
      </trkpt>
      <trkpt lat="44.4814" lon="6.26299">
        <ele>875.7</ele>
        <time>2024-10-24T10:28:00.717Z</time>
      </trkpt>
      <trkpt lat="44.48138" lon="6.26296">
        <ele>876.61</ele>
        <time>2024-10-24T10:28:02.814Z</time>
      </trkpt>
      <trkpt lat="44.48137" lon="6.26292">
        <ele>876.61</ele>
        <time>2024-10-24T10:28:04.494Z</time>
      </trkpt>
      <trkpt lat="44.48135" lon="6.26288">
        <ele>876.61</ele>
        <time>2024-10-24T10:28:06.788Z</time>
      </trkpt>
      <trkpt lat="44.48133" lon="6.26284">
        <ele>879.94</ele>
        <time>2024-10-24T10:28:08.814Z</time>
      </trkpt>
      <trkpt lat="44.4813" lon="6.26281">
        <ele>880.76</ele>
        <time>2024-10-24T10:28:10.815Z</time>
      </trkpt>
      <trkpt lat="44.48127" lon="6.26279">
        <ele>881.36</ele>
        <time>2024-10-24T10:28:12.778Z</time>
      </trkpt>
      <trkpt lat="44.48124" lon="6.26274">
        <ele>882.28</ele>
        <time>2024-10-24T10:28:14.813Z</time>
      </trkpt>
      <trkpt lat="44.48118" lon="6.26271">
        <ele>883.19</ele>
        <time>2024-10-24T10:28:16.814Z</time>
      </trkpt>
      <trkpt lat="44.48114" lon="6.26269">
        <ele>884.07</ele>
        <time>2024-10-24T10:28:18.716Z</time>
      </trkpt>
      <trkpt lat="44.4811" lon="6.26267">
        <ele>884.84</ele>
        <time>2024-10-24T10:28:20.815Z</time>
      </trkpt>
      <trkpt lat="44.48106" lon="6.26265">
        <ele>885.49</ele>
        <time>2024-10-24T10:28:22.367Z</time>
      </trkpt>
      <trkpt lat="44.48103" lon="6.26261">
        <ele>886.42</ele>
        <time>2024-10-24T10:28:24.814Z</time>
      </trkpt>
      <trkpt lat="44.481" lon="6.26258">
        <ele>887.22</ele>
        <time>2024-10-24T10:28:26.742Z</time>
      </trkpt>
      <trkpt lat="44.48097" lon="6.26254">
        <ele>887.79</ele>
        <time>2024-10-24T10:28:28.814Z</time>
      </trkpt>
      <trkpt lat="44.48095" lon="6.2625">
        <ele>888.25</ele>
        <time>2024-10-24T10:28:30.814Z</time>
      </trkpt>
      <trkpt lat="44.48095" lon="6.26246">
        <ele>888.77</ele>
        <time>2024-10-24T10:28:32.814Z</time>
      </trkpt>
      <trkpt lat="44.48095" lon="6.26242">
        <ele>889.25</ele>
        <time>2024-10-24T10:28:34.814Z</time>
      </trkpt>
      <trkpt lat="44.48095" lon="6.26237">
        <ele>889.51</ele>
        <time>2024-10-24T10:28:36.814Z</time>
      </trkpt>
      <trkpt lat="44.48095" lon="6.26233">
        <ele>890.04</ele>
        <time>2024-10-24T10:28:38.705Z</time>
      </trkpt>
      <trkpt lat="44.48094" lon="6.26227">
        <ele>890.44</ele>
        <time>2024-10-24T10:28:40.815Z</time>
      </trkpt>
      <trkpt lat="44.48091" lon="6.26223">
        <ele>890.93</ele>
        <time>2024-10-24T10:28:42.815Z</time>
      </trkpt>
      <trkpt lat="44.48088" lon="6.2622">
        <ele>891.57</ele>
        <time>2024-10-24T10:28:44.807Z</time>
      </trkpt>
      <trkpt lat="44.48086" lon="6.26216">
        <ele>892.04</ele>
        <time>2024-10-24T10:28:46.814Z</time>
      </trkpt>
      <trkpt lat="44.48084" lon="6.26212">
        <ele>892.18</ele>
        <time>2024-10-24T10:28:48.815Z</time>
      </trkpt>
      <trkpt lat="44.48083" lon="6.26207">
        <ele>892.77</ele>
        <time>2024-10-24T10:28:50.814Z</time>
      </trkpt>
      <trkpt lat="44.48082" lon="6.26202">
        <ele>893</ele>
        <time>2024-10-24T10:28:52.815Z</time>
      </trkpt>
      <trkpt lat="44.4808" lon="6.26197">
        <ele>893.14</ele>
        <time>2024-10-24T10:28:54.814Z</time>
      </trkpt>
      <trkpt lat="44.48078" lon="6.26192">
        <ele>893.76</ele>
        <time>2024-10-24T10:28:56.814Z</time>
      </trkpt>
      <trkpt lat="44.48076" lon="6.26188">
        <ele>894.26</ele>
        <time>2024-10-24T10:28:58.814Z</time>
      </trkpt>
      <trkpt lat="44.48074" lon="6.26184">
        <ele>894.74</ele>
        <time>2024-10-24T10:29:00.814Z</time>
      </trkpt>
      <trkpt lat="44.48072" lon="6.2618">
        <ele>895.06</ele>
        <time>2024-10-24T10:29:02.815Z</time>
      </trkpt>
      <trkpt lat="44.4807" lon="6.26175">
        <ele>895.42</ele>
        <time>2024-10-24T10:29:04.814Z</time>
      </trkpt>
      <trkpt lat="44.48066" lon="6.2617">
        <ele>896.09</ele>
        <time>2024-10-24T10:29:06.815Z</time>
      </trkpt>
      <trkpt lat="44.48063" lon="6.26166">
        <ele>896.4</ele>
        <time>2024-10-24T10:29:08.816Z</time>
      </trkpt>
      <trkpt lat="44.48058" lon="6.26161">
        <ele>896.96</ele>
        <time>2024-10-24T10:29:10.814Z</time>
      </trkpt>
      <trkpt lat="44.48053" lon="6.26156">
        <ele>897.43</ele>
        <time>2024-10-24T10:29:12.468Z</time>
      </trkpt>
      <trkpt lat="44.48051" lon="6.2615">
        <ele>898.18</ele>
        <time>2024-10-24T10:29:14.814Z</time>
      </trkpt>
      <trkpt lat="44.48047" lon="6.26145">
        <ele>898.72</ele>
        <time>2024-10-24T10:29:16.814Z</time>
      </trkpt>
      <trkpt lat="44.48045" lon="6.26141">
        <ele>899.32</ele>
        <time>2024-10-24T10:29:18.814Z</time>
      </trkpt>
      <trkpt lat="44.48042" lon="6.26136">
        <ele>899.94</ele>
        <time>2024-10-24T10:29:20.764Z</time>
      </trkpt>
      <trkpt lat="44.48042" lon="6.26131">
        <ele>900.61</ele>
        <time>2024-10-24T10:29:22.814Z</time>
      </trkpt>
      <trkpt lat="44.48042" lon="6.26126">
        <ele>901.23</ele>
        <time>2024-10-24T10:29:24.814Z</time>
      </trkpt>
      <trkpt lat="44.48042" lon="6.26121">
        <ele>902.01</ele>
        <time>2024-10-24T10:29:26.814Z</time>
      </trkpt>
      <trkpt lat="44.48042" lon="6.26115">
        <ele>902.59</ele>
        <time>2024-10-24T10:29:28.814Z</time>
      </trkpt>
      <trkpt lat="44.48042" lon="6.26109">
        <ele>903.3</ele>
        <time>2024-10-24T10:29:30.816Z</time>
      </trkpt>
      <trkpt lat="44.48042" lon="6.26105">
        <ele>903.77</ele>
        <time>2024-10-24T10:29:32.814Z</time>
      </trkpt>
      <trkpt lat="44.48042" lon="6.261">
        <ele>903.99</ele>
        <time>2024-10-24T10:29:34.737Z</time>
      </trkpt>
      <trkpt lat="44.48042" lon="6.26094">
        <ele>904.59</ele>
        <time>2024-10-24T10:29:36.813Z</time>
      </trkpt>
      <trkpt lat="44.48041" lon="6.26088">
        <ele>905.16</ele>
        <time>2024-10-24T10:29:38.914Z</time>
      </trkpt>
      <trkpt lat="44.4804" lon="6.26083">
        <ele>906.06</ele>
        <time>2024-10-24T10:29:40.815Z</time>
      </trkpt>
      <trkpt lat="44.48038" lon="6.26078">
        <ele>906.71</ele>
        <time>2024-10-24T10:29:42.814Z</time>
      </trkpt>
      <trkpt lat="44.48036" lon="6.26073">
        <ele>907.44</ele>
        <time>2024-10-24T10:29:44.916Z</time>
      </trkpt>
      <trkpt lat="44.48034" lon="6.26068">
        <ele>908.22</ele>
        <time>2024-10-24T10:29:46.763Z</time>
      </trkpt>
      <trkpt lat="44.48031" lon="6.26064">
        <ele>909.11</ele>
        <time>2024-10-24T10:29:48.517Z</time>
      </trkpt>
      <trkpt lat="44.48029" lon="6.26059">
        <ele>909.9</ele>
        <time>2024-10-24T10:29:50.805Z</time>
      </trkpt>
      <trkpt lat="44.48027" lon="6.26055">
        <ele>910.98</ele>
        <time>2024-10-24T10:29:52.916Z</time>
      </trkpt>
      <trkpt lat="44.48024" lon="6.2605">
        <ele>911.73</ele>
        <time>2024-10-24T10:29:54.708Z</time>
      </trkpt>
      <trkpt lat="44.48022" lon="6.26045">
        <ele>912.46</ele>
        <time>2024-10-24T10:29:56.485Z</time>
      </trkpt>
      <trkpt lat="44.48021" lon="6.26039">
        <ele>913.25</ele>
        <time>2024-10-24T10:29:58.845Z</time>
      </trkpt>
      <trkpt lat="44.48018" lon="6.26033">
        <ele>914</ele>
        <time>2024-10-24T10:30:00.914Z</time>
      </trkpt>
      <trkpt lat="44.48015" lon="6.26028">
        <ele>915.02</ele>
        <time>2024-10-24T10:30:02.917Z</time>
      </trkpt>
      <trkpt lat="44.48013" lon="6.26022">
        <ele>915.37</ele>
        <time>2024-10-24T10:30:04.915Z</time>
      </trkpt>
      <trkpt lat="44.48012" lon="6.26016">
        <ele>916.02</ele>
        <time>2024-10-24T10:30:06.916Z</time>
      </trkpt>
      <trkpt lat="44.48011" lon="6.2601">
        <ele>916.5</ele>
        <time>2024-10-24T10:30:08.565Z</time>
      </trkpt>
      <trkpt lat="44.48009" lon="6.26004">
        <ele>916.98</ele>
        <time>2024-10-24T10:30:10.916Z</time>
      </trkpt>
      <trkpt lat="44.48008" lon="6.26003">
        <ele>917.75</ele>
        <time>2024-10-24T10:30:12.916Z</time>
      </trkpt>
      <trkpt lat="44.48008" lon="6.26">
        <ele>918.82</ele>
        <time>2024-10-24T10:30:16.916Z</time>
      </trkpt>
      <trkpt lat="44.48008" lon="6.26001">
        <ele>919.35</ele>
        <time>2024-10-24T10:30:37.583Z</time>
      </trkpt>
      <trkpt lat="44.48001" lon="6.25993">
        <ele>919.35</ele>
        <time>2024-10-24T10:30:39.584Z</time>
      </trkpt>
      <trkpt lat="44.47999" lon="6.25994">
        <ele>922.58</ele>
        <time>2024-10-24T10:30:42.262Z</time>
      </trkpt>
      <trkpt lat="44.48004" lon="6.25996">
        <ele>927.33</ele>
        <time>2024-10-24T10:35:11.784Z</time>
      </trkpt>
      <trkpt lat="44.48003" lon="6.2599">
        <ele>927.35</ele>
        <time>2024-10-24T10:35:13.783Z</time>
      </trkpt>
      <trkpt lat="44.48001" lon="6.25981">
        <ele>927.36</ele>
        <time>2024-10-24T10:35:15.785Z</time>
      </trkpt>
      <trkpt lat="44.48" lon="6.25976">
        <ele>927.36</ele>
        <time>2024-10-24T10:35:17.782Z</time>
      </trkpt>
      <trkpt lat="44.48" lon="6.25975">
        <ele>927.39</ele>
        <time>2024-10-24T10:35:18.785Z</time>
      </trkpt>
      <trkpt lat="44.48" lon="6.25973">
        <ele>927.4</ele>
        <time>2024-10-24T10:35:19.783Z</time>
      </trkpt>
      <trkpt lat="44.47999" lon="6.25965">
        <ele>927.41</ele>
        <time>2024-10-24T10:35:20.782Z</time>
      </trkpt>
      <trkpt lat="44.47999" lon="6.25963">
        <ele>927.47</ele>
        <time>2024-10-24T10:35:20.876Z</time>
      </trkpt>
      <trkpt lat="44.47998" lon="6.25948">
        <ele>927.48</ele>
        <time>2024-10-24T10:35:22.865Z</time>
      </trkpt>
      <trkpt lat="44.47997" lon="6.25936">
        <ele>927.53</ele>
        <time>2024-10-24T10:35:25.784Z</time>
      </trkpt>
      <trkpt lat="44.47994" lon="6.25927">
        <ele>927.66</ele>
        <time>2024-10-24T10:35:27.783Z</time>
      </trkpt>
      <trkpt lat="44.47993" lon="6.25923">
        <ele>927.75</ele>
        <time>2024-10-24T10:35:28.782Z</time>
      </trkpt>
      <trkpt lat="44.4799" lon="6.25916">
        <ele>927.78</ele>
        <time>2024-10-24T10:35:29.783Z</time>
      </trkpt>
      <trkpt lat="44.47986" lon="6.25909">
        <ele>927.88</ele>
        <time>2024-10-24T10:35:31.782Z</time>
      </trkpt>
      <trkpt lat="44.47977" lon="6.25894">
        <ele>927.99</ele>
        <time>2024-10-24T10:35:33.782Z</time>
      </trkpt>
      <trkpt lat="44.47972" lon="6.25887">
        <ele>928.02</ele>
        <time>2024-10-24T10:35:35.782Z</time>
      </trkpt>
      <trkpt lat="44.47967" lon="6.2588">
        <ele>928.06</ele>
        <time>2024-10-24T10:35:37.783Z</time>
      </trkpt>
      <trkpt lat="44.47961" lon="6.25874">
        <ele>928.11</ele>
        <time>2024-10-24T10:35:39.783Z</time>
      </trkpt>
      <trkpt lat="44.47956" lon="6.2587">
        <ele>928.23</ele>
        <time>2024-10-24T10:35:41.783Z</time>
      </trkpt>
      <trkpt lat="44.47952" lon="6.25865">
        <ele>928.29</ele>
        <time>2024-10-24T10:35:43.783Z</time>
      </trkpt>
      <trkpt lat="44.47946" lon="6.2586">
        <ele>928.49</ele>
        <time>2024-10-24T10:35:45.783Z</time>
      </trkpt>
      <trkpt lat="44.47942" lon="6.25855">
        <ele>928.63</ele>
        <time>2024-10-24T10:35:47.883Z</time>
      </trkpt>
      <trkpt lat="44.47936" lon="6.25851">
        <ele>928.7</ele>
        <time>2024-10-24T10:35:49.448Z</time>
      </trkpt>
      <trkpt lat="44.47932" lon="6.25846">
        <ele>928.87</ele>
        <time>2024-10-24T10:35:51.430Z</time>
      </trkpt>
      <trkpt lat="44.47927" lon="6.2584">
        <ele>929.14</ele>
        <time>2024-10-24T10:35:53.461Z</time>
      </trkpt>
      <trkpt lat="44.47924" lon="6.25833">
        <ele>929.38</ele>
        <time>2024-10-24T10:35:55.884Z</time>
      </trkpt>
      <trkpt lat="44.47922" lon="6.25824">
        <ele>929.6</ele>
        <time>2024-10-24T10:35:57.883Z</time>
      </trkpt>
      <trkpt lat="44.47918" lon="6.25816">
        <ele>929.68</ele>
        <time>2024-10-24T10:35:59.882Z</time>
      </trkpt>
      <trkpt lat="44.47916" lon="6.25807">
        <ele>929.97</ele>
        <time>2024-10-24T10:36:01.757Z</time>
      </trkpt>
      <trkpt lat="44.47914" lon="6.258">
        <ele>930.29</ele>
        <time>2024-10-24T10:36:02.902Z</time>
      </trkpt>
      <trkpt lat="44.47914" lon="6.25797">
        <ele>930.72</ele>
        <time>2024-10-24T10:36:04.882Z</time>
      </trkpt>
      <trkpt lat="44.47911" lon="6.25787">
        <ele>930.8</ele>
        <time>2024-10-24T10:36:06.883Z</time>
      </trkpt>
      <trkpt lat="44.47909" lon="6.25771">
        <ele>931</ele>
        <time>2024-10-24T10:36:09.719Z</time>
      </trkpt>
      <trkpt lat="44.47905" lon="6.25764">
        <ele>931.23</ele>
        <time>2024-10-24T10:36:10.982Z</time>
      </trkpt>
      <trkpt lat="44.47903" lon="6.25762">
        <ele>931.54</ele>
        <time>2024-10-24T10:36:12.718Z</time>
      </trkpt>
      <trkpt lat="44.47896" lon="6.2575">
        <ele>931.62</ele>
        <time>2024-10-24T10:36:15.883Z</time>
      </trkpt>
      <trkpt lat="44.47891" lon="6.25741">
        <ele>932.08</ele>
        <time>2024-10-24T10:36:17.882Z</time>
      </trkpt>
      <trkpt lat="44.47888" lon="6.25732">
        <ele>932.65</ele>
        <time>2024-10-24T10:36:19.883Z</time>
      </trkpt>
      <trkpt lat="44.47886" lon="6.25722">
        <ele>933.01</ele>
        <time>2024-10-24T10:36:21.883Z</time>
      </trkpt>
      <trkpt lat="44.47886" lon="6.25712">
        <ele>933.24</ele>
        <time>2024-10-24T10:36:23.447Z</time>
      </trkpt>
      <trkpt lat="44.47886" lon="6.25705">
        <ele>933.62</ele>
        <time>2024-10-24T10:36:25.883Z</time>
      </trkpt>
      <trkpt lat="44.47887" lon="6.25695">
        <ele>933.98</ele>
        <time>2024-10-24T10:36:27.884Z</time>
      </trkpt>
      <trkpt lat="44.47887" lon="6.25691">
        <ele>934.39</ele>
        <time>2024-10-24T10:36:28.665Z</time>
      </trkpt>
      <trkpt lat="44.47889" lon="6.25679">
        <ele>934.56</ele>
        <time>2024-10-24T10:36:30.883Z</time>
      </trkpt>
      <trkpt lat="44.47892" lon="6.25664">
        <ele>934.89</ele>
        <time>2024-10-24T10:36:33.883Z</time>
      </trkpt>
      <trkpt lat="44.47896" lon="6.25654">
        <ele>935.71</ele>
        <time>2024-10-24T10:36:35.883Z</time>
      </trkpt>
      <trkpt lat="44.47899" lon="6.25642">
        <ele>936.32</ele>
        <time>2024-10-24T10:36:37.883Z</time>
      </trkpt>
      <trkpt lat="44.47902" lon="6.25631">
        <ele>936.72</ele>
        <time>2024-10-24T10:36:39.883Z</time>
      </trkpt>
      <trkpt lat="44.47905" lon="6.25621">
        <ele>937.1</ele>
        <time>2024-10-24T10:36:41.883Z</time>
      </trkpt>
      <trkpt lat="44.47908" lon="6.25618">
        <ele>937.57</ele>
        <time>2024-10-24T10:36:42.883Z</time>
      </trkpt>
      <trkpt lat="44.47913" lon="6.256">
        <ele>937.69</ele>
        <time>2024-10-24T10:36:45.883Z</time>
      </trkpt>
      <trkpt lat="44.47909" lon="6.25594">
        <ele>938.06</ele>
        <time>2024-10-24T10:36:47.856Z</time>
      </trkpt>
      <trkpt lat="44.47905" lon="6.25589">
        <ele>938.37</ele>
        <time>2024-10-24T10:36:49.750Z</time>
      </trkpt>
      <trkpt lat="44.479" lon="6.25581">
        <ele>938.65</ele>
        <time>2024-10-24T10:36:51.886Z</time>
      </trkpt>
      <trkpt lat="44.47898" lon="6.25573">
        <ele>938.99</ele>
        <time>2024-10-24T10:36:53.463Z</time>
      </trkpt>
      <trkpt lat="44.47901" lon="6.25567">
        <ele>939.2</ele>
        <time>2024-10-24T10:36:55.883Z</time>
      </trkpt>
      <trkpt lat="44.47904" lon="6.25562">
        <ele>939.43</ele>
        <time>2024-10-24T10:36:57.883Z</time>
      </trkpt>
      <trkpt lat="44.47906" lon="6.25555">
        <ele>939.78</ele>
        <time>2024-10-24T10:36:59.806Z</time>
      </trkpt>
      <trkpt lat="44.47908" lon="6.25548">
        <ele>940.01</ele>
        <time>2024-10-24T10:37:01.922Z</time>
      </trkpt>
      <trkpt lat="44.47908" lon="6.25541">
        <ele>940.41</ele>
        <time>2024-10-24T10:37:03.883Z</time>
      </trkpt>
      <trkpt lat="44.47905" lon="6.25534">
        <ele>940.74</ele>
        <time>2024-10-24T10:37:05.883Z</time>
      </trkpt>
      <trkpt lat="44.47901" lon="6.25531">
        <ele>941.02</ele>
        <time>2024-10-24T10:37:07.882Z</time>
      </trkpt>
      <trkpt lat="44.47897" lon="6.2553">
        <ele>941.54</ele>
        <time>2024-10-24T10:37:09.883Z</time>
      </trkpt>
      <trkpt lat="44.47892" lon="6.25529">
        <ele>942.06</ele>
        <time>2024-10-24T10:37:11.882Z</time>
      </trkpt>
      <trkpt lat="44.47888" lon="6.25529">
        <ele>942.44</ele>
        <time>2024-10-24T10:37:13.884Z</time>
      </trkpt>
      <trkpt lat="44.47886" lon="6.25535">
        <ele>942.65</ele>
        <time>2024-10-24T10:37:15.599Z</time>
      </trkpt>
      <trkpt lat="44.47883" lon="6.25539">
        <ele>943.1</ele>
        <time>2024-10-24T10:37:17.783Z</time>
      </trkpt>
      <trkpt lat="44.47879" lon="6.25545">
        <ele>943.65</ele>
        <time>2024-10-24T10:37:19.882Z</time>
      </trkpt>
      <trkpt lat="44.47875" lon="6.25552">
        <ele>943.99</ele>
        <time>2024-10-24T10:37:21.722Z</time>
      </trkpt>
      <trkpt lat="44.47869" lon="6.25553">
        <ele>944.66</ele>
        <time>2024-10-24T10:37:23.882Z</time>
      </trkpt>
      <trkpt lat="44.47865" lon="6.25546">
        <ele>945.28</ele>
        <time>2024-10-24T10:37:25.883Z</time>
      </trkpt>
      <trkpt lat="44.47864" lon="6.25538">
        <ele>945.76</ele>
        <time>2024-10-24T10:37:27.884Z</time>
      </trkpt>
      <trkpt lat="44.47866" lon="6.25532">
        <ele>946.42</ele>
        <time>2024-10-24T10:37:29.755Z</time>
      </trkpt>
      <trkpt lat="44.47867" lon="6.25528">
        <ele>947.29</ele>
        <time>2024-10-24T10:37:31.883Z</time>
      </trkpt>
      <trkpt lat="44.47869" lon="6.25524">
        <ele>947.83</ele>
        <time>2024-10-24T10:37:33.774Z</time>
      </trkpt>
      <trkpt lat="44.4787" lon="6.2552">
        <ele>948.66</ele>
        <time>2024-10-24T10:37:35.883Z</time>
      </trkpt>
      <trkpt lat="44.47871" lon="6.25515">
        <ele>949.35</ele>
        <time>2024-10-24T10:37:37.884Z</time>
      </trkpt>
      <trkpt lat="44.47872" lon="6.2551">
        <ele>950.3</ele>
        <time>2024-10-24T10:37:39.882Z</time>
      </trkpt>
      <trkpt lat="44.47873" lon="6.25504">
        <ele>950.78</ele>
        <time>2024-10-24T10:37:41.883Z</time>
      </trkpt>
      <trkpt lat="44.47874" lon="6.25498">
        <ele>951.45</ele>
        <time>2024-10-24T10:37:43.884Z</time>
      </trkpt>
      <trkpt lat="44.47875" lon="6.25491">
        <ele>951.83</ele>
        <time>2024-10-24T10:37:45.883Z</time>
      </trkpt>
      <trkpt lat="44.47876" lon="6.25489">
        <ele>952.61</ele>
        <time>2024-10-24T10:37:46.882Z</time>
      </trkpt>
      <trkpt lat="44.47882" lon="6.25482">
        <ele>952.97</ele>
        <time>2024-10-24T10:37:49.773Z</time>
      </trkpt>
      <trkpt lat="44.47885" lon="6.25476">
        <ele>953.97</ele>
        <time>2024-10-24T10:37:51.882Z</time>
      </trkpt>
      <trkpt lat="44.47887" lon="6.2547">
        <ele>954.46</ele>
        <time>2024-10-24T10:37:53.882Z</time>
      </trkpt>
      <trkpt lat="44.47888" lon="6.25463">
        <ele>955.22</ele>
        <time>2024-10-24T10:37:55.883Z</time>
      </trkpt>
      <trkpt lat="44.47884" lon="6.25455">
        <ele>955.94</ele>
        <time>2024-10-24T10:37:57.883Z</time>
      </trkpt>
      <trkpt lat="44.47879" lon="6.25454">
        <ele>956.83</ele>
        <time>2024-10-24T10:37:59.884Z</time>
      </trkpt>
      <trkpt lat="44.47875" lon="6.25454">
        <ele>957.35</ele>
        <time>2024-10-24T10:38:01.882Z</time>
      </trkpt>
      <trkpt lat="44.47871" lon="6.25454">
        <ele>958.26</ele>
        <time>2024-10-24T10:38:03.883Z</time>
      </trkpt>
      <trkpt lat="44.47868" lon="6.25455">
        <ele>958.8</ele>
        <time>2024-10-24T10:38:05.883Z</time>
      </trkpt>
      <trkpt lat="44.47863" lon="6.25455">
        <ele>959.59</ele>
        <time>2024-10-24T10:38:07.883Z</time>
      </trkpt>
      <trkpt lat="44.47858" lon="6.25454">
        <ele>960.11</ele>
        <time>2024-10-24T10:38:09.882Z</time>
      </trkpt>
      <trkpt lat="44.47854" lon="6.25454">
        <ele>960.79</ele>
        <time>2024-10-24T10:38:11.882Z</time>
      </trkpt>
      <trkpt lat="44.47849" lon="6.25453">
        <ele>961.62</ele>
        <time>2024-10-24T10:38:13.982Z</time>
      </trkpt>
      <trkpt lat="44.47845" lon="6.25453">
        <ele>962.69</ele>
        <time>2024-10-24T10:38:15.982Z</time>
      </trkpt>
      <trkpt lat="44.4784" lon="6.25453">
        <ele>963.57</ele>
        <time>2024-10-24T10:38:17.982Z</time>
      </trkpt>
      <trkpt lat="44.47835" lon="6.25452">
        <ele>963.95</ele>
        <time>2024-10-24T10:38:19.757Z</time>
      </trkpt>
      <trkpt lat="44.47831" lon="6.25451">
        <ele>964.73</ele>
        <time>2024-10-24T10:38:21.984Z</time>
      </trkpt>
      <trkpt lat="44.47827" lon="6.25451">
        <ele>965.53</ele>
        <time>2024-10-24T10:38:23.912Z</time>
      </trkpt>
      <trkpt lat="44.47823" lon="6.2545">
        <ele>966.47</ele>
        <time>2024-10-24T10:38:25.982Z</time>
      </trkpt>
      <trkpt lat="44.47819" lon="6.25449">
        <ele>967.27</ele>
        <time>2024-10-24T10:38:27.983Z</time>
      </trkpt>
      <trkpt lat="44.47815" lon="6.25448">
        <ele>967.69</ele>
        <time>2024-10-24T10:38:29.983Z</time>
      </trkpt>
      <trkpt lat="44.47812" lon="6.25448">
        <ele>968.33</ele>
        <time>2024-10-24T10:38:30.995Z</time>
      </trkpt>
      <trkpt lat="44.47808" lon="6.25447">
        <ele>968.97</ele>
        <time>2024-10-24T10:38:33.985Z</time>
      </trkpt>
      <trkpt lat="44.47806" lon="6.25445">
        <ele>969.32</ele>
        <time>2024-10-24T10:38:35.982Z</time>
      </trkpt>
      <trkpt lat="44.47805" lon="6.25441">
        <ele>969.91</ele>
        <time>2024-10-24T10:38:37.984Z</time>
      </trkpt>
      <trkpt lat="44.47807" lon="6.25437">
        <ele>970.46</ele>
        <time>2024-10-24T10:38:39.982Z</time>
      </trkpt>
      <trkpt lat="44.47808" lon="6.25434">
        <ele>970.82</ele>
        <time>2024-10-24T10:38:41.983Z</time>
      </trkpt>
      <trkpt lat="44.4781" lon="6.2543">
        <ele>971.35</ele>
        <time>2024-10-24T10:38:43.983Z</time>
      </trkpt>
      <trkpt lat="44.4781" lon="6.25427">
        <ele>971.65</ele>
        <time>2024-10-24T10:38:45.982Z</time>
      </trkpt>
      <trkpt lat="44.4781" lon="6.25423">
        <ele>972.2</ele>
        <time>2024-10-24T10:38:47.089Z</time>
      </trkpt>
      <trkpt lat="44.47812" lon="6.25418">
        <ele>972.61</ele>
        <time>2024-10-24T10:38:49.983Z</time>
      </trkpt>
      <trkpt lat="44.47813" lon="6.25412">
        <ele>973.28</ele>
        <time>2024-10-24T10:38:51.984Z</time>
      </trkpt>
      <trkpt lat="44.47815" lon="6.25407">
        <ele>973.76</ele>
        <time>2024-10-24T10:38:53.905Z</time>
      </trkpt>
      <trkpt lat="44.47816" lon="6.25401">
        <ele>974.28</ele>
        <time>2024-10-24T10:38:55.838Z</time>
      </trkpt>
      <trkpt lat="44.47818" lon="6.25395">
        <ele>974.71</ele>
        <time>2024-10-24T10:38:57.983Z</time>
      </trkpt>
      <trkpt lat="44.47821" lon="6.2539">
        <ele>975.11</ele>
        <time>2024-10-24T10:38:59.709Z</time>
      </trkpt>
      <trkpt lat="44.47823" lon="6.25384">
        <ele>975.79</ele>
        <time>2024-10-24T10:39:01.984Z</time>
      </trkpt>
      <trkpt lat="44.47826" lon="6.25379">
        <ele>976.24</ele>
        <time>2024-10-24T10:39:03.871Z</time>
      </trkpt>
      <trkpt lat="44.47828" lon="6.25374">
        <ele>976.83</ele>
        <time>2024-10-24T10:39:05.983Z</time>
      </trkpt>
      <trkpt lat="44.47829" lon="6.25369">
        <ele>977.16</ele>
        <time>2024-10-24T10:39:07.983Z</time>
      </trkpt>
      <trkpt lat="44.47831" lon="6.25364">
        <ele>977.68</ele>
        <time>2024-10-24T10:39:09.676Z</time>
      </trkpt>
      <trkpt lat="44.47833" lon="6.25358">
        <ele>978.38</ele>
        <time>2024-10-24T10:39:11.983Z</time>
      </trkpt>
      <trkpt lat="44.47835" lon="6.25352">
        <ele>979.04</ele>
        <time>2024-10-24T10:39:13.861Z</time>
      </trkpt>
      <trkpt lat="44.47837" lon="6.25347">
        <ele>979.69</ele>
        <time>2024-10-24T10:39:15.983Z</time>
      </trkpt>
      <trkpt lat="44.47839" lon="6.25343">
        <ele>980.11</ele>
        <time>2024-10-24T10:39:17.031Z</time>
      </trkpt>
      <trkpt lat="44.4784" lon="6.25338">
        <ele>980.97</ele>
        <time>2024-10-24T10:39:19.058Z</time>
      </trkpt>
      <trkpt lat="44.47841" lon="6.25332">
        <ele>981.87</ele>
        <time>2024-10-24T10:39:21.036Z</time>
      </trkpt>
      <trkpt lat="44.47842" lon="6.25326">
        <ele>982.6</ele>
        <time>2024-10-24T10:39:23.063Z</time>
      </trkpt>
      <trkpt lat="44.47844" lon="6.25321">
        <ele>983.31</ele>
        <time>2024-10-24T10:39:25.983Z</time>
      </trkpt>
      <trkpt lat="44.47845" lon="6.25316">
        <ele>984.05</ele>
        <time>2024-10-24T10:39:27.880Z</time>
      </trkpt>
      <trkpt lat="44.47846" lon="6.2531">
        <ele>984.8</ele>
        <time>2024-10-24T10:39:29.982Z</time>
      </trkpt>
      <trkpt lat="44.47846" lon="6.25305">
        <ele>985.61</ele>
        <time>2024-10-24T10:39:31.982Z</time>
      </trkpt>
      <trkpt lat="44.47847" lon="6.253">
        <ele>986.05</ele>
        <time>2024-10-24T10:39:33.983Z</time>
      </trkpt>
      <trkpt lat="44.47848" lon="6.25295">
        <ele>986.63</ele>
        <time>2024-10-24T10:39:35.984Z</time>
      </trkpt>
      <trkpt lat="44.47849" lon="6.25289">
        <ele>987.3</ele>
        <time>2024-10-24T10:39:37.983Z</time>
      </trkpt>
      <trkpt lat="44.47849" lon="6.25284">
        <ele>987.97</ele>
        <time>2024-10-24T10:39:39.982Z</time>
      </trkpt>
      <trkpt lat="44.4785" lon="6.25279">
        <ele>988.65</ele>
        <time>2024-10-24T10:39:41.983Z</time>
      </trkpt>
      <trkpt lat="44.47852" lon="6.25274">
        <ele>989.65</ele>
        <time>2024-10-24T10:39:43.983Z</time>
      </trkpt>
      <trkpt lat="44.47853" lon="6.25268">
        <ele>990.16</ele>
        <time>2024-10-24T10:39:45.906Z</time>
      </trkpt>
      <trkpt lat="44.47854" lon="6.25263">
        <ele>990.63</ele>
        <time>2024-10-24T10:39:47.984Z</time>
      </trkpt>
      <trkpt lat="44.47855" lon="6.25258">
        <ele>991.24</ele>
        <time>2024-10-24T10:39:49.982Z</time>
      </trkpt>
      <trkpt lat="44.47857" lon="6.25253">
        <ele>991.84</ele>
        <time>2024-10-24T10:39:51.982Z</time>
      </trkpt>
      <trkpt lat="44.47858" lon="6.25247">
        <ele>992.5</ele>
        <time>2024-10-24T10:39:53.983Z</time>
      </trkpt>
      <trkpt lat="44.47859" lon="6.25242">
        <ele>993.16</ele>
        <time>2024-10-24T10:39:55.985Z</time>
      </trkpt>
      <trkpt lat="44.4786" lon="6.25237">
        <ele>993.8</ele>
        <time>2024-10-24T10:39:57.984Z</time>
      </trkpt>
      <trkpt lat="44.47861" lon="6.25231">
        <ele>994.45</ele>
        <time>2024-10-24T10:39:59.983Z</time>
      </trkpt>
      <trkpt lat="44.47861" lon="6.25226">
        <ele>995.25</ele>
        <time>2024-10-24T10:40:01.990Z</time>
      </trkpt>
      <trkpt lat="44.47862" lon="6.2522">
        <ele>996.11</ele>
        <time>2024-10-24T10:40:03.982Z</time>
      </trkpt>
      <trkpt lat="44.47861" lon="6.25214">
        <ele>996.96</ele>
        <time>2024-10-24T10:40:05.983Z</time>
      </trkpt>
      <trkpt lat="44.47861" lon="6.25209">
        <ele>997.76</ele>
        <time>2024-10-24T10:40:07.984Z</time>
      </trkpt>
      <trkpt lat="44.47859" lon="6.25204">
        <ele>998.3</ele>
        <time>2024-10-24T10:40:09.982Z</time>
      </trkpt>
      <trkpt lat="44.47857" lon="6.252">
        <ele>998.66</ele>
        <time>2024-10-24T10:40:11.983Z</time>
      </trkpt>
      <trkpt lat="44.47854" lon="6.25197">
        <ele>999.02</ele>
        <time>2024-10-24T10:40:13.983Z</time>
      </trkpt>
      <trkpt lat="44.47851" lon="6.25193">
        <ele>999.37</ele>
        <time>2024-10-24T10:40:15.983Z</time>
      </trkpt>
      <trkpt lat="44.47848" lon="6.25189">
        <ele>999.78</ele>
        <time>2024-10-24T10:40:17.984Z</time>
      </trkpt>
      <trkpt lat="44.47845" lon="6.25185">
        <ele>1000.27</ele>
        <time>2024-10-24T10:40:19.982Z</time>
      </trkpt>
      <trkpt lat="44.47843" lon="6.25181">
        <ele>1000.76</ele>
        <time>2024-10-24T10:40:21.982Z</time>
      </trkpt>
      <trkpt lat="44.4784" lon="6.25176">
        <ele>1001.23</ele>
        <time>2024-10-24T10:40:23.982Z</time>
      </trkpt>
      <trkpt lat="44.47839" lon="6.25171">
        <ele>1001.67</ele>
        <time>2024-10-24T10:40:25.983Z</time>
      </trkpt>
      <trkpt lat="44.47836" lon="6.25164">
        <ele>1002.19</ele>
        <time>2024-10-24T10:40:27.982Z</time>
      </trkpt>
      <trkpt lat="44.47834" lon="6.25157">
        <ele>1002.88</ele>
        <time>2024-10-24T10:40:29.984Z</time>
      </trkpt>
      <trkpt lat="44.47832" lon="6.25151">
        <ele>1003.24</ele>
        <time>2024-10-24T10:40:31.983Z</time>
      </trkpt>
      <trkpt lat="44.4783" lon="6.25143">
        <ele>1003.71</ele>
        <time>2024-10-24T10:40:34.083Z</time>
      </trkpt>
      <trkpt lat="44.47828" lon="6.25135">
        <ele>1004.35</ele>
        <time>2024-10-24T10:40:35.963Z</time>
      </trkpt>
      <trkpt lat="44.47826" lon="6.25127">
        <ele>1004.67</ele>
        <time>2024-10-24T10:40:38.083Z</time>
      </trkpt>
      <trkpt lat="44.47824" lon="6.25119">
        <ele>1005.02</ele>
        <time>2024-10-24T10:40:39.786Z</time>
      </trkpt>
      <trkpt lat="44.47821" lon="6.25111">
        <ele>1005.32</ele>
        <time>2024-10-24T10:40:42.083Z</time>
      </trkpt>
      <trkpt lat="44.47819" lon="6.25103">
        <ele>1005.51</ele>
        <time>2024-10-24T10:40:44.083Z</time>
      </trkpt>
      <trkpt lat="44.47816" lon="6.25095">
        <ele>1005.67</ele>
        <time>2024-10-24T10:40:45.727Z</time>
      </trkpt>
      <trkpt lat="44.47812" lon="6.25087">
        <ele>1005.93</ele>
        <time>2024-10-24T10:40:48.083Z</time>
      </trkpt>
      <trkpt lat="44.47809" lon="6.25079">
        <ele>1006.16</ele>
        <time>2024-10-24T10:40:49.780Z</time>
      </trkpt>
      <trkpt lat="44.47806" lon="6.25071">
        <ele>1006.12</ele>
        <time>2024-10-24T10:40:52.083Z</time>
      </trkpt>
      <trkpt lat="44.47803" lon="6.25064">
        <ele>1006.31</ele>
        <time>2024-10-24T10:40:53.984Z</time>
      </trkpt>
      <trkpt lat="44.478" lon="6.25055">
        <ele>1006.74</ele>
        <time>2024-10-24T10:40:56.083Z</time>
      </trkpt>
      <trkpt lat="44.47796" lon="6.25048">
        <ele>1006.96</ele>
        <time>2024-10-24T10:40:57.761Z</time>
      </trkpt>
      <trkpt lat="44.47793" lon="6.2504">
        <ele>1007.16</ele>
        <time>2024-10-24T10:41:00.082Z</time>
      </trkpt>
      <trkpt lat="44.4779" lon="6.25033">
        <ele>1007.27</ele>
        <time>2024-10-24T10:41:02.082Z</time>
      </trkpt>
      <trkpt lat="44.47787" lon="6.25025">
        <ele>1007.46</ele>
        <time>2024-10-24T10:41:03.765Z</time>
      </trkpt>
      <trkpt lat="44.47784" lon="6.25018">
        <ele>1007.86</ele>
        <time>2024-10-24T10:41:06.083Z</time>
      </trkpt>
      <trkpt lat="44.47781" lon="6.2501">
        <ele>1008.08</ele>
        <time>2024-10-24T10:41:07.934Z</time>
      </trkpt>
      <trkpt lat="44.47778" lon="6.25003">
        <ele>1008.32</ele>
        <time>2024-10-24T10:41:10.082Z</time>
      </trkpt>
      <trkpt lat="44.47775" lon="6.24996">
        <ele>1008.55</ele>
        <time>2024-10-24T10:41:12.083Z</time>
      </trkpt>
      <trkpt lat="44.47772" lon="6.24989">
        <ele>1008.8</ele>
        <time>2024-10-24T10:41:14.083Z</time>
      </trkpt>
      <trkpt lat="44.4777" lon="6.24982">
        <ele>1009.03</ele>
        <time>2024-10-24T10:41:16.082Z</time>
      </trkpt>
      <trkpt lat="44.47768" lon="6.24975">
        <ele>1009.28</ele>
        <time>2024-10-24T10:41:18.083Z</time>
      </trkpt>
      <trkpt lat="44.47766" lon="6.24968">
        <ele>1009.55</ele>
        <time>2024-10-24T10:41:20.082Z</time>
      </trkpt>
      <trkpt lat="44.47765" lon="6.2496">
        <ele>1009.85</ele>
        <time>2024-10-24T10:41:22.083Z</time>
      </trkpt>
      <trkpt lat="44.47765" lon="6.24953">
        <ele>1010.16</ele>
        <time>2024-10-24T10:41:24.083Z</time>
      </trkpt>
      <trkpt lat="44.47764" lon="6.24945">
        <ele>1010.51</ele>
        <time>2024-10-24T10:41:25.648Z</time>
      </trkpt>
      <trkpt lat="44.47764" lon="6.24937">
        <ele>1010.84</ele>
        <time>2024-10-24T10:41:28.083Z</time>
      </trkpt>
      <trkpt lat="44.47764" lon="6.24929">
        <ele>1011.18</ele>
        <time>2024-10-24T10:41:30.082Z</time>
      </trkpt>
      <trkpt lat="44.47764" lon="6.24922">
        <ele>1011.53</ele>
        <time>2024-10-24T10:41:32.083Z</time>
      </trkpt>
      <trkpt lat="44.47764" lon="6.24914">
        <ele>1011.88</ele>
        <time>2024-10-24T10:41:34.083Z</time>
      </trkpt>
      <trkpt lat="44.47765" lon="6.24906">
        <ele>1012.3</ele>
        <time>2024-10-24T10:41:35.752Z</time>
      </trkpt>
      <trkpt lat="44.47767" lon="6.24898">
        <ele>1012.6</ele>
        <time>2024-10-24T10:41:38.082Z</time>
      </trkpt>
      <trkpt lat="44.4777" lon="6.24889">
        <ele>1013.25</ele>
        <time>2024-10-24T10:41:40.083Z</time>
      </trkpt>
      <trkpt lat="44.47772" lon="6.24882">
        <ele>1013.63</ele>
        <time>2024-10-24T10:41:42.083Z</time>
      </trkpt>
      <trkpt lat="44.47774" lon="6.24875">
        <ele>1013.89</ele>
        <time>2024-10-24T10:41:44.084Z</time>
      </trkpt>
      <trkpt lat="44.47777" lon="6.24864">
        <ele>1014.22</ele>
        <time>2024-10-24T10:41:46.093Z</time>
      </trkpt>
      <trkpt lat="44.4778" lon="6.24853">
        <ele>1014.52</ele>
        <time>2024-10-24T10:41:48.122Z</time>
      </trkpt>
      <trkpt lat="44.47783" lon="6.24843">
        <ele>1014.77</ele>
        <time>2024-10-24T10:41:50.125Z</time>
      </trkpt>
      <trkpt lat="44.47786" lon="6.24835">
        <ele>1015.1</ele>
        <time>2024-10-24T10:41:52.083Z</time>
      </trkpt>
      <trkpt lat="44.47788" lon="6.2483">
        <ele>1015.17</ele>
        <time>2024-10-24T10:41:54.083Z</time>
      </trkpt>
      <trkpt lat="44.47791" lon="6.24825">
        <ele>1015.42</ele>
        <time>2024-10-24T10:41:55.636Z</time>
      </trkpt>
      <trkpt lat="44.47795" lon="6.2482">
        <ele>1015.62</ele>
        <time>2024-10-24T10:41:58.083Z</time>
      </trkpt>
      <trkpt lat="44.47798" lon="6.24811">
        <ele>1015.92</ele>
        <time>2024-10-24T10:42:00.083Z</time>
      </trkpt>
      <trkpt lat="44.478" lon="6.24799">
        <ele>1016.01</ele>
        <time>2024-10-24T10:42:02.083Z</time>
      </trkpt>
      <trkpt lat="44.47798" lon="6.24787">
        <ele>1016.3</ele>
        <time>2024-10-24T10:42:04.082Z</time>
      </trkpt>
      <trkpt lat="44.47796" lon="6.24778">
        <ele>1016.32</ele>
        <time>2024-10-24T10:42:06.083Z</time>
      </trkpt>
      <trkpt lat="44.47793" lon="6.24768">
        <ele>1016.6</ele>
        <time>2024-10-24T10:42:08.124Z</time>
      </trkpt>
      <trkpt lat="44.47791" lon="6.24757">
        <ele>1016.84</ele>
        <time>2024-10-24T10:42:10.083Z</time>
      </trkpt>
      <trkpt lat="44.47789" lon="6.24746">
        <ele>1017.24</ele>
        <time>2024-10-24T10:42:12.130Z</time>
      </trkpt>
      <trkpt lat="44.4779" lon="6.24736">
        <ele>1017.48</ele>
        <time>2024-10-24T10:42:13.753Z</time>
      </trkpt>
      <trkpt lat="44.4779" lon="6.24727">
        <ele>1017.77</ele>
        <time>2024-10-24T10:42:16.082Z</time>
      </trkpt>
      <trkpt lat="44.4779" lon="6.24718">
        <ele>1017.94</ele>
        <time>2024-10-24T10:42:18.083Z</time>
      </trkpt>
      <trkpt lat="44.47789" lon="6.24709">
        <ele>1018.28</ele>
        <time>2024-10-24T10:42:20.082Z</time>
      </trkpt>
      <trkpt lat="44.47789" lon="6.24701">
        <ele>1018.67</ele>
        <time>2024-10-24T10:42:22.148Z</time>
      </trkpt>
      <trkpt lat="44.47789" lon="6.24693">
        <ele>1019.05</ele>
        <time>2024-10-24T10:42:24.082Z</time>
      </trkpt>
      <trkpt lat="44.47789" lon="6.24686">
        <ele>1019.31</ele>
        <time>2024-10-24T10:42:26.083Z</time>
      </trkpt>
      <trkpt lat="44.47789" lon="6.24678">
        <ele>1019.64</ele>
        <time>2024-10-24T10:42:28.082Z</time>
      </trkpt>
      <trkpt lat="44.47791" lon="6.2467">
        <ele>1020.07</ele>
        <time>2024-10-24T10:42:30.084Z</time>
      </trkpt>
      <trkpt lat="44.47792" lon="6.24665">
        <ele>1020.35</ele>
        <time>2024-10-24T10:42:32.083Z</time>
      </trkpt>
      <trkpt lat="44.47793" lon="6.24661">
        <ele>1020.8</ele>
        <time>2024-10-24T10:42:34.082Z</time>
      </trkpt>
      <trkpt lat="44.47794" lon="6.24656">
        <ele>1021.1</ele>
        <time>2024-10-24T10:42:36.084Z</time>
      </trkpt>
      <trkpt lat="44.47797" lon="6.2465">
        <ele>1021.86</ele>
        <time>2024-10-24T10:42:38.083Z</time>
      </trkpt>
      <trkpt lat="44.478" lon="6.24644">
        <ele>1022.4</ele>
        <time>2024-10-24T10:42:40.082Z</time>
      </trkpt>
      <trkpt lat="44.47803" lon="6.24636">
        <ele>1022.78</ele>
        <time>2024-10-24T10:42:42.084Z</time>
      </trkpt>
      <trkpt lat="44.47806" lon="6.24627">
        <ele>1023.53</ele>
        <time>2024-10-24T10:42:44.082Z</time>
      </trkpt>
      <trkpt lat="44.47809" lon="6.24618">
        <ele>1024.1599</ele>
        <time>2024-10-24T10:42:46.083Z</time>
      </trkpt>
      <trkpt lat="44.47812" lon="6.2461">
        <ele>1024.49</ele>
        <time>2024-10-24T10:42:48.083Z</time>
      </trkpt>
      <trkpt lat="44.47813" lon="6.24602">
        <ele>1025.2</ele>
        <time>2024-10-24T10:42:50.083Z</time>
      </trkpt>
      <trkpt lat="44.47816" lon="6.24593">
        <ele>1025.8201</ele>
        <time>2024-10-24T10:42:52.083Z</time>
      </trkpt>
      <trkpt lat="44.47818" lon="6.24585">
        <ele>1026.38</ele>
        <time>2024-10-24T10:42:54.083Z</time>
      </trkpt>
      <trkpt lat="44.47821" lon="6.24578">
        <ele>1026.97</ele>
        <time>2024-10-24T10:42:56.083Z</time>
      </trkpt>
      <trkpt lat="44.47824" lon="6.2457">
        <ele>1027.62</ele>
        <time>2024-10-24T10:42:58.083Z</time>
      </trkpt>
      <trkpt lat="44.47829" lon="6.24564">
        <ele>1028.1599</ele>
        <time>2024-10-24T10:43:00.182Z</time>
      </trkpt>
      <trkpt lat="44.47834" lon="6.24557">
        <ele>1028.6599</ele>
        <time>2024-10-24T10:43:02.182Z</time>
      </trkpt>
      <trkpt lat="44.47839" lon="6.24551">
        <ele>1029.22</ele>
        <time>2024-10-24T10:43:04.183Z</time>
      </trkpt>
      <trkpt lat="44.47844" lon="6.24545">
        <ele>1029.86</ele>
        <time>2024-10-24T10:43:06.184Z</time>
      </trkpt>
      <trkpt lat="44.4785" lon="6.24539">
        <ele>1030.31</ele>
        <time>2024-10-24T10:43:08.183Z</time>
      </trkpt>
      <trkpt lat="44.47856" lon="6.24533">
        <ele>1030.8201</ele>
        <time>2024-10-24T10:43:10.182Z</time>
      </trkpt>
      <trkpt lat="44.4786" lon="6.24527">
        <ele>1031.15</ele>
        <time>2024-10-24T10:43:12.183Z</time>
      </trkpt>
      <trkpt lat="44.47865" lon="6.24521">
        <ele>1031.88</ele>
        <time>2024-10-24T10:43:14.183Z</time>
      </trkpt>
      <trkpt lat="44.47869" lon="6.24515">
        <ele>1032.4099</ele>
        <time>2024-10-24T10:43:16.183Z</time>
      </trkpt>
      <trkpt lat="44.47874" lon="6.2451">
        <ele>1033</ele>
        <time>2024-10-24T10:43:18.056Z</time>
      </trkpt>
      <trkpt lat="44.47879" lon="6.24506">
        <ele>1033.5701</ele>
        <time>2024-10-24T10:43:20.182Z</time>
      </trkpt>
      <trkpt lat="44.47884" lon="6.24501">
        <ele>1033.95</ele>
        <time>2024-10-24T10:43:21.795Z</time>
      </trkpt>
      <trkpt lat="44.47889" lon="6.24497">
        <ele>1034.38</ele>
        <time>2024-10-24T10:43:24.183Z</time>
      </trkpt>
      <trkpt lat="44.47894" lon="6.24492">
        <ele>1035.1699</ele>
        <time>2024-10-24T10:43:25.930Z</time>
      </trkpt>
      <trkpt lat="44.47899" lon="6.24487">
        <ele>1035.96</ele>
        <time>2024-10-24T10:43:28.184Z</time>
      </trkpt>
      <trkpt lat="44.47898" lon="6.24479">
        <ele>1036.6</ele>
        <time>2024-10-24T10:43:30.183Z</time>
      </trkpt>
      <trkpt lat="44.47892" lon="6.24478">
        <ele>1037.29</ele>
        <time>2024-10-24T10:43:31.868Z</time>
      </trkpt>
      <trkpt lat="44.47887" lon="6.24479">
        <ele>1037.9</ele>
        <time>2024-10-24T10:43:34.184Z</time>
      </trkpt>
      <trkpt lat="44.47882" lon="6.24479">
        <ele>1038.51</ele>
        <time>2024-10-24T10:43:36.183Z</time>
      </trkpt>
      <trkpt lat="44.47876" lon="6.24478">
        <ele>1039.13</ele>
        <time>2024-10-24T10:43:37.849Z</time>
      </trkpt>
      <trkpt lat="44.4787" lon="6.24475">
        <ele>1039.97</ele>
        <time>2024-10-24T10:43:40.183Z</time>
      </trkpt>
      <trkpt lat="44.47865" lon="6.2447">
        <ele>1040.5</ele>
        <time>2024-10-24T10:43:42.183Z</time>
      </trkpt>
      <trkpt lat="44.4786" lon="6.24465">
        <ele>1040.8201</ele>
        <time>2024-10-24T10:43:43.836Z</time>
      </trkpt>
      <trkpt lat="44.47853" lon="6.24459">
        <ele>1041.36</ele>
        <time>2024-10-24T10:43:46.184Z</time>
      </trkpt>
      <trkpt lat="44.47848" lon="6.24453">
        <ele>1041.96</ele>
        <time>2024-10-24T10:43:48.183Z</time>
      </trkpt>
      <trkpt lat="44.47843" lon="6.24446">
        <ele>1042.51</ele>
        <time>2024-10-24T10:43:50.184Z</time>
      </trkpt>
      <trkpt lat="44.47839" lon="6.24439">
        <ele>1043.12</ele>
        <time>2024-10-24T10:43:52.183Z</time>
      </trkpt>
      <trkpt lat="44.47836" lon="6.24431">
        <ele>1043.4</ele>
        <time>2024-10-24T10:43:53.764Z</time>
      </trkpt>
      <trkpt lat="44.47833" lon="6.24423">
        <ele>1044.38</ele>
        <time>2024-10-24T10:43:56.184Z</time>
      </trkpt>
      <trkpt lat="44.47831" lon="6.24414">
        <ele>1044.95</ele>
        <time>2024-10-24T10:43:58.183Z</time>
      </trkpt>
      <trkpt lat="44.47829" lon="6.24406">
        <ele>1045.38</ele>
        <time>2024-10-24T10:44:00.185Z</time>
      </trkpt>
      <trkpt lat="44.47827" lon="6.24398">
        <ele>1046.01</ele>
        <time>2024-10-24T10:44:02.183Z</time>
      </trkpt>
      <trkpt lat="44.47826" lon="6.24389">
        <ele>1046.5701</ele>
        <time>2024-10-24T10:44:03.861Z</time>
      </trkpt>
      <trkpt lat="44.47824" lon="6.24381">
        <ele>1047.24</ele>
        <time>2024-10-24T10:44:06.183Z</time>
      </trkpt>
      <trkpt lat="44.47822" lon="6.24372">
        <ele>1047.61</ele>
        <time>2024-10-24T10:44:08.183Z</time>
      </trkpt>
      <trkpt lat="44.4782" lon="6.24364">
        <ele>1048.23</ele>
        <time>2024-10-24T10:44:10.183Z</time>
      </trkpt>
      <trkpt lat="44.47817" lon="6.24356">
        <ele>1049</ele>
        <time>2024-10-24T10:44:12.183Z</time>
      </trkpt>
      <trkpt lat="44.47813" lon="6.24348">
        <ele>1049.6599</ele>
        <time>2024-10-24T10:44:14.183Z</time>
      </trkpt>
      <trkpt lat="44.47808" lon="6.24343">
        <ele>1050.0901</ele>
        <time>2024-10-24T10:44:16.182Z</time>
      </trkpt>
      <trkpt lat="44.47802" lon="6.24338">
        <ele>1050.85</ele>
        <time>2024-10-24T10:44:18.219Z</time>
      </trkpt>
      <trkpt lat="44.47796" lon="6.24333">
        <ele>1051.4</ele>
        <time>2024-10-24T10:44:20.183Z</time>
      </trkpt>
      <trkpt lat="44.4779" lon="6.24329">
        <ele>1052.01</ele>
        <time>2024-10-24T10:44:21.821Z</time>
      </trkpt>
      <trkpt lat="44.47784" lon="6.24325">
        <ele>1052.52</ele>
        <time>2024-10-24T10:44:24.182Z</time>
      </trkpt>
      <trkpt lat="44.47781" lon="6.24321">
        <ele>1052.8</ele>
        <time>2024-10-24T10:44:26.182Z</time>
      </trkpt>
      <trkpt lat="44.47776" lon="6.24317">
        <ele>1053.26</ele>
        <time>2024-10-24T10:44:28.182Z</time>
      </trkpt>
      <trkpt lat="44.47771" lon="6.24311">
        <ele>1053.7</ele>
        <time>2024-10-24T10:44:30.183Z</time>
      </trkpt>
      <trkpt lat="44.47764" lon="6.24302">
        <ele>1054.26</ele>
        <time>2024-10-24T10:44:32.183Z</time>
      </trkpt>
      <trkpt lat="44.4776" lon="6.24293">
        <ele>1054.65</ele>
        <time>2024-10-24T10:44:34.183Z</time>
      </trkpt>
      <trkpt lat="44.47755" lon="6.24283">
        <ele>1055.0801</ele>
        <time>2024-10-24T10:44:36.183Z</time>
      </trkpt>
      <trkpt lat="44.47752" lon="6.24272">
        <ele>1055.76</ele>
        <time>2024-10-24T10:44:38.183Z</time>
      </trkpt>
      <trkpt lat="44.4775" lon="6.24261">
        <ele>1056.06</ele>
        <time>2024-10-24T10:44:40.182Z</time>
      </trkpt>
      <trkpt lat="44.47749" lon="6.2425">
        <ele>1056.23</ele>
        <time>2024-10-24T10:44:42.382Z</time>
      </trkpt>
      <trkpt lat="44.4775" lon="6.24238">
        <ele>1056.27</ele>
        <time>2024-10-24T10:44:44.419Z</time>
      </trkpt>
      <trkpt lat="44.47751" lon="6.24227">
        <ele>1056.9</ele>
        <time>2024-10-24T10:44:46.383Z</time>
      </trkpt>
      <trkpt lat="44.47754" lon="6.24216">
        <ele>1057.26</ele>
        <time>2024-10-24T10:44:48.382Z</time>
      </trkpt>
      <trkpt lat="44.47758" lon="6.24206">
        <ele>1057.5901</ele>
        <time>2024-10-24T10:44:50.383Z</time>
      </trkpt>
      <trkpt lat="44.47763" lon="6.24197">
        <ele>1057.81</ele>
        <time>2024-10-24T10:44:52.492Z</time>
      </trkpt>
      <trkpt lat="44.4777" lon="6.24189">
        <ele>1057.88</ele>
        <time>2024-10-24T10:44:54.583Z</time>
      </trkpt>
      <trkpt lat="44.47777" lon="6.24183">
        <ele>1058.3</ele>
        <time>2024-10-24T10:44:56.583Z</time>
      </trkpt>
      <trkpt lat="44.47786" lon="6.24181">
        <ele>1058.5701</ele>
        <time>2024-10-24T10:44:58.179Z</time>
      </trkpt>
      <trkpt lat="44.47794" lon="6.24178">
        <ele>1058.6699</ele>
        <time>2024-10-24T10:45:00.582Z</time>
      </trkpt>
      <trkpt lat="44.47802" lon="6.24175">
        <ele>1059.05</ele>
        <time>2024-10-24T10:45:02.184Z</time>
      </trkpt>
      <trkpt lat="44.4781" lon="6.24171">
        <ele>1059.4099</ele>
        <time>2024-10-24T10:45:04.210Z</time>
      </trkpt>
      <trkpt lat="44.47818" lon="6.24166">
        <ele>1059.65</ele>
        <time>2024-10-24T10:45:06.584Z</time>
      </trkpt>
      <trkpt lat="44.47825" lon="6.24161">
        <ele>1059.8301</ele>
        <time>2024-10-24T10:45:08.169Z</time>
      </trkpt>
      <trkpt lat="44.4783" lon="6.24153">
        <ele>1060.03</ele>
        <time>2024-10-24T10:45:10.584Z</time>
      </trkpt>
      <trkpt lat="44.47834" lon="6.24144">
        <ele>1060.23</ele>
        <time>2024-10-24T10:45:12.176Z</time>
      </trkpt>
      <trkpt lat="44.47837" lon="6.24136">
        <ele>1060.44</ele>
        <time>2024-10-24T10:45:14.583Z</time>
      </trkpt>
      <trkpt lat="44.47839" lon="6.2413">
        <ele>1060.6</ele>
        <time>2024-10-24T10:45:16.585Z</time>
      </trkpt>
      <trkpt lat="44.47841" lon="6.24125">
        <ele>1060.74</ele>
        <time>2024-10-24T10:45:18.583Z</time>
      </trkpt>
      <trkpt lat="44.47841" lon="6.24117">
        <ele>1060.88</ele>
        <time>2024-10-24T10:45:20.584Z</time>
      </trkpt>
      <trkpt lat="44.47839" lon="6.2411">
        <ele>1061.19</ele>
        <time>2024-10-24T10:45:22.582Z</time>
      </trkpt>
      <trkpt lat="44.47839" lon="6.24102">
        <ele>1061.4299</ele>
        <time>2024-10-24T10:45:24.373Z</time>
      </trkpt>
      <trkpt lat="44.47838" lon="6.24095">
        <ele>1061.53</ele>
        <time>2024-10-24T10:45:26.583Z</time>
      </trkpt>
      <trkpt lat="44.47836" lon="6.2409">
        <ele>1061.6699</ele>
        <time>2024-10-24T10:45:28.583Z</time>
      </trkpt>
      <trkpt lat="44.47833" lon="6.24088">
        <ele>1061.9199</ele>
        <time>2024-10-24T10:45:30.673Z</time>
      </trkpt>
      <trkpt lat="44.4783" lon="6.24089">
        <ele>1062.28</ele>
        <time>2024-10-24T10:45:31.726Z</time>
      </trkpt>
      <trkpt lat="44.47827" lon="6.24093">
        <ele>1062.52</ele>
        <time>2024-10-24T10:45:34.718Z</time>
      </trkpt>
      <trkpt lat="44.47825" lon="6.24099">
        <ele>1062.86</ele>
        <time>2024-10-24T10:45:35.682Z</time>
      </trkpt>
      <trkpt lat="44.47823" lon="6.24105">
        <ele>1063.1699</ele>
        <time>2024-10-24T10:45:37.683Z</time>
      </trkpt>
      <trkpt lat="44.47819" lon="6.24109">
        <ele>1063.49</ele>
        <time>2024-10-24T10:45:39.783Z</time>
      </trkpt>
      <trkpt lat="44.47814" lon="6.24111">
        <ele>1063.85</ele>
        <time>2024-10-24T10:45:40.827Z</time>
      </trkpt>
      <trkpt lat="44.47808" lon="6.2411">
        <ele>1064.22</ele>
        <time>2024-10-24T10:45:43.291Z</time>
      </trkpt>
      <trkpt lat="44.47803" lon="6.24111">
        <ele>1064.4</ele>
        <time>2024-10-24T10:45:45.783Z</time>
      </trkpt>
      <trkpt lat="44.47797" lon="6.24112">
        <ele>1064.96</ele>
        <time>2024-10-24T10:45:47.589Z</time>
      </trkpt>
      <trkpt lat="44.47792" lon="6.24113">
        <ele>1065.36</ele>
        <time>2024-10-24T10:45:49.578Z</time>
      </trkpt>
      <trkpt lat="44.47787" lon="6.24115">
        <ele>1065.77</ele>
        <time>2024-10-24T10:45:51.781Z</time>
      </trkpt>
      <trkpt lat="44.47783" lon="6.24117">
        <ele>1066.19</ele>
        <time>2024-10-24T10:45:53.882Z</time>
      </trkpt>
      <trkpt lat="44.47779" lon="6.24116">
        <ele>1066.45</ele>
        <time>2024-10-24T10:45:55.883Z</time>
      </trkpt>
      <trkpt lat="44.47775" lon="6.24117">
        <ele>1066.89</ele>
        <time>2024-10-24T10:45:57.883Z</time>
      </trkpt>
      <trkpt lat="44.4777" lon="6.24117">
        <ele>1067.52</ele>
        <time>2024-10-24T10:45:59.883Z</time>
      </trkpt>
      <trkpt lat="44.47765" lon="6.24115">
        <ele>1068.01</ele>
        <time>2024-10-24T10:46:01.983Z</time>
      </trkpt>
      <trkpt lat="44.47761" lon="6.24114">
        <ele>1068.5801</ele>
        <time>2024-10-24T10:46:03.996Z</time>
      </trkpt>
      <trkpt lat="44.47756" lon="6.24113">
        <ele>1068.88</ele>
        <time>2024-10-24T10:46:05.983Z</time>
      </trkpt>
      <trkpt lat="44.47751" lon="6.24112">
        <ele>1069.39</ele>
        <time>2024-10-24T10:46:07.592Z</time>
      </trkpt>
      <trkpt lat="44.47744" lon="6.2411">
        <ele>1070.23</ele>
        <time>2024-10-24T10:46:10.083Z</time>
      </trkpt>
      <trkpt lat="44.47738" lon="6.24109">
        <ele>1070.85</ele>
        <time>2024-10-24T10:46:12.083Z</time>
      </trkpt>
      <trkpt lat="44.47732" lon="6.24108">
        <ele>1071.47</ele>
        <time>2024-10-24T10:46:14.083Z</time>
      </trkpt>
      <trkpt lat="44.47726" lon="6.24108">
        <ele>1071.87</ele>
        <time>2024-10-24T10:46:16.083Z</time>
      </trkpt>
      <trkpt lat="44.47721" lon="6.24107">
        <ele>1072.64</ele>
        <time>2024-10-24T10:46:17.941Z</time>
      </trkpt>
      <trkpt lat="44.47716" lon="6.24107">
        <ele>1073.22</ele>
        <time>2024-10-24T10:46:19.787Z</time>
      </trkpt>
      <trkpt lat="44.4771" lon="6.24107">
        <ele>1073.76</ele>
        <time>2024-10-24T10:46:21.763Z</time>
      </trkpt>
      <trkpt lat="44.47705" lon="6.24106">
        <ele>1074.24</ele>
        <time>2024-10-24T10:46:24.083Z</time>
      </trkpt>
      <trkpt lat="44.477" lon="6.24103">
        <ele>1074.8401</ele>
        <time>2024-10-24T10:46:26.084Z</time>
      </trkpt>
      <trkpt lat="44.47695" lon="6.241">
        <ele>1075.24</ele>
        <time>2024-10-24T10:46:28.183Z</time>
      </trkpt>
      <trkpt lat="44.47689" lon="6.24096">
        <ele>1076.04</ele>
        <time>2024-10-24T10:46:30.183Z</time>
      </trkpt>
      <trkpt lat="44.47684" lon="6.24092">
        <ele>1076.6</ele>
        <time>2024-10-24T10:46:31.888Z</time>
      </trkpt>
      <trkpt lat="44.47679" lon="6.24086">
        <ele>1077.1599</ele>
        <time>2024-10-24T10:46:34.182Z</time>
      </trkpt>
      <trkpt lat="44.47676" lon="6.24081">
        <ele>1077.85</ele>
        <time>2024-10-24T10:46:36.183Z</time>
      </trkpt>
      <trkpt lat="44.47673" lon="6.24076">
        <ele>1078.62</ele>
        <time>2024-10-24T10:46:37.698Z</time>
      </trkpt>
      <trkpt lat="44.4767" lon="6.2407">
        <ele>1079.26</ele>
        <time>2024-10-24T10:46:40.182Z</time>
      </trkpt>
      <trkpt lat="44.47669" lon="6.24065">
        <ele>1080.1</ele>
        <time>2024-10-24T10:46:41.251Z</time>
      </trkpt>
      <trkpt lat="44.47671" lon="6.2406">
        <ele>1080.65</ele>
        <time>2024-10-24T10:46:43.276Z</time>
      </trkpt>
      <trkpt lat="44.47672" lon="6.24056">
        <ele>1080.74</ele>
        <time>2024-10-24T10:46:46.182Z</time>
      </trkpt>
      <trkpt lat="44.47668" lon="6.24053">
        <ele>1081.22</ele>
        <time>2024-10-24T10:46:47.282Z</time>
      </trkpt>
      <trkpt lat="44.47666" lon="6.24056">
        <ele>1081.47</ele>
        <time>2024-10-24T10:46:50.183Z</time>
      </trkpt>
      <trkpt lat="44.47668" lon="6.2406">
        <ele>1081.95</ele>
        <time>2024-10-24T10:46:52.183Z</time>
      </trkpt>
      <trkpt lat="44.47672" lon="6.2406">
        <ele>1082.3401</ele>
        <time>2024-10-24T10:46:54.183Z</time>
      </trkpt>
      <trkpt lat="44.47675" lon="6.24058">
        <ele>1082.45</ele>
        <time>2024-10-24T10:46:56.183Z</time>
      </trkpt>
      <trkpt lat="44.47678" lon="6.24056">
        <ele>1083.19</ele>
        <time>2024-10-24T10:46:58.146Z</time>
      </trkpt>
      <trkpt lat="44.47681" lon="6.24053">
        <ele>1083.38</ele>
        <time>2024-10-24T10:47:00.183Z</time>
      </trkpt>
      <trkpt lat="44.47684" lon="6.24052">
        <ele>1083.52</ele>
        <time>2024-10-24T10:47:01.749Z</time>
      </trkpt>
      <trkpt lat="44.47687" lon="6.24052">
        <ele>1084.0801</ele>
        <time>2024-10-24T10:47:04.183Z</time>
      </trkpt>
      <trkpt lat="44.47691" lon="6.24055">
        <ele>1084.4099</ele>
        <time>2024-10-24T10:47:06.184Z</time>
      </trkpt>
      <trkpt lat="44.47696" lon="6.24056">
        <ele>1085.26</ele>
        <time>2024-10-24T10:47:08.183Z</time>
      </trkpt>
      <trkpt lat="44.47701" lon="6.24056">
        <ele>1085.85</ele>
        <time>2024-10-24T10:47:10.182Z</time>
      </trkpt>
      <trkpt lat="44.47704" lon="6.24053">
        <ele>1086.56</ele>
        <time>2024-10-24T10:47:12.183Z</time>
      </trkpt>
      <trkpt lat="44.47708" lon="6.24049">
        <ele>1087.01</ele>
        <time>2024-10-24T10:47:15.833Z</time>
      </trkpt>
      <trkpt lat="44.47699" lon="6.24052">
        <ele>1088.45</ele>
        <time>2024-10-24T10:47:19.510Z</time>
      </trkpt>
      <trkpt lat="44.47701" lon="6.24053">
        <ele>1090.04</ele>
        <time>2024-10-24T10:47:28.916Z</time>
      </trkpt>
      <trkpt lat="44.47702" lon="6.24053">
        <ele>1090.04</ele>
        <time>2024-10-24T10:47:29.917Z</time>
      </trkpt>
      <trkpt lat="44.47705" lon="6.24049">
        <ele>1090.04</ele>
        <time>2024-10-24T10:47:31.915Z</time>
      </trkpt>
      <trkpt lat="44.47706" lon="6.24045">
        <ele>1090.04</ele>
        <time>2024-10-24T10:47:33.916Z</time>
      </trkpt>
      <trkpt lat="44.47707" lon="6.24043">
        <ele>1098.15</ele>
        <time>2024-10-24T10:48:11.920Z</time>
      </trkpt>
      <trkpt lat="44.47708" lon="6.2404">
        <ele>1098.25</ele>
        <time>2024-10-24T10:48:12.859Z</time>
      </trkpt>
      <trkpt lat="44.47713" lon="6.2403">
        <ele>1098.38</ele>
        <time>2024-10-24T10:48:14.913Z</time>
      </trkpt>
      <trkpt lat="44.47718" lon="6.24025">
        <ele>1098.52</ele>
        <time>2024-10-24T10:48:15.858Z</time>
      </trkpt>
      <trkpt lat="44.47729" lon="6.24013">
        <ele>1098.5801</ele>
        <time>2024-10-24T10:48:17.858Z</time>
      </trkpt>
      <trkpt lat="44.47738" lon="6.24007">
        <ele>1098.5701</ele>
        <time>2024-10-24T10:48:19.859Z</time>
      </trkpt>
      <trkpt lat="44.47746" lon="6.23997">
        <ele>1098.45</ele>
        <time>2024-10-24T10:48:21.912Z</time>
      </trkpt>
      <trkpt lat="44.47752" lon="6.23989">
        <ele>1098.37</ele>
        <time>2024-10-24T10:48:23.860Z</time>
      </trkpt>
      <trkpt lat="44.47758" lon="6.23983">
        <ele>1098.29</ele>
        <time>2024-10-24T10:48:25.858Z</time>
      </trkpt>
      <trkpt lat="44.47761" lon="6.23976">
        <ele>1098.1699</ele>
        <time>2024-10-24T10:48:27.858Z</time>
      </trkpt>
      <trkpt lat="44.47763" lon="6.23968">
        <ele>1098.03</ele>
        <time>2024-10-24T10:48:29.860Z</time>
      </trkpt>
      <trkpt lat="44.47765" lon="6.23961">
        <ele>1097.8401</ele>
        <time>2024-10-24T10:48:31.860Z</time>
      </trkpt>
      <trkpt lat="44.47767" lon="6.23955">
        <ele>1097.65</ele>
        <time>2024-10-24T10:48:33.859Z</time>
      </trkpt>
      <trkpt lat="44.47771" lon="6.2395">
        <ele>1097.48</ele>
        <time>2024-10-24T10:48:35.925Z</time>
      </trkpt>
      <trkpt lat="44.47778" lon="6.23946">
        <ele>1097.25</ele>
        <time>2024-10-24T10:48:37.859Z</time>
      </trkpt>
      <trkpt lat="44.47779" lon="6.23939">
        <ele>1096.9099</ele>
        <time>2024-10-24T10:48:39.580Z</time>
      </trkpt>
      <trkpt lat="44.47781" lon="6.23933">
        <ele>1096.46</ele>
        <time>2024-10-24T10:48:41.960Z</time>
      </trkpt>
      <trkpt lat="44.47786" lon="6.2393">
        <ele>1095.9199</ele>
        <time>2024-10-24T10:48:43.608Z</time>
      </trkpt>
      <trkpt lat="44.47787" lon="6.23921">
        <ele>1095.24</ele>
        <time>2024-10-24T10:48:45.639Z</time>
      </trkpt>
      <trkpt lat="44.47789" lon="6.23915">
        <ele>1094.4299</ele>
        <time>2024-10-24T10:48:47.577Z</time>
      </trkpt>
      <trkpt lat="44.4779" lon="6.23912">
        <ele>1093.48</ele>
        <time>2024-10-24T10:48:49.958Z</time>
      </trkpt>
      <trkpt lat="44.4779" lon="6.23906">
        <ele>1093.48</ele>
        <time>2024-10-24T10:48:51.586Z</time>
      </trkpt>
      <trkpt lat="44.4779" lon="6.23895">
        <ele>1091.29</ele>
        <time>2024-10-24T10:48:53.564Z</time>
      </trkpt>
      <trkpt lat="44.47796" lon="6.23885">
        <ele>1089.99</ele>
        <time>2024-10-24T10:48:55.550Z</time>
      </trkpt>
      <trkpt lat="44.47799" lon="6.23877">
        <ele>1088.46</ele>
        <time>2024-10-24T10:48:57.572Z</time>
      </trkpt>
      <trkpt lat="44.47797" lon="6.23865">
        <ele>1086.87</ele>
        <time>2024-10-24T10:48:59.959Z</time>
      </trkpt>
      <trkpt lat="44.47797" lon="6.23853">
        <ele>1085.1799</ele>
        <time>2024-10-24T10:49:01.602Z</time>
      </trkpt>
      <trkpt lat="44.47795" lon="6.23842">
        <ele>1083.27</ele>
        <time>2024-10-24T10:49:03.960Z</time>
      </trkpt>
      <trkpt lat="44.47793" lon="6.23831">
        <ele>1081.15</ele>
        <time>2024-10-24T10:49:05.567Z</time>
      </trkpt>
      <trkpt lat="44.47793" lon="6.23822">
        <ele>1078.85</ele>
        <time>2024-10-24T10:49:07.960Z</time>
      </trkpt>
      <trkpt lat="44.47783" lon="6.23818">
        <ele>1076.8</ele>
        <time>2024-10-24T10:49:09.959Z</time>
      </trkpt>
      <trkpt lat="44.47775" lon="6.23808">
        <ele>1074.52</ele>
        <time>2024-10-24T10:49:11.959Z</time>
      </trkpt>
      <trkpt lat="44.4777" lon="6.2379">
        <ele>1072.29</ele>
        <time>2024-10-24T10:49:13.961Z</time>
      </trkpt>
      <trkpt lat="44.47768" lon="6.23772">
        <ele>1069.9299</ele>
        <time>2024-10-24T10:49:15.957Z</time>
      </trkpt>
      <trkpt lat="44.47766" lon="6.23762">
        <ele>1067.39</ele>
        <time>2024-10-24T10:49:17.959Z</time>
      </trkpt>
      <trkpt lat="44.4776" lon="6.23754">
        <ele>1064.8</ele>
        <time>2024-10-24T10:49:19.958Z</time>
      </trkpt>
      <trkpt lat="44.47757" lon="6.23742">
        <ele>1062.19</ele>
        <time>2024-10-24T10:49:21.958Z</time>
      </trkpt>
      <trkpt lat="44.47754" lon="6.23732">
        <ele>1059.98</ele>
        <time>2024-10-24T10:49:23.958Z</time>
      </trkpt>
      <trkpt lat="44.47748" lon="6.23719">
        <ele>1057.87</ele>
        <time>2024-10-24T10:49:25.684Z</time>
      </trkpt>
      <trkpt lat="44.47743" lon="6.23708">
        <ele>1055.5901</ele>
        <time>2024-10-24T10:49:27.960Z</time>
      </trkpt>
      <trkpt lat="44.47733" lon="6.2371">
        <ele>1053.24</ele>
        <time>2024-10-24T10:49:29.657Z</time>
      </trkpt>
      <trkpt lat="44.47728" lon="6.2371">
        <ele>1051.05</ele>
        <time>2024-10-24T10:49:31.617Z</time>
      </trkpt>
      <trkpt lat="44.47725" lon="6.2371">
        <ele>1051.05</ele>
        <time>2024-10-24T10:49:34.059Z</time>
      </trkpt>
      <trkpt lat="44.47719" lon="6.237">
        <ele>1051.05</ele>
        <time>2024-10-24T10:49:38.059Z</time>
      </trkpt>
      <trkpt lat="44.47713" lon="6.23699">
        <ele>1051.05</ele>
        <time>2024-10-24T10:49:40.061Z</time>
      </trkpt>
      <trkpt lat="44.47705" lon="6.23701">
        <ele>1051.05</ele>
        <time>2024-10-24T10:49:42.059Z</time>
      </trkpt>
      <trkpt lat="44.47697" lon="6.23698">
        <ele>1051.05</ele>
        <time>2024-10-24T10:49:44.068Z</time>
      </trkpt>
      <trkpt lat="44.47688" lon="6.23694">
        <ele>1051.05</ele>
        <time>2024-10-24T10:49:45.595Z</time>
      </trkpt>
      <trkpt lat="44.47679" lon="6.23689">
        <ele>1033.3201</ele>
        <time>2024-10-24T10:49:48.057Z</time>
      </trkpt>
      <trkpt lat="44.47673" lon="6.23686">
        <ele>1030.97</ele>
        <time>2024-10-24T10:49:49.600Z</time>
      </trkpt>
      <trkpt lat="44.47672" lon="6.23687">
        <ele>1028.89</ele>
        <time>2024-10-24T10:49:52.058Z</time>
      </trkpt>
      <trkpt lat="44.47667" lon="6.23683">
        <ele>1028.89</ele>
        <time>2024-10-24T10:49:54.052Z</time>
      </trkpt>
      <trkpt lat="44.47656" lon="6.23671">
        <ele>1028.89</ele>
        <time>2024-10-24T10:49:56.059Z</time>
      </trkpt>
      <trkpt lat="44.47647" lon="6.2366">
        <ele>1022.48</ele>
        <time>2024-10-24T10:49:58.057Z</time>
      </trkpt>
      <trkpt lat="44.47646" lon="6.23654">
        <ele>1020.45</ele>
        <time>2024-10-24T10:49:59.643Z</time>
      </trkpt>
      <trkpt lat="44.47646" lon="6.23639">
        <ele>1020.45</ele>
        <time>2024-10-24T10:50:01.623Z</time>
      </trkpt>
      <trkpt lat="44.47639" lon="6.23624">
        <ele>1016.66</ele>
        <time>2024-10-24T10:50:03.595Z</time>
      </trkpt>
      <trkpt lat="44.47632" lon="6.2361">
        <ele>1014.63</ele>
        <time>2024-10-24T10:50:05.635Z</time>
      </trkpt>
      <trkpt lat="44.47626" lon="6.23599">
        <ele>1012.72</ele>
        <time>2024-10-24T10:50:08.072Z</time>
      </trkpt>
      <trkpt lat="44.47623" lon="6.23591">
        <ele>1010.52</ele>
        <time>2024-10-24T10:50:09.638Z</time>
      </trkpt>
      <trkpt lat="44.4762" lon="6.23585">
        <ele>1008.41</ele>
        <time>2024-10-24T10:50:12.078Z</time>
      </trkpt>
      <trkpt lat="44.47615" lon="6.23578">
        <ele>1006.61</ele>
        <time>2024-10-24T10:50:14.059Z</time>
      </trkpt>
      <trkpt lat="44.47611" lon="6.2357">
        <ele>1004.94</ele>
        <time>2024-10-24T10:50:16.059Z</time>
      </trkpt>
      <trkpt lat="44.47606" lon="6.23563">
        <ele>1003.11</ele>
        <time>2024-10-24T10:50:18.061Z</time>
      </trkpt>
      <trkpt lat="44.47603" lon="6.23557">
        <ele>1001.54</ele>
        <time>2024-10-24T10:50:20.059Z</time>
      </trkpt>
      <trkpt lat="44.47599" lon="6.23551">
        <ele>999.92</ele>
        <time>2024-10-24T10:50:22.059Z</time>
      </trkpt>
      <trkpt lat="44.47597" lon="6.23547">
        <ele>998.65</ele>
        <time>2024-10-24T10:50:24.060Z</time>
      </trkpt>
      <trkpt lat="44.47595" lon="6.23543">
        <ele>997.35</ele>
        <time>2024-10-24T10:50:26.059Z</time>
      </trkpt>
      <trkpt lat="44.47594" lon="6.23536">
        <ele>996.29</ele>
        <time>2024-10-24T10:50:28.059Z</time>
      </trkpt>
      <trkpt lat="44.47593" lon="6.23527">
        <ele>995.19</ele>
        <time>2024-10-24T10:50:30.059Z</time>
      </trkpt>
      <trkpt lat="44.47586" lon="6.23514">
        <ele>993.96</ele>
        <time>2024-10-24T10:50:32.060Z</time>
      </trkpt>
      <trkpt lat="44.47578" lon="6.23503">
        <ele>992.71</ele>
        <time>2024-10-24T10:50:34.064Z</time>
      </trkpt>
      <trkpt lat="44.47571" lon="6.23494">
        <ele>991.65</ele>
        <time>2024-10-24T10:50:36.061Z</time>
      </trkpt>
      <trkpt lat="44.47557" lon="6.23482">
        <ele>990.51</ele>
        <time>2024-10-24T10:50:38.059Z</time>
      </trkpt>
      <trkpt lat="44.47546" lon="6.2347">
        <ele>989.02</ele>
        <time>2024-10-24T10:50:40.060Z</time>
      </trkpt>
      <trkpt lat="44.47537" lon="6.2346">
        <ele>987.52</ele>
        <time>2024-10-24T10:50:42.060Z</time>
      </trkpt>
      <trkpt lat="44.47523" lon="6.23462">
        <ele>986.01</ele>
        <time>2024-10-24T10:50:44.060Z</time>
      </trkpt>
      <trkpt lat="44.47518" lon="6.23458">
        <ele>984.46</ele>
        <time>2024-10-24T10:50:46.058Z</time>
      </trkpt>
      <trkpt lat="44.47514" lon="6.23454">
        <ele>982.93</ele>
        <time>2024-10-24T10:50:48.060Z</time>
      </trkpt>
      <trkpt lat="44.47506" lon="6.2344">
        <ele>981.34</ele>
        <time>2024-10-24T10:50:50.061Z</time>
      </trkpt>
      <trkpt lat="44.47494" lon="6.23427">
        <ele>979.33</ele>
        <time>2024-10-24T10:50:52.059Z</time>
      </trkpt>
      <trkpt lat="44.47482" lon="6.23415">
        <ele>977.28</ele>
        <time>2024-10-24T10:50:54.060Z</time>
      </trkpt>
      <trkpt lat="44.47473" lon="6.23413">
        <ele>975.27</ele>
        <time>2024-10-24T10:50:56.058Z</time>
      </trkpt>
      <trkpt lat="44.47468" lon="6.23412">
        <ele>973.21</ele>
        <time>2024-10-24T10:50:58.058Z</time>
      </trkpt>
      <trkpt lat="44.47473" lon="6.23413">
        <ele>973.21</ele>
        <time>2024-10-24T10:51:11.519Z</time>
      </trkpt>
      <trkpt lat="44.47468" lon="6.23412">
        <ele>973.21</ele>
        <time>2024-10-24T10:51:13.086Z</time>
      </trkpt>
      <trkpt lat="44.47465" lon="6.23412">
        <ele>973.21</ele>
        <time>2024-10-24T10:51:14.156Z</time>
      </trkpt>
      <trkpt lat="44.47458" lon="6.2341">
        <ele>973.21</ele>
        <time>2024-10-24T10:52:19.794Z</time>
      </trkpt>
      <trkpt lat="44.47449" lon="6.2341">
        <ele>973.21</ele>
        <time>2024-10-24T10:52:21.793Z</time>
      </trkpt>
      <trkpt lat="44.47445" lon="6.23412">
        <ele>973.21</ele>
        <time>2024-10-24T10:52:22.794Z</time>
      </trkpt>
      <trkpt lat="44.47434" lon="6.23415">
        <ele>973.21</ele>
        <time>2024-10-24T10:52:24.793Z</time>
      </trkpt>
      <trkpt lat="44.47425" lon="6.23414">
        <ele>973.21</ele>
        <time>2024-10-24T10:52:26.794Z</time>
      </trkpt>
      <trkpt lat="44.47419" lon="6.23409">
        <ele>973.21</ele>
        <time>2024-10-24T10:52:28.798Z</time>
      </trkpt>
      <trkpt lat="44.47414" lon="6.23408">
        <ele>973.21</ele>
        <time>2024-10-24T10:52:30.791Z</time>
      </trkpt>
      <trkpt lat="44.47406" lon="6.23414">
        <ele>951.31</ele>
        <time>2024-10-24T10:52:32.792Z</time>
      </trkpt>
      <trkpt lat="44.47398" lon="6.23427">
        <ele>950.68</ele>
        <time>2024-10-24T10:52:34.793Z</time>
      </trkpt>
      <trkpt lat="44.47389" lon="6.23429">
        <ele>950.02</ele>
        <time>2024-10-24T10:52:36.793Z</time>
      </trkpt>
      <trkpt lat="44.47381" lon="6.23414">
        <ele>949.23</ele>
        <time>2024-10-24T10:52:38.887Z</time>
      </trkpt>
      <trkpt lat="44.47369" lon="6.23402">
        <ele>948.44</ele>
        <time>2024-10-24T10:52:40.894Z</time>
      </trkpt>
      <trkpt lat="44.47357" lon="6.2339">
        <ele>947.69</ele>
        <time>2024-10-24T10:52:42.892Z</time>
      </trkpt>
      <trkpt lat="44.47344" lon="6.23379">
        <ele>946.62</ele>
        <time>2024-10-24T10:52:43.906Z</time>
      </trkpt>
      <trkpt lat="44.47335" lon="6.23369">
        <ele>945.53</ele>
        <time>2024-10-24T10:52:46.892Z</time>
      </trkpt>
      <trkpt lat="44.47335" lon="6.23356">
        <ele>944.33</ele>
        <time>2024-10-24T10:52:48.872Z</time>
      </trkpt>
      <trkpt lat="44.47342" lon="6.23352">
        <ele>943.05</ele>
        <time>2024-10-24T10:52:50.892Z</time>
      </trkpt>
      <trkpt lat="44.47352" lon="6.23361">
        <ele>941.75</ele>
        <time>2024-10-24T10:52:52.893Z</time>
      </trkpt>
      <trkpt lat="44.47363" lon="6.23371">
        <ele>940.21</ele>
        <time>2024-10-24T10:52:54.893Z</time>
      </trkpt>
      <trkpt lat="44.47375" lon="6.23374">
        <ele>938.87</ele>
        <time>2024-10-24T10:52:56.893Z</time>
      </trkpt>
      <trkpt lat="44.47383" lon="6.23367">
        <ele>937.31</ele>
        <time>2024-10-24T10:52:58.893Z</time>
      </trkpt>
      <trkpt lat="44.47384" lon="6.23355">
        <ele>935.9</ele>
        <time>2024-10-24T10:53:00.894Z</time>
      </trkpt>
      <trkpt lat="44.47388" lon="6.23341">
        <ele>934.29</ele>
        <time>2024-10-24T10:53:02.892Z</time>
      </trkpt>
      <trkpt lat="44.47394" lon="6.23331">
        <ele>932.79</ele>
        <time>2024-10-24T10:53:04.894Z</time>
      </trkpt>
      <trkpt lat="44.474" lon="6.23319">
        <ele>931.27</ele>
        <time>2024-10-24T10:53:06.893Z</time>
      </trkpt>
      <trkpt lat="44.47396" lon="6.23309">
        <ele>929.6</ele>
        <time>2024-10-24T10:53:08.893Z</time>
      </trkpt>
      <trkpt lat="44.47387" lon="6.2331">
        <ele>927.88</ele>
        <time>2024-10-24T10:53:10.893Z</time>
      </trkpt>
      <trkpt lat="44.47377" lon="6.23317">
        <ele>926.25</ele>
        <time>2024-10-24T10:53:12.892Z</time>
      </trkpt>
      <trkpt lat="44.47368" lon="6.23319">
        <ele>924.42</ele>
        <time>2024-10-24T10:53:14.893Z</time>
      </trkpt>
      <trkpt lat="44.47359" lon="6.23316">
        <ele>922.56</ele>
        <time>2024-10-24T10:53:16.891Z</time>
      </trkpt>
      <trkpt lat="44.47353" lon="6.233">
        <ele>920.65</ele>
        <time>2024-10-24T10:53:18.893Z</time>
      </trkpt>
      <trkpt lat="44.47347" lon="6.23289">
        <ele>917.71</ele>
        <time>2024-10-24T10:53:20.891Z</time>
      </trkpt>
      <trkpt lat="44.4734" lon="6.23275">
        <ele>915.71</ele>
        <time>2024-10-24T10:53:22.893Z</time>
      </trkpt>
      <trkpt lat="44.47326" lon="6.23277">
        <ele>913.58</ele>
        <time>2024-10-24T10:53:24.892Z</time>
      </trkpt>
      <trkpt lat="44.47316" lon="6.23268">
        <ele>911.71</ele>
        <time>2024-10-24T10:53:26.893Z</time>
      </trkpt>
      <trkpt lat="44.47306" lon="6.2326">
        <ele>909.48</ele>
        <time>2024-10-24T10:53:28.893Z</time>
      </trkpt>
      <trkpt lat="44.47299" lon="6.23256">
        <ele>907.36</ele>
        <time>2024-10-24T10:53:30.893Z</time>
      </trkpt>
      <trkpt lat="44.47292" lon="6.23257">
        <ele>904.97</ele>
        <time>2024-10-24T10:53:32.892Z</time>
      </trkpt>
      <trkpt lat="44.47284" lon="6.23255">
        <ele>902.68</ele>
        <time>2024-10-24T10:53:34.891Z</time>
      </trkpt>
      <trkpt lat="44.47278" lon="6.23253">
        <ele>900.48</ele>
        <time>2024-10-24T10:53:36.892Z</time>
      </trkpt>
      <trkpt lat="44.47274" lon="6.23246">
        <ele>900.48</ele>
        <time>2024-10-24T10:53:38.895Z</time>
      </trkpt>
      <trkpt lat="44.4727" lon="6.2324">
        <ele>900.48</ele>
        <time>2024-10-24T10:53:40.460Z</time>
      </trkpt>
      <trkpt lat="44.47268" lon="6.23234">
        <ele>900.48</ele>
        <time>2024-10-24T10:53:42.893Z</time>
      </trkpt>
      <trkpt lat="44.47265" lon="6.23232">
        <ele>900.48</ele>
        <time>2024-10-24T10:53:44.892Z</time>
      </trkpt>
      <trkpt lat="44.47262" lon="6.23233">
        <ele>900.48</ele>
        <time>2024-10-24T10:53:46.893Z</time>
      </trkpt>
      <trkpt lat="44.4726" lon="6.23237">
        <ele>900.48</ele>
        <time>2024-10-24T10:53:48.953Z</time>
      </trkpt>
      <trkpt lat="44.47257" lon="6.2324">
        <ele>900.48</ele>
        <time>2024-10-24T10:53:50.891Z</time>
      </trkpt>
      <trkpt lat="44.47255" lon="6.23237">
        <ele>900.48</ele>
        <time>2024-10-24T10:53:52.893Z</time>
      </trkpt>
      <trkpt lat="44.47251" lon="6.23231">
        <ele>900.48</ele>
        <time>2024-10-24T10:53:54.892Z</time>
      </trkpt>
      <trkpt lat="44.47245" lon="6.23228">
        <ele>900.48</ele>
        <time>2024-10-24T10:53:56.892Z</time>
      </trkpt>
      <trkpt lat="44.47239" lon="6.23231">
        <ele>900.48</ele>
        <time>2024-10-24T10:53:58.891Z</time>
      </trkpt>
      <trkpt lat="44.47231" lon="6.23232">
        <ele>900.48</ele>
        <time>2024-10-24T10:54:00.893Z</time>
      </trkpt>
      <trkpt lat="44.47226" lon="6.23232">
        <ele>900.48</ele>
        <time>2024-10-24T10:54:02.891Z</time>
      </trkpt>
      <trkpt lat="44.47225" lon="6.23229">
        <ele>900.48</ele>
        <time>2024-10-24T10:54:06.891Z</time>
      </trkpt>
      <trkpt lat="44.47217" lon="6.23231">
        <ele>900.48</ele>
        <time>2024-10-24T10:54:08.981Z</time>
      </trkpt>
      <trkpt lat="44.47209" lon="6.23233">
        <ele>900.48</ele>
        <time>2024-10-24T10:54:10.994Z</time>
      </trkpt>
      <trkpt lat="44.47203" lon="6.23221">
        <ele>900.48</ele>
        <time>2024-10-24T10:54:12.958Z</time>
      </trkpt>
      <trkpt lat="44.47197" lon="6.23216">
        <ele>900.48</ele>
        <time>2024-10-24T10:54:14.993Z</time>
      </trkpt>
      <trkpt lat="44.47193" lon="6.23221">
        <ele>900.48</ele>
        <time>2024-10-24T10:54:16.554Z</time>
      </trkpt>
      <trkpt lat="44.47191" lon="6.23228">
        <ele>900.48</ele>
        <time>2024-10-24T10:54:18.993Z</time>
      </trkpt>
      <trkpt lat="44.47189" lon="6.2323">
        <ele>900.48</ele>
        <time>2024-10-24T10:54:20.992Z</time>
      </trkpt>
      <trkpt lat="44.47189" lon="6.23232">
        <ele>900.48</ele>
        <time>2024-10-24T10:54:22.007Z</time>
      </trkpt>
      <trkpt lat="44.47284" lon="6.23255">
        <ele>900.48</ele>
        <time>2024-10-24T10:55:29.855Z</time>
      </trkpt>
      <trkpt lat="44.47177" lon="6.23232">
        <ele>900.48</ele>
        <time>2024-10-24T10:55:30.856Z</time>
      </trkpt>
      <trkpt lat="44.47177" lon="6.23235">
        <ele>900.48</ele>
        <time>2024-10-24T10:55:30.857Z</time>
      </trkpt>
      <trkpt lat="44.47177" lon="6.23244">
        <ele>900.48</ele>
        <time>2024-10-24T10:55:32.859Z</time>
      </trkpt>
      <trkpt lat="44.47176" lon="6.23249">
        <ele>900.48</ele>
        <time>2024-10-24T10:55:33.875Z</time>
      </trkpt>
      <trkpt lat="44.47178" lon="6.23271">
        <ele>900.48</ele>
        <time>2024-10-24T10:55:36.857Z</time>
      </trkpt>
      <trkpt lat="44.47178" lon="6.23286">
        <ele>900.48</ele>
        <time>2024-10-24T10:55:37.877Z</time>
      </trkpt>
      <trkpt lat="44.47174" lon="6.23294">
        <ele>900.48</ele>
        <time>2024-10-24T10:55:40.855Z</time>
      </trkpt>
      <trkpt lat="44.47166" lon="6.233">
        <ele>900.48</ele>
        <time>2024-10-24T10:55:42.849Z</time>
      </trkpt>
      <trkpt lat="44.47158" lon="6.23304">
        <ele>900.48</ele>
        <time>2024-10-24T10:55:43.870Z</time>
      </trkpt>
      <trkpt lat="44.47151" lon="6.2331">
        <ele>900.48</ele>
        <time>2024-10-24T10:55:45.875Z</time>
      </trkpt>
      <trkpt lat="44.47142" lon="6.23316">
        <ele>900.48</ele>
        <time>2024-10-24T10:55:48.849Z</time>
      </trkpt>
      <trkpt lat="44.47134" lon="6.23321">
        <ele>900.48</ele>
        <time>2024-10-24T10:55:50.858Z</time>
      </trkpt>
      <trkpt lat="44.47126" lon="6.23331">
        <ele>840.32</ele>
        <time>2024-10-24T10:55:52.861Z</time>
      </trkpt>
      <trkpt lat="44.47119" lon="6.23341">
        <ele>839.43</ele>
        <time>2024-10-24T10:55:54.858Z</time>
      </trkpt>
      <trkpt lat="44.47118" lon="6.23357">
        <ele>838.53</ele>
        <time>2024-10-24T10:55:56.856Z</time>
      </trkpt>
      <trkpt lat="44.4712" lon="6.23372">
        <ele>837.45</ele>
        <time>2024-10-24T10:55:58.856Z</time>
      </trkpt>
      <trkpt lat="44.4712" lon="6.23386">
        <ele>836.32</ele>
        <time>2024-10-24T10:56:00.857Z</time>
      </trkpt>
      <trkpt lat="44.47116" lon="6.23394">
        <ele>835.16</ele>
        <time>2024-10-24T10:56:02.856Z</time>
      </trkpt>
      <trkpt lat="44.47108" lon="6.23399">
        <ele>833.89</ele>
        <time>2024-10-24T10:56:04.857Z</time>
      </trkpt>
      <trkpt lat="44.47101" lon="6.23406">
        <ele>832.61</ele>
        <time>2024-10-24T10:56:06.856Z</time>
      </trkpt>
      <trkpt lat="44.47094" lon="6.23415">
        <ele>831.21</ele>
        <time>2024-10-24T10:56:08.856Z</time>
      </trkpt>
      <trkpt lat="44.47087" lon="6.23422">
        <ele>829.72</ele>
        <time>2024-10-24T10:56:10.864Z</time>
      </trkpt>
      <trkpt lat="44.47082" lon="6.23423">
        <ele>828.22</ele>
        <time>2024-10-24T10:56:12.855Z</time>
      </trkpt>
      <trkpt lat="44.47078" lon="6.23422">
        <ele>826.63</ele>
        <time>2024-10-24T10:56:14.855Z</time>
      </trkpt>
      <trkpt lat="44.47073" lon="6.23421">
        <ele>826.63</ele>
        <time>2024-10-24T10:56:16.593Z</time>
      </trkpt>
      <trkpt lat="44.47065" lon="6.23421">
        <ele>823.24</ele>
        <time>2024-10-24T10:56:18.855Z</time>
      </trkpt>
      <trkpt lat="44.47059" lon="6.23428">
        <ele>821.48</ele>
        <time>2024-10-24T10:56:20.855Z</time>
      </trkpt>
      <trkpt lat="44.47054" lon="6.23441">
        <ele>819.83</ele>
        <time>2024-10-24T10:56:22.890Z</time>
      </trkpt>
      <trkpt lat="44.47049" lon="6.23452">
        <ele>818.01</ele>
        <time>2024-10-24T10:56:24.855Z</time>
      </trkpt>
      <trkpt lat="44.47044" lon="6.23461">
        <ele>816.15</ele>
        <time>2024-10-24T10:56:26.855Z</time>
      </trkpt>
      <trkpt lat="44.47037" lon="6.23466">
        <ele>814.28</ele>
        <time>2024-10-24T10:56:28.858Z</time>
      </trkpt>
      <trkpt lat="44.47028" lon="6.23475">
        <ele>812.42</ele>
        <time>2024-10-24T10:56:30.856Z</time>
      </trkpt>
      <trkpt lat="44.47022" lon="6.23484">
        <ele>810.44</ele>
        <time>2024-10-24T10:56:32.856Z</time>
      </trkpt>
      <trkpt lat="44.47017" lon="6.23489">
        <ele>808.37</ele>
        <time>2024-10-24T10:56:34.857Z</time>
      </trkpt>
      <trkpt lat="44.47017" lon="6.23482">
        <ele>806.29</ele>
        <time>2024-10-24T10:56:36.855Z</time>
      </trkpt>
      <trkpt lat="44.4702" lon="6.23475">
        <ele>806.29</ele>
        <time>2024-10-24T10:56:38.857Z</time>
      </trkpt>
      <trkpt lat="44.47023" lon="6.23462">
        <ele>802.24</ele>
        <time>2024-10-24T10:56:40.857Z</time>
      </trkpt>
      <trkpt lat="44.47021" lon="6.23454">
        <ele>800.31</ele>
        <time>2024-10-24T10:56:42.856Z</time>
      </trkpt>
      <trkpt lat="44.47017" lon="6.23457">
        <ele>798.41</ele>
        <time>2024-10-24T10:56:43.938Z</time>
      </trkpt>
      <trkpt lat="44.47012" lon="6.2346">
        <ele>796.63</ele>
        <time>2024-10-24T10:56:46.443Z</time>
      </trkpt>
      <trkpt lat="44.47004" lon="6.23477">
        <ele>794.76</ele>
        <time>2024-10-24T10:56:48.907Z</time>
      </trkpt>
      <trkpt lat="44.46999" lon="6.23491">
        <ele>793.09</ele>
        <time>2024-10-24T10:56:50.453Z</time>
      </trkpt>
      <trkpt lat="44.46997" lon="6.23505">
        <ele>791.45</ele>
        <time>2024-10-24T10:56:52.418Z</time>
      </trkpt>
      <trkpt lat="44.46987" lon="6.23507">
        <ele>789.54</ele>
        <time>2024-10-24T10:56:54.459Z</time>
      </trkpt>
      <trkpt lat="44.46977" lon="6.23505">
        <ele>787.8</ele>
        <time>2024-10-24T10:56:56.868Z</time>
      </trkpt>
      <trkpt lat="44.46969" lon="6.23503">
        <ele>786.05</ele>
        <time>2024-10-24T10:56:58.856Z</time>
      </trkpt>
      <trkpt lat="44.46965" lon="6.23515">
        <ele>784.56</ele>
        <time>2024-10-24T10:57:00.857Z</time>
      </trkpt>
      <trkpt lat="44.46965" lon="6.23532">
        <ele>782.84</ele>
        <time>2024-10-24T10:57:02.856Z</time>
      </trkpt>
      <trkpt lat="44.46967" lon="6.23548">
        <ele>781.4</ele>
        <time>2024-10-24T10:57:04.858Z</time>
      </trkpt>
      <trkpt lat="44.46962" lon="6.2356">
        <ele>779.64</ele>
        <time>2024-10-24T10:57:06.855Z</time>
      </trkpt>
      <trkpt lat="44.46953" lon="6.23559">
        <ele>778</ele>
        <time>2024-10-24T10:57:08.858Z</time>
      </trkpt>
      <trkpt lat="44.46947" lon="6.23561">
        <ele>776.31</ele>
        <time>2024-10-24T10:57:10.958Z</time>
      </trkpt>
      <trkpt lat="44.46941" lon="6.23554">
        <ele>774.94</ele>
        <time>2024-10-24T10:57:12.957Z</time>
      </trkpt>
      <trkpt lat="44.46933" lon="6.23557">
        <ele>773.24</ele>
        <time>2024-10-24T10:57:14.955Z</time>
      </trkpt>
      <trkpt lat="44.46925" lon="6.2356">
        <ele>771.4</ele>
        <time>2024-10-24T10:57:16.955Z</time>
      </trkpt>
      <trkpt lat="44.46914" lon="6.23572">
        <ele>769.53</ele>
        <time>2024-10-24T10:57:18.956Z</time>
      </trkpt>
      <trkpt lat="44.46908" lon="6.23576">
        <ele>767.74</ele>
        <time>2024-10-24T10:57:20.958Z</time>
      </trkpt>
      <trkpt lat="44.46903" lon="6.23578">
        <ele>765.81</ele>
        <time>2024-10-24T10:57:22.956Z</time>
      </trkpt>
      <trkpt lat="44.46896" lon="6.23584">
        <ele>763.96</ele>
        <time>2024-10-24T10:57:24.494Z</time>
      </trkpt>
      <trkpt lat="44.46893" lon="6.23582">
        <ele>762.14</ele>
        <time>2024-10-24T10:57:26.957Z</time>
      </trkpt>
      <trkpt lat="44.46894" lon="6.23584">
        <ele>762.14</ele>
        <time>2024-10-24T10:59:28.952Z</time>
      </trkpt>
      <trkpt lat="44.46893" lon="6.23571">
        <ele>762.14</ele>
        <time>2024-10-24T10:59:32.340Z</time>
      </trkpt>
      <trkpt lat="44.46896" lon="6.23563">
        <ele>762.14</ele>
        <time>2024-10-24T10:59:34.341Z</time>
      </trkpt>
      <trkpt lat="44.46899" lon="6.23555">
        <ele>762.14</ele>
        <time>2024-10-24T10:59:36.340Z</time>
      </trkpt>
      <trkpt lat="44.46901" lon="6.23547">
        <ele>762.14</ele>
        <time>2024-10-24T10:59:38.328Z</time>
      </trkpt>
      <trkpt lat="44.46894" lon="6.23543">
        <ele>762.14</ele>
        <time>2024-10-24T10:59:40.341Z</time>
      </trkpt>
      <trkpt lat="44.46884" lon="6.2355">
        <ele>762.14</ele>
        <time>2024-10-24T10:59:42.340Z</time>
      </trkpt>
      <trkpt lat="44.46876" lon="6.23561">
        <ele>762.14</ele>
        <time>2024-10-24T10:59:44.342Z</time>
      </trkpt>
      <trkpt lat="44.46871" lon="6.23566">
        <ele>762.14</ele>
        <time>2024-10-24T10:59:46.341Z</time>
      </trkpt>
      <trkpt lat="44.4687" lon="6.2356">
        <ele>762.14</ele>
        <time>2024-10-24T10:59:47.379Z</time>
      </trkpt>
      <trkpt lat="44.46873" lon="6.2355">
        <ele>762.14</ele>
        <time>2024-10-24T10:59:50.340Z</time>
      </trkpt>
      <trkpt lat="44.46877" lon="6.23538">
        <ele>762.14</ele>
        <time>2024-10-24T10:59:52.340Z</time>
      </trkpt>
      <trkpt lat="44.46883" lon="6.23523">
        <ele>762.14</ele>
        <time>2024-10-24T10:59:54.342Z</time>
      </trkpt>
      <trkpt lat="44.46889" lon="6.23507">
        <ele>762.14</ele>
        <time>2024-10-24T10:59:56.341Z</time>
      </trkpt>
      <trkpt lat="44.46897" lon="6.23488">
        <ele>762.14</ele>
        <time>2024-10-24T10:59:58.342Z</time>
      </trkpt>
      <trkpt lat="44.46903" lon="6.23466">
        <ele>739.08</ele>
        <time>2024-10-24T11:00:00.340Z</time>
      </trkpt>
      <trkpt lat="44.46902" lon="6.23439">
        <ele>738.59</ele>
        <time>2024-10-24T11:00:02.341Z</time>
      </trkpt>
      <trkpt lat="44.46897" lon="6.23414">
        <ele>737.99</ele>
        <time>2024-10-24T11:00:04.341Z</time>
      </trkpt>
      <trkpt lat="44.46894" lon="6.23394">
        <ele>737.37</ele>
        <time>2024-10-24T11:00:06.342Z</time>
      </trkpt>
      <trkpt lat="44.46893" lon="6.2337">
        <ele>736.63</ele>
        <time>2024-10-24T11:00:08.342Z</time>
      </trkpt>
      <trkpt lat="44.46893" lon="6.2335">
        <ele>735.77</ele>
        <time>2024-10-24T11:00:10.341Z</time>
      </trkpt>
      <trkpt lat="44.46892" lon="6.23334">
        <ele>734.91</ele>
        <time>2024-10-24T11:00:12.340Z</time>
      </trkpt>
      <trkpt lat="44.46892" lon="6.23322">
        <ele>733.88</ele>
        <time>2024-10-24T11:00:14.340Z</time>
      </trkpt>
      <trkpt lat="44.46892" lon="6.23314">
        <ele>732.78</ele>
        <time>2024-10-24T11:00:16.342Z</time>
      </trkpt>
      <trkpt lat="44.46893" lon="6.23312">
        <ele>731.7</ele>
        <time>2024-10-24T11:00:18.342Z</time>
      </trkpt>
      <trkpt lat="44.46892" lon="6.23314">
        <ele>731.7</ele>
        <time>2024-10-24T11:00:31.932Z</time>
      </trkpt>
      <trkpt lat="44.46885" lon="6.23308">
        <ele>731.7</ele>
        <time>2024-10-24T11:00:33.610Z</time>
      </trkpt>
      <trkpt lat="44.46891" lon="6.23303">
        <ele>731.7</ele>
        <time>2024-10-24T11:00:36.718Z</time>
      </trkpt>
      <trkpt lat="44.46899" lon="6.23302">
        <ele>731.7</ele>
        <time>2024-10-24T11:00:40.589Z</time>
      </trkpt>
      <trkpt lat="44.46901" lon="6.23303">
        <ele>731.7</ele>
        <time>2024-10-24T11:00:50.946Z</time>
      </trkpt>
    </trkseg>
  </trk>
</gpx>